<?xml version='1.0' encoding='UTF-8'?>
<gpx version="1.1" creator="https://www.komoot.de" xmlns="http://www.topografix.com/GPX/1/1" xmlns:xsi="http://www.w3.org/2001/XMLSchema-instance" xsi:schemaLocation="http://www.topografix.com/GPX/1/1 http://www.topografix.com/GPX/1/1/gpx.xsd">
  <metadata>
    <name>Abschlusstour 2024 Gruppe 2 v1</name>
    <author>
      <link href="https://www.komoot.de">
        <text>komoot</text>
        <type>text/html</type>
      </link>
    </author>
  </metadata>
  <trk>
    <name>Abschlusstour 2024 Gruppe 2 v1</name>
    <trkseg>
      <trkpt lat="47.541499" lon="7.872208">
        <ele>339.611430</ele>
        <time>2024-10-16T12:06:44.057Z</time>
      </trkpt>
      <trkpt lat="47.541949" lon="7.872113">
        <ele>339.611430</ele>
        <time>2024-10-16T12:06:54.534Z</time>
      </trkpt>
      <trkpt lat="47.541962" lon="7.871899">
        <ele>339.611430</ele>
        <time>2024-10-16T12:06:57.076Z</time>
      </trkpt>
      <trkpt lat="47.542091" lon="7.871721">
        <ele>339.611430</ele>
        <time>2024-10-16T12:07:00.166Z</time>
      </trkpt>
      <trkpt lat="47.542218" lon="7.871866">
        <ele>339.732954</ele>
        <time>2024-10-16T12:07:03.557Z</time>
      </trkpt>
      <trkpt lat="47.542436" lon="7.872494">
        <ele>341.302659</ele>
        <time>2024-10-16T12:07:14.165Z</time>
      </trkpt>
      <trkpt lat="47.542814" lon="7.872280">
        <ele>342.635167</ele>
        <time>2024-10-16T12:07:24.403Z</time>
      </trkpt>
      <trkpt lat="47.542919" lon="7.872226">
        <ele>343.001163</ele>
        <time>2024-10-16T12:07:27.590Z</time>
      </trkpt>
      <trkpt lat="47.543233" lon="7.872083">
        <ele>344.082884</ele>
        <time>2024-10-16T12:07:37.176Z</time>
      </trkpt>
      <trkpt lat="47.543251" lon="7.872152">
        <ele>344.247312</ele>
        <time>2024-10-16T12:07:39.002Z</time>
      </trkpt>
      <trkpt lat="47.543332" lon="7.872237">
        <ele>344.574174</ele>
        <time>2024-10-16T12:07:42.197Z</time>
      </trkpt>
      <trkpt lat="47.544390" lon="7.872423">
        <ele>350.512436</ele>
        <time>2024-10-16T12:08:22.853Z</time>
      </trkpt>
      <trkpt lat="47.544883" lon="7.872555">
        <ele>353.735176</ele>
        <time>2024-10-16T12:08:44.462Z</time>
      </trkpt>
      <trkpt lat="47.545300" lon="7.872760">
        <ele>356.561482</ele>
        <time>2024-10-16T12:09:03.659Z</time>
      </trkpt>
      <trkpt lat="47.545479" lon="7.872968">
        <ele>357.974874</ele>
        <time>2024-10-16T12:09:13.373Z</time>
      </trkpt>
      <trkpt lat="47.545515" lon="7.873015">
        <ele>358.266771</ele>
        <time>2024-10-16T12:09:15.489Z</time>
      </trkpt>
      <trkpt lat="47.546077" lon="7.873763">
        <ele>362.862557</ele>
        <time>2024-10-16T12:09:46.970Z</time>
      </trkpt>
      <trkpt lat="47.546135" lon="7.873860">
        <ele>363.394649</ele>
        <time>2024-10-16T12:09:50.442Z</time>
      </trkpt>
      <trkpt lat="47.546309" lon="7.874154">
        <ele>365.000166</ele>
        <time>2024-10-16T12:10:00.932Z</time>
      </trkpt>
      <trkpt lat="47.547126" lon="7.875801">
        <ele>371.254639</ele>
        <time>2024-10-16T12:10:47.041Z</time>
      </trkpt>
      <trkpt lat="47.547574" lon="7.876801">
        <ele>374.212138</ele>
        <time>2024-10-16T12:11:10.501Z</time>
      </trkpt>
      <trkpt lat="47.547992" lon="7.877974">
        <ele>373.890344</ele>
        <time>2024-10-16T12:11:26.435Z</time>
      </trkpt>
      <trkpt lat="47.548234" lon="7.878638">
        <ele>373.422466</ele>
        <time>2024-10-16T12:11:32.090Z</time>
      </trkpt>
      <trkpt lat="47.548422" lon="7.878959">
        <ele>373.158961</ele>
        <time>2024-10-16T12:11:35.096Z</time>
      </trkpt>
      <trkpt lat="47.548524" lon="7.879079">
        <ele>373.039317</ele>
        <time>2024-10-16T12:11:36.423Z</time>
      </trkpt>
      <trkpt lat="47.548718" lon="7.879258">
        <ele>372.346876</ele>
        <time>2024-10-16T12:11:38.713Z</time>
      </trkpt>
      <trkpt lat="47.548907" lon="7.879350">
        <ele>371.488624</ele>
        <time>2024-10-16T12:11:40.649Z</time>
      </trkpt>
      <trkpt lat="47.549315" lon="7.879410">
        <ele>369.719808</ele>
        <time>2024-10-16T12:11:44.541Z</time>
      </trkpt>
      <trkpt lat="47.549329" lon="7.879567">
        <ele>369.258675</ele>
        <time>2024-10-16T12:11:45.558Z</time>
      </trkpt>
      <trkpt lat="47.549724" lon="7.880784">
        <ele>365.326533</ele>
        <time>2024-10-16T12:11:54.171Z</time>
      </trkpt>
      <trkpt lat="47.549927" lon="7.881490">
        <ele>363.474952</ele>
        <time>2024-10-16T12:11:59.311Z</time>
      </trkpt>
      <trkpt lat="47.550151" lon="7.882605">
        <ele>360.702783</ele>
        <time>2024-10-16T12:12:07.402Z</time>
      </trkpt>
      <trkpt lat="47.550234" lon="7.883221">
        <ele>359.205937</ele>
        <time>2024-10-16T12:12:11.641Z</time>
      </trkpt>
      <trkpt lat="47.550311" lon="7.884508">
        <ele>355.554294</ele>
        <time>2024-10-16T12:12:20.136Z</time>
      </trkpt>
      <trkpt lat="47.550391" lon="7.885090">
        <ele>353.841248</ele>
        <time>2024-10-16T12:12:24.000Z</time>
      </trkpt>
      <trkpt lat="47.550677" lon="7.886476">
        <ele>349.333953</ele>
        <time>2024-10-16T12:12:33.359Z</time>
      </trkpt>
      <trkpt lat="47.550789" lon="7.887816">
        <ele>344.591886</ele>
        <time>2024-10-16T12:12:41.895Z</time>
      </trkpt>
      <trkpt lat="47.550831" lon="7.888611">
        <ele>341.789816</ele>
        <time>2024-10-16T12:12:46.875Z</time>
      </trkpt>
      <trkpt lat="47.550834" lon="7.889069">
        <ele>340.007434</ele>
        <time>2024-10-16T12:12:49.731Z</time>
      </trkpt>
      <trkpt lat="47.550916" lon="7.890600">
        <ele>334.030852</ele>
        <time>2024-10-16T12:12:59.247Z</time>
      </trkpt>
      <trkpt lat="47.550908" lon="7.891733">
        <ele>330.326137</ele>
        <time>2024-10-16T12:13:06.297Z</time>
      </trkpt>
      <trkpt lat="47.550892" lon="7.893176">
        <ele>326.892661</ele>
        <time>2024-10-16T12:13:15.800Z</time>
      </trkpt>
      <trkpt lat="47.550908" lon="7.894308">
        <ele>324.854575</ele>
        <time>2024-10-16T12:13:24.915Z</time>
      </trkpt>
      <trkpt lat="47.550878" lon="7.895158">
        <ele>324.312203</ele>
        <time>2024-10-16T12:13:32.635Z</time>
      </trkpt>
      <trkpt lat="47.550804" lon="7.895718">
        <ele>323.948588</ele>
        <time>2024-10-16T12:13:37.787Z</time>
      </trkpt>
      <trkpt lat="47.550639" lon="7.896346">
        <ele>323.519165</ele>
        <time>2024-10-16T12:13:43.558Z</time>
      </trkpt>
      <trkpt lat="47.550788" lon="7.897656">
        <ele>321.150131</ele>
        <time>2024-10-16T12:13:53.613Z</time>
      </trkpt>
      <trkpt lat="47.550820" lon="7.898109">
        <ele>320.249265</ele>
        <time>2024-10-16T12:13:56.751Z</time>
      </trkpt>
      <trkpt lat="47.550804" lon="7.899909">
        <ele>316.082316</ele>
        <time>2024-10-16T12:14:08.452Z</time>
      </trkpt>
      <trkpt lat="47.550804" lon="7.900247">
        <ele>315.131585</ele>
        <time>2024-10-16T12:14:10.634Z</time>
      </trkpt>
      <trkpt lat="47.550769" lon="7.901362">
        <ele>311.991906</ele>
        <time>2024-10-16T12:14:17.909Z</time>
      </trkpt>
      <trkpt lat="47.550731" lon="7.902062">
        <ele>310.086362</ele>
        <time>2024-10-16T12:14:22.587Z</time>
      </trkpt>
      <trkpt lat="47.550688" lon="7.902451">
        <ele>309.103821</ele>
        <time>2024-10-16T12:14:25.257Z</time>
      </trkpt>
      <trkpt lat="47.550498" lon="7.903445">
        <ele>306.528724</ele>
        <time>2024-10-16T12:14:32.542Z</time>
      </trkpt>
      <trkpt lat="47.550235" lon="7.904352">
        <ele>304.068109</ele>
        <time>2024-10-16T12:14:38.897Z</time>
      </trkpt>
      <trkpt lat="47.549869" lon="7.905024">
        <ele>301.854995</ele>
        <time>2024-10-16T12:14:44.460Z</time>
      </trkpt>
      <trkpt lat="47.549868" lon="7.905180">
        <ele>301.454726</ele>
        <time>2024-10-16T12:14:45.494Z</time>
      </trkpt>
      <trkpt lat="47.550067" lon="7.905245">
        <ele>300.680093</ele>
        <time>2024-10-16T12:14:47.441Z</time>
      </trkpt>
      <trkpt lat="47.550283" lon="7.905413">
        <ele>299.752740</ele>
        <time>2024-10-16T12:14:49.832Z</time>
      </trkpt>
      <trkpt lat="47.550497" lon="7.905558">
        <ele>298.858220</ele>
        <time>2024-10-16T12:14:52.188Z</time>
      </trkpt>
      <trkpt lat="47.549539" lon="7.908625">
        <ele>292.841924</ele>
        <time>2024-10-16T12:15:16.303Z</time>
      </trkpt>
      <trkpt lat="47.549490" lon="7.908790">
        <ele>292.697165</ele>
        <time>2024-10-16T12:15:17.758Z</time>
      </trkpt>
      <trkpt lat="47.549095" lon="7.910076">
        <ele>291.562552</ele>
        <time>2024-10-16T12:15:29.257Z</time>
      </trkpt>
      <trkpt lat="47.548399" lon="7.912201">
        <ele>290.082261</ele>
        <time>2024-10-16T12:15:49.128Z</time>
      </trkpt>
      <trkpt lat="47.548025" lon="7.913326">
        <ele>289.465232</ele>
        <time>2024-10-16T12:15:59.928Z</time>
      </trkpt>
      <trkpt lat="47.547420" lon="7.915079">
        <ele>288.932578</ele>
        <time>2024-10-16T12:16:17.726Z</time>
      </trkpt>
      <trkpt lat="47.547291" lon="7.915475">
        <ele>288.817298</ele>
        <time>2024-10-16T12:16:21.906Z</time>
      </trkpt>
      <trkpt lat="47.547095" lon="7.916075">
        <ele>288.772234</ele>
        <time>2024-10-16T12:16:28.358Z</time>
      </trkpt>
      <trkpt lat="47.547045" lon="7.916223">
        <ele>288.792211</ele>
        <time>2024-10-16T12:16:30.012Z</time>
      </trkpt>
      <trkpt lat="47.546831" lon="7.916877">
        <ele>288.879936</ele>
        <time>2024-10-16T12:16:37.358Z</time>
      </trkpt>
      <trkpt lat="47.546581" lon="7.917778">
        <ele>288.997519</ele>
        <time>2024-10-16T12:16:48.085Z</time>
      </trkpt>
      <trkpt lat="47.546293" lon="7.918960">
        <ele>289.132463</ele>
        <time>2024-10-16T12:17:02.145Z</time>
      </trkpt>
      <trkpt lat="47.546128" lon="7.919617">
        <ele>289.202358</ele>
        <time>2024-10-16T12:17:09.475Z</time>
      </trkpt>
      <trkpt lat="47.546115" lon="7.919678">
        <ele>289.208736</ele>
        <time>2024-10-16T12:17:10.145Z</time>
      </trkpt>
      <trkpt lat="47.545913" lon="7.920765">
        <ele>289.322786</ele>
        <time>2024-10-16T12:17:20.748Z</time>
      </trkpt>
      <trkpt lat="47.545854" lon="7.921356">
        <ele>289.421644</ele>
        <time>2024-10-16T12:17:27.169Z</time>
      </trkpt>
      <trkpt lat="47.545810" lon="7.921755">
        <ele>289.488543</ele>
        <time>2024-10-16T12:17:31.589Z</time>
      </trkpt>
      <trkpt lat="47.545703" lon="7.922333">
        <ele>289.587718</ele>
        <time>2024-10-16T12:17:38.027Z</time>
      </trkpt>
      <trkpt lat="47.545587" lon="7.922895">
        <ele>289.684964</ele>
        <time>2024-10-16T12:17:44.374Z</time>
      </trkpt>
      <trkpt lat="47.545536" lon="7.923407">
        <ele>289.800139</ele>
        <time>2024-10-16T12:17:49.921Z</time>
      </trkpt>
      <trkpt lat="47.545482" lon="7.924396">
        <ele>290.404865</ele>
        <time>2024-10-16T12:18:01.292Z</time>
      </trkpt>
      <trkpt lat="47.545417" lon="7.925848">
        <ele>291.291748</ele>
        <time>2024-10-16T12:18:20.995Z</time>
      </trkpt>
      <trkpt lat="47.545409" lon="7.926773">
        <ele>291.784804</ele>
        <time>2024-10-16T12:18:32.997Z</time>
      </trkpt>
      <trkpt lat="47.545431" lon="7.927698">
        <ele>292.264352</ele>
        <time>2024-10-16T12:18:44.143Z</time>
      </trkpt>
      <trkpt lat="47.545475" lon="7.928419">
        <ele>292.639432</ele>
        <time>2024-10-16T12:18:52.789Z</time>
      </trkpt>
      <trkpt lat="47.545584" lon="7.929957">
        <ele>292.754142</ele>
        <time>2024-10-16T12:19:08.845Z</time>
      </trkpt>
      <trkpt lat="47.545700" lon="7.931499">
        <ele>292.826084</ele>
        <time>2024-10-16T12:19:22.976Z</time>
      </trkpt>
      <trkpt lat="47.545735" lon="7.932388">
        <ele>293.206903</ele>
        <time>2024-10-16T12:19:32.351Z</time>
      </trkpt>
      <trkpt lat="47.545710" lon="7.933292">
        <ele>293.593814</ele>
        <time>2024-10-16T12:19:43.213Z</time>
      </trkpt>
      <trkpt lat="47.545631" lon="7.934088">
        <ele>294.117497</ele>
        <time>2024-10-16T12:19:53.967Z</time>
      </trkpt>
      <trkpt lat="47.545556" lon="7.934600">
        <ele>295.077941</ele>
        <time>2024-10-16T12:20:01.727Z</time>
      </trkpt>
      <trkpt lat="47.545389" lon="7.935411">
        <ele>296.632308</ele>
        <time>2024-10-16T12:20:17.133Z</time>
      </trkpt>
      <trkpt lat="47.545074" lon="7.936484">
        <ele>298.775456</ele>
        <time>2024-10-16T12:20:39.714Z</time>
      </trkpt>
      <trkpt lat="47.544705" lon="7.937395">
        <ele>300.331752</ele>
        <time>2024-10-16T12:20:58.645Z</time>
      </trkpt>
      <trkpt lat="47.543826" lon="7.939433">
        <ele>303.012636</ele>
        <time>2024-10-16T12:21:33.404Z</time>
      </trkpt>
      <trkpt lat="47.543606" lon="7.940055">
        <ele>303.304460</ele>
        <time>2024-10-16T12:21:40.648Z</time>
      </trkpt>
      <trkpt lat="47.543435" lon="7.940670">
        <ele>303.580874</ele>
        <time>2024-10-16T12:21:47.528Z</time>
      </trkpt>
      <trkpt lat="47.543306" lon="7.941257">
        <ele>303.737951</ele>
        <time>2024-10-16T12:21:54.033Z</time>
      </trkpt>
      <trkpt lat="47.543161" lon="7.942214">
        <ele>303.456140</ele>
        <time>2024-10-16T12:22:04.110Z</time>
      </trkpt>
      <trkpt lat="47.543007" lon="7.943867">
        <ele>302.823394</ele>
        <time>2024-10-16T12:22:19.109Z</time>
      </trkpt>
      <trkpt lat="47.542908" lon="7.945508">
        <ele>300.353052</ele>
        <time>2024-10-16T12:22:31.000Z</time>
      </trkpt>
      <trkpt lat="47.542905" lon="7.946011">
        <ele>299.598818</ele>
        <time>2024-10-16T12:22:34.534Z</time>
      </trkpt>
      <trkpt lat="47.542942" lon="7.946511">
        <ele>298.860056</ele>
        <time>2024-10-16T12:22:38.035Z</time>
      </trkpt>
      <trkpt lat="47.542941" lon="7.946728">
        <ele>298.563674</ele>
        <time>2024-10-16T12:22:39.575Z</time>
      </trkpt>
      <trkpt lat="47.542987" lon="7.946992">
        <ele>298.191289</ele>
        <time>2024-10-16T12:22:41.482Z</time>
      </trkpt>
      <trkpt lat="47.543080" lon="7.947332">
        <ele>297.690249</ele>
        <time>2024-10-16T12:22:44.060Z</time>
      </trkpt>
      <trkpt lat="47.543191" lon="7.947615">
        <ele>297.243223</ele>
        <time>2024-10-16T12:22:46.301Z</time>
      </trkpt>
      <trkpt lat="47.543269" lon="7.947734">
        <ele>297.016682</ele>
        <time>2024-10-16T12:22:47.552Z</time>
      </trkpt>
      <trkpt lat="47.543579" lon="7.948287">
        <ele>296.034932</ele>
        <time>2024-10-16T12:22:53.109Z</time>
      </trkpt>
      <trkpt lat="47.543760" lon="7.948549">
        <ele>295.522922</ele>
        <time>2024-10-16T12:22:56.185Z</time>
      </trkpt>
      <trkpt lat="47.544239" lon="7.949202">
        <ele>295.433469</ele>
        <time>2024-10-16T12:23:04.464Z</time>
      </trkpt>
      <trkpt lat="47.544521" lon="7.949558">
        <ele>295.468484</ele>
        <time>2024-10-16T12:23:10.272Z</time>
      </trkpt>
      <trkpt lat="47.545166" lon="7.950366">
        <ele>295.548312</ele>
        <time>2024-10-16T12:23:24.683Z</time>
      </trkpt>
      <trkpt lat="47.545434" lon="7.950668">
        <ele>295.912443</ele>
        <time>2024-10-16T12:23:31.501Z</time>
      </trkpt>
      <trkpt lat="47.545542" lon="7.950842">
        <ele>296.086784</ele>
        <time>2024-10-16T12:23:34.804Z</time>
      </trkpt>
      <trkpt lat="47.545737" lon="7.951056">
        <ele>296.351941</ele>
        <time>2024-10-16T12:23:39.418Z</time>
      </trkpt>
      <trkpt lat="47.545876" lon="7.951233">
        <ele>296.552213</ele>
        <time>2024-10-16T12:23:42.535Z</time>
      </trkpt>
      <trkpt lat="47.546124" lon="7.951497">
        <ele>296.885889</ele>
        <time>2024-10-16T12:23:48.195Z</time>
      </trkpt>
      <trkpt lat="47.546212" lon="7.951535">
        <ele>296.986043</ele>
        <time>2024-10-16T12:23:50.066Z</time>
      </trkpt>
      <trkpt lat="47.546393" lon="7.951759">
        <ele>297.243736</ele>
        <time>2024-10-16T12:23:54.891Z</time>
      </trkpt>
      <trkpt lat="47.546421" lon="7.951793">
        <ele>297.283294</ele>
        <time>2024-10-16T12:23:55.642Z</time>
      </trkpt>
      <trkpt lat="47.546634" lon="7.952024">
        <ele>297.563838</ele>
        <time>2024-10-16T12:24:01.276Z</time>
      </trkpt>
      <trkpt lat="47.546695" lon="7.952091">
        <ele>297.635488</ele>
        <time>2024-10-16T12:24:02.678Z</time>
      </trkpt>
      <trkpt lat="47.546776" lon="7.952185">
        <ele>297.732572</ele>
        <time>2024-10-16T12:24:04.745Z</time>
      </trkpt>
      <trkpt lat="47.547090" lon="7.952543">
        <ele>298.106423</ele>
        <time>2024-10-16T12:24:12.508Z</time>
      </trkpt>
      <trkpt lat="47.547411" lon="7.952894">
        <ele>298.482865</ele>
        <time>2024-10-16T12:24:20.180Z</time>
      </trkpt>
      <trkpt lat="47.547473" lon="7.952964">
        <ele>298.556417</ele>
        <time>2024-10-16T12:24:21.597Z</time>
      </trkpt>
      <trkpt lat="47.547561" lon="7.953064">
        <ele>298.661061</ele>
        <time>2024-10-16T12:24:23.693Z</time>
      </trkpt>
      <trkpt lat="47.547630" lon="7.953142">
        <ele>298.742954</ele>
        <time>2024-10-16T12:24:25.252Z</time>
      </trkpt>
      <trkpt lat="47.547800" lon="7.953335">
        <ele>298.945038</ele>
        <time>2024-10-16T12:24:28.722Z</time>
      </trkpt>
      <trkpt lat="47.547883" lon="7.953429">
        <ele>299.043614</ele>
        <time>2024-10-16T12:24:30.582Z</time>
      </trkpt>
      <trkpt lat="47.548268" lon="7.953890">
        <ele>299.291216</ele>
        <time>2024-10-16T12:24:38.888Z</time>
      </trkpt>
      <trkpt lat="47.548833" lon="7.954652">
        <ele>299.484061</ele>
        <time>2024-10-16T12:24:51.118Z</time>
      </trkpt>
      <trkpt lat="47.549042" lon="7.954942">
        <ele>299.556336</ele>
        <time>2024-10-16T12:24:55.631Z</time>
      </trkpt>
      <trkpt lat="47.549157" lon="7.955099">
        <ele>299.595807</ele>
        <time>2024-10-16T12:24:58.064Z</time>
      </trkpt>
      <trkpt lat="47.549444" lon="7.955496">
        <ele>299.635684</ele>
        <time>2024-10-16T12:25:03.992Z</time>
      </trkpt>
      <trkpt lat="47.549986" lon="7.956241">
        <ele>299.452201</ele>
        <time>2024-10-16T12:25:14.186Z</time>
      </trkpt>
      <trkpt lat="47.550380" lon="7.956806">
        <ele>299.316121</ele>
        <time>2024-10-16T12:25:21.617Z</time>
      </trkpt>
      <trkpt lat="47.550445" lon="7.956918">
        <ele>299.291378</ele>
        <time>2024-10-16T12:25:23.052Z</time>
      </trkpt>
      <trkpt lat="47.550550" lon="7.957126">
        <ele>299.247871</ele>
        <time>2024-10-16T12:25:25.396Z</time>
      </trkpt>
      <trkpt lat="47.550582" lon="7.957191">
        <ele>299.234395</ele>
        <time>2024-10-16T12:25:26.136Z</time>
      </trkpt>
      <trkpt lat="47.550773" lon="7.957642">
        <ele>299.189588</ele>
        <time>2024-10-16T12:25:31.122Z</time>
      </trkpt>
      <trkpt lat="47.550869" lon="7.957700">
        <ele>299.179402</ele>
        <time>2024-10-16T12:25:32.687Z</time>
      </trkpt>
      <trkpt lat="47.550977" lon="7.957908">
        <ele>299.162000</ele>
        <time>2024-10-16T12:25:35.157Z</time>
      </trkpt>
      <trkpt lat="47.551510" lon="7.959496">
        <ele>299.044393</ele>
        <time>2024-10-16T12:25:52.419Z</time>
      </trkpt>
      <trkpt lat="47.551677" lon="7.960101">
        <ele>299.138607</ele>
        <time>2024-10-16T12:25:59.318Z</time>
      </trkpt>
      <trkpt lat="47.551847" lon="7.960451">
        <ele>299.206176</ele>
        <time>2024-10-16T12:26:03.893Z</time>
      </trkpt>
      <trkpt lat="47.551866" lon="7.960539">
        <ele>299.220654</ele>
        <time>2024-10-16T12:26:04.935Z</time>
      </trkpt>
      <trkpt lat="47.551882" lon="7.960631">
        <ele>299.235541</ele>
        <time>2024-10-16T12:26:06.297Z</time>
      </trkpt>
      <trkpt lat="47.551894" lon="7.960729">
        <ele>299.251147</ele>
        <time>2024-10-16T12:26:07.704Z</time>
      </trkpt>
      <trkpt lat="47.551902" lon="7.960875">
        <ele>299.274100</ele>
        <time>2024-10-16T12:26:09.275Z</time>
      </trkpt>
      <trkpt lat="47.551859" lon="7.961133">
        <ele>299.315742</ele>
        <time>2024-10-16T12:26:12.199Z</time>
      </trkpt>
      <trkpt lat="47.551906" lon="7.962453">
        <ele>299.575673</ele>
        <time>2024-10-16T12:26:26.548Z</time>
      </trkpt>
      <trkpt lat="47.551918" lon="7.963725">
        <ele>299.941226</ele>
        <time>2024-10-16T12:26:40.689Z</time>
      </trkpt>
      <trkpt lat="47.551902" lon="7.964650">
        <ele>300.207118</ele>
        <time>2024-10-16T12:26:50.999Z</time>
      </trkpt>
      <trkpt lat="47.551767" lon="7.967911">
        <ele>301.240084</ele>
        <time>2024-10-16T12:27:28.085Z</time>
      </trkpt>
      <trkpt lat="47.551848" lon="7.968315">
        <ele>301.343677</ele>
        <time>2024-10-16T12:27:32.800Z</time>
      </trkpt>
      <trkpt lat="47.551750" lon="7.968659">
        <ele>301.435457</ele>
        <time>2024-10-16T12:27:36.933Z</time>
      </trkpt>
      <trkpt lat="47.551734" lon="7.970034">
        <ele>301.769267</ele>
        <time>2024-10-16T12:27:51.928Z</time>
      </trkpt>
      <trkpt lat="47.551726" lon="7.970823">
        <ele>301.887340</ele>
        <time>2024-10-16T12:28:00.355Z</time>
      </trkpt>
      <trkpt lat="47.551793" lon="7.974325">
        <ele>302.309144</ele>
        <time>2024-10-16T12:28:37.376Z</time>
      </trkpt>
      <trkpt lat="47.551874" lon="7.978932">
        <ele>301.905008</ele>
        <time>2024-10-16T12:29:23.426Z</time>
      </trkpt>
      <trkpt lat="47.551884" lon="7.979122">
        <ele>301.806421</ele>
        <time>2024-10-16T12:29:25.233Z</time>
      </trkpt>
      <trkpt lat="47.551923" lon="7.979309">
        <ele>301.705171</ele>
        <time>2024-10-16T12:29:26.970Z</time>
      </trkpt>
      <trkpt lat="47.551931" lon="7.979586">
        <ele>301.561745</ele>
        <time>2024-10-16T12:29:29.429Z</time>
      </trkpt>
      <trkpt lat="47.551873" lon="7.980136">
        <ele>301.273773</ele>
        <time>2024-10-16T12:29:34.061Z</time>
      </trkpt>
      <trkpt lat="47.551867" lon="7.980573">
        <ele>301.047662</ele>
        <time>2024-10-16T12:29:37.545Z</time>
      </trkpt>
      <trkpt lat="47.551889" lon="7.983251">
        <ele>296.260616</ele>
        <time>2024-10-16T12:29:56.274Z</time>
      </trkpt>
      <trkpt lat="47.551912" lon="7.983632">
        <ele>295.647799</ele>
        <time>2024-10-16T12:29:58.831Z</time>
      </trkpt>
      <trkpt lat="47.551994" lon="7.983816">
        <ele>295.300729</ele>
        <time>2024-10-16T12:30:00.346Z</time>
      </trkpt>
      <trkpt lat="47.552006" lon="7.983917">
        <ele>295.139304</ele>
        <time>2024-10-16T12:30:01.040Z</time>
      </trkpt>
      <trkpt lat="47.551943" lon="7.984187">
        <ele>294.689624</ele>
        <time>2024-10-16T12:30:03.029Z</time>
      </trkpt>
      <trkpt lat="47.551938" lon="7.984242">
        <ele>294.602269</ele>
        <time>2024-10-16T12:30:03.420Z</time>
      </trkpt>
      <trkpt lat="47.551943" lon="7.984688">
        <ele>293.900139</ele>
        <time>2024-10-16T12:30:06.542Z</time>
      </trkpt>
      <trkpt lat="47.551939" lon="7.985151">
        <ele>293.171286</ele>
        <time>2024-10-16T12:30:09.843Z</time>
      </trkpt>
      <trkpt lat="47.551899" lon="7.985654">
        <ele>292.374054</ele>
        <time>2024-10-16T12:30:13.597Z</time>
      </trkpt>
      <trkpt lat="47.551915" lon="7.986209">
        <ele>292.380359</ele>
        <time>2024-10-16T12:30:18.286Z</time>
      </trkpt>
      <trkpt lat="47.551938" lon="7.986422">
        <ele>292.656624</ele>
        <time>2024-10-16T12:30:20.479Z</time>
      </trkpt>
      <trkpt lat="47.552025" lon="7.986689">
        <ele>293.036344</ele>
        <time>2024-10-16T12:30:23.636Z</time>
      </trkpt>
      <trkpt lat="47.552225" lon="7.986975">
        <ele>293.563792</ele>
        <time>2024-10-16T12:30:29.392Z</time>
      </trkpt>
      <trkpt lat="47.552430" lon="7.987265">
        <ele>294.101631</ele>
        <time>2024-10-16T12:30:36.640Z</time>
      </trkpt>
      <trkpt lat="47.552504" lon="7.987369">
        <ele>294.295175</ele>
        <time>2024-10-16T12:30:39.569Z</time>
      </trkpt>
      <trkpt lat="47.552867" lon="7.987810">
        <ele>295.185947</ele>
        <time>2024-10-16T12:30:54.036Z</time>
      </trkpt>
      <trkpt lat="47.553209" lon="7.988219">
        <ele>296.641654</ele>
        <time>2024-10-16T12:31:07.595Z</time>
      </trkpt>
      <trkpt lat="47.553343" lon="7.988401">
        <ele>297.331611</ele>
        <time>2024-10-16T12:31:13.293Z</time>
      </trkpt>
      <trkpt lat="47.553410" lon="7.988607">
        <ele>297.917389</ele>
        <time>2024-10-16T12:31:18.194Z</time>
      </trkpt>
      <trkpt lat="47.553424" lon="7.988762">
        <ele>298.317983</ele>
        <time>2024-10-16T12:31:21.367Z</time>
      </trkpt>
      <trkpt lat="47.553400" lon="7.988952">
        <ele>298.813146</ele>
        <time>2024-10-16T12:31:25.644Z</time>
      </trkpt>
      <trkpt lat="47.553253" lon="7.989578">
        <ele>300.511027</ele>
        <time>2024-10-16T12:31:39.691Z</time>
      </trkpt>
      <trkpt lat="47.553163" lon="7.990005">
        <ele>301.656952</ele>
        <time>2024-10-16T12:31:48.540Z</time>
      </trkpt>
      <trkpt lat="47.553146" lon="7.990113">
        <ele>301.941035</ele>
        <time>2024-10-16T12:31:50.669Z</time>
      </trkpt>
      <trkpt lat="47.553066" lon="7.990564">
        <ele>302.532969</ele>
        <time>2024-10-16T12:31:59.339Z</time>
      </trkpt>
      <trkpt lat="47.553049" lon="7.990840">
        <ele>302.772970</ele>
        <time>2024-10-16T12:32:03.750Z</time>
      </trkpt>
      <trkpt lat="47.553084" lon="7.991802">
        <ele>303.607240</ele>
        <time>2024-10-16T12:32:16.432Z</time>
      </trkpt>
      <trkpt lat="47.553107" lon="7.992226">
        <ele>303.975594</ele>
        <time>2024-10-16T12:32:20.890Z</time>
      </trkpt>
      <trkpt lat="47.553130" lon="7.993014">
        <ele>304.535534</ele>
        <time>2024-10-16T12:32:29.152Z</time>
      </trkpt>
      <trkpt lat="47.553156" lon="7.993696">
        <ele>304.547245</ele>
        <time>2024-10-16T12:32:36.186Z</time>
      </trkpt>
      <trkpt lat="47.553165" lon="7.993925">
        <ele>304.551178</ele>
        <time>2024-10-16T12:32:38.618Z</time>
      </trkpt>
      <trkpt lat="47.553233" lon="7.995329">
        <ele>304.575309</ele>
        <time>2024-10-16T12:32:52.826Z</time>
      </trkpt>
      <trkpt lat="47.553268" lon="7.996252">
        <ele>304.405514</ele>
        <time>2024-10-16T12:33:01.385Z</time>
      </trkpt>
      <trkpt lat="47.553279" lon="7.996528">
        <ele>304.339411</ele>
        <time>2024-10-16T12:33:03.820Z</time>
      </trkpt>
      <trkpt lat="47.553287" lon="7.997190">
        <ele>304.181109</ele>
        <time>2024-10-16T12:33:09.809Z</time>
      </trkpt>
      <trkpt lat="47.553278" lon="7.999508">
        <ele>303.670363</ele>
        <time>2024-10-16T12:33:31.172Z</time>
      </trkpt>
      <trkpt lat="47.553272" lon="8.002109">
        <ele>302.917461</ele>
        <time>2024-10-16T12:33:55.623Z</time>
      </trkpt>
      <trkpt lat="47.553270" lon="8.002465">
        <ele>302.782417</ele>
        <time>2024-10-16T12:33:58.880Z</time>
      </trkpt>
      <trkpt lat="47.553257" lon="8.004837">
        <ele>301.958083</ele>
        <time>2024-10-16T12:34:18.431Z</time>
      </trkpt>
      <trkpt lat="47.553251" lon="8.005657">
        <ele>301.694067</ele>
        <time>2024-10-16T12:34:25.857Z</time>
      </trkpt>
      <trkpt lat="47.553211" lon="8.006270">
        <ele>301.573903</ele>
        <time>2024-10-16T12:34:32.658Z</time>
      </trkpt>
      <trkpt lat="47.553173" lon="8.006642">
        <ele>301.794446</ele>
        <time>2024-10-16T12:34:37.243Z</time>
      </trkpt>
      <trkpt lat="47.553084" lon="8.007154">
        <ele>302.104366</ele>
        <time>2024-10-16T12:34:43.730Z</time>
      </trkpt>
      <trkpt lat="47.552935" lon="8.007851">
        <ele>302.532942</ele>
        <time>2024-10-16T12:34:53.205Z</time>
      </trkpt>
      <trkpt lat="47.552743" lon="8.008400">
        <ele>302.895397</ele>
        <time>2024-10-16T12:35:01.884Z</time>
      </trkpt>
      <trkpt lat="47.552604" lon="8.008677">
        <ele>303.089201</ele>
        <time>2024-10-16T12:35:06.636Z</time>
      </trkpt>
      <trkpt lat="47.551275" lon="8.010934">
        <ele>303.583959</ele>
        <time>2024-10-16T12:35:37.585Z</time>
      </trkpt>
      <trkpt lat="47.550962" lon="8.011503">
        <ele>303.670769</ele>
        <time>2024-10-16T12:35:44.476Z</time>
      </trkpt>
      <trkpt lat="47.550565" lon="8.012461">
        <ele>303.803716</ele>
        <time>2024-10-16T12:35:56.246Z</time>
      </trkpt>
      <trkpt lat="47.549871" lon="8.014427">
        <ele>304.907778</ele>
        <time>2024-10-16T12:36:22.411Z</time>
      </trkpt>
      <trkpt lat="47.549795" lon="8.014667">
        <ele>305.065708</ele>
        <time>2024-10-16T12:36:25.958Z</time>
      </trkpt>
      <trkpt lat="47.549507" lon="8.015615">
        <ele>305.703403</ele>
        <time>2024-10-16T12:36:40.612Z</time>
      </trkpt>
      <trkpt lat="47.549353" lon="8.016516">
        <ele>306.299505</ele>
        <time>2024-10-16T12:36:52.405Z</time>
      </trkpt>
      <trkpt lat="47.549288" lon="8.017201">
        <ele>306.743155</ele>
        <time>2024-10-16T12:37:00.915Z</time>
      </trkpt>
      <trkpt lat="47.549274" lon="8.017402">
        <ele>306.872752</ele>
        <time>2024-10-16T12:37:03.916Z</time>
      </trkpt>
      <trkpt lat="47.549199" lon="8.017419">
        <ele>306.944848</ele>
        <time>2024-10-16T12:37:05.759Z</time>
      </trkpt>
      <trkpt lat="47.549133" lon="8.017551">
        <ele>307.050206</ele>
        <time>2024-10-16T12:37:08.498Z</time>
      </trkpt>
      <trkpt lat="47.549160" lon="8.017702">
        <ele>307.150392</ele>
        <time>2024-10-16T12:37:10.819Z</time>
      </trkpt>
      <trkpt lat="47.549256" lon="8.017769">
        <ele>307.184924</ele>
        <time>2024-10-16T12:37:13.162Z</time>
      </trkpt>
      <trkpt lat="47.549260" lon="8.017957">
        <ele>307.223056</ele>
        <time>2024-10-16T12:37:16.273Z</time>
      </trkpt>
      <trkpt lat="47.549186" lon="8.021006">
        <ele>307.671813</ele>
        <time>2024-10-16T12:37:48.479Z</time>
      </trkpt>
      <trkpt lat="47.549192" lon="8.021436">
        <ele>307.658353</ele>
        <time>2024-10-16T12:37:52.591Z</time>
      </trkpt>
      <trkpt lat="47.549228" lon="8.022766">
        <ele>307.616696</ele>
        <time>2024-10-16T12:38:04.894Z</time>
      </trkpt>
      <trkpt lat="47.549323" lon="8.024323">
        <ele>307.871488</ele>
        <time>2024-10-16T12:38:21.212Z</time>
      </trkpt>
      <trkpt lat="47.549436" lon="8.026046">
        <ele>308.349607</ele>
        <time>2024-10-16T12:38:40.719Z</time>
      </trkpt>
      <trkpt lat="47.549445" lon="8.027599">
        <ele>309.166973</ele>
        <time>2024-10-16T12:38:59.881Z</time>
      </trkpt>
      <trkpt lat="47.549424" lon="8.028244">
        <ele>309.506827</ele>
        <time>2024-10-16T12:39:07.779Z</time>
      </trkpt>
      <trkpt lat="47.549415" lon="8.028481">
        <ele>309.659019</ele>
        <time>2024-10-16T12:39:10.613Z</time>
      </trkpt>
      <trkpt lat="47.549403" lon="8.028902">
        <ele>309.932371</ele>
        <time>2024-10-16T12:39:16.002Z</time>
      </trkpt>
      <trkpt lat="47.549382" lon="8.030797">
        <ele>311.161849</ele>
        <time>2024-10-16T12:39:40.732Z</time>
      </trkpt>
      <trkpt lat="47.549377" lon="8.031121">
        <ele>311.326508</ele>
        <time>2024-10-16T12:39:44.506Z</time>
      </trkpt>
      <trkpt lat="47.549371" lon="8.031883">
        <ele>311.645951</ele>
        <time>2024-10-16T12:39:53.304Z</time>
      </trkpt>
      <trkpt lat="47.549367" lon="8.032544">
        <ele>311.923045</ele>
        <time>2024-10-16T12:40:01.068Z</time>
      </trkpt>
      <trkpt lat="47.549364" lon="8.032869">
        <ele>312.059294</ele>
        <time>2024-10-16T12:40:04.913Z</time>
      </trkpt>
      <trkpt lat="47.549380" lon="8.033606">
        <ele>312.362197</ele>
        <time>2024-10-16T12:40:13.645Z</time>
      </trkpt>
      <trkpt lat="47.549386" lon="8.033799">
        <ele>312.380937</ele>
        <time>2024-10-16T12:40:15.667Z</time>
      </trkpt>
      <trkpt lat="47.549407" lon="8.034164">
        <ele>312.416469</ele>
        <time>2024-10-16T12:40:19.409Z</time>
      </trkpt>
      <trkpt lat="47.549442" lon="8.034585">
        <ele>312.457613</ele>
        <time>2024-10-16T12:40:23.361Z</time>
      </trkpt>
      <trkpt lat="47.549555" lon="8.035288">
        <ele>312.527708</ele>
        <time>2024-10-16T12:40:30.472Z</time>
      </trkpt>
      <trkpt lat="47.549753" lon="8.036077">
        <ele>312.609356</ele>
        <time>2024-10-16T12:40:39.305Z</time>
      </trkpt>
      <trkpt lat="47.549984" lon="8.036788">
        <ele>312.899845</ele>
        <time>2024-10-16T12:40:48.091Z</time>
      </trkpt>
      <trkpt lat="47.550424" lon="8.037957">
        <ele>313.443730</ele>
        <time>2024-10-16T12:41:03.649Z</time>
      </trkpt>
      <trkpt lat="47.550511" lon="8.038176">
        <ele>313.546989</ele>
        <time>2024-10-16T12:41:06.637Z</time>
      </trkpt>
      <trkpt lat="47.550732" lon="8.038754">
        <ele>313.909023</ele>
        <time>2024-10-16T12:41:14.839Z</time>
      </trkpt>
      <trkpt lat="47.550986" lon="8.039430">
        <ele>314.474626</ele>
        <time>2024-10-16T12:41:24.792Z</time>
      </trkpt>
      <trkpt lat="47.551163" lon="8.039909">
        <ele>314.873839</ele>
        <time>2024-10-16T12:41:32.155Z</time>
      </trkpt>
      <trkpt lat="47.551615" lon="8.041118">
        <ele>315.828643</ele>
        <time>2024-10-16T12:41:50.635Z</time>
      </trkpt>
      <trkpt lat="47.552844" lon="8.044355">
        <ele>317.878202</ele>
        <time>2024-10-16T12:42:35.157Z</time>
      </trkpt>
      <trkpt lat="47.553620" lon="8.046372">
        <ele>319.057669</ele>
        <time>2024-10-16T12:43:03.939Z</time>
      </trkpt>
      <trkpt lat="47.553996" lon="8.047558">
        <ele>319.667587</ele>
        <time>2024-10-16T12:43:19.585Z</time>
      </trkpt>
      <trkpt lat="47.554274" lon="8.048572">
        <ele>319.527806</ele>
        <time>2024-10-16T12:43:31.016Z</time>
      </trkpt>
      <trkpt lat="47.554413" lon="8.049128">
        <ele>319.301341</ele>
        <time>2024-10-16T12:43:36.509Z</time>
      </trkpt>
      <trkpt lat="47.554866" lon="8.051005">
        <ele>318.314882</ele>
        <time>2024-10-16T12:43:52.654Z</time>
      </trkpt>
      <trkpt lat="47.555128" lon="8.051762">
        <ele>317.711361</ele>
        <time>2024-10-16T12:43:59.373Z</time>
      </trkpt>
      <trkpt lat="47.555279" lon="8.052104">
        <ele>317.421437</ele>
        <time>2024-10-16T12:44:02.631Z</time>
      </trkpt>
      <trkpt lat="47.555527" lon="8.052572">
        <ele>316.999322</ele>
        <time>2024-10-16T12:44:07.558Z</time>
      </trkpt>
      <trkpt lat="47.555774" lon="8.053071">
        <ele>316.983466</ele>
        <time>2024-10-16T12:44:13.145Z</time>
      </trkpt>
      <trkpt lat="47.555891" lon="8.053286">
        <ele>317.023386</ele>
        <time>2024-10-16T12:44:15.822Z</time>
      </trkpt>
      <trkpt lat="47.555912" lon="8.053320">
        <ele>317.030048</ele>
        <time>2024-10-16T12:44:16.316Z</time>
      </trkpt>
      <trkpt lat="47.556239" lon="8.053780">
        <ele>317.126616</ele>
        <time>2024-10-16T12:44:23.618Z</time>
      </trkpt>
      <trkpt lat="47.556494" lon="8.054073">
        <ele>317.195726</ele>
        <time>2024-10-16T12:44:29.315Z</time>
      </trkpt>
      <trkpt lat="47.557097" lon="8.054768">
        <ele>317.447764</ele>
        <time>2024-10-16T12:44:42.940Z</time>
      </trkpt>
      <trkpt lat="47.557500" lon="8.055133">
        <ele>317.692553</ele>
        <time>2024-10-16T12:44:51.087Z</time>
      </trkpt>
      <trkpt lat="47.557710" lon="8.055283">
        <ele>317.813375</ele>
        <time>2024-10-16T12:44:55.134Z</time>
      </trkpt>
      <trkpt lat="47.558012" lon="8.055477">
        <ele>317.983967</ele>
        <time>2024-10-16T12:45:00.771Z</time>
      </trkpt>
      <trkpt lat="47.558447" lon="8.055831">
        <ele>318.230648</ele>
        <time>2024-10-16T12:45:08.597Z</time>
      </trkpt>
      <trkpt lat="47.558662" lon="8.056061">
        <ele>318.246740</ele>
        <time>2024-10-16T12:45:12.592Z</time>
      </trkpt>
      <trkpt lat="47.558967" lon="8.056477">
        <ele>318.271897</ele>
        <time>2024-10-16T12:45:18.666Z</time>
      </trkpt>
      <trkpt lat="47.559294" lon="8.057130">
        <ele>318.305199</ele>
        <time>2024-10-16T12:45:26.467Z</time>
      </trkpt>
      <trkpt lat="47.559447" lon="8.057490">
        <ele>318.322623</ele>
        <time>2024-10-16T12:45:30.803Z</time>
      </trkpt>
      <trkpt lat="47.559584" lon="8.057975">
        <ele>318.341553</ele>
        <time>2024-10-16T12:45:36.525Z</time>
      </trkpt>
      <trkpt lat="47.559654" lon="8.058257">
        <ele>318.348286</ele>
        <time>2024-10-16T12:45:39.869Z</time>
      </trkpt>
      <trkpt lat="47.559725" lon="8.058554">
        <ele>318.355347</ele>
        <time>2024-10-16T12:45:43.286Z</time>
      </trkpt>
      <trkpt lat="47.559856" lon="8.059094">
        <ele>318.368207</ele>
        <time>2024-10-16T12:45:49.403Z</time>
      </trkpt>
      <trkpt lat="47.559958" lon="8.059490">
        <ele>318.377705</ele>
        <time>2024-10-16T12:45:53.732Z</time>
      </trkpt>
      <trkpt lat="47.560022" lon="8.059739">
        <ele>318.383676</ele>
        <time>2024-10-16T12:45:56.349Z</time>
      </trkpt>
      <trkpt lat="47.560077" lon="8.059954">
        <ele>318.388829</ele>
        <time>2024-10-16T12:45:58.569Z</time>
      </trkpt>
      <trkpt lat="47.560210" lon="8.060474">
        <ele>318.343520</ele>
        <time>2024-10-16T12:46:03.703Z</time>
      </trkpt>
      <trkpt lat="47.560307" lon="8.060856">
        <ele>318.185106</ele>
        <time>2024-10-16T12:46:07.331Z</time>
      </trkpt>
      <trkpt lat="47.560502" lon="8.061651">
        <ele>317.856794</ele>
        <time>2024-10-16T12:46:14.765Z</time>
      </trkpt>
      <trkpt lat="47.560772" lon="8.062745">
        <ele>317.404678</ele>
        <time>2024-10-16T12:46:24.810Z</time>
      </trkpt>
      <trkpt lat="47.560924" lon="8.063368">
        <ele>317.160081</ele>
        <time>2024-10-16T12:46:30.591Z</time>
      </trkpt>
      <trkpt lat="47.561318" lon="8.064977">
        <ele>316.534249</ele>
        <time>2024-10-16T12:46:46.142Z</time>
      </trkpt>
      <trkpt lat="47.561491" lon="8.065757">
        <ele>316.083573</ele>
        <time>2024-10-16T12:46:53.476Z</time>
      </trkpt>
      <trkpt lat="47.561577" lon="8.066329">
        <ele>315.661317</ele>
        <time>2024-10-16T12:46:58.251Z</time>
      </trkpt>
      <trkpt lat="47.561658" lon="8.067188">
        <ele>315.036358</ele>
        <time>2024-10-16T12:47:05.117Z</time>
      </trkpt>
      <trkpt lat="47.561678" lon="8.067656">
        <ele>314.698470</ele>
        <time>2024-10-16T12:47:08.847Z</time>
      </trkpt>
      <trkpt lat="47.561666" lon="8.068004">
        <ele>314.446610</ele>
        <time>2024-10-16T12:47:11.606Z</time>
      </trkpt>
      <trkpt lat="47.561615" lon="8.068423">
        <ele>314.128422</ele>
        <time>2024-10-16T12:47:15.010Z</time>
      </trkpt>
      <trkpt lat="47.561500" lon="8.068915">
        <ele>313.739297</ele>
        <time>2024-10-16T12:47:19.268Z</time>
      </trkpt>
      <trkpt lat="47.561013" lon="8.070908">
        <ele>312.493652</ele>
        <time>2024-10-16T12:47:36.448Z</time>
      </trkpt>
      <trkpt lat="47.560962" lon="8.071117">
        <ele>312.502521</ele>
        <time>2024-10-16T12:47:38.164Z</time>
      </trkpt>
      <trkpt lat="47.560898" lon="8.071377">
        <ele>312.513565</ele>
        <time>2024-10-16T12:47:41.077Z</time>
      </trkpt>
      <trkpt lat="47.560633" lon="8.072458">
        <ele>312.559460</ele>
        <time>2024-10-16T12:47:53.673Z</time>
      </trkpt>
      <trkpt lat="47.560558" lon="8.072793">
        <ele>312.573544</ele>
        <time>2024-10-16T12:47:57.342Z</time>
      </trkpt>
      <trkpt lat="47.560453" lon="8.072826">
        <ele>312.579892</ele>
        <time>2024-10-16T12:48:00.246Z</time>
      </trkpt>
      <trkpt lat="47.560411" lon="8.072914">
        <ele>312.616426</ele>
        <time>2024-10-16T12:48:01.237Z</time>
      </trkpt>
      <trkpt lat="47.560409" lon="8.073021">
        <ele>312.723898</ele>
        <time>2024-10-16T12:48:02.406Z</time>
      </trkpt>
      <trkpt lat="47.560479" lon="8.073142">
        <ele>312.883916</ele>
        <time>2024-10-16T12:48:04.174Z</time>
      </trkpt>
      <trkpt lat="47.560379" lon="8.073391">
        <ele>313.174841</ele>
        <time>2024-10-16T12:48:08.873Z</time>
      </trkpt>
      <trkpt lat="47.559994" lon="8.074697">
        <ele>314.605753</ele>
        <time>2024-10-16T12:48:28.615Z</time>
      </trkpt>
      <trkpt lat="47.559808" lon="8.075183">
        <ele>315.166723</ele>
        <time>2024-10-16T12:48:36.879Z</time>
      </trkpt>
      <trkpt lat="47.559611" lon="8.075613">
        <ele>315.710624</ele>
        <time>2024-10-16T12:48:45.360Z</time>
      </trkpt>
      <trkpt lat="47.559345" lon="8.076106">
        <ele>316.376943</ele>
        <time>2024-10-16T12:48:55.167Z</time>
      </trkpt>
      <trkpt lat="47.558362" lon="8.077795">
        <ele>318.006825</ele>
        <time>2024-10-16T12:49:25.487Z</time>
      </trkpt>
      <trkpt lat="47.557881" lon="8.078672">
        <ele>317.887770</ele>
        <time>2024-10-16T12:49:37.587Z</time>
      </trkpt>
      <trkpt lat="47.557351" lon="8.079829">
        <ele>316.853188</ele>
        <time>2024-10-16T12:49:48.401Z</time>
      </trkpt>
      <trkpt lat="47.557070" lon="8.080546">
        <ele>315.256201</ele>
        <time>2024-10-16T12:49:54.115Z</time>
      </trkpt>
      <trkpt lat="47.556795" lon="8.081398">
        <ele>313.437132</ele>
        <time>2024-10-16T12:50:00.411Z</time>
      </trkpt>
      <trkpt lat="47.556390" lon="8.082983">
        <ele>310.406969</ele>
        <time>2024-10-16T12:50:12.151Z</time>
      </trkpt>
      <trkpt lat="47.556222" lon="8.083826">
        <ele>308.873471</ele>
        <time>2024-10-16T12:50:18.447Z</time>
      </trkpt>
      <trkpt lat="47.556057" lon="8.084941">
        <ele>307.511338</ele>
        <time>2024-10-16T12:50:27.072Z</time>
      </trkpt>
      <trkpt lat="47.555975" lon="8.085736">
        <ele>306.892050</ele>
        <time>2024-10-16T12:50:33.733Z</time>
      </trkpt>
      <trkpt lat="47.555945" lon="8.086317">
        <ele>306.443350</ele>
        <time>2024-10-16T12:50:38.607Z</time>
      </trkpt>
      <trkpt lat="47.555956" lon="8.086948">
        <ele>305.957293</ele>
        <time>2024-10-16T12:50:43.880Z</time>
      </trkpt>
      <trkpt lat="47.555996" lon="8.087530">
        <ele>305.949645</ele>
        <time>2024-10-16T12:50:48.858Z</time>
      </trkpt>
      <trkpt lat="47.556115" lon="8.088303">
        <ele>305.940599</ele>
        <time>2024-10-16T12:50:56.143Z</time>
      </trkpt>
      <trkpt lat="47.556194" lon="8.088671">
        <ele>305.936194</ele>
        <time>2024-10-16T12:51:00.077Z</time>
      </trkpt>
      <trkpt lat="47.556318" lon="8.089138">
        <ele>305.930468</ele>
        <time>2024-10-16T12:51:05.736Z</time>
      </trkpt>
      <trkpt lat="47.556469" lon="8.089602">
        <ele>306.057386</ele>
        <time>2024-10-16T12:51:12.064Z</time>
      </trkpt>
      <trkpt lat="47.556635" lon="8.089990">
        <ele>306.584717</ele>
        <time>2024-10-16T12:51:18.120Z</time>
      </trkpt>
      <trkpt lat="47.557288" lon="8.091430">
        <ele>308.576140</ele>
        <time>2024-10-16T12:51:44.088Z</time>
      </trkpt>
      <trkpt lat="47.558025" lon="8.093157">
        <ele>311.161157</ele>
        <time>2024-10-16T12:52:17.206Z</time>
      </trkpt>
      <trkpt lat="47.558708" lon="8.094584">
        <ele>313.206456</ele>
        <time>2024-10-16T12:52:41.492Z</time>
      </trkpt>
      <trkpt lat="47.558983" lon="8.095144">
        <ele>313.910037</ele>
        <time>2024-10-16T12:52:50.404Z</time>
      </trkpt>
      <trkpt lat="47.559114" lon="8.095409">
        <ele>314.243750</ele>
        <time>2024-10-16T12:52:54.324Z</time>
      </trkpt>
      <trkpt lat="47.559741" lon="8.096683">
        <ele>316.073025</ele>
        <time>2024-10-16T12:53:18.740Z</time>
      </trkpt>
      <trkpt lat="47.560083" lon="8.097307">
        <ele>317.149444</ele>
        <time>2024-10-16T12:53:32.549Z</time>
      </trkpt>
      <trkpt lat="47.560858" lon="8.098563">
        <ele>318.487036</ele>
        <time>2024-10-16T12:53:57.225Z</time>
      </trkpt>
      <trkpt lat="47.561039" lon="8.098829">
        <ele>318.339398</ele>
        <time>2024-10-16T12:54:01.886Z</time>
      </trkpt>
      <trkpt lat="47.561127" lon="8.098951">
        <ele>318.269605</ele>
        <time>2024-10-16T12:54:03.738Z</time>
      </trkpt>
      <trkpt lat="47.561592" lon="8.099565">
        <ele>317.908892</ele>
        <time>2024-10-16T12:54:11.934Z</time>
      </trkpt>
      <trkpt lat="47.561718" lon="8.099691">
        <ele>317.820857</ele>
        <time>2024-10-16T12:54:13.498Z</time>
      </trkpt>
      <trkpt lat="47.562145" lon="8.100120">
        <ele>317.171017</ele>
        <time>2024-10-16T12:54:18.556Z</time>
      </trkpt>
      <trkpt lat="47.562705" lon="8.100521">
        <ele>315.880383</ele>
        <time>2024-10-16T12:54:25.125Z</time>
      </trkpt>
      <trkpt lat="47.563429" lon="8.100948">
        <ele>314.263370</ele>
        <time>2024-10-16T12:54:33.789Z</time>
      </trkpt>
      <trkpt lat="47.563523" lon="8.101003">
        <ele>314.053653</ele>
        <time>2024-10-16T12:54:35.091Z</time>
      </trkpt>
      <trkpt lat="47.563889" lon="8.101212">
        <ele>313.886174</ele>
        <time>2024-10-16T12:54:39.899Z</time>
      </trkpt>
      <trkpt lat="47.566087" lon="8.102477">
        <ele>313.739122</ele>
        <time>2024-10-16T12:55:17.046Z</time>
      </trkpt>
      <trkpt lat="47.566484" lon="8.102674">
        <ele>313.752202</ele>
        <time>2024-10-16T12:55:23.205Z</time>
      </trkpt>
      <trkpt lat="47.566938" lon="8.102829">
        <ele>313.766757</ele>
        <time>2024-10-16T12:55:29.876Z</time>
      </trkpt>
      <trkpt lat="47.567238" lon="8.102932">
        <ele>313.585745</ele>
        <time>2024-10-16T12:55:34.276Z</time>
      </trkpt>
      <trkpt lat="47.567440" lon="8.102984">
        <ele>313.454343</ele>
        <time>2024-10-16T12:55:37.150Z</time>
      </trkpt>
      <trkpt lat="47.568726" lon="8.103272">
        <ele>312.620782</ele>
        <time>2024-10-16T12:55:53.321Z</time>
      </trkpt>
      <trkpt lat="47.569351" lon="8.103344">
        <ele>312.058493</ele>
        <time>2024-10-16T12:56:01.164Z</time>
      </trkpt>
      <trkpt lat="47.569721" lon="8.103339">
        <ele>311.725162</ele>
        <time>2024-10-16T12:56:06.425Z</time>
      </trkpt>
      <trkpt lat="47.569910" lon="8.103355">
        <ele>311.554623</ele>
        <time>2024-10-16T12:56:09.419Z</time>
      </trkpt>
      <trkpt lat="47.570124" lon="8.103450">
        <ele>311.353378</ele>
        <time>2024-10-16T12:56:11.857Z</time>
      </trkpt>
      <trkpt lat="47.570296" lon="8.103577">
        <ele>311.180268</ele>
        <time>2024-10-16T12:56:14.306Z</time>
      </trkpt>
      <trkpt lat="47.570397" lon="8.103700">
        <ele>311.062509</ele>
        <time>2024-10-16T12:56:15.568Z</time>
      </trkpt>
      <trkpt lat="47.570863" lon="8.104204">
        <ele>310.565615</ele>
        <time>2024-10-16T12:56:22.630Z</time>
      </trkpt>
      <trkpt lat="47.571140" lon="8.104418">
        <ele>310.298413</ele>
        <time>2024-10-16T12:56:26.391Z</time>
      </trkpt>
      <trkpt lat="47.571165" lon="8.104498">
        <ele>310.247532</ele>
        <time>2024-10-16T12:56:27.440Z</time>
      </trkpt>
      <trkpt lat="47.571220" lon="8.104550">
        <ele>310.191728</ele>
        <time>2024-10-16T12:56:28.106Z</time>
      </trkpt>
      <trkpt lat="47.571285" lon="8.104548">
        <ele>310.136115</ele>
        <time>2024-10-16T12:56:28.787Z</time>
      </trkpt>
      <trkpt lat="47.571345" lon="8.104476">
        <ele>310.070079</ele>
        <time>2024-10-16T12:56:30.055Z</time>
      </trkpt>
      <trkpt lat="47.571606" lon="8.104456">
        <ele>309.846520</ele>
        <time>2024-10-16T12:56:33.435Z</time>
      </trkpt>
      <trkpt lat="47.572107" lon="8.104533">
        <ele>309.473199</ele>
        <time>2024-10-16T12:56:41.227Z</time>
      </trkpt>
      <trkpt lat="47.572480" lon="8.104548">
        <ele>309.610758</ele>
        <time>2024-10-16T12:56:45.949Z</time>
      </trkpt>
      <trkpt lat="47.572763" lon="8.104533">
        <ele>309.715153</ele>
        <time>2024-10-16T12:56:49.500Z</time>
      </trkpt>
      <trkpt lat="47.573366" lon="8.104434">
        <ele>309.938811</ele>
        <time>2024-10-16T12:57:00.202Z</time>
      </trkpt>
      <trkpt lat="47.573446" lon="8.104418">
        <ele>309.968570</ele>
        <time>2024-10-16T12:57:01.815Z</time>
      </trkpt>
      <trkpt lat="47.573480" lon="8.104411">
        <ele>309.981225</ele>
        <time>2024-10-16T12:57:02.474Z</time>
      </trkpt>
      <trkpt lat="47.573831" lon="8.104354">
        <ele>310.111396</ele>
        <time>2024-10-16T12:57:09.403Z</time>
      </trkpt>
      <trkpt lat="47.574531" lon="8.104313">
        <ele>310.877168</ele>
        <time>2024-10-16T12:57:23.432Z</time>
      </trkpt>
      <trkpt lat="47.574899" lon="8.104362">
        <ele>311.289114</ele>
        <time>2024-10-16T12:57:30.576Z</time>
      </trkpt>
      <trkpt lat="47.575487" lon="8.104563">
        <ele>311.961898</ele>
        <time>2024-10-16T12:57:41.654Z</time>
      </trkpt>
      <trkpt lat="47.576601" lon="8.105189">
        <ele>313.545830</ele>
        <time>2024-10-16T12:58:05.058Z</time>
      </trkpt>
      <trkpt lat="47.577112" lon="8.105471">
        <ele>314.287065</ele>
        <time>2024-10-16T12:58:16.432Z</time>
      </trkpt>
      <trkpt lat="47.577743" lon="8.105919">
        <ele>315.481183</ele>
        <time>2024-10-16T12:58:31.724Z</time>
      </trkpt>
      <trkpt lat="47.578068" lon="8.106263">
        <ele>316.221329</ele>
        <time>2024-10-16T12:58:40.641Z</time>
      </trkpt>
      <trkpt lat="47.578187" lon="8.106429">
        <ele>316.524182</ele>
        <time>2024-10-16T12:58:44.296Z</time>
      </trkpt>
      <trkpt lat="47.578500" lon="8.106957">
        <ele>317.403000</ele>
        <time>2024-10-16T12:58:55.263Z</time>
      </trkpt>
      <trkpt lat="47.579823" lon="8.109617">
        <ele>321.286792</ele>
        <time>2024-10-16T12:59:45.120Z</time>
      </trkpt>
      <trkpt lat="47.580364" lon="8.110708">
        <ele>322.097106</ele>
        <time>2024-10-16T13:00:01.590Z</time>
      </trkpt>
      <trkpt lat="47.580894" lon="8.111809">
        <ele>323.048018</ele>
        <time>2024-10-16T13:00:16.605Z</time>
      </trkpt>
      <trkpt lat="47.581182" lon="8.112552">
        <ele>323.995608</ele>
        <time>2024-10-16T13:00:27.571Z</time>
      </trkpt>
      <trkpt lat="47.581427" lon="8.113428">
        <ele>325.044237</ele>
        <time>2024-10-16T13:00:42.800Z</time>
      </trkpt>
      <trkpt lat="47.581610" lon="8.114392">
        <ele>326.262582</ele>
        <time>2024-10-16T13:00:59.232Z</time>
      </trkpt>
      <trkpt lat="47.581698" lon="8.115075">
        <ele>327.215593</ele>
        <time>2024-10-16T13:01:10.046Z</time>
      </trkpt>
      <trkpt lat="47.581747" lon="8.115421">
        <ele>327.700143</ele>
        <time>2024-10-16T13:01:15.866Z</time>
      </trkpt>
      <trkpt lat="47.582007" lon="8.117404">
        <ele>330.255221</ele>
        <time>2024-10-16T13:01:45.888Z</time>
      </trkpt>
      <trkpt lat="47.582058" lon="8.118074">
        <ele>331.004037</ele>
        <time>2024-10-16T13:01:54.056Z</time>
      </trkpt>
      <trkpt lat="47.582043" lon="8.118778">
        <ele>331.786279</ele>
        <time>2024-10-16T13:02:03.041Z</time>
      </trkpt>
      <trkpt lat="47.581925" lon="8.120891">
        <ele>335.037300</ele>
        <time>2024-10-16T13:02:41.215Z</time>
      </trkpt>
      <trkpt lat="47.581872" lon="8.121939">
        <ele>336.721195</ele>
        <time>2024-10-16T13:02:58.746Z</time>
      </trkpt>
      <trkpt lat="47.581696" lon="8.124547">
        <ele>337.447821</ele>
        <time>2024-10-16T13:03:28.782Z</time>
      </trkpt>
      <trkpt lat="47.581616" lon="8.126107">
        <ele>334.383668</ele>
        <time>2024-10-16T13:03:39.758Z</time>
      </trkpt>
      <trkpt lat="47.581636" lon="8.126607">
        <ele>333.397589</ele>
        <time>2024-10-16T13:03:43.094Z</time>
      </trkpt>
      <trkpt lat="47.581683" lon="8.126961">
        <ele>332.687299</ele>
        <time>2024-10-16T13:03:45.467Z</time>
      </trkpt>
      <trkpt lat="47.581776" lon="8.127376">
        <ele>331.790026</ele>
        <time>2024-10-16T13:03:48.312Z</time>
      </trkpt>
      <trkpt lat="47.581898" lon="8.127774">
        <ele>330.845692</ele>
        <time>2024-10-16T13:03:51.137Z</time>
      </trkpt>
      <trkpt lat="47.582054" lon="8.128175">
        <ele>329.845753</ele>
        <time>2024-10-16T13:03:54.137Z</time>
      </trkpt>
      <trkpt lat="47.582272" lon="8.128733">
        <ele>328.452840</ele>
        <time>2024-10-16T13:03:58.523Z</time>
      </trkpt>
      <trkpt lat="47.582324" lon="8.128934">
        <ele>327.987822</ele>
        <time>2024-10-16T13:04:00.016Z</time>
      </trkpt>
      <trkpt lat="47.582472" lon="8.129678">
        <ele>326.423012</ele>
        <time>2024-10-16T13:04:05.669Z</time>
      </trkpt>
      <trkpt lat="47.582512" lon="8.130204">
        <ele>326.268079</ele>
        <time>2024-10-16T13:04:10.016Z</time>
      </trkpt>
      <trkpt lat="47.582499" lon="8.130838">
        <ele>326.082425</ele>
        <time>2024-10-16T13:04:16.804Z</time>
      </trkpt>
      <trkpt lat="47.582401" lon="8.132729">
        <ele>325.148551</ele>
        <time>2024-10-16T13:04:35.958Z</time>
      </trkpt>
      <trkpt lat="47.582406" lon="8.133220">
        <ele>324.594222</ele>
        <time>2024-10-16T13:04:40.004Z</time>
      </trkpt>
      <trkpt lat="47.582496" lon="8.134282">
        <ele>323.385958</ele>
        <time>2024-10-16T13:04:47.992Z</time>
      </trkpt>
      <trkpt lat="47.582702" lon="8.135441">
        <ele>321.745954</ele>
        <time>2024-10-16T13:04:56.237Z</time>
      </trkpt>
      <trkpt lat="47.582880" lon="8.136138">
        <ele>320.513182</ele>
        <time>2024-10-16T13:05:01.292Z</time>
      </trkpt>
      <trkpt lat="47.583437" lon="8.137880">
        <ele>317.200909</ele>
        <time>2024-10-16T13:05:15.960Z</time>
      </trkpt>
      <trkpt lat="47.583479" lon="8.138010">
        <ele>316.930292</ele>
        <time>2024-10-16T13:05:16.941Z</time>
      </trkpt>
      <trkpt lat="47.583519" lon="8.138136">
        <ele>316.668848</ele>
        <time>2024-10-16T13:05:18.006Z</time>
      </trkpt>
      <trkpt lat="47.583842" lon="8.139086">
        <ele>314.671536</ele>
        <time>2024-10-16T13:05:25.261Z</time>
      </trkpt>
      <trkpt lat="47.584040" lon="8.139585">
        <ele>313.584636</ele>
        <time>2024-10-16T13:05:29.217Z</time>
      </trkpt>
      <trkpt lat="47.584156" lon="8.139467">
        <ele>313.186994</ele>
        <time>2024-10-16T13:05:30.632Z</time>
      </trkpt>
      <trkpt lat="47.584311" lon="8.139231">
        <ele>312.473964</ele>
        <time>2024-10-16T13:05:32.906Z</time>
      </trkpt>
      <trkpt lat="47.584490" lon="8.139043">
        <ele>311.769972</ele>
        <time>2024-10-16T13:05:35.124Z</time>
      </trkpt>
      <trkpt lat="47.584691" lon="8.138957">
        <ele>311.098592</ele>
        <time>2024-10-16T13:05:37.243Z</time>
      </trkpt>
      <trkpt lat="47.584884" lon="8.139016">
        <ele>310.466181</ele>
        <time>2024-10-16T13:05:39.194Z</time>
      </trkpt>
      <trkpt lat="47.584954" lon="8.139094">
        <ele>310.185159</ele>
        <time>2024-10-16T13:05:40.068Z</time>
      </trkpt>
      <trkpt lat="47.585181" lon="8.139336">
        <ele>309.287881</ele>
        <time>2024-10-16T13:05:42.770Z</time>
      </trkpt>
      <trkpt lat="47.585467" lon="8.139649">
        <ele>308.147064</ele>
        <time>2024-10-16T13:05:46.265Z</time>
      </trkpt>
      <trkpt lat="47.586399" lon="8.139340">
        <ele>306.921319</ele>
        <time>2024-10-16T13:05:57.079Z</time>
      </trkpt>
      <trkpt lat="47.588468" lon="8.138810">
        <ele>306.588922</ele>
        <time>2024-10-16T13:06:29.955Z</time>
      </trkpt>
      <trkpt lat="47.588674" lon="8.138876">
        <ele>306.677315</ele>
        <time>2024-10-16T13:06:33.597Z</time>
      </trkpt>
      <trkpt lat="47.588849" lon="8.139014">
        <ele>306.760448</ele>
        <time>2024-10-16T13:06:37.171Z</time>
      </trkpt>
      <trkpt lat="47.588898" lon="8.139007">
        <ele>306.781095</ele>
        <time>2024-10-16T13:06:38.043Z</time>
      </trkpt>
      <trkpt lat="47.589017" lon="8.139016">
        <ele>306.831070</ele>
        <time>2024-10-16T13:06:40.080Z</time>
      </trkpt>
      <trkpt lat="47.589021" lon="8.138902">
        <ele>306.863362</ele>
        <time>2024-10-16T13:06:41.598Z</time>
      </trkpt>
      <trkpt lat="47.589066" lon="8.137602">
        <ele>307.301526</ele>
        <time>2024-10-16T13:07:01.933Z</time>
      </trkpt>
      <trkpt lat="47.589114" lon="8.136219">
        <ele>307.777471</ele>
        <time>2024-10-16T13:07:22.327Z</time>
      </trkpt>
      <trkpt lat="47.589126" lon="8.135863">
        <ele>307.900096</ele>
        <time>2024-10-16T13:07:26.057Z</time>
      </trkpt>
      <trkpt lat="47.589657" lon="8.135893">
        <ele>308.171302</ele>
        <time>2024-10-16T13:07:34.056Z</time>
      </trkpt>
      <trkpt lat="47.589718" lon="8.135860">
        <ele>308.204443</ele>
        <time>2024-10-16T13:07:35.000Z</time>
      </trkpt>
      <trkpt lat="47.589742" lon="8.135758">
        <ele>308.241628</ele>
        <time>2024-10-16T13:07:36.116Z</time>
      </trkpt>
      <trkpt lat="47.589852" lon="8.134714">
        <ele>308.605348</ele>
        <time>2024-10-16T13:07:48.077Z</time>
      </trkpt>
      <trkpt lat="47.589882" lon="8.134609">
        <ele>308.644600</ele>
        <time>2024-10-16T13:07:49.578Z</time>
      </trkpt>
      <trkpt lat="47.589969" lon="8.134585">
        <ele>308.689764</ele>
        <time>2024-10-16T13:07:51.163Z</time>
      </trkpt>
      <trkpt lat="47.590674" lon="8.134716">
        <ele>310.407436</ele>
        <time>2024-10-16T13:08:05.794Z</time>
      </trkpt>
      <trkpt lat="47.591068" lon="8.134742">
        <ele>311.483981</ele>
        <time>2024-10-16T13:08:14.848Z</time>
      </trkpt>
      <trkpt lat="47.591106" lon="8.134698">
        <ele>311.615587</ele>
        <time>2024-10-16T13:08:16.176Z</time>
      </trkpt>
      <trkpt lat="47.591128" lon="8.134575">
        <ele>311.849848</ele>
        <time>2024-10-16T13:08:18.730Z</time>
      </trkpt>
      <trkpt lat="47.591225" lon="8.134501">
        <ele>312.147613</ele>
        <time>2024-10-16T13:08:21.839Z</time>
      </trkpt>
      <trkpt lat="47.591383" lon="8.134053">
        <ele>313.078302</ele>
        <time>2024-10-16T13:08:32.783Z</time>
      </trkpt>
      <trkpt lat="47.591563" lon="8.133853">
        <ele>313.718003</ele>
        <time>2024-10-16T13:08:40.062Z</time>
      </trkpt>
      <trkpt lat="47.592062" lon="8.133399">
        <ele>316.298187</ele>
        <time>2024-10-16T13:09:00.084Z</time>
      </trkpt>
      <trkpt lat="47.592571" lon="8.132886">
        <ele>319.010587</ele>
        <time>2024-10-16T13:09:21.004Z</time>
      </trkpt>
      <trkpt lat="47.592814" lon="8.132534">
        <ele>320.507752</ele>
        <time>2024-10-16T13:09:31.397Z</time>
      </trkpt>
      <trkpt lat="47.592836" lon="8.132464">
        <ele>320.737289</ele>
        <time>2024-10-16T13:09:32.920Z</time>
      </trkpt>
      <trkpt lat="47.592867" lon="8.132225">
        <ele>321.460663</ele>
        <time>2024-10-16T13:09:37.733Z</time>
      </trkpt>
      <trkpt lat="47.592852" lon="8.131926">
        <ele>322.100510</ele>
        <time>2024-10-16T13:09:44.029Z</time>
      </trkpt>
      <trkpt lat="47.592756" lon="8.131619">
        <ele>322.779912</ele>
        <time>2024-10-16T13:09:50.958Z</time>
      </trkpt>
      <trkpt lat="47.592645" lon="8.131446">
        <ele>323.259328</ele>
        <time>2024-10-16T13:09:55.781Z</time>
      </trkpt>
      <trkpt lat="47.592405" lon="8.131115">
        <ele>324.235100</ele>
        <time>2024-10-16T13:10:04.520Z</time>
      </trkpt>
      <trkpt lat="47.592287" lon="8.130897">
        <ele>324.796324</ele>
        <time>2024-10-16T13:10:09.024Z</time>
      </trkpt>
      <trkpt lat="47.592252" lon="8.130776">
        <ele>325.060662</ele>
        <time>2024-10-16T13:10:11.166Z</time>
      </trkpt>
      <trkpt lat="47.592229" lon="8.130561">
        <ele>325.497720</ele>
        <time>2024-10-16T13:10:14.506Z</time>
      </trkpt>
      <trkpt lat="47.592250" lon="8.130375">
        <ele>325.876354</ele>
        <time>2024-10-16T13:10:17.487Z</time>
      </trkpt>
      <trkpt lat="47.592436" lon="8.130059">
        <ele>326.718455</ele>
        <time>2024-10-16T13:10:24.201Z</time>
      </trkpt>
      <trkpt lat="47.592477" lon="8.130005">
        <ele>326.881711</ele>
        <time>2024-10-16T13:10:25.547Z</time>
      </trkpt>
      <trkpt lat="47.592515" lon="8.129957">
        <ele>327.040667</ele>
        <time>2024-10-16T13:10:26.821Z</time>
      </trkpt>
      <trkpt lat="47.592570" lon="8.129888">
        <ele>327.277727</ele>
        <time>2024-10-16T13:10:28.576Z</time>
      </trkpt>
      <trkpt lat="47.592628" lon="8.129938">
        <ele>327.498484</ele>
        <time>2024-10-16T13:10:30.211Z</time>
      </trkpt>
      <trkpt lat="47.592723" lon="8.129903">
        <ele>327.820583</ele>
        <time>2024-10-16T13:10:32.837Z</time>
      </trkpt>
      <trkpt lat="47.592762" lon="8.129755">
        <ele>328.173188</ele>
        <time>2024-10-16T13:10:35.763Z</time>
      </trkpt>
      <trkpt lat="47.592740" lon="8.129677">
        <ele>328.360805</ele>
        <time>2024-10-16T13:10:37.301Z</time>
      </trkpt>
      <trkpt lat="47.592695" lon="8.129625">
        <ele>328.548530</ele>
        <time>2024-10-16T13:10:38.782Z</time>
      </trkpt>
      <trkpt lat="47.592714" lon="8.129522">
        <ele>328.785491</ele>
        <time>2024-10-16T13:10:40.781Z</time>
      </trkpt>
      <trkpt lat="47.592772" lon="8.129274">
        <ele>329.367976</ele>
        <time>2024-10-16T13:10:46.004Z</time>
      </trkpt>
      <trkpt lat="47.592852" lon="8.128539">
        <ele>331.020106</ele>
        <time>2024-10-16T13:11:01.314Z</time>
      </trkpt>
      <trkpt lat="47.592922" lon="8.127820">
        <ele>332.632161</ele>
        <time>2024-10-16T13:11:16.098Z</time>
      </trkpt>
      <trkpt lat="47.593140" lon="8.126954">
        <ele>334.943210</ele>
        <time>2024-10-16T13:11:31.774Z</time>
      </trkpt>
      <trkpt lat="47.593181" lon="8.126824">
        <ele>335.306818</ele>
        <time>2024-10-16T13:11:34.720Z</time>
      </trkpt>
      <trkpt lat="47.593357" lon="8.126347">
        <ele>336.684408</ele>
        <time>2024-10-16T13:11:45.274Z</time>
      </trkpt>
      <trkpt lat="47.593433" lon="8.126176">
        <ele>337.203278</ele>
        <time>2024-10-16T13:11:49.256Z</time>
      </trkpt>
      <trkpt lat="47.593621" lon="8.125790">
        <ele>338.409628</ele>
        <time>2024-10-16T13:11:59.695Z</time>
      </trkpt>
      <trkpt lat="47.593722" lon="8.125617">
        <ele>338.989366</ele>
        <time>2024-10-16T13:12:04.808Z</time>
      </trkpt>
      <trkpt lat="47.593886" lon="8.125431">
        <ele>339.830540</ele>
        <time>2024-10-16T13:12:11.900Z</time>
      </trkpt>
      <trkpt lat="47.594170" lon="8.125246">
        <ele>341.481113</ele>
        <time>2024-10-16T13:12:22.556Z</time>
      </trkpt>
      <trkpt lat="47.594310" lon="8.125195">
        <ele>342.248213</ele>
        <time>2024-10-16T13:12:27.211Z</time>
      </trkpt>
      <trkpt lat="47.594464" lon="8.125189">
        <ele>343.067942</ele>
        <time>2024-10-16T13:12:32.624Z</time>
      </trkpt>
      <trkpt lat="47.594617" lon="8.125223">
        <ele>343.891157</ele>
        <time>2024-10-16T13:12:37.779Z</time>
      </trkpt>
      <trkpt lat="47.594845" lon="8.125359">
        <ele>345.198838</ele>
        <time>2024-10-16T13:12:46.533Z</time>
      </trkpt>
      <trkpt lat="47.595050" lon="8.125529">
        <ele>346.448644</ele>
        <time>2024-10-16T13:12:55.035Z</time>
      </trkpt>
      <trkpt lat="47.595421" lon="8.125954">
        <ele>348.943220</ele>
        <time>2024-10-16T13:13:13.451Z</time>
      </trkpt>
      <trkpt lat="47.595832" lon="8.126198">
        <ele>351.482671</ele>
        <time>2024-10-16T13:13:31.218Z</time>
      </trkpt>
      <trkpt lat="47.596125" lon="8.126323">
        <ele>353.245557</ele>
        <time>2024-10-16T13:13:44.075Z</time>
      </trkpt>
      <trkpt lat="47.596403" lon="8.126342">
        <ele>354.854700</ele>
        <time>2024-10-16T13:13:54.918Z</time>
      </trkpt>
      <trkpt lat="47.596618" lon="8.126296">
        <ele>356.110734</ele>
        <time>2024-10-16T13:14:02.556Z</time>
      </trkpt>
      <trkpt lat="47.596740" lon="8.126226">
        <ele>356.867118</ele>
        <time>2024-10-16T13:14:07.402Z</time>
      </trkpt>
      <trkpt lat="47.596880" lon="8.126116">
        <ele>357.783225</ele>
        <time>2024-10-16T13:14:12.815Z</time>
      </trkpt>
      <trkpt lat="47.597059" lon="8.125882">
        <ele>359.162974</ele>
        <time>2024-10-16T13:14:21.420Z</time>
      </trkpt>
      <trkpt lat="47.597375" lon="8.125573">
        <ele>361.218993</ele>
        <time>2024-10-16T13:14:34.935Z</time>
      </trkpt>
      <trkpt lat="47.597805" lon="8.125250">
        <ele>363.797637</ele>
        <time>2024-10-16T13:14:52.081Z</time>
      </trkpt>
      <trkpt lat="47.598115" lon="8.124635">
        <ele>366.567547</ele>
        <time>2024-10-16T13:15:12.119Z</time>
      </trkpt>
      <trkpt lat="47.598375" lon="8.124217">
        <ele>368.618993</ele>
        <time>2024-10-16T13:15:26.669Z</time>
      </trkpt>
      <trkpt lat="47.598525" lon="8.123540">
        <ele>371.230370</ele>
        <time>2024-10-16T13:15:42.012Z</time>
      </trkpt>
      <trkpt lat="47.598635" lon="8.123374">
        <ele>372.087128</ele>
        <time>2024-10-16T13:15:46.932Z</time>
      </trkpt>
      <trkpt lat="47.599035" lon="8.123170">
        <ele>374.396315</ele>
        <time>2024-10-16T13:16:01.253Z</time>
      </trkpt>
      <trkpt lat="47.599139" lon="8.123081">
        <ele>375.051816</ele>
        <time>2024-10-16T13:16:05.612Z</time>
      </trkpt>
      <trkpt lat="47.599225" lon="8.122931">
        <ele>375.776605</ele>
        <time>2024-10-16T13:16:10.688Z</time>
      </trkpt>
      <trkpt lat="47.599422" lon="8.122265">
        <ele>378.453778</ele>
        <time>2024-10-16T13:16:30.567Z</time>
      </trkpt>
      <trkpt lat="47.599584" lon="8.121996">
        <ele>379.841199</ele>
        <time>2024-10-16T13:16:40.817Z</time>
      </trkpt>
      <trkpt lat="47.599673" lon="8.121928">
        <ele>380.430634</ele>
        <time>2024-10-16T13:16:45.008Z</time>
      </trkpt>
      <trkpt lat="47.599774" lon="8.121897">
        <ele>381.037868</ele>
        <time>2024-10-16T13:16:49.291Z</time>
      </trkpt>
      <trkpt lat="47.599945" lon="8.121958">
        <ele>382.073337</ele>
        <time>2024-10-16T13:16:56.634Z</time>
      </trkpt>
      <trkpt lat="47.600073" lon="8.122149">
        <ele>383.142380</ele>
        <time>2024-10-16T13:17:03.733Z</time>
      </trkpt>
      <trkpt lat="47.600245" lon="8.122726">
        <ele>385.646867</ele>
        <time>2024-10-16T13:17:19.393Z</time>
      </trkpt>
      <trkpt lat="47.600358" lon="8.123008">
        <ele>386.949135</ele>
        <time>2024-10-16T13:17:27.439Z</time>
      </trkpt>
      <trkpt lat="47.600541" lon="8.123261">
        <ele>388.422084</ele>
        <time>2024-10-16T13:17:36.235Z</time>
      </trkpt>
      <trkpt lat="47.600704" lon="8.123354">
        <ele>389.450307</ele>
        <time>2024-10-16T13:17:42.821Z</time>
      </trkpt>
      <trkpt lat="47.600858" lon="8.123379">
        <ele>390.018141</ele>
        <time>2024-10-16T13:17:48.738Z</time>
      </trkpt>
      <trkpt lat="47.601005" lon="8.123375">
        <ele>390.488125</ele>
        <time>2024-10-16T13:17:54.513Z</time>
      </trkpt>
      <trkpt lat="47.601153" lon="8.123329">
        <ele>390.971505</ele>
        <time>2024-10-16T13:18:00.087Z</time>
      </trkpt>
      <trkpt lat="47.601429" lon="8.123093">
        <ele>391.989916</ele>
        <time>2024-10-16T13:18:12.060Z</time>
      </trkpt>
      <trkpt lat="47.601578" lon="8.122837">
        <ele>392.718843</ele>
        <time>2024-10-16T13:18:19.550Z</time>
      </trkpt>
      <trkpt lat="47.601692" lon="8.122435">
        <ele>393.658838</ele>
        <time>2024-10-16T13:18:26.683Z</time>
      </trkpt>
      <trkpt lat="47.601737" lon="8.121784">
        <ele>395.069375</ele>
        <time>2024-10-16T13:18:33.564Z</time>
      </trkpt>
      <trkpt lat="47.601717" lon="8.121452">
        <ele>395.519864</ele>
        <time>2024-10-16T13:18:36.245Z</time>
      </trkpt>
      <trkpt lat="47.601633" lon="8.121094">
        <ele>395.826612</ele>
        <time>2024-10-16T13:18:39.890Z</time>
      </trkpt>
      <trkpt lat="47.601439" lon="8.120676">
        <ele>396.237261</ele>
        <time>2024-10-16T13:18:45.448Z</time>
      </trkpt>
      <trkpt lat="47.601113" lon="8.120309">
        <ele>396.728466</ele>
        <time>2024-10-16T13:18:53.709Z</time>
      </trkpt>
      <trkpt lat="47.601014" lon="8.120104">
        <ele>396.932522</ele>
        <time>2024-10-16T13:18:57.195Z</time>
      </trkpt>
      <trkpt lat="47.600974" lon="8.119854">
        <ele>397.140452</ele>
        <time>2024-10-16T13:19:01.621Z</time>
      </trkpt>
      <trkpt lat="47.601000" lon="8.119525">
        <ele>397.408518</ele>
        <time>2024-10-16T13:19:06.419Z</time>
      </trkpt>
      <trkpt lat="47.601168" lon="8.118992">
        <ele>398.724768</ele>
        <time>2024-10-16T13:19:15.698Z</time>
      </trkpt>
      <trkpt lat="47.601909" lon="8.117067">
        <ele>404.624571</ele>
        <time>2024-10-16T13:20:03.342Z</time>
      </trkpt>
      <trkpt lat="47.602014" lon="8.116440">
        <ele>406.841208</ele>
        <time>2024-10-16T13:20:19.786Z</time>
      </trkpt>
      <trkpt lat="47.602123" lon="8.115568">
        <ele>409.884070</ele>
        <time>2024-10-16T13:20:42.533Z</time>
      </trkpt>
      <trkpt lat="47.602156" lon="8.115362">
        <ele>410.610542</ele>
        <time>2024-10-16T13:20:47.891Z</time>
      </trkpt>
      <trkpt lat="47.602283" lon="8.115096">
        <ele>411.728833</ele>
        <time>2024-10-16T13:20:56.163Z</time>
      </trkpt>
      <trkpt lat="47.602486" lon="8.114839">
        <ele>413.086977</ele>
        <time>2024-10-16T13:21:05.587Z</time>
      </trkpt>
      <trkpt lat="47.603491" lon="8.114396">
        <ele>416.684988</ele>
        <time>2024-10-16T13:21:34.826Z</time>
      </trkpt>
      <trkpt lat="47.603675" lon="8.114182">
        <ele>417.430826</ele>
        <time>2024-10-16T13:21:40.428Z</time>
      </trkpt>
      <trkpt lat="47.603856" lon="8.113867">
        <ele>418.320913</ele>
        <time>2024-10-16T13:21:47.511Z</time>
      </trkpt>
      <trkpt lat="47.604009" lon="8.113503">
        <ele>419.243406</ele>
        <time>2024-10-16T13:21:54.638Z</time>
      </trkpt>
      <trkpt lat="47.604097" lon="8.113165">
        <ele>420.393962</ele>
        <time>2024-10-16T13:22:01.050Z</time>
      </trkpt>
      <trkpt lat="47.604088" lon="8.112510">
        <ele>422.812081</ele>
        <time>2024-10-16T13:22:14.228Z</time>
      </trkpt>
      <trkpt lat="47.604148" lon="8.112191">
        <ele>424.034469</ele>
        <time>2024-10-16T13:22:21.257Z</time>
      </trkpt>
      <trkpt lat="47.604204" lon="8.112060">
        <ele>424.606983</ele>
        <time>2024-10-16T13:22:24.830Z</time>
      </trkpt>
      <trkpt lat="47.604399" lon="8.111599">
        <ele>426.615664</ele>
        <time>2024-10-16T13:22:38.321Z</time>
      </trkpt>
      <trkpt lat="47.604484" lon="8.111541">
        <ele>427.127860</ele>
        <time>2024-10-16T13:22:42.055Z</time>
      </trkpt>
      <trkpt lat="47.604618" lon="8.111513">
        <ele>427.868655</ele>
        <time>2024-10-16T13:22:47.569Z</time>
      </trkpt>
      <trkpt lat="47.604882" lon="8.111645">
        <ele>429.433628</ele>
        <time>2024-10-16T13:23:00.157Z</time>
      </trkpt>
      <trkpt lat="47.604975" lon="8.111662">
        <ele>430.418308</ele>
        <time>2024-10-16T13:23:04.736Z</time>
      </trkpt>
      <trkpt lat="47.605042" lon="8.111632">
        <ele>431.153759</ele>
        <time>2024-10-16T13:23:09.147Z</time>
      </trkpt>
      <trkpt lat="47.605706" lon="8.111117">
        <ele>439.027831</ele>
        <time>2024-10-16T13:23:56.169Z</time>
      </trkpt>
      <trkpt lat="47.606043" lon="8.110906">
        <ele>442.871786</ele>
        <time>2024-10-16T13:24:19.605Z</time>
      </trkpt>
      <trkpt lat="47.606243" lon="8.110732">
        <ele>445.308357</ele>
        <time>2024-10-16T13:24:33.322Z</time>
      </trkpt>
      <trkpt lat="47.606336" lon="8.110850">
        <ele>446.594449</ele>
        <time>2024-10-16T13:24:40.985Z</time>
      </trkpt>
      <trkpt lat="47.606491" lon="8.111048">
        <ele>448.557654</ele>
        <time>2024-10-16T13:24:52.373Z</time>
      </trkpt>
      <trkpt lat="47.607710" lon="8.112594">
        <ele>459.034637</ele>
        <time>2024-10-16T13:26:00.399Z</time>
      </trkpt>
      <trkpt lat="47.608167" lon="8.113028">
        <ele>460.518945</ele>
        <time>2024-10-16T13:26:11.766Z</time>
      </trkpt>
      <trkpt lat="47.608434" lon="8.113311">
        <ele>460.949809</ele>
        <time>2024-10-16T13:26:17.481Z</time>
      </trkpt>
      <trkpt lat="47.608962" lon="8.113861">
        <ele>461.796920</ele>
        <time>2024-10-16T13:26:28.067Z</time>
      </trkpt>
      <trkpt lat="47.609449" lon="8.114456">
        <ele>462.742960</ele>
        <time>2024-10-16T13:26:39.184Z</time>
      </trkpt>
      <trkpt lat="47.609729" lon="8.114725">
        <ele>463.376791</ele>
        <time>2024-10-16T13:26:45.474Z</time>
      </trkpt>
      <trkpt lat="47.610091" lon="8.114969">
        <ele>464.132261</ele>
        <time>2024-10-16T13:26:53.657Z</time>
      </trkpt>
      <trkpt lat="47.610234" lon="8.115026">
        <ele>464.413596</ele>
        <time>2024-10-16T13:26:57.209Z</time>
      </trkpt>
      <trkpt lat="47.610552" lon="8.114994">
        <ele>465.019175</ele>
        <time>2024-10-16T13:27:05.032Z</time>
      </trkpt>
      <trkpt lat="47.610763" lon="8.114872">
        <ele>465.449448</ele>
        <time>2024-10-16T13:27:10.823Z</time>
      </trkpt>
      <trkpt lat="47.610987" lon="8.114663">
        <ele>466.059554</ele>
        <time>2024-10-16T13:27:18.399Z</time>
      </trkpt>
      <trkpt lat="47.611206" lon="8.114385">
        <ele>466.947520</ele>
        <time>2024-10-16T13:27:26.779Z</time>
      </trkpt>
      <trkpt lat="47.611665" lon="8.113651">
        <ele>469.026713</ele>
        <time>2024-10-16T13:27:45.080Z</time>
      </trkpt>
      <trkpt lat="47.611958" lon="8.113264">
        <ele>470.235290</ele>
        <time>2024-10-16T13:27:54.648Z</time>
      </trkpt>
      <trkpt lat="47.612209" lon="8.112958">
        <ele>471.236153</ele>
        <time>2024-10-16T13:28:03.431Z</time>
      </trkpt>
      <trkpt lat="47.612542" lon="8.112659">
        <ele>473.171919</ele>
        <time>2024-10-16T13:28:14.839Z</time>
      </trkpt>
      <trkpt lat="47.612615" lon="8.112603">
        <ele>473.592373</ele>
        <time>2024-10-16T13:28:17.410Z</time>
      </trkpt>
      <trkpt lat="47.612795" lon="8.112464">
        <ele>474.630566</ele>
        <time>2024-10-16T13:28:23.794Z</time>
      </trkpt>
      <trkpt lat="47.613018" lon="8.112338">
        <ele>475.851396</ele>
        <time>2024-10-16T13:28:31.930Z</time>
      </trkpt>
      <trkpt lat="47.613120" lon="8.112339">
        <ele>476.373240</ele>
        <time>2024-10-16T13:28:35.266Z</time>
      </trkpt>
      <trkpt lat="47.613182" lon="8.112220">
        <ele>476.891942</ele>
        <time>2024-10-16T13:28:38.950Z</time>
      </trkpt>
      <trkpt lat="47.613570" lon="8.111905">
        <ele>479.154797</ele>
        <time>2024-10-16T13:28:55.862Z</time>
      </trkpt>
      <trkpt lat="47.613649" lon="8.111756">
        <ele>479.808570</ele>
        <time>2024-10-16T13:29:01.086Z</time>
      </trkpt>
      <trkpt lat="47.613756" lon="8.111334">
        <ele>481.835920</ele>
        <time>2024-10-16T13:29:14.486Z</time>
      </trkpt>
      <trkpt lat="47.614164" lon="8.110409">
        <ele>487.789078</ele>
        <time>2024-10-16T13:29:50.145Z</time>
      </trkpt>
      <trkpt lat="47.614303" lon="8.110027">
        <ele>490.126887</ele>
        <time>2024-10-16T13:30:03.915Z</time>
      </trkpt>
      <trkpt lat="47.614442" lon="8.109519">
        <ele>493.079464</ele>
        <time>2024-10-16T13:30:20.998Z</time>
      </trkpt>
      <trkpt lat="47.614555" lon="8.109287">
        <ele>494.620889</ele>
        <time>2024-10-16T13:30:30.325Z</time>
      </trkpt>
      <trkpt lat="47.614745" lon="8.109009">
        <ele>496.913512</ele>
        <time>2024-10-16T13:30:43.967Z</time>
      </trkpt>
      <trkpt lat="47.614862" lon="8.108765">
        <ele>498.665218</ele>
        <time>2024-10-16T13:30:54.247Z</time>
      </trkpt>
      <trkpt lat="47.615000" lon="8.108333">
        <ele>501.461847</ele>
        <time>2024-10-16T13:31:10.435Z</time>
      </trkpt>
      <trkpt lat="47.615134" lon="8.107957">
        <ele>503.949946</ele>
        <time>2024-10-16T13:31:24.734Z</time>
      </trkpt>
      <trkpt lat="47.615241" lon="8.107746">
        <ele>505.494577</ele>
        <time>2024-10-16T13:31:33.643Z</time>
      </trkpt>
      <trkpt lat="47.615401" lon="8.107580">
        <ele>507.188986</ele>
        <time>2024-10-16T13:31:43.261Z</time>
      </trkpt>
      <trkpt lat="47.615557" lon="8.107491">
        <ele>508.639455</ele>
        <time>2024-10-16T13:31:51.382Z</time>
      </trkpt>
      <trkpt lat="47.615618" lon="8.107467">
        <ele>509.187128</ele>
        <time>2024-10-16T13:31:54.537Z</time>
      </trkpt>
      <trkpt lat="47.615766" lon="8.107410">
        <ele>510.514590</ele>
        <time>2024-10-16T13:32:02.000Z</time>
      </trkpt>
      <trkpt lat="47.616016" lon="8.107268">
        <ele>512.923727</ele>
        <time>2024-10-16T13:32:14.851Z</time>
      </trkpt>
      <trkpt lat="47.616207" lon="8.107147">
        <ele>514.792792</ele>
        <time>2024-10-16T13:32:25.288Z</time>
      </trkpt>
      <trkpt lat="47.616475" lon="8.106897">
        <ele>517.641847</ele>
        <time>2024-10-16T13:32:42.155Z</time>
      </trkpt>
      <trkpt lat="47.616926" lon="8.106246">
        <ele>523.304866</ele>
        <time>2024-10-16T13:33:15.522Z</time>
      </trkpt>
      <trkpt lat="47.617060" lon="8.106053">
        <ele>524.985653</ele>
        <time>2024-10-16T13:33:24.443Z</time>
      </trkpt>
      <trkpt lat="47.617375" lon="8.105595">
        <ele>528.833398</ele>
        <time>2024-10-16T13:33:46.174Z</time>
      </trkpt>
      <trkpt lat="47.617575" lon="8.105226">
        <ele>531.551735</ele>
        <time>2024-10-16T13:34:01.852Z</time>
      </trkpt>
      <trkpt lat="47.618081" lon="8.104160">
        <ele>539.036776</ele>
        <time>2024-10-16T13:34:45.500Z</time>
      </trkpt>
      <trkpt lat="47.618263" lon="8.103884">
        <ele>541.253400</ele>
        <time>2024-10-16T13:34:58.502Z</time>
      </trkpt>
      <trkpt lat="47.618495" lon="8.103660">
        <ele>543.068503</ele>
        <time>2024-10-16T13:35:11.704Z</time>
      </trkpt>
      <trkpt lat="47.619076" lon="8.103192">
        <ele>546.796019</ele>
        <time>2024-10-16T13:35:39.689Z</time>
      </trkpt>
      <trkpt lat="47.619263" lon="8.103083">
        <ele>547.928824</ele>
        <time>2024-10-16T13:35:46.984Z</time>
      </trkpt>
      <trkpt lat="47.619419" lon="8.103038">
        <ele>548.824856</ele>
        <time>2024-10-16T13:35:52.695Z</time>
      </trkpt>
      <trkpt lat="47.619351" lon="8.102596">
        <ele>550.547852</ele>
        <time>2024-10-16T13:36:02.540Z</time>
      </trkpt>
      <trkpt lat="47.619238" lon="8.102397">
        <ele>551.536736</ele>
        <time>2024-10-16T13:36:07.566Z</time>
      </trkpt>
      <trkpt lat="47.619159" lon="8.102346">
        <ele>552.022499</ele>
        <time>2024-10-16T13:36:09.915Z</time>
      </trkpt>
      <trkpt lat="47.619005" lon="8.102311">
        <ele>552.258695</ele>
        <time>2024-10-16T13:36:14.158Z</time>
      </trkpt>
      <trkpt lat="47.618880" lon="8.102232">
        <ele>552.372010</ele>
        <time>2024-10-16T13:36:17.418Z</time>
      </trkpt>
      <trkpt lat="47.618741" lon="8.102057">
        <ele>552.524054</ele>
        <time>2024-10-16T13:36:21.698Z</time>
      </trkpt>
      <trkpt lat="47.618269" lon="8.101187">
        <ele>553.151878</ele>
        <time>2024-10-16T13:36:34.235Z</time>
      </trkpt>
      <trkpt lat="47.617895" lon="8.100366">
        <ele>553.666888</ele>
        <time>2024-10-16T13:36:42.557Z</time>
      </trkpt>
      <trkpt lat="47.617396" lon="8.099182">
        <ele>553.916599</ele>
        <time>2024-10-16T13:36:56.267Z</time>
      </trkpt>
      <trkpt lat="47.617140" lon="8.098577">
        <ele>554.044341</ele>
        <time>2024-10-16T13:37:04.520Z</time>
      </trkpt>
      <trkpt lat="47.617069" lon="8.098319">
        <ele>554.094176</ele>
        <time>2024-10-16T13:37:07.939Z</time>
      </trkpt>
      <trkpt lat="47.617044" lon="8.098076">
        <ele>554.165343</ele>
        <time>2024-10-16T13:37:11.001Z</time>
      </trkpt>
      <trkpt lat="47.617165" lon="8.096880">
        <ele>554.811393</ele>
        <time>2024-10-16T13:37:28.310Z</time>
      </trkpt>
      <trkpt lat="47.617183" lon="8.096554">
        <ele>554.986123</ele>
        <time>2024-10-16T13:37:32.699Z</time>
      </trkpt>
      <trkpt lat="47.617236" lon="8.096258">
        <ele>555.149727</ele>
        <time>2024-10-16T13:37:36.582Z</time>
      </trkpt>
      <trkpt lat="47.617857" lon="8.095254">
        <ele>554.844278</ele>
        <time>2024-10-16T13:37:49.771Z</time>
      </trkpt>
      <trkpt lat="47.618698" lon="8.093966">
        <ele>552.782558</ele>
        <time>2024-10-16T13:38:02.789Z</time>
      </trkpt>
      <trkpt lat="47.618904" lon="8.093600">
        <ele>551.916359</ele>
        <time>2024-10-16T13:38:06.177Z</time>
      </trkpt>
      <trkpt lat="47.619464" lon="8.092810">
        <ele>548.905244</ele>
        <time>2024-10-16T13:38:14.468Z</time>
      </trkpt>
      <trkpt lat="47.619712" lon="8.092618">
        <ele>547.815230</ele>
        <time>2024-10-16T13:38:17.243Z</time>
      </trkpt>
      <trkpt lat="47.620055" lon="8.092748">
        <ele>546.435784</ele>
        <time>2024-10-16T13:38:20.605Z</time>
      </trkpt>
      <trkpt lat="47.620112" lon="8.092767">
        <ele>546.208143</ele>
        <time>2024-10-16T13:38:21.140Z</time>
      </trkpt>
      <trkpt lat="47.620663" lon="8.093011">
        <ele>541.432926</ele>
        <time>2024-10-16T13:38:26.304Z</time>
      </trkpt>
      <trkpt lat="47.621156" lon="8.092288">
        <ele>534.185337</ele>
        <time>2024-10-16T13:38:32.293Z</time>
      </trkpt>
      <trkpt lat="47.621541" lon="8.091890">
        <ele>529.279314</ele>
        <time>2024-10-16T13:38:36.231Z</time>
      </trkpt>
      <trkpt lat="47.621919" lon="8.091753">
        <ele>525.313937</ele>
        <time>2024-10-16T13:38:39.467Z</time>
      </trkpt>
      <trkpt lat="47.622312" lon="8.091144">
        <ele>519.792003</ele>
        <time>2024-10-16T13:38:44.212Z</time>
      </trkpt>
      <trkpt lat="47.622672" lon="8.090784">
        <ele>515.573496</ele>
        <time>2024-10-16T13:38:47.934Z</time>
      </trkpt>
      <trkpt lat="47.622805" lon="8.090462">
        <ele>513.100126</ele>
        <time>2024-10-16T13:38:50.188Z</time>
      </trkpt>
      <trkpt lat="47.622984" lon="8.090174">
        <ele>510.534384</ele>
        <time>2024-10-16T13:38:52.642Z</time>
      </trkpt>
      <trkpt lat="47.623102" lon="8.090180">
        <ele>509.387110</ele>
        <time>2024-10-16T13:38:53.784Z</time>
      </trkpt>
      <trkpt lat="47.623696" lon="8.090558">
        <ele>508.254749</ele>
        <time>2024-10-16T13:39:01.055Z</time>
      </trkpt>
      <trkpt lat="47.623837" lon="8.090617">
        <ele>508.035708</ele>
        <time>2024-10-16T13:39:03.597Z</time>
      </trkpt>
      <trkpt lat="47.623875" lon="8.090680">
        <ele>507.950510</ele>
        <time>2024-10-16T13:39:04.843Z</time>
      </trkpt>
      <trkpt lat="47.623901" lon="8.090860">
        <ele>507.765000</ele>
        <time>2024-10-16T13:39:07.283Z</time>
      </trkpt>
      <trkpt lat="47.623761" lon="8.091574">
        <ele>507.015652</ele>
        <time>2024-10-16T13:39:17.198Z</time>
      </trkpt>
      <trkpt lat="47.623849" lon="8.092276">
        <ele>505.569581</ele>
        <time>2024-10-16T13:39:22.734Z</time>
      </trkpt>
      <trkpt lat="47.624013" lon="8.093106">
        <ele>501.617730</ele>
        <time>2024-10-16T13:39:27.985Z</time>
      </trkpt>
      <trkpt lat="47.624093" lon="8.093346">
        <ele>500.394402</ele>
        <time>2024-10-16T13:39:29.622Z</time>
      </trkpt>
      <trkpt lat="47.624392" lon="8.094169">
        <ele>496.122661</ele>
        <time>2024-10-16T13:39:35.203Z</time>
      </trkpt>
      <trkpt lat="47.624502" lon="8.094318">
        <ele>495.112961</ele>
        <time>2024-10-16T13:39:36.552Z</time>
      </trkpt>
      <trkpt lat="47.624585" lon="8.094303">
        <ele>494.546149</ele>
        <time>2024-10-16T13:39:37.260Z</time>
      </trkpt>
      <trkpt lat="47.624649" lon="8.094241">
        <ele>493.913861</ele>
        <time>2024-10-16T13:39:37.922Z</time>
      </trkpt>
      <trkpt lat="47.624675" lon="8.094143">
        <ele>493.237027</ele>
        <time>2024-10-16T13:39:38.536Z</time>
      </trkpt>
      <trkpt lat="47.624666" lon="8.093965">
        <ele>492.089895</ele>
        <time>2024-10-16T13:39:39.581Z</time>
      </trkpt>
      <trkpt lat="47.624527" lon="8.093362">
        <ele>487.994326</ele>
        <time>2024-10-16T13:39:43.195Z</time>
      </trkpt>
      <trkpt lat="47.624489" lon="8.093062">
        <ele>486.032618</ele>
        <time>2024-10-16T13:39:44.944Z</time>
      </trkpt>
      <trkpt lat="47.624472" lon="8.092160">
        <ele>480.233627</ele>
        <time>2024-10-16T13:39:50.191Z</time>
      </trkpt>
      <trkpt lat="47.624542" lon="8.091883">
        <ele>478.332465</ele>
        <time>2024-10-16T13:39:52.051Z</time>
      </trkpt>
      <trkpt lat="47.624603" lon="8.091835">
        <ele>477.674087</ele>
        <time>2024-10-16T13:39:52.666Z</time>
      </trkpt>
      <trkpt lat="47.624688" lon="8.091810">
        <ele>476.952596</ele>
        <time>2024-10-16T13:39:53.494Z</time>
      </trkpt>
      <trkpt lat="47.624774" lon="8.091870">
        <ele>476.351982</ele>
        <time>2024-10-16T13:39:54.376Z</time>
      </trkpt>
      <trkpt lat="47.624819" lon="8.091983">
        <ele>475.792904</ele>
        <time>2024-10-16T13:39:55.177Z</time>
      </trkpt>
      <trkpt lat="47.624886" lon="8.092492">
        <ele>473.583808</ele>
        <time>2024-10-16T13:39:58.267Z</time>
      </trkpt>
      <trkpt lat="47.625092" lon="8.093057">
        <ele>470.847560</ele>
        <time>2024-10-16T13:40:02.027Z</time>
      </trkpt>
      <trkpt lat="47.625218" lon="8.093608">
        <ele>468.369122</ele>
        <time>2024-10-16T13:40:05.526Z</time>
      </trkpt>
      <trkpt lat="47.625279" lon="8.093598">
        <ele>467.981254</ele>
        <time>2024-10-16T13:40:06.096Z</time>
      </trkpt>
      <trkpt lat="47.625322" lon="8.093542">
        <ele>467.619655</ele>
        <time>2024-10-16T13:40:06.619Z</time>
      </trkpt>
      <trkpt lat="47.625338" lon="8.093567">
        <ele>467.472804</ele>
        <time>2024-10-16T13:40:06.852Z</time>
      </trkpt>
      <trkpt lat="47.625520" lon="8.093792">
        <ele>465.975607</ele>
        <time>2024-10-16T13:40:09.408Z</time>
      </trkpt>
      <trkpt lat="47.625589" lon="8.093866">
        <ele>465.920168</ele>
        <time>2024-10-16T13:40:10.330Z</time>
      </trkpt>
      <trkpt lat="47.625760" lon="8.093961">
        <ele>466.341734</ele>
        <time>2024-10-16T13:40:12.598Z</time>
      </trkpt>
      <trkpt lat="47.625985" lon="8.093910">
        <ele>466.867232</ele>
        <time>2024-10-16T13:40:16.150Z</time>
      </trkpt>
      <trkpt lat="47.626139" lon="8.093826">
        <ele>467.246045</ele>
        <time>2024-10-16T13:40:19.005Z</time>
      </trkpt>
      <trkpt lat="47.626531" lon="8.093454">
        <ele>468.320356</ele>
        <time>2024-10-16T13:40:29.778Z</time>
      </trkpt>
      <trkpt lat="47.626874" lon="8.093236">
        <ele>469.181854</ele>
        <time>2024-10-16T13:40:40.783Z</time>
      </trkpt>
      <trkpt lat="47.627007" lon="8.093198">
        <ele>469.494560</ele>
        <time>2024-10-16T13:40:45.932Z</time>
      </trkpt>
      <trkpt lat="47.627098" lon="8.093173">
        <ele>469.708228</ele>
        <time>2024-10-16T13:40:49.601Z</time>
      </trkpt>
      <trkpt lat="47.627273" lon="8.093193">
        <ele>470.468408</ele>
        <time>2024-10-16T13:40:57.964Z</time>
      </trkpt>
      <trkpt lat="47.627429" lon="8.093172">
        <ele>471.586102</ele>
        <time>2024-10-16T13:41:05.304Z</time>
      </trkpt>
      <trkpt lat="47.627554" lon="8.093117">
        <ele>472.516415</ele>
        <time>2024-10-16T13:41:11.899Z</time>
      </trkpt>
      <trkpt lat="47.627959" lon="8.092829">
        <ele>475.720981</ele>
        <time>2024-10-16T13:41:34.324Z</time>
      </trkpt>
      <trkpt lat="47.628093" lon="8.092819">
        <ele>476.678333</ele>
        <time>2024-10-16T13:41:40.637Z</time>
      </trkpt>
      <trkpt lat="47.628423" lon="8.092902">
        <ele>479.066602</ele>
        <time>2024-10-16T13:41:55.695Z</time>
      </trkpt>
      <trkpt lat="47.629495" lon="8.092830">
        <ele>485.598050</ele>
        <time>2024-10-16T13:42:37.082Z</time>
      </trkpt>
      <trkpt lat="47.629719" lon="8.092892">
        <ele>486.760172</ele>
        <time>2024-10-16T13:42:44.295Z</time>
      </trkpt>
      <trkpt lat="47.630211" lon="8.093115">
        <ele>489.383861</ele>
        <time>2024-10-16T13:43:01.737Z</time>
      </trkpt>
      <trkpt lat="47.630329" lon="8.093243">
        <ele>490.129326</ele>
        <time>2024-10-16T13:43:07.273Z</time>
      </trkpt>
      <trkpt lat="47.630499" lon="8.093559">
        <ele>491.519041</ele>
        <time>2024-10-16T13:43:16.742Z</time>
      </trkpt>
      <trkpt lat="47.630677" lon="8.094482">
        <ele>494.997632</ele>
        <time>2024-10-16T13:43:36.813Z</time>
      </trkpt>
      <trkpt lat="47.630873" lon="8.095097">
        <ele>497.481695</ele>
        <time>2024-10-16T13:43:51.887Z</time>
      </trkpt>
      <trkpt lat="47.631056" lon="8.095384">
        <ele>498.924384</ele>
        <time>2024-10-16T13:44:02.021Z</time>
      </trkpt>
      <trkpt lat="47.631846" lon="8.095971">
        <ele>503.936577</ele>
        <time>2024-10-16T13:44:40.529Z</time>
      </trkpt>
      <trkpt lat="47.632068" lon="8.096192">
        <ele>505.546858</ele>
        <time>2024-10-16T13:44:51.506Z</time>
      </trkpt>
      <trkpt lat="47.632095" lon="8.096364">
        <ele>506.263742</ele>
        <time>2024-10-16T13:44:56.214Z</time>
      </trkpt>
      <trkpt lat="47.631934" lon="8.096884">
        <ele>508.586683</ele>
        <time>2024-10-16T13:45:09.690Z</time>
      </trkpt>
      <trkpt lat="47.631899" lon="8.097235">
        <ele>510.026999</ele>
        <time>2024-10-16T13:45:17.695Z</time>
      </trkpt>
      <trkpt lat="47.631937" lon="8.097426">
        <ele>510.835402</ele>
        <time>2024-10-16T13:45:22.897Z</time>
      </trkpt>
      <trkpt lat="47.632062" lon="8.097675">
        <ele>512.095785</ele>
        <time>2024-10-16T13:45:30.617Z</time>
      </trkpt>
      <trkpt lat="47.632171" lon="8.097817">
        <ele>512.936489</ele>
        <time>2024-10-16T13:45:36.809Z</time>
      </trkpt>
      <trkpt lat="47.632359" lon="8.097972">
        <ele>514.134548</ele>
        <time>2024-10-16T13:45:45.655Z</time>
      </trkpt>
      <trkpt lat="47.632482" lon="8.098014">
        <ele>514.837638</ele>
        <time>2024-10-16T13:45:51.258Z</time>
      </trkpt>
      <trkpt lat="47.632615" lon="8.098012">
        <ele>515.578567</ele>
        <time>2024-10-16T13:45:55.909Z</time>
      </trkpt>
      <trkpt lat="47.633263" lon="8.097660">
        <ele>519.422566</ele>
        <time>2024-10-16T13:46:19.720Z</time>
      </trkpt>
      <trkpt lat="47.633437" lon="8.097655">
        <ele>520.392033</ele>
        <time>2024-10-16T13:46:26.114Z</time>
      </trkpt>
      <trkpt lat="47.633548" lon="8.097724">
        <ele>521.062428</ele>
        <time>2024-10-16T13:46:30.107Z</time>
      </trkpt>
      <trkpt lat="47.633714" lon="8.097902">
        <ele>522.203297</ele>
        <time>2024-10-16T13:46:37.948Z</time>
      </trkpt>
      <trkpt lat="47.633926" lon="8.098046">
        <ele>523.281520</ele>
        <time>2024-10-16T13:46:46.795Z</time>
      </trkpt>
      <trkpt lat="47.634146" lon="8.098065">
        <ele>524.224620</ele>
        <time>2024-10-16T13:46:56.186Z</time>
      </trkpt>
      <trkpt lat="47.634397" lon="8.098038">
        <ele>525.301612</ele>
        <time>2024-10-16T13:47:06.733Z</time>
      </trkpt>
      <trkpt lat="47.635203" lon="8.097675">
        <ele>528.906301</ele>
        <time>2024-10-16T13:47:33.682Z</time>
      </trkpt>
      <trkpt lat="47.635309" lon="8.097677">
        <ele>529.359972</ele>
        <time>2024-10-16T13:47:35.805Z</time>
      </trkpt>
      <trkpt lat="47.635509" lon="8.097761">
        <ele>530.248208</ele>
        <time>2024-10-16T13:47:40.394Z</time>
      </trkpt>
      <trkpt lat="47.635603" lon="8.097748">
        <ele>530.350167</ele>
        <time>2024-10-16T13:47:42.105Z</time>
      </trkpt>
      <trkpt lat="47.635763" lon="8.097571">
        <ele>530.565693</ele>
        <time>2024-10-16T13:47:46.012Z</time>
      </trkpt>
      <trkpt lat="47.636089" lon="8.097023">
        <ele>531.097672</ele>
        <time>2024-10-16T13:47:54.026Z</time>
      </trkpt>
      <trkpt lat="47.636218" lon="8.096420">
        <ele>531.558082</ele>
        <time>2024-10-16T13:48:01.646Z</time>
      </trkpt>
      <trkpt lat="47.636673" lon="8.095218">
        <ele>533.467882</ele>
        <time>2024-10-16T13:48:19.056Z</time>
      </trkpt>
      <trkpt lat="47.636811" lon="8.095139">
        <ele>534.017826</ele>
        <time>2024-10-16T13:48:22.309Z</time>
      </trkpt>
      <trkpt lat="47.637102" lon="8.095141">
        <ele>535.099795</ele>
        <time>2024-10-16T13:48:29.698Z</time>
      </trkpt>
      <trkpt lat="47.637231" lon="8.095074">
        <ele>535.607950</ele>
        <time>2024-10-16T13:48:33.821Z</time>
      </trkpt>
      <trkpt lat="47.637637" lon="8.095058">
        <ele>537.118017</ele>
        <time>2024-10-16T13:48:48.326Z</time>
      </trkpt>
      <trkpt lat="47.637980" lon="8.094891">
        <ele>538.460190</ele>
        <time>2024-10-16T13:49:02.070Z</time>
      </trkpt>
      <trkpt lat="47.638349" lon="8.094839">
        <ele>540.030928</ele>
        <time>2024-10-16T13:49:16.447Z</time>
      </trkpt>
      <trkpt lat="47.638452" lon="8.094875">
        <ele>540.503252</ele>
        <time>2024-10-16T13:49:20.704Z</time>
      </trkpt>
      <trkpt lat="47.638655" lon="8.095015">
        <ele>541.502410</ele>
        <time>2024-10-16T13:49:28.786Z</time>
      </trkpt>
      <trkpt lat="47.638734" lon="8.095026">
        <ele>541.856580</ele>
        <time>2024-10-16T13:49:31.624Z</time>
      </trkpt>
      <trkpt lat="47.638957" lon="8.094929">
        <ele>542.893827</ele>
        <time>2024-10-16T13:49:39.155Z</time>
      </trkpt>
      <trkpt lat="47.639129" lon="8.094898">
        <ele>543.667201</ele>
        <time>2024-10-16T13:49:44.990Z</time>
      </trkpt>
      <trkpt lat="47.639645" lon="8.095047">
        <ele>546.013590</ele>
        <time>2024-10-16T13:50:00.773Z</time>
      </trkpt>
      <trkpt lat="47.639741" lon="8.095046">
        <ele>546.442103</ele>
        <time>2024-10-16T13:50:03.554Z</time>
      </trkpt>
      <trkpt lat="47.639883" lon="8.094926">
        <ele>547.153067</ele>
        <time>2024-10-16T13:50:08.197Z</time>
      </trkpt>
      <trkpt lat="47.640078" lon="8.094617">
        <ele>548.338001</ele>
        <time>2024-10-16T13:50:15.322Z</time>
      </trkpt>
      <trkpt lat="47.640521" lon="8.094314">
        <ele>550.364186</ele>
        <time>2024-10-16T13:50:26.308Z</time>
      </trkpt>
      <trkpt lat="47.640768" lon="8.094071">
        <ele>551.595141</ele>
        <time>2024-10-16T13:50:33.882Z</time>
      </trkpt>
      <trkpt lat="47.641161" lon="8.093410">
        <ele>554.062426</ele>
        <time>2024-10-16T13:50:56.792Z</time>
      </trkpt>
      <trkpt lat="47.641387" lon="8.092977">
        <ele>555.886387</ele>
        <time>2024-10-16T13:51:14.726Z</time>
      </trkpt>
      <trkpt lat="47.641446" lon="8.092897">
        <ele>556.297666</ele>
        <time>2024-10-16T13:51:18.435Z</time>
      </trkpt>
      <trkpt lat="47.641521" lon="8.092856">
        <ele>556.709002</ele>
        <time>2024-10-16T13:51:22.017Z</time>
      </trkpt>
      <trkpt lat="47.641655" lon="8.092892">
        <ele>557.409837</ele>
        <time>2024-10-16T13:51:27.480Z</time>
      </trkpt>
      <trkpt lat="47.641723" lon="8.092968">
        <ele>557.847924</ele>
        <time>2024-10-16T13:51:30.444Z</time>
      </trkpt>
      <trkpt lat="47.641833" lon="8.093172">
        <ele>558.753937</ele>
        <time>2024-10-16T13:51:36.993Z</time>
      </trkpt>
      <trkpt lat="47.642125" lon="8.094161">
        <ele>562.498104</ele>
        <time>2024-10-16T13:52:00.049Z</time>
      </trkpt>
      <trkpt lat="47.642220" lon="8.094296">
        <ele>563.174983</ele>
        <time>2024-10-16T13:52:04.026Z</time>
      </trkpt>
      <trkpt lat="47.642289" lon="8.094338">
        <ele>563.558793</ele>
        <time>2024-10-16T13:52:06.087Z</time>
      </trkpt>
      <trkpt lat="47.642403" lon="8.094365">
        <ele>563.641334</ele>
        <time>2024-10-16T13:52:09.735Z</time>
      </trkpt>
      <trkpt lat="47.642480" lon="8.094347">
        <ele>563.646864</ele>
        <time>2024-10-16T13:52:12.314Z</time>
      </trkpt>
      <trkpt lat="47.642645" lon="8.094039">
        <ele>563.665673</ele>
        <time>2024-10-16T13:52:19.100Z</time>
      </trkpt>
      <trkpt lat="47.642864" lon="8.093535">
        <ele>563.694340</ele>
        <time>2024-10-16T13:52:26.803Z</time>
      </trkpt>
      <trkpt lat="47.642984" lon="8.093385">
        <ele>563.705471</ele>
        <time>2024-10-16T13:52:28.454Z</time>
      </trkpt>
      <trkpt lat="47.643123" lon="8.093302">
        <ele>563.716100</ele>
        <time>2024-10-16T13:52:29.934Z</time>
      </trkpt>
      <trkpt lat="47.643518" lon="8.093306">
        <ele>563.744125</ele>
        <time>2024-10-16T13:52:33.963Z</time>
      </trkpt>
      <trkpt lat="47.643606" lon="8.093280">
        <ele>563.750490</ele>
        <time>2024-10-16T13:52:35.027Z</time>
      </trkpt>
      <trkpt lat="47.644283" lon="8.092755">
        <ele>563.947230</ele>
        <time>2024-10-16T13:52:45.092Z</time>
      </trkpt>
      <trkpt lat="47.644437" lon="8.092775">
        <ele>563.994648</ele>
        <time>2024-10-16T13:52:47.250Z</time>
      </trkpt>
      <trkpt lat="47.644787" lon="8.093255">
        <ele>564.140815</ele>
        <time>2024-10-16T13:52:55.797Z</time>
      </trkpt>
      <trkpt lat="47.645038" lon="8.093429">
        <ele>564.225788</ele>
        <time>2024-10-16T13:53:00.625Z</time>
      </trkpt>
      <trkpt lat="47.646016" lon="8.093840">
        <ele>564.116459</ele>
        <time>2024-10-16T13:53:23.926Z</time>
      </trkpt>
      <trkpt lat="47.646556" lon="8.093925">
        <ele>563.969993</ele>
        <time>2024-10-16T13:53:31.041Z</time>
      </trkpt>
      <trkpt lat="47.646635" lon="8.093965">
        <ele>563.947479</ele>
        <time>2024-10-16T13:53:31.916Z</time>
      </trkpt>
      <trkpt lat="47.646962" lon="8.094131">
        <ele>563.854265</ele>
        <time>2024-10-16T13:53:35.506Z</time>
      </trkpt>
      <trkpt lat="47.647173" lon="8.094125">
        <ele>563.535714</ele>
        <time>2024-10-16T13:53:37.689Z</time>
      </trkpt>
      <trkpt lat="47.647575" lon="8.094056">
        <ele>562.505891</ele>
        <time>2024-10-16T13:53:41.859Z</time>
      </trkpt>
      <trkpt lat="47.648222" lon="8.094056">
        <ele>560.859410</ele>
        <time>2024-10-16T13:53:48.769Z</time>
      </trkpt>
      <trkpt lat="47.648576" lon="8.094152">
        <ele>559.943643</ele>
        <time>2024-10-16T13:53:52.685Z</time>
      </trkpt>
      <trkpt lat="47.648782" lon="8.094035">
        <ele>559.382353</ele>
        <time>2024-10-16T13:53:54.971Z</time>
      </trkpt>
      <trkpt lat="47.648950" lon="8.093866">
        <ele>559.131572</ele>
        <time>2024-10-16T13:53:57.099Z</time>
      </trkpt>
      <trkpt lat="47.649111" lon="8.093866">
        <ele>559.004373</ele>
        <time>2024-10-16T13:53:58.702Z</time>
      </trkpt>
      <trkpt lat="47.649843" lon="8.094105">
        <ele>558.412223</ele>
        <time>2024-10-16T13:54:06.402Z</time>
      </trkpt>
      <trkpt lat="47.649991" lon="8.094110">
        <ele>558.295264</ele>
        <time>2024-10-16T13:54:08.161Z</time>
      </trkpt>
      <trkpt lat="47.650705" lon="8.094009">
        <ele>558.504205</ele>
        <time>2024-10-16T13:54:25.016Z</time>
      </trkpt>
      <trkpt lat="47.651005" lon="8.094014">
        <ele>560.077630</ele>
        <time>2024-10-16T13:54:34.767Z</time>
      </trkpt>
      <trkpt lat="47.651378" lon="8.094111">
        <ele>562.063589</ele>
        <time>2024-10-16T13:54:48.451Z</time>
      </trkpt>
      <trkpt lat="47.651454" lon="8.094215">
        <ele>562.605675</ele>
        <time>2024-10-16T13:54:52.700Z</time>
      </trkpt>
      <trkpt lat="47.651470" lon="8.094287">
        <ele>562.873523</ele>
        <time>2024-10-16T13:54:54.637Z</time>
      </trkpt>
      <trkpt lat="47.651381" lon="8.094681">
        <ele>564.341638</ele>
        <time>2024-10-16T13:55:05.503Z</time>
      </trkpt>
      <trkpt lat="47.651373" lon="8.094857">
        <ele>564.964834</ele>
        <time>2024-10-16T13:55:10.385Z</time>
      </trkpt>
      <trkpt lat="47.651407" lon="8.095262">
        <ele>566.406706</ele>
        <time>2024-10-16T13:55:21.789Z</time>
      </trkpt>
      <trkpt lat="47.651574" lon="8.096425">
        <ele>570.408416</ele>
        <time>2024-10-16T13:55:54.981Z</time>
      </trkpt>
      <trkpt lat="47.651772" lon="8.096715">
        <ele>571.780232</ele>
        <time>2024-10-16T13:56:05.536Z</time>
      </trkpt>
      <trkpt lat="47.651883" lon="8.097127">
        <ele>573.254441</ele>
        <time>2024-10-16T13:56:15.199Z</time>
      </trkpt>
      <trkpt lat="47.652208" lon="8.097413">
        <ele>575.117787</ele>
        <time>2024-10-16T13:56:26.060Z</time>
      </trkpt>
      <trkpt lat="47.652553" lon="8.097946">
        <ele>576.213690</ele>
        <time>2024-10-16T13:56:39.888Z</time>
      </trkpt>
      <trkpt lat="47.652631" lon="8.098222">
        <ele>576.268883</ele>
        <time>2024-10-16T13:56:44.755Z</time>
      </trkpt>
      <trkpt lat="47.652811" lon="8.099452">
        <ele>576.500990</ele>
        <time>2024-10-16T13:56:58.458Z</time>
      </trkpt>
      <trkpt lat="47.652796" lon="8.099714">
        <ele>576.549478</ele>
        <time>2024-10-16T13:57:00.395Z</time>
      </trkpt>
      <trkpt lat="47.652825" lon="8.099832">
        <ele>576.572640</ele>
        <time>2024-10-16T13:57:01.300Z</time>
      </trkpt>
      <trkpt lat="47.653165" lon="8.100285">
        <ele>575.611823</ele>
        <time>2024-10-16T13:57:06.000Z</time>
      </trkpt>
      <trkpt lat="47.653669" lon="8.100671">
        <ele>573.411038</ele>
        <time>2024-10-16T13:57:11.605Z</time>
      </trkpt>
      <trkpt lat="47.654066" lon="8.100748">
        <ele>571.857329</ele>
        <time>2024-10-16T13:57:15.476Z</time>
      </trkpt>
      <trkpt lat="47.654392" lon="8.100902">
        <ele>570.529736</ele>
        <time>2024-10-16T13:57:18.698Z</time>
      </trkpt>
      <trkpt lat="47.654771" lon="8.100740">
        <ele>569.553352</ele>
        <time>2024-10-16T13:57:22.419Z</time>
      </trkpt>
      <trkpt lat="47.655073" lon="8.100748">
        <ele>569.385048</ele>
        <time>2024-10-16T13:57:25.330Z</time>
      </trkpt>
      <trkpt lat="47.655266" lon="8.100797">
        <ele>569.275945</ele>
        <time>2024-10-16T13:57:27.309Z</time>
      </trkpt>
      <trkpt lat="47.655548" lon="8.100948">
        <ele>569.108904</ele>
        <time>2024-10-16T13:57:30.580Z</time>
      </trkpt>
      <trkpt lat="47.656294" lon="8.101020">
        <ele>568.692348</ele>
        <time>2024-10-16T13:57:47.244Z</time>
      </trkpt>
      <trkpt lat="47.656389" lon="8.100987">
        <ele>568.720887</ele>
        <time>2024-10-16T13:57:50.298Z</time>
      </trkpt>
      <trkpt lat="47.656548" lon="8.100837">
        <ele>570.053556</ele>
        <time>2024-10-16T13:57:56.851Z</time>
      </trkpt>
      <trkpt lat="47.656765" lon="8.100713">
        <ele>571.698427</ele>
        <time>2024-10-16T13:58:05.759Z</time>
      </trkpt>
      <trkpt lat="47.656922" lon="8.100662">
        <ele>572.835341</ele>
        <time>2024-10-16T13:58:12.543Z</time>
      </trkpt>
      <trkpt lat="47.657055" lon="8.100660">
        <ele>573.776250</ele>
        <time>2024-10-16T13:58:18.315Z</time>
      </trkpt>
      <trkpt lat="47.657104" lon="8.100692">
        <ele>574.154936</ele>
        <time>2024-10-16T13:58:20.740Z</time>
      </trkpt>
      <trkpt lat="47.657239" lon="8.100923">
        <ele>575.612180</ele>
        <time>2024-10-16T13:58:30.593Z</time>
      </trkpt>
      <trkpt lat="47.657550" lon="8.101268">
        <ele>578.358559</ele>
        <time>2024-10-16T13:58:50.313Z</time>
      </trkpt>
      <trkpt lat="47.657879" lon="8.101488">
        <ele>580.911128</ele>
        <time>2024-10-16T13:59:08.146Z</time>
      </trkpt>
      <trkpt lat="47.658320" lon="8.102211">
        <ele>585.005530</ele>
        <time>2024-10-16T13:59:40.092Z</time>
      </trkpt>
      <trkpt lat="47.658566" lon="8.102671">
        <ele>587.434746</ele>
        <time>2024-10-16T13:59:56.764Z</time>
      </trkpt>
      <trkpt lat="47.658695" lon="8.102824">
        <ele>588.448568</ele>
        <time>2024-10-16T14:00:02.644Z</time>
      </trkpt>
      <trkpt lat="47.659989" lon="8.103901">
        <ele>595.523179</ele>
        <time>2024-10-16T14:00:46.656Z</time>
      </trkpt>
      <trkpt lat="47.660171" lon="8.104084">
        <ele>596.339249</ele>
        <time>2024-10-16T14:00:52.618Z</time>
      </trkpt>
      <trkpt lat="47.660220" lon="8.104285">
        <ele>596.873771</ele>
        <time>2024-10-16T14:00:56.894Z</time>
      </trkpt>
      <trkpt lat="47.660193" lon="8.104447">
        <ele>597.291079</ele>
        <time>2024-10-16T14:01:00.552Z</time>
      </trkpt>
      <trkpt lat="47.660107" lon="8.104591">
        <ele>597.772330</ele>
        <time>2024-10-16T14:01:04.697Z</time>
      </trkpt>
      <trkpt lat="47.659906" lon="8.104738">
        <ele>598.604190</ele>
        <time>2024-10-16T14:01:11.826Z</time>
      </trkpt>
      <trkpt lat="47.659835" lon="8.104848">
        <ele>598.985166</ele>
        <time>2024-10-16T14:01:14.737Z</time>
      </trkpt>
      <trkpt lat="47.659790" lon="8.105002">
        <ele>599.349183</ele>
        <time>2024-10-16T14:01:18.280Z</time>
      </trkpt>
      <trkpt lat="47.659779" lon="8.105204">
        <ele>599.766276</ele>
        <time>2024-10-16T14:01:22.133Z</time>
      </trkpt>
      <trkpt lat="47.659874" lon="8.105662">
        <ele>600.752572</ele>
        <time>2024-10-16T14:01:31.014Z</time>
      </trkpt>
      <trkpt lat="47.659998" lon="8.105896">
        <ele>601.365354</ele>
        <time>2024-10-16T14:01:35.980Z</time>
      </trkpt>
      <trkpt lat="47.660322" lon="8.106339">
        <ele>602.711251</ele>
        <time>2024-10-16T14:01:49.679Z</time>
      </trkpt>
      <trkpt lat="47.660608" lon="8.106679">
        <ele>603.830800</ele>
        <time>2024-10-16T14:01:58.501Z</time>
      </trkpt>
      <trkpt lat="47.661199" lon="8.107070">
        <ele>605.802551</ele>
        <time>2024-10-16T14:02:12.826Z</time>
      </trkpt>
      <trkpt lat="47.661492" lon="8.107358">
        <ele>606.871599</ele>
        <time>2024-10-16T14:02:21.486Z</time>
      </trkpt>
      <trkpt lat="47.661861" lon="8.107902">
        <ele>608.453626</ele>
        <time>2024-10-16T14:02:34.170Z</time>
      </trkpt>
      <trkpt lat="47.662019" lon="8.108193">
        <ele>609.219526</ele>
        <time>2024-10-16T14:02:42.021Z</time>
      </trkpt>
      <trkpt lat="47.662050" lon="8.108337">
        <ele>609.529293</ele>
        <time>2024-10-16T14:02:45.135Z</time>
      </trkpt>
      <trkpt lat="47.661945" lon="8.109073">
        <ele>611.413751</ele>
        <time>2024-10-16T14:03:03.888Z</time>
      </trkpt>
      <trkpt lat="47.661941" lon="8.109407">
        <ele>612.329990</ele>
        <time>2024-10-16T14:03:10.980Z</time>
      </trkpt>
      <trkpt lat="47.661959" lon="8.109637">
        <ele>612.965078</ele>
        <time>2024-10-16T14:03:16.713Z</time>
      </trkpt>
      <trkpt lat="47.662004" lon="8.109833">
        <ele>613.533044</ele>
        <time>2024-10-16T14:03:20.694Z</time>
      </trkpt>
      <trkpt lat="47.662135" lon="8.110240">
        <ele>614.770287</ele>
        <time>2024-10-16T14:03:31.595Z</time>
      </trkpt>
      <trkpt lat="47.662317" lon="8.110550">
        <ele>615.898249</ele>
        <time>2024-10-16T14:03:40.668Z</time>
      </trkpt>
      <trkpt lat="47.662611" lon="8.110882">
        <ele>617.387195</ele>
        <time>2024-10-16T14:03:50.532Z</time>
      </trkpt>
      <trkpt lat="47.663263" lon="8.111496">
        <ele>618.075423</ele>
        <time>2024-10-16T14:04:05.670Z</time>
      </trkpt>
      <trkpt lat="47.663468" lon="8.111630">
        <ele>618.275083</ele>
        <time>2024-10-16T14:04:09.640Z</time>
      </trkpt>
      <trkpt lat="47.664133" lon="8.111934">
        <ele>618.895319</ele>
        <time>2024-10-16T14:04:20.882Z</time>
      </trkpt>
      <trkpt lat="47.664910" lon="8.112486">
        <ele>618.472843</ele>
        <time>2024-10-16T14:04:32.136Z</time>
      </trkpt>
      <trkpt lat="47.665180" lon="8.112587">
        <ele>618.284610</ele>
        <time>2024-10-16T14:04:35.574Z</time>
      </trkpt>
      <trkpt lat="47.665371" lon="8.112622">
        <ele>618.154507</ele>
        <time>2024-10-16T14:04:38.025Z</time>
      </trkpt>
      <trkpt lat="47.665991" lon="8.112547">
        <ele>617.703884</ele>
        <time>2024-10-16T14:04:45.986Z</time>
      </trkpt>
      <trkpt lat="47.666345" lon="8.112448">
        <ele>617.258433</ele>
        <time>2024-10-16T14:04:50.205Z</time>
      </trkpt>
      <trkpt lat="47.666582" lon="8.112434">
        <ele>616.965128</ele>
        <time>2024-10-16T14:04:52.821Z</time>
      </trkpt>
      <trkpt lat="47.667107" lon="8.112469">
        <ele>616.315261</ele>
        <time>2024-10-16T14:04:58.538Z</time>
      </trkpt>
      <trkpt lat="47.667649" lon="8.112421">
        <ele>615.643835</ele>
        <time>2024-10-16T14:05:04.898Z</time>
      </trkpt>
      <trkpt lat="47.668027" lon="8.112320">
        <ele>615.866987</ele>
        <time>2024-10-16T14:05:10.563Z</time>
      </trkpt>
      <trkpt lat="47.668630" lon="8.112079">
        <ele>616.524016</ele>
        <time>2024-10-16T14:05:23.596Z</time>
      </trkpt>
      <trkpt lat="47.668874" lon="8.112132">
        <ele>616.783475</ele>
        <time>2024-10-16T14:05:29.626Z</time>
      </trkpt>
      <trkpt lat="47.668955" lon="8.112198">
        <ele>616.880686</ele>
        <time>2024-10-16T14:05:31.733Z</time>
      </trkpt>
      <trkpt lat="47.669301" lon="8.112630">
        <ele>617.356311</ele>
        <time>2024-10-16T14:05:41.536Z</time>
      </trkpt>
      <trkpt lat="47.669400" lon="8.112836">
        <ele>617.340032</ele>
        <time>2024-10-16T14:05:44.974Z</time>
      </trkpt>
      <trkpt lat="47.669473" lon="8.113124">
        <ele>617.118872</ele>
        <time>2024-10-16T14:05:48.728Z</time>
      </trkpt>
      <trkpt lat="47.669553" lon="8.113755">
        <ele>616.657411</ele>
        <time>2024-10-16T14:05:55.152Z</time>
      </trkpt>
      <trkpt lat="47.669610" lon="8.113989">
        <ele>616.478574</ele>
        <time>2024-10-16T14:05:57.268Z</time>
      </trkpt>
      <trkpt lat="47.669671" lon="8.114192">
        <ele>616.318813</ele>
        <time>2024-10-16T14:05:59.138Z</time>
      </trkpt>
      <trkpt lat="47.669808" lon="8.114492">
        <ele>616.058306</ele>
        <time>2024-10-16T14:06:01.918Z</time>
      </trkpt>
      <trkpt lat="47.669951" lon="8.114688">
        <ele>615.850619</ele>
        <time>2024-10-16T14:06:04.033Z</time>
      </trkpt>
      <trkpt lat="47.670134" lon="8.114868">
        <ele>615.616355</ele>
        <time>2024-10-16T14:06:06.277Z</time>
      </trkpt>
      <trkpt lat="47.670444" lon="8.115087">
        <ele>614.551077</ele>
        <time>2024-10-16T14:06:09.637Z</time>
      </trkpt>
      <trkpt lat="47.670999" lon="8.115293">
        <ele>612.353952</ele>
        <time>2024-10-16T14:06:15.019Z</time>
      </trkpt>
      <trkpt lat="47.671694" lon="8.115400">
        <ele>609.670405</ele>
        <time>2024-10-16T14:06:21.743Z</time>
      </trkpt>
      <trkpt lat="47.672457" lon="8.115443">
        <ele>607.898175</ele>
        <time>2024-10-16T14:06:29.894Z</time>
      </trkpt>
      <trkpt lat="47.673335" lon="8.115409">
        <ele>606.614476</ele>
        <time>2024-10-16T14:06:40.335Z</time>
      </trkpt>
      <trkpt lat="47.673731" lon="8.115448">
        <ele>606.034421</ele>
        <time>2024-10-16T14:06:45.364Z</time>
      </trkpt>
      <trkpt lat="47.674034" lon="8.115551">
        <ele>606.192577</ele>
        <time>2024-10-16T14:06:49.528Z</time>
      </trkpt>
      <trkpt lat="47.674808" lon="8.116033">
        <ele>606.834655</ele>
        <time>2024-10-16T14:07:03.452Z</time>
      </trkpt>
      <trkpt lat="47.675311" lon="8.116432">
        <ele>607.270912</ele>
        <time>2024-10-16T14:07:16.112Z</time>
      </trkpt>
      <trkpt lat="47.675580" lon="8.116777">
        <ele>607.574611</ele>
        <time>2024-10-16T14:07:25.541Z</time>
      </trkpt>
      <trkpt lat="47.676414" lon="8.118425">
        <ele>608.819378</ele>
        <time>2024-10-16T14:07:50.879Z</time>
      </trkpt>
      <trkpt lat="47.676515" lon="8.118562">
        <ele>608.942038</ele>
        <time>2024-10-16T14:07:52.804Z</time>
      </trkpt>
      <trkpt lat="47.676628" lon="8.118654">
        <ele>608.876952</ele>
        <time>2024-10-16T14:07:54.597Z</time>
      </trkpt>
      <trkpt lat="47.677224" lon="8.118866">
        <ele>608.279326</ele>
        <time>2024-10-16T14:08:02.278Z</time>
      </trkpt>
      <trkpt lat="47.677469" lon="8.119050">
        <ele>608.011607</ele>
        <time>2024-10-16T14:08:05.431Z</time>
      </trkpt>
      <trkpt lat="47.677691" lon="8.119310">
        <ele>607.735914</ele>
        <time>2024-10-16T14:08:08.564Z</time>
      </trkpt>
      <trkpt lat="47.677933" lon="8.119702">
        <ele>607.386728</ele>
        <time>2024-10-16T14:08:12.376Z</time>
      </trkpt>
      <trkpt lat="47.678077" lon="8.120008">
        <ele>607.292667</ele>
        <time>2024-10-16T14:08:15.323Z</time>
      </trkpt>
      <trkpt lat="47.678432" lon="8.120921">
        <ele>607.985402</ele>
        <time>2024-10-16T14:08:27.892Z</time>
      </trkpt>
      <trkpt lat="47.678570" lon="8.121181">
        <ele>608.202933</ele>
        <time>2024-10-16T14:08:32.878Z</time>
      </trkpt>
      <trkpt lat="47.678708" lon="8.121383">
        <ele>608.392014</ele>
        <time>2024-10-16T14:08:37.033Z</time>
      </trkpt>
      <trkpt lat="47.678891" lon="8.121585">
        <ele>608.614518</ele>
        <time>2024-10-16T14:08:42.099Z</time>
      </trkpt>
      <trkpt lat="47.679292" lon="8.121963">
        <ele>609.165939</ele>
        <time>2024-10-16T14:08:52.336Z</time>
      </trkpt>
      <trkpt lat="47.679532" lon="8.122160">
        <ele>609.656279</ele>
        <time>2024-10-16T14:08:59.051Z</time>
      </trkpt>
      <trkpt lat="47.679824" lon="8.122368">
        <ele>610.235371</ele>
        <time>2024-10-16T14:09:06.423Z</time>
      </trkpt>
      <trkpt lat="47.680317" lon="8.122640">
        <ele>611.175798</ele>
        <time>2024-10-16T14:09:17.745Z</time>
      </trkpt>
      <trkpt lat="47.680600" lon="8.122737">
        <ele>611.695152</ele>
        <time>2024-10-16T14:09:24.209Z</time>
      </trkpt>
      <trkpt lat="47.680879" lon="8.122809">
        <ele>612.197371</ele>
        <time>2024-10-16T14:09:30.634Z</time>
      </trkpt>
      <trkpt lat="47.681215" lon="8.122885">
        <ele>612.608833</ele>
        <time>2024-10-16T14:09:37.381Z</time>
      </trkpt>
      <trkpt lat="47.681758" lon="8.123057">
        <ele>613.280990</ele>
        <time>2024-10-16T14:09:48.458Z</time>
      </trkpt>
      <trkpt lat="47.682155" lon="8.123315">
        <ele>613.805601</ele>
        <time>2024-10-16T14:09:57.630Z</time>
      </trkpt>
      <trkpt lat="47.683885" lon="8.124269">
        <ele>615.144671</ele>
        <time>2024-10-16T14:10:28.916Z</time>
      </trkpt>
      <trkpt lat="47.684035" lon="8.124342">
        <ele>615.233567</ele>
        <time>2024-10-16T14:10:31.610Z</time>
      </trkpt>
      <trkpt lat="47.684213" lon="8.124348">
        <ele>615.333840</ele>
        <time>2024-10-16T14:10:34.698Z</time>
      </trkpt>
      <trkpt lat="47.684604" lon="8.124246">
        <ele>615.611020</ele>
        <time>2024-10-16T14:10:41.493Z</time>
      </trkpt>
      <trkpt lat="47.684941" lon="8.124104">
        <ele>615.867615</ele>
        <time>2024-10-16T14:10:47.511Z</time>
      </trkpt>
      <trkpt lat="47.685537" lon="8.123723">
        <ele>616.342902</ele>
        <time>2024-10-16T14:10:58.284Z</time>
      </trkpt>
      <trkpt lat="47.686136" lon="8.123190">
        <ele>617.037893</ele>
        <time>2024-10-16T14:11:11.739Z</time>
      </trkpt>
      <trkpt lat="47.686796" lon="8.122419">
        <ele>618.368537</ele>
        <time>2024-10-16T14:11:29.743Z</time>
      </trkpt>
      <trkpt lat="47.687263" lon="8.121980">
        <ele>619.244372</ele>
        <time>2024-10-16T14:11:40.846Z</time>
      </trkpt>
      <trkpt lat="47.687698" lon="8.121657">
        <ele>620.389147</ele>
        <time>2024-10-16T14:11:52.170Z</time>
      </trkpt>
      <trkpt lat="47.687917" lon="8.121533">
        <ele>621.057467</ele>
        <time>2024-10-16T14:11:58.017Z</time>
      </trkpt>
      <trkpt lat="47.688068" lon="8.121456">
        <ele>621.512717</ele>
        <time>2024-10-16T14:12:02.275Z</time>
      </trkpt>
      <trkpt lat="47.688235" lon="8.121418">
        <ele>621.994484</ele>
        <time>2024-10-16T14:12:06.863Z</time>
      </trkpt>
      <trkpt lat="47.688563" lon="8.121391">
        <ele>622.931235</ele>
        <time>2024-10-16T14:12:16.208Z</time>
      </trkpt>
      <trkpt lat="47.688775" lon="8.121404">
        <ele>623.536284</ele>
        <time>2024-10-16T14:12:22.482Z</time>
      </trkpt>
      <trkpt lat="47.689117" lon="8.121555">
        <ele>624.553684</ele>
        <time>2024-10-16T14:12:32.579Z</time>
      </trkpt>
      <trkpt lat="47.689438" lon="8.121921">
        <ele>625.235659</ele>
        <time>2024-10-16T14:12:43.503Z</time>
      </trkpt>
      <trkpt lat="47.689952" lon="8.122501">
        <ele>626.234179</ele>
        <time>2024-10-16T14:12:58.951Z</time>
      </trkpt>
      <trkpt lat="47.690699" lon="8.123397">
        <ele>627.246285</ele>
        <time>2024-10-16T14:13:14.718Z</time>
      </trkpt>
      <trkpt lat="47.690975" lon="8.123666">
        <ele>626.830852</ele>
        <time>2024-10-16T14:13:18.713Z</time>
      </trkpt>
      <trkpt lat="47.691288" lon="8.123886">
        <ele>626.395070</ele>
        <time>2024-10-16T14:13:22.643Z</time>
      </trkpt>
      <trkpt lat="47.692252" lon="8.124314">
        <ele>625.191301</ele>
        <time>2024-10-16T14:13:33.763Z</time>
      </trkpt>
      <trkpt lat="47.692717" lon="8.124453">
        <ele>625.158832</ele>
        <time>2024-10-16T14:13:39.504Z</time>
      </trkpt>
      <trkpt lat="47.692913" lon="8.124479">
        <ele>625.145362</ele>
        <time>2024-10-16T14:13:42.271Z</time>
      </trkpt>
      <trkpt lat="47.693126" lon="8.124464">
        <ele>625.130765</ele>
        <time>2024-10-16T14:13:45.594Z</time>
      </trkpt>
      <trkpt lat="47.693604" lon="8.124356">
        <ele>625.097667</ele>
        <time>2024-10-16T14:13:53.685Z</time>
      </trkpt>
      <trkpt lat="47.694046" lon="8.124353">
        <ele>625.157713</ele>
        <time>2024-10-16T14:14:01.889Z</time>
      </trkpt>
      <trkpt lat="47.694198" lon="8.124411">
        <ele>625.369493</ele>
        <time>2024-10-16T14:14:04.873Z</time>
      </trkpt>
      <trkpt lat="47.694715" lon="8.124715">
        <ele>626.119833</ele>
        <time>2024-10-16T14:14:16.271Z</time>
      </trkpt>
      <trkpt lat="47.695087" lon="8.124664">
        <ele>626.623975</ele>
        <time>2024-10-16T14:14:23.967Z</time>
      </trkpt>
      <trkpt lat="47.695617" lon="8.124512">
        <ele>627.352407</ele>
        <time>2024-10-16T14:14:35.104Z</time>
      </trkpt>
      <trkpt lat="47.695804" lon="8.124576">
        <ele>627.671534</ele>
        <time>2024-10-16T14:14:39.128Z</time>
      </trkpt>
      <trkpt lat="47.695985" lon="8.124724">
        <ele>628.099635</ele>
        <time>2024-10-16T14:14:43.401Z</time>
      </trkpt>
      <trkpt lat="47.696406" lon="8.125150">
        <ele>629.155099</ele>
        <time>2024-10-16T14:14:54.472Z</time>
      </trkpt>
      <trkpt lat="47.696776" lon="8.125384">
        <ele>629.988351</ele>
        <time>2024-10-16T14:15:03.835Z</time>
      </trkpt>
      <trkpt lat="47.696806" lon="8.125393">
        <ele>630.051769</ele>
        <time>2024-10-16T14:15:04.573Z</time>
      </trkpt>
      <trkpt lat="47.697014" lon="8.125434">
        <ele>630.486547</ele>
        <time>2024-10-16T14:15:09.645Z</time>
      </trkpt>
      <trkpt lat="47.697040" lon="8.125434">
        <ele>630.540422</ele>
        <time>2024-10-16T14:15:10.281Z</time>
      </trkpt>
      <trkpt lat="47.697373" lon="8.125431">
        <ele>631.232521</ele>
        <time>2024-10-16T14:15:18.521Z</time>
      </trkpt>
      <trkpt lat="47.698235" lon="8.125522">
        <ele>633.859854</ele>
        <time>2024-10-16T14:15:41.754Z</time>
      </trkpt>
      <trkpt lat="47.698538" lon="8.125498">
        <ele>634.782369</ele>
        <time>2024-10-16T14:15:51.092Z</time>
      </trkpt>
      <trkpt lat="47.698948" lon="8.125335">
        <ele>636.072736</ele>
        <time>2024-10-16T14:16:03.514Z</time>
      </trkpt>
      <trkpt lat="47.699266" lon="8.125281">
        <ele>636.882975</ele>
        <time>2024-10-16T14:16:11.643Z</time>
      </trkpt>
      <trkpt lat="47.699710" lon="8.125388">
        <ele>637.616740</ele>
        <time>2024-10-16T14:16:21.449Z</time>
      </trkpt>
      <trkpt lat="47.699974" lon="8.125486">
        <ele>638.060641</ele>
        <time>2024-10-16T14:16:27.524Z</time>
      </trkpt>
      <trkpt lat="47.700257" lon="8.125445">
        <ele>638.524489</ele>
        <time>2024-10-16T14:16:33.541Z</time>
      </trkpt>
      <trkpt lat="47.700519" lon="8.125309">
        <ele>638.977221</ele>
        <time>2024-10-16T14:16:39.210Z</time>
      </trkpt>
      <trkpt lat="47.700981" lon="8.124976">
        <ele>639.686079</ele>
        <time>2024-10-16T14:16:48.909Z</time>
      </trkpt>
      <trkpt lat="47.701383" lon="8.124570">
        <ele>639.930910</ele>
        <time>2024-10-16T14:16:56.759Z</time>
      </trkpt>
      <trkpt lat="47.701569" lon="8.124429">
        <ele>640.036086</ele>
        <time>2024-10-16T14:16:59.278Z</time>
      </trkpt>
      <trkpt lat="47.701688" lon="8.124390">
        <ele>640.097466</ele>
        <time>2024-10-16T14:17:01.149Z</time>
      </trkpt>
      <trkpt lat="47.702082" lon="8.124440">
        <ele>640.296645</ele>
        <time>2024-10-16T14:17:07.002Z</time>
      </trkpt>
      <trkpt lat="47.702347" lon="8.124422">
        <ele>640.430264</ele>
        <time>2024-10-16T14:17:11.718Z</time>
      </trkpt>
      <trkpt lat="47.702890" lon="8.124206">
        <ele>641.209790</ele>
        <time>2024-10-16T14:17:23.579Z</time>
      </trkpt>
      <trkpt lat="47.703167" lon="8.124140">
        <ele>641.743205</ele>
        <time>2024-10-16T14:17:29.243Z</time>
      </trkpt>
      <trkpt lat="47.703506" lon="8.124157">
        <ele>642.388147</ele>
        <time>2024-10-16T14:17:36.795Z</time>
      </trkpt>
      <trkpt lat="47.703941" lon="8.124368">
        <ele>643.258206</ele>
        <time>2024-10-16T14:17:47.835Z</time>
      </trkpt>
      <trkpt lat="47.704065" lon="8.124430">
        <ele>643.506969</ele>
        <time>2024-10-16T14:17:50.890Z</time>
      </trkpt>
      <trkpt lat="47.704755" lon="8.124919">
        <ele>645.017761</ele>
        <time>2024-10-16T14:18:10.425Z</time>
      </trkpt>
      <trkpt lat="47.705202" lon="8.125276">
        <ele>646.037581</ele>
        <time>2024-10-16T14:18:22.583Z</time>
      </trkpt>
      <trkpt lat="47.705833" lon="8.125976">
        <ele>647.589124</ele>
        <time>2024-10-16T14:18:39.099Z</time>
      </trkpt>
      <trkpt lat="47.706323" lon="8.126461">
        <ele>648.055161</ele>
        <time>2024-10-16T14:18:50.418Z</time>
      </trkpt>
      <trkpt lat="47.706901" lon="8.126968">
        <ele>648.586454</ele>
        <time>2024-10-16T14:19:01.654Z</time>
      </trkpt>
      <trkpt lat="47.707906" lon="8.127585">
        <ele>650.089201</ele>
        <time>2024-10-16T14:19:19.859Z</time>
      </trkpt>
      <trkpt lat="47.709040" lon="8.128074">
        <ele>652.344437</ele>
        <time>2024-10-16T14:19:48.498Z</time>
      </trkpt>
      <trkpt lat="47.709172" lon="8.128123">
        <ele>652.858581</ele>
        <time>2024-10-16T14:19:52.369Z</time>
      </trkpt>
      <trkpt lat="47.709774" lon="8.128368">
        <ele>655.771630</ele>
        <time>2024-10-16T14:20:10.871Z</time>
      </trkpt>
      <trkpt lat="47.710106" lon="8.128543">
        <ele>657.415687</ele>
        <time>2024-10-16T14:20:24.603Z</time>
      </trkpt>
      <trkpt lat="47.710779" lon="8.129024">
        <ele>660.878408</ele>
        <time>2024-10-16T14:20:53.562Z</time>
      </trkpt>
      <trkpt lat="47.711140" lon="8.129325">
        <ele>662.253550</ele>
        <time>2024-10-16T14:21:06.688Z</time>
      </trkpt>
      <trkpt lat="47.711496" lon="8.129538">
        <ele>663.528473</ele>
        <time>2024-10-16T14:21:17.255Z</time>
      </trkpt>
      <trkpt lat="47.712080" lon="8.129846">
        <ele>665.587134</ele>
        <time>2024-10-16T14:21:32.531Z</time>
      </trkpt>
      <trkpt lat="47.712376" lon="8.129911">
        <ele>666.581161</ele>
        <time>2024-10-16T14:21:40.377Z</time>
      </trkpt>
      <trkpt lat="47.712689" lon="8.129854">
        <ele>667.083744</ele>
        <time>2024-10-16T14:21:48.858Z</time>
      </trkpt>
      <trkpt lat="47.713137" lon="8.129558">
        <ele>667.644030</ele>
        <time>2024-10-16T14:21:59.931Z</time>
      </trkpt>
      <trkpt lat="47.713439" lon="8.129439">
        <ele>668.001078</ele>
        <time>2024-10-16T14:22:05.273Z</time>
      </trkpt>
      <trkpt lat="47.713667" lon="8.129461">
        <ele>668.262185</ele>
        <time>2024-10-16T14:22:09.281Z</time>
      </trkpt>
      <trkpt lat="47.714060" lon="8.129612">
        <ele>668.726070</ele>
        <time>2024-10-16T14:22:15.416Z</time>
      </trkpt>
      <trkpt lat="47.714361" lon="8.129669">
        <ele>668.688718</ele>
        <time>2024-10-16T14:22:20.036Z</time>
      </trkpt>
      <trkpt lat="47.714567" lon="8.129607">
        <ele>668.508393</ele>
        <time>2024-10-16T14:22:22.877Z</time>
      </trkpt>
      <trkpt lat="47.715785" lon="8.128774">
        <ele>667.358085</ele>
        <time>2024-10-16T14:22:39.532Z</time>
      </trkpt>
      <trkpt lat="47.716004" lon="8.128671">
        <ele>667.247218</ele>
        <time>2024-10-16T14:22:41.919Z</time>
      </trkpt>
      <trkpt lat="47.716430" lon="8.128567">
        <ele>667.090738</ele>
        <time>2024-10-16T14:22:46.622Z</time>
      </trkpt>
      <trkpt lat="47.716558" lon="8.128575">
        <ele>667.044302</ele>
        <time>2024-10-16T14:22:48.135Z</time>
      </trkpt>
      <trkpt lat="47.716679" lon="8.128572">
        <ele>667.000437</ele>
        <time>2024-10-16T14:22:49.727Z</time>
      </trkpt>
      <trkpt lat="47.716932" lon="8.128599">
        <ele>666.908497</ele>
        <time>2024-10-16T14:22:53.168Z</time>
      </trkpt>
      <trkpt lat="47.717368" lon="8.128733">
        <ele>666.747118</ele>
        <time>2024-10-16T14:23:00.957Z</time>
      </trkpt>
      <trkpt lat="47.717630" lon="8.128892">
        <ele>666.768620</ele>
        <time>2024-10-16T14:23:06.439Z</time>
      </trkpt>
      <trkpt lat="47.717851" lon="8.129037">
        <ele>667.468778</ele>
        <time>2024-10-16T14:23:11.715Z</time>
      </trkpt>
      <trkpt lat="47.718172" lon="8.129312">
        <ele>668.542612</ele>
        <time>2024-10-16T14:23:20.553Z</time>
      </trkpt>
      <trkpt lat="47.718216" lon="8.129357">
        <ele>668.697410</ele>
        <time>2024-10-16T14:23:21.875Z</time>
      </trkpt>
      <trkpt lat="47.718857" lon="8.130050">
        <ele>670.994692</ele>
        <time>2024-10-16T14:23:43.213Z</time>
      </trkpt>
      <trkpt lat="47.719568" lon="8.130917">
        <ele>675.806978</ele>
        <time>2024-10-16T14:24:14.177Z</time>
      </trkpt>
      <trkpt lat="47.719871" lon="8.131229">
        <ele>678.157526</ele>
        <time>2024-10-16T14:24:30.094Z</time>
      </trkpt>
      <trkpt lat="47.720043" lon="8.131462">
        <ele>679.641518</ele>
        <time>2024-10-16T14:24:40.649Z</time>
      </trkpt>
      <trkpt lat="47.720289" lon="8.131889">
        <ele>682.053291</ele>
        <time>2024-10-16T14:24:58.844Z</time>
      </trkpt>
      <trkpt lat="47.720455" lon="8.132357">
        <ele>684.105331</ele>
        <time>2024-10-16T14:25:14.713Z</time>
      </trkpt>
      <trkpt lat="47.720580" lon="8.132900">
        <ele>686.021544</ele>
        <time>2024-10-16T14:25:30.477Z</time>
      </trkpt>
      <trkpt lat="47.720710" lon="8.133805">
        <ele>689.111332</ele>
        <time>2024-10-16T14:25:53.725Z</time>
      </trkpt>
      <trkpt lat="47.720834" lon="8.134422">
        <ele>691.261367</ele>
        <time>2024-10-16T14:26:07.150Z</time>
      </trkpt>
      <trkpt lat="47.721024" lon="8.134998">
        <ele>692.196608</ele>
        <time>2024-10-16T14:26:17.543Z</time>
      </trkpt>
      <trkpt lat="47.721953" lon="8.136517">
        <ele>691.765897</ele>
        <time>2024-10-16T14:26:33.819Z</time>
      </trkpt>
      <trkpt lat="47.722166" lon="8.136822">
        <ele>691.720680</ele>
        <time>2024-10-16T14:26:37.428Z</time>
      </trkpt>
      <trkpt lat="47.722887" lon="8.137661">
        <ele>691.837817</ele>
        <time>2024-10-16T14:26:50.651Z</time>
      </trkpt>
      <trkpt lat="47.723282" lon="8.138172">
        <ele>691.904806</ele>
        <time>2024-10-16T14:26:59.719Z</time>
      </trkpt>
      <trkpt lat="47.724402" lon="8.139026">
        <ele>693.389596</ele>
        <time>2024-10-16T14:27:22.995Z</time>
      </trkpt>
      <trkpt lat="47.724848" lon="8.139502">
        <ele>694.182087</ele>
        <time>2024-10-16T14:27:34.630Z</time>
      </trkpt>
      <trkpt lat="47.725116" lon="8.139820">
        <ele>694.869078</ele>
        <time>2024-10-16T14:27:43.063Z</time>
      </trkpt>
      <trkpt lat="47.725537" lon="8.140520">
        <ele>696.998713</ele>
        <time>2024-10-16T14:28:00.752Z</time>
      </trkpt>
      <trkpt lat="47.726510" lon="8.142353">
        <ele>701.086280</ele>
        <time>2024-10-16T14:28:48.200Z</time>
      </trkpt>
      <trkpt lat="47.726785" lon="8.142790">
        <ele>701.477152</ele>
        <time>2024-10-16T14:28:57.347Z</time>
      </trkpt>
      <trkpt lat="47.727132" lon="8.143159">
        <ele>701.891427</ele>
        <time>2024-10-16T14:29:04.103Z</time>
      </trkpt>
      <trkpt lat="47.727691" lon="8.143561">
        <ele>702.080597</ele>
        <time>2024-10-16T14:29:11.012Z</time>
      </trkpt>
      <trkpt lat="47.728087" lon="8.143730">
        <ele>701.379163</ele>
        <time>2024-10-16T14:29:15.167Z</time>
      </trkpt>
      <trkpt lat="47.728973" lon="8.143888">
        <ele>699.859900</ele>
        <time>2024-10-16T14:29:24.509Z</time>
      </trkpt>
      <trkpt lat="47.729314" lon="8.143990">
        <ele>699.294714</ele>
        <time>2024-10-16T14:29:30.053Z</time>
      </trkpt>
      <trkpt lat="47.729715" lon="8.144173">
        <ele>699.943839</ele>
        <time>2024-10-16T14:29:38.347Z</time>
      </trkpt>
      <trkpt lat="47.730140" lon="8.144414">
        <ele>700.647742</ele>
        <time>2024-10-16T14:29:48.201Z</time>
      </trkpt>
      <trkpt lat="47.730506" lon="8.144560">
        <ele>701.234159</ele>
        <time>2024-10-16T14:29:56.944Z</time>
      </trkpt>
      <trkpt lat="47.730992" lon="8.144612">
        <ele>701.988189</ele>
        <time>2024-10-16T14:30:08.889Z</time>
      </trkpt>
      <trkpt lat="47.731418" lon="8.144578">
        <ele>702.221148</ele>
        <time>2024-10-16T14:30:19.141Z</time>
      </trkpt>
      <trkpt lat="47.731622" lon="8.144519">
        <ele>702.307130</ele>
        <time>2024-10-16T14:30:23.783Z</time>
      </trkpt>
      <trkpt lat="47.731825" lon="8.144421">
        <ele>702.395433</ele>
        <time>2024-10-16T14:30:28.034Z</time>
      </trkpt>
      <trkpt lat="47.732076" lon="8.144221">
        <ele>702.513252</ele>
        <time>2024-10-16T14:30:32.481Z</time>
      </trkpt>
      <trkpt lat="47.732932" lon="8.143436">
        <ele>702.705919</ele>
        <time>2024-10-16T14:30:44.360Z</time>
      </trkpt>
      <trkpt lat="47.733212" lon="8.143234">
        <ele>702.594849</ele>
        <time>2024-10-16T14:30:48.150Z</time>
      </trkpt>
      <trkpt lat="47.733424" lon="8.143168">
        <ele>702.517548</ele>
        <time>2024-10-16T14:30:50.887Z</time>
      </trkpt>
      <trkpt lat="47.734203" lon="8.143256">
        <ele>702.238733</ele>
        <time>2024-10-16T14:31:02.071Z</time>
      </trkpt>
      <trkpt lat="47.734900" lon="8.143410">
        <ele>703.055964</ele>
        <time>2024-10-16T14:31:14.775Z</time>
      </trkpt>
      <trkpt lat="47.735507" lon="8.143602">
        <ele>704.147763</ele>
        <time>2024-10-16T14:31:28.589Z</time>
      </trkpt>
      <trkpt lat="47.736062" lon="8.143824">
        <ele>705.158896</ele>
        <time>2024-10-16T14:31:42.820Z</time>
      </trkpt>
      <trkpt lat="47.737284" lon="8.144534">
        <ele>708.910291</ele>
        <time>2024-10-16T14:32:16.660Z</time>
      </trkpt>
      <trkpt lat="47.738807" lon="8.145244">
        <ele>714.081148</ele>
        <time>2024-10-16T14:33:02.576Z</time>
      </trkpt>
      <trkpt lat="47.739029" lon="8.145354">
        <ele>714.878667</ele>
        <time>2024-10-16T14:33:09.062Z</time>
      </trkpt>
      <trkpt lat="47.739344" lon="8.145567">
        <ele>716.058036</ele>
        <time>2024-10-16T14:33:18.974Z</time>
      </trkpt>
      <trkpt lat="47.739717" lon="8.145971">
        <ele>717.712164</ele>
        <time>2024-10-16T14:33:31.821Z</time>
      </trkpt>
      <trkpt lat="47.739890" lon="8.146090">
        <ele>718.422892</ele>
        <time>2024-10-16T14:33:37.011Z</time>
      </trkpt>
      <trkpt lat="47.740082" lon="8.146173">
        <ele>719.168429</ele>
        <time>2024-10-16T14:33:43.008Z</time>
      </trkpt>
      <trkpt lat="47.740279" lon="8.146207">
        <ele>719.907901</ele>
        <time>2024-10-16T14:33:48.798Z</time>
      </trkpt>
      <trkpt lat="47.740472" lon="8.146191">
        <ele>720.628646</ele>
        <time>2024-10-16T14:33:54.860Z</time>
      </trkpt>
      <trkpt lat="47.741201" lon="8.146083">
        <ele>723.360280</ele>
        <time>2024-10-16T14:34:16.980Z</time>
      </trkpt>
      <trkpt lat="47.741701" lon="8.146037">
        <ele>726.380182</ele>
        <time>2024-10-16T14:34:32.232Z</time>
      </trkpt>
      <trkpt lat="47.741904" lon="8.145972">
        <ele>727.662248</ele>
        <time>2024-10-16T14:34:39.105Z</time>
      </trkpt>
      <trkpt lat="47.742340" lon="8.145747">
        <ele>730.511639</ele>
        <time>2024-10-16T14:34:56.877Z</time>
      </trkpt>
      <trkpt lat="47.742490" lon="8.145735">
        <ele>731.439092</ele>
        <time>2024-10-16T14:35:03.579Z</time>
      </trkpt>
      <trkpt lat="47.742685" lon="8.145752">
        <ele>732.645106</ele>
        <time>2024-10-16T14:35:12.974Z</time>
      </trkpt>
      <trkpt lat="47.742847" lon="8.145812">
        <ele>733.675864</ele>
        <time>2024-10-16T14:35:21.171Z</time>
      </trkpt>
      <trkpt lat="47.743381" lon="8.146097">
        <ele>737.444160</ele>
        <time>2024-10-16T14:35:50.574Z</time>
      </trkpt>
      <trkpt lat="47.743456" lon="8.146141">
        <ele>737.992725</ele>
        <time>2024-10-16T14:35:54.954Z</time>
      </trkpt>
      <trkpt lat="47.743553" lon="8.146199">
        <ele>738.704053</ele>
        <time>2024-10-16T14:35:59.915Z</time>
      </trkpt>
      <trkpt lat="47.743805" lon="8.146371">
        <ele>740.590600</ele>
        <time>2024-10-16T14:36:13.167Z</time>
      </trkpt>
      <trkpt lat="47.744002" lon="8.146515">
        <ele>742.084133</ele>
        <time>2024-10-16T14:36:22.988Z</time>
      </trkpt>
      <trkpt lat="47.744326" lon="8.146748">
        <ele>744.532815</ele>
        <time>2024-10-16T14:36:37.564Z</time>
      </trkpt>
      <trkpt lat="47.744780" lon="8.147139">
        <ele>746.806610</ele>
        <time>2024-10-16T14:36:53.639Z</time>
      </trkpt>
      <trkpt lat="47.744966" lon="8.147281">
        <ele>746.798012</ele>
        <time>2024-10-16T14:36:57.354Z</time>
      </trkpt>
      <trkpt lat="47.745247" lon="8.147496">
        <ele>746.785017</ele>
        <time>2024-10-16T14:37:02.721Z</time>
      </trkpt>
      <trkpt lat="47.745843" lon="8.147840">
        <ele>746.758726</ele>
        <time>2024-10-16T14:37:10.259Z</time>
      </trkpt>
      <trkpt lat="47.746015" lon="8.147965">
        <ele>746.750854</ele>
        <time>2024-10-16T14:37:12.329Z</time>
      </trkpt>
      <trkpt lat="47.746185" lon="8.148160">
        <ele>746.742025</ele>
        <time>2024-10-16T14:37:14.427Z</time>
      </trkpt>
      <trkpt lat="47.747380" lon="8.149928">
        <ele>744.563358</ele>
        <time>2024-10-16T14:37:34.338Z</time>
      </trkpt>
      <trkpt lat="47.747517" lon="8.150259">
        <ele>744.211521</ele>
        <time>2024-10-16T14:37:38.714Z</time>
      </trkpt>
      <trkpt lat="47.747774" lon="8.151145">
        <ele>743.316269</ele>
        <time>2024-10-16T14:37:46.294Z</time>
      </trkpt>
      <trkpt lat="47.747904" lon="8.151429">
        <ele>742.997514</ele>
        <time>2024-10-16T14:37:48.903Z</time>
      </trkpt>
      <trkpt lat="47.748048" lon="8.151624">
        <ele>742.728793</ele>
        <time>2024-10-16T14:37:51.010Z</time>
      </trkpt>
      <trkpt lat="47.748327" lon="8.151812">
        <ele>742.306150</ele>
        <time>2024-10-16T14:37:54.553Z</time>
      </trkpt>
      <trkpt lat="47.748443" lon="8.151846">
        <ele>742.143011</ele>
        <time>2024-10-16T14:37:55.922Z</time>
      </trkpt>
      <trkpt lat="47.748750" lon="8.151847">
        <ele>741.803400</ele>
        <time>2024-10-16T14:37:59.413Z</time>
      </trkpt>
      <trkpt lat="47.749077" lon="8.151778">
        <ele>741.584825</ele>
        <time>2024-10-16T14:38:03.107Z</time>
      </trkpt>
      <trkpt lat="47.750725" lon="8.151302">
        <ele>740.921536</ele>
        <time>2024-10-16T14:38:25.575Z</time>
      </trkpt>
      <trkpt lat="47.751102" lon="8.151257">
        <ele>741.188446</ele>
        <time>2024-10-16T14:38:34.421Z</time>
      </trkpt>
      <trkpt lat="47.751302" lon="8.151260">
        <ele>741.329596</ele>
        <time>2024-10-16T14:38:38.862Z</time>
      </trkpt>
      <trkpt lat="47.751483" lon="8.151308">
        <ele>741.459345</ele>
        <time>2024-10-16T14:38:43.279Z</time>
      </trkpt>
      <trkpt lat="47.752691" lon="8.151891">
        <ele>742.099836</ele>
        <time>2024-10-16T14:39:02.654Z</time>
      </trkpt>
      <trkpt lat="47.752906" lon="8.151920">
        <ele>742.153735</ele>
        <time>2024-10-16T14:39:06.557Z</time>
      </trkpt>
      <trkpt lat="47.753123" lon="8.151888">
        <ele>742.208179</ele>
        <time>2024-10-16T14:39:10.176Z</time>
      </trkpt>
      <trkpt lat="47.753306" lon="8.151821">
        <ele>742.255232</ele>
        <time>2024-10-16T14:39:13.557Z</time>
      </trkpt>
      <trkpt lat="47.753624" lon="8.151592">
        <ele>742.343442</ele>
        <time>2024-10-16T14:39:19.067Z</time>
      </trkpt>
      <trkpt lat="47.754528" lon="8.150816">
        <ele>742.799127</ele>
        <time>2024-10-16T14:39:33.623Z</time>
      </trkpt>
      <trkpt lat="47.754671" lon="8.150674">
        <ele>742.884970</ele>
        <time>2024-10-16T14:39:36.890Z</time>
      </trkpt>
      <trkpt lat="47.754936" lon="8.150255">
        <ele>743.078059</ele>
        <time>2024-10-16T14:39:44.346Z</time>
      </trkpt>
      <trkpt lat="47.755198" lon="8.149756">
        <ele>743.290575</ele>
        <time>2024-10-16T14:39:52.855Z</time>
      </trkpt>
      <trkpt lat="47.755984" lon="8.148676">
        <ele>744.490314</ele>
        <time>2024-10-16T14:40:11.570Z</time>
      </trkpt>
      <trkpt lat="47.756168" lon="8.148347">
        <ele>744.818526</ele>
        <time>2024-10-16T14:40:17.537Z</time>
      </trkpt>
      <trkpt lat="47.756307" lon="8.148026">
        <ele>745.111356</ele>
        <time>2024-10-16T14:40:22.819Z</time>
      </trkpt>
      <trkpt lat="47.756658" lon="8.147025">
        <ele>746.245057</ele>
        <time>2024-10-16T14:40:39.442Z</time>
      </trkpt>
      <trkpt lat="47.757140" lon="8.145702">
        <ele>747.898904</ele>
        <time>2024-10-16T14:41:01.236Z</time>
      </trkpt>
      <trkpt lat="47.757430" lon="8.144938">
        <ele>748.798064</ele>
        <time>2024-10-16T14:41:13.195Z</time>
      </trkpt>
      <trkpt lat="47.757997" lon="8.143616">
        <ele>750.322530</ele>
        <time>2024-10-16T14:41:34.985Z</time>
      </trkpt>
      <trkpt lat="47.758364" lon="8.142682">
        <ele>751.923926</ele>
        <time>2024-10-16T14:41:49.251Z</time>
      </trkpt>
      <trkpt lat="47.758516" lon="8.142390">
        <ele>752.699228</ele>
        <time>2024-10-16T14:41:55.278Z</time>
      </trkpt>
      <trkpt lat="47.758571" lon="8.142310">
        <ele>752.939450</ele>
        <time>2024-10-16T14:41:57.337Z</time>
      </trkpt>
      <trkpt lat="47.758729" lon="8.142206">
        <ele>753.479005</ele>
        <time>2024-10-16T14:42:01.795Z</time>
      </trkpt>
      <trkpt lat="47.758773" lon="8.142303">
        <ele>753.724662</ele>
        <time>2024-10-16T14:42:04.170Z</time>
      </trkpt>
      <trkpt lat="47.758847" lon="8.142343">
        <ele>753.970536</ele>
        <time>2024-10-16T14:42:06.777Z</time>
      </trkpt>
      <trkpt lat="47.758775" lon="8.142789">
        <ele>754.933457</ele>
        <time>2024-10-16T14:42:16.522Z</time>
      </trkpt>
      <trkpt lat="47.758667" lon="8.143181">
        <ele>755.822827</ele>
        <time>2024-10-16T14:42:25.377Z</time>
      </trkpt>
      <trkpt lat="47.758507" lon="8.143633">
        <ele>757.089099</ele>
        <time>2024-10-16T14:42:36.179Z</time>
      </trkpt>
      <trkpt lat="47.758102" lon="8.144743">
        <ele>761.099498</ele>
        <time>2024-10-16T14:43:02.934Z</time>
      </trkpt>
      <trkpt lat="47.757603" lon="8.146108">
        <ele>766.022277</ele>
        <time>2024-10-16T14:43:41.072Z</time>
      </trkpt>
      <trkpt lat="47.757416" lon="8.146766">
        <ele>768.266038</ele>
        <time>2024-10-16T14:43:58.089Z</time>
      </trkpt>
      <trkpt lat="47.757393" lon="8.147109">
        <ele>769.348699</ele>
        <time>2024-10-16T14:44:05.474Z</time>
      </trkpt>
      <trkpt lat="47.757500" lon="8.148207">
        <ele>772.833404</ele>
        <time>2024-10-16T14:44:28.631Z</time>
      </trkpt>
      <trkpt lat="47.757503" lon="8.148470">
        <ele>773.686710</ele>
        <time>2024-10-16T14:44:34.708Z</time>
      </trkpt>
      <trkpt lat="47.757493" lon="8.148625">
        <ele>774.230330</ele>
        <time>2024-10-16T14:44:38.180Z</time>
      </trkpt>
      <trkpt lat="47.757412" lon="8.148971">
        <ele>775.509426</ele>
        <time>2024-10-16T14:44:46.612Z</time>
      </trkpt>
      <trkpt lat="47.757319" lon="8.149208">
        <ele>776.467479</ele>
        <time>2024-10-16T14:44:52.809Z</time>
      </trkpt>
      <trkpt lat="47.757078" lon="8.149567">
        <ele>778.238702</ele>
        <time>2024-10-16T14:45:04.163Z</time>
      </trkpt>
      <trkpt lat="47.755724" lon="8.151228">
        <ele>790.077899</ele>
        <time>2024-10-16T14:46:11.011Z</time>
      </trkpt>
      <trkpt lat="47.755600" lon="8.151412">
        <ele>791.526749</ele>
        <time>2024-10-16T14:46:20.538Z</time>
      </trkpt>
      <trkpt lat="47.755457" lon="8.151751">
        <ele>793.752369</ele>
        <time>2024-10-16T14:46:35.554Z</time>
      </trkpt>
      <trkpt lat="47.755416" lon="8.151939">
        <ele>794.851509</ele>
        <time>2024-10-16T14:46:43.767Z</time>
      </trkpt>
      <trkpt lat="47.755385" lon="8.152273">
        <ele>796.726572</ele>
        <time>2024-10-16T14:46:56.722Z</time>
      </trkpt>
      <trkpt lat="47.755403" lon="8.152702">
        <ele>799.358299</ele>
        <time>2024-10-16T14:47:14.311Z</time>
      </trkpt>
      <trkpt lat="47.755446" lon="8.153291">
        <ele>803.189677</ele>
        <time>2024-10-16T14:47:37.808Z</time>
      </trkpt>
      <trkpt lat="47.755443" lon="8.153536">
        <ele>804.774323</ele>
        <time>2024-10-16T14:47:47.853Z</time>
      </trkpt>
      <trkpt lat="47.755405" lon="8.153851">
        <ele>806.843921</ele>
        <time>2024-10-16T14:47:59.496Z</time>
      </trkpt>
      <trkpt lat="47.755331" lon="8.154105">
        <ele>808.634108</ele>
        <time>2024-10-16T14:48:10.010Z</time>
      </trkpt>
      <trkpt lat="47.755209" lon="8.154357">
        <ele>810.642327</ele>
        <time>2024-10-16T14:48:20.176Z</time>
      </trkpt>
      <trkpt lat="47.754860" lon="8.154752">
        <ele>814.860733</ele>
        <time>2024-10-16T14:48:41.352Z</time>
      </trkpt>
      <trkpt lat="47.754203" lon="8.155228">
        <ele>818.769445</ele>
        <time>2024-10-16T14:49:10.771Z</time>
      </trkpt>
      <trkpt lat="47.753967" lon="8.155454">
        <ele>820.257655</ele>
        <time>2024-10-16T14:49:19.973Z</time>
      </trkpt>
      <trkpt lat="47.753647" lon="8.155839">
        <ele>822.439905</ele>
        <time>2024-10-16T14:49:33.199Z</time>
      </trkpt>
      <trkpt lat="47.752336" lon="8.157627">
        <ele>830.170046</ele>
        <time>2024-10-16T14:50:26.033Z</time>
      </trkpt>
      <trkpt lat="47.752284" lon="8.157693">
        <ele>830.449168</ele>
        <time>2024-10-16T14:50:28.143Z</time>
      </trkpt>
      <trkpt lat="47.752042" lon="8.158002">
        <ele>831.751459</ele>
        <time>2024-10-16T14:50:38.653Z</time>
      </trkpt>
      <trkpt lat="47.751596" lon="8.158423">
        <ele>835.205259</ele>
        <time>2024-10-16T14:50:57.970Z</time>
      </trkpt>
      <trkpt lat="47.751196" lon="8.158757">
        <ele>838.239910</ele>
        <time>2024-10-16T14:51:16.766Z</time>
      </trkpt>
      <trkpt lat="47.751081" lon="8.158901">
        <ele>839.234396</ele>
        <time>2024-10-16T14:51:23.220Z</time>
      </trkpt>
      <trkpt lat="47.750874" lon="8.159304">
        <ele>841.490115</ele>
        <time>2024-10-16T14:51:38.295Z</time>
      </trkpt>
      <trkpt lat="47.750815" lon="8.159654">
        <ele>843.095062</ele>
        <time>2024-10-16T14:51:50.389Z</time>
      </trkpt>
      <trkpt lat="47.750827" lon="8.159970">
        <ele>844.595776</ele>
        <time>2024-10-16T14:52:00.765Z</time>
      </trkpt>
      <trkpt lat="47.750927" lon="8.160418">
        <ele>846.943317</ele>
        <time>2024-10-16T14:52:15.713Z</time>
      </trkpt>
      <trkpt lat="47.751081" lon="8.160893">
        <ele>849.565849</ele>
        <time>2024-10-16T14:52:32.060Z</time>
      </trkpt>
      <trkpt lat="47.751108" lon="8.160959">
        <ele>849.950057</ele>
        <time>2024-10-16T14:52:34.245Z</time>
      </trkpt>
      <trkpt lat="47.751648" lon="8.162529">
        <ele>858.231656</ele>
        <time>2024-10-16T14:53:25.921Z</time>
      </trkpt>
      <trkpt lat="47.751889" lon="8.163124">
        <ele>860.693728</ele>
        <time>2024-10-16T14:53:42.641Z</time>
      </trkpt>
      <trkpt lat="47.752151" lon="8.163641">
        <ele>862.988430</ele>
        <time>2024-10-16T14:53:57.406Z</time>
      </trkpt>
      <trkpt lat="47.752458" lon="8.164110">
        <ele>865.308484</ele>
        <time>2024-10-16T14:54:11.658Z</time>
      </trkpt>
      <trkpt lat="47.752767" lon="8.164450">
        <ele>867.193178</ele>
        <time>2024-10-16T14:54:24.525Z</time>
      </trkpt>
      <trkpt lat="47.753281" lon="8.164904">
        <ele>869.809023</ele>
        <time>2024-10-16T14:54:44.840Z</time>
      </trkpt>
      <trkpt lat="47.753438" lon="8.165065">
        <ele>870.643476</ele>
        <time>2024-10-16T14:54:51.515Z</time>
      </trkpt>
      <trkpt lat="47.753583" lon="8.165274">
        <ele>871.527011</ele>
        <time>2024-10-16T14:54:57.928Z</time>
      </trkpt>
      <trkpt lat="47.753679" lon="8.165454">
        <ele>872.202942</ele>
        <time>2024-10-16T14:55:03.044Z</time>
      </trkpt>
      <trkpt lat="47.753816" lon="8.165869">
        <ele>873.563076</ele>
        <time>2024-10-16T14:55:12.763Z</time>
      </trkpt>
      <trkpt lat="47.753859" lon="8.166123">
        <ele>874.333648</ele>
        <time>2024-10-16T14:55:17.579Z</time>
      </trkpt>
      <trkpt lat="47.753890" lon="8.166588">
        <ele>875.353219</ele>
        <time>2024-10-16T14:55:26.811Z</time>
      </trkpt>
      <trkpt lat="47.753876" lon="8.166755">
        <ele>875.716734</ele>
        <time>2024-10-16T14:55:30.119Z</time>
      </trkpt>
      <trkpt lat="47.753829" lon="8.166956">
        <ele>876.176405</ele>
        <time>2024-10-16T14:55:34.574Z</time>
      </trkpt>
      <trkpt lat="47.753802" lon="8.167068">
        <ele>876.433407</ele>
        <time>2024-10-16T14:55:36.566Z</time>
      </trkpt>
      <trkpt lat="47.753707" lon="8.167058">
        <ele>876.739385</ele>
        <time>2024-10-16T14:55:39.211Z</time>
      </trkpt>
      <trkpt lat="47.753616" lon="8.167138">
        <ele>877.078997</ele>
        <time>2024-10-16T14:55:42.556Z</time>
      </trkpt>
      <trkpt lat="47.753587" lon="8.167299">
        <ele>877.439025</ele>
        <time>2024-10-16T14:55:45.779Z</time>
      </trkpt>
      <trkpt lat="47.753619" lon="8.167421">
        <ele>877.721892</ele>
        <time>2024-10-16T14:55:48.002Z</time>
      </trkpt>
      <trkpt lat="47.753713" lon="8.167507">
        <ele>878.076451</ele>
        <time>2024-10-16T14:55:51.272Z</time>
      </trkpt>
      <trkpt lat="47.753799" lon="8.167492">
        <ele>878.354643</ele>
        <time>2024-10-16T14:55:53.871Z</time>
      </trkpt>
      <trkpt lat="47.753824" lon="8.167602">
        <ele>878.605453</ele>
        <time>2024-10-16T14:55:55.770Z</time>
      </trkpt>
      <trkpt lat="47.753874" lon="8.167828">
        <ele>879.119366</ele>
        <time>2024-10-16T14:55:59.873Z</time>
      </trkpt>
      <trkpt lat="47.753915" lon="8.168086">
        <ele>879.692004</ele>
        <time>2024-10-16T14:56:04.706Z</time>
      </trkpt>
      <trkpt lat="47.753945" lon="8.168504">
        <ele>880.329078</ele>
        <time>2024-10-16T14:56:11.820Z</time>
      </trkpt>
      <trkpt lat="47.753960" lon="8.168884">
        <ele>880.655350</ele>
        <time>2024-10-16T14:56:18.741Z</time>
      </trkpt>
      <trkpt lat="47.753962" lon="8.168939">
        <ele>880.702562</ele>
        <time>2024-10-16T14:56:19.766Z</time>
      </trkpt>
      <trkpt lat="47.753968" lon="8.169268">
        <ele>880.984663</ele>
        <time>2024-10-16T14:56:25.588Z</time>
      </trkpt>
      <trkpt lat="47.753944" lon="8.170289">
        <ele>881.860334</ele>
        <time>2024-10-16T14:56:42.909Z</time>
      </trkpt>
      <trkpt lat="47.753932" lon="8.170425">
        <ele>881.977904</ele>
        <time>2024-10-16T14:56:45.104Z</time>
      </trkpt>
      <trkpt lat="47.753907" lon="8.170742">
        <ele>882.251479</ele>
        <time>2024-10-16T14:56:49.878Z</time>
      </trkpt>
      <trkpt lat="47.753834" lon="8.171469">
        <ele>882.297934</ele>
        <time>2024-10-16T14:56:59.911Z</time>
      </trkpt>
      <trkpt lat="47.753786" lon="8.171992">
        <ele>882.146995</ele>
        <time>2024-10-16T14:57:06.650Z</time>
      </trkpt>
      <trkpt lat="47.753715" lon="8.173269">
        <ele>881.780590</ele>
        <time>2024-10-16T14:57:21.990Z</time>
      </trkpt>
      <trkpt lat="47.753697" lon="8.174200">
        <ele>881.390090</ele>
        <time>2024-10-16T14:57:33.213Z</time>
      </trkpt>
      <trkpt lat="47.753737" lon="8.174802">
        <ele>881.086669</ele>
        <time>2024-10-16T14:57:40.923Z</time>
      </trkpt>
      <trkpt lat="47.753727" lon="8.175345">
        <ele>880.814210</ele>
        <time>2024-10-16T14:57:47.663Z</time>
      </trkpt>
      <trkpt lat="47.753485" lon="8.176778">
        <ele>879.925430</ele>
        <time>2024-10-16T14:58:04.848Z</time>
      </trkpt>
      <trkpt lat="47.753444" lon="8.177103">
        <ele>879.666766</ele>
        <time>2024-10-16T14:58:08.571Z</time>
      </trkpt>
      <trkpt lat="47.753437" lon="8.177512">
        <ele>879.346727</ele>
        <time>2024-10-16T14:58:13.386Z</time>
      </trkpt>
      <trkpt lat="47.753516" lon="8.178067">
        <ele>878.902961</ele>
        <time>2024-10-16T14:58:19.992Z</time>
      </trkpt>
      <trkpt lat="47.753641" lon="8.178440">
        <ele>878.576949</ele>
        <time>2024-10-16T14:58:24.744Z</time>
      </trkpt>
      <trkpt lat="47.753810" lon="8.178752">
        <ele>878.263537</ele>
        <time>2024-10-16T14:58:29.208Z</time>
      </trkpt>
      <trkpt lat="47.753968" lon="8.178974">
        <ele>878.127500</ele>
        <time>2024-10-16T14:58:32.631Z</time>
      </trkpt>
      <trkpt lat="47.754002" lon="8.179024">
        <ele>878.099684</ele>
        <time>2024-10-16T14:58:33.392Z</time>
      </trkpt>
      <trkpt lat="47.754080" lon="8.179018">
        <ele>878.054244</ele>
        <time>2024-10-16T14:58:34.276Z</time>
      </trkpt>
      <trkpt lat="47.754231" lon="8.179279">
        <ele>877.919562</ele>
        <time>2024-10-16T14:58:36.935Z</time>
      </trkpt>
      <trkpt lat="47.754826" lon="8.180307">
        <ele>877.388996</ele>
        <time>2024-10-16T14:58:49.622Z</time>
      </trkpt>
      <trkpt lat="47.755041" lon="8.180681">
        <ele>877.194837</ele>
        <time>2024-10-16T14:58:55.524Z</time>
      </trkpt>
      <trkpt lat="47.755271" lon="8.181004">
        <ele>876.791718</ele>
        <time>2024-10-16T14:59:00.348Z</time>
      </trkpt>
      <trkpt lat="47.755524" lon="8.181283">
        <ele>876.390342</ele>
        <time>2024-10-16T14:59:04.394Z</time>
      </trkpt>
      <trkpt lat="47.756076" lon="8.181744">
        <ele>875.583564</ele>
        <time>2024-10-16T14:59:11.530Z</time>
      </trkpt>
      <trkpt lat="47.756399" lon="8.182115">
        <ele>875.063484</ele>
        <time>2024-10-16T14:59:15.917Z</time>
      </trkpt>
      <trkpt lat="47.756577" lon="8.182500">
        <ele>874.733703</ele>
        <time>2024-10-16T14:59:19.342Z</time>
      </trkpt>
      <trkpt lat="47.756805" lon="8.183310">
        <ele>874.200170</ele>
        <time>2024-10-16T14:59:25.710Z</time>
      </trkpt>
      <trkpt lat="47.756907" lon="8.183583">
        <ele>874.010407</ele>
        <time>2024-10-16T14:59:27.981Z</time>
      </trkpt>
      <trkpt lat="47.757049" lon="8.183865">
        <ele>873.796339</ele>
        <time>2024-10-16T14:59:30.588Z</time>
      </trkpt>
      <trkpt lat="47.757826" lon="8.185151">
        <ele>876.134726</ele>
        <time>2024-10-16T14:59:54.216Z</time>
      </trkpt>
      <trkpt lat="47.758034" lon="8.185450">
        <ele>877.531182</ele>
        <time>2024-10-16T15:00:04.727Z</time>
      </trkpt>
      <trkpt lat="47.758140" lon="8.185560">
        <ele>878.155153</ele>
        <time>2024-10-16T15:00:10.056Z</time>
      </trkpt>
      <trkpt lat="47.758365" lon="8.185713">
        <ele>879.349524</ele>
        <time>2024-10-16T15:00:20.359Z</time>
      </trkpt>
      <trkpt lat="47.758740" lon="8.185737">
        <ele>881.161619</ele>
        <time>2024-10-16T15:00:37.274Z</time>
      </trkpt>
      <trkpt lat="47.758924" lon="8.185677">
        <ele>882.097227</ele>
        <time>2024-10-16T15:00:46.581Z</time>
      </trkpt>
      <trkpt lat="47.760562" lon="8.184860">
        <ele>892.473199</ele>
        <time>2024-10-16T15:01:57.784Z</time>
      </trkpt>
      <trkpt lat="47.761010" lon="8.184773">
        <ele>892.776285</ele>
        <time>2024-10-16T15:02:07.954Z</time>
      </trkpt>
      <trkpt lat="47.761986" lon="8.184779">
        <ele>892.800814</ele>
        <time>2024-10-16T15:02:20.968Z</time>
      </trkpt>
      <trkpt lat="47.762194" lon="8.184734">
        <ele>892.806096</ele>
        <time>2024-10-16T15:02:23.155Z</time>
      </trkpt>
      <trkpt lat="47.762940" lon="8.184457">
        <ele>891.564327</ele>
        <time>2024-10-16T15:02:31.045Z</time>
      </trkpt>
      <trkpt lat="47.763205" lon="8.184392">
        <ele>890.965672</ele>
        <time>2024-10-16T15:02:33.833Z</time>
      </trkpt>
      <trkpt lat="47.763468" lon="8.184360">
        <ele>890.377492</ele>
        <time>2024-10-16T15:02:36.653Z</time>
      </trkpt>
      <trkpt lat="47.764591" lon="8.184366">
        <ele>888.274255</ele>
        <time>2024-10-16T15:02:49.286Z</time>
      </trkpt>
      <trkpt lat="47.764801" lon="8.184309">
        <ele>888.003520</ele>
        <time>2024-10-16T15:02:52.011Z</time>
      </trkpt>
      <trkpt lat="47.765013" lon="8.184224">
        <ele>887.725052</ele>
        <time>2024-10-16T15:02:55.294Z</time>
      </trkpt>
      <trkpt lat="47.765400" lon="8.183961">
        <ele>887.185445</ele>
        <time>2024-10-16T15:03:00.448Z</time>
      </trkpt>
      <trkpt lat="47.765591" lon="8.183774">
        <ele>886.895454</ele>
        <time>2024-10-16T15:03:03.011Z</time>
      </trkpt>
      <trkpt lat="47.765773" lon="8.183537">
        <ele>886.588695</ele>
        <time>2024-10-16T15:03:05.827Z</time>
      </trkpt>
      <trkpt lat="47.766119" lon="8.182978">
        <ele>886.106262</ele>
        <time>2024-10-16T15:03:11.447Z</time>
      </trkpt>
      <trkpt lat="47.766191" lon="8.182727">
        <ele>885.939934</ele>
        <time>2024-10-16T15:03:13.888Z</time>
      </trkpt>
      <trkpt lat="47.766254" lon="8.182658">
        <ele>885.868999</ele>
        <time>2024-10-16T15:03:15.079Z</time>
      </trkpt>
      <trkpt lat="47.766410" lon="8.182672">
        <ele>885.727289</ele>
        <time>2024-10-16T15:03:16.663Z</time>
      </trkpt>
      <trkpt lat="47.766652" lon="8.182511">
        <ele>885.486916</ele>
        <time>2024-10-16T15:03:20.392Z</time>
      </trkpt>
      <trkpt lat="47.766908" lon="8.182425">
        <ele>885.248944</ele>
        <time>2024-10-16T15:03:24.500Z</time>
      </trkpt>
      <trkpt lat="47.767082" lon="8.182401">
        <ele>885.090493</ele>
        <time>2024-10-16T15:03:26.511Z</time>
      </trkpt>
      <trkpt lat="47.767434" lon="8.182461">
        <ele>884.948633</ele>
        <time>2024-10-16T15:03:31.998Z</time>
      </trkpt>
      <trkpt lat="47.768096" lon="8.182674">
        <ele>885.245869</ele>
        <time>2024-10-16T15:03:41.400Z</time>
      </trkpt>
      <trkpt lat="47.768273" lon="8.182688">
        <ele>885.323655</ele>
        <time>2024-10-16T15:03:44.652Z</time>
      </trkpt>
      <trkpt lat="47.768871" lon="8.182630">
        <ele>885.586646</ele>
        <time>2024-10-16T15:03:55.542Z</time>
      </trkpt>
      <trkpt lat="47.769160" lon="8.182653">
        <ele>885.783177</ele>
        <time>2024-10-16T15:04:01.448Z</time>
      </trkpt>
      <trkpt lat="47.770043" lon="8.182827">
        <ele>886.968789</ele>
        <time>2024-10-16T15:04:19.568Z</time>
      </trkpt>
      <trkpt lat="47.770617" lon="8.182847">
        <ele>887.733041</ele>
        <time>2024-10-16T15:04:30.946Z</time>
      </trkpt>
      <trkpt lat="47.770874" lon="8.182812">
        <ele>888.073153</ele>
        <time>2024-10-16T15:04:35.925Z</time>
      </trkpt>
      <trkpt lat="47.771165" lon="8.182722">
        <ele>888.011998</ele>
        <time>2024-10-16T15:04:42.262Z</time>
      </trkpt>
      <trkpt lat="47.771487" lon="8.182545">
        <ele>887.941368</ele>
        <time>2024-10-16T15:04:49.766Z</time>
      </trkpt>
      <trkpt lat="47.772546" lon="8.181809">
        <ele>887.643986</ele>
        <time>2024-10-16T15:05:05.487Z</time>
      </trkpt>
      <trkpt lat="47.772945" lon="8.181648">
        <ele>885.735124</ele>
        <time>2024-10-16T15:05:09.507Z</time>
      </trkpt>
      <trkpt lat="47.773295" lon="8.181584">
        <ele>884.106897</ele>
        <time>2024-10-16T15:05:12.793Z</time>
      </trkpt>
      <trkpt lat="47.774113" lon="8.181679">
        <ele>880.318425</ele>
        <time>2024-10-16T15:05:20.350Z</time>
      </trkpt>
      <trkpt lat="47.774694" lon="8.181795">
        <ele>878.344498</ele>
        <time>2024-10-16T15:05:25.879Z</time>
      </trkpt>
      <trkpt lat="47.775214" lon="8.181788">
        <ele>876.928071</ele>
        <time>2024-10-16T15:05:31.098Z</time>
      </trkpt>
      <trkpt lat="47.775539" lon="8.181647">
        <ele>876.005983</ele>
        <time>2024-10-16T15:05:35.039Z</time>
      </trkpt>
      <trkpt lat="47.775704" lon="8.181540">
        <ele>875.515733</ele>
        <time>2024-10-16T15:05:37.240Z</time>
      </trkpt>
      <trkpt lat="47.776401" lon="8.180919">
        <ele>873.371638</ele>
        <time>2024-10-16T15:05:47.475Z</time>
      </trkpt>
      <trkpt lat="47.776695" lon="8.180722">
        <ele>872.543808</ele>
        <time>2024-10-16T15:05:51.050Z</time>
      </trkpt>
      <trkpt lat="47.776852" lon="8.180653">
        <ele>872.123506</ele>
        <time>2024-10-16T15:05:52.878Z</time>
      </trkpt>
      <trkpt lat="47.777008" lon="8.180612">
        <ele>871.716784</ele>
        <time>2024-10-16T15:05:54.440Z</time>
      </trkpt>
      <trkpt lat="47.777172" lon="8.180595">
        <ele>871.294702</ele>
        <time>2024-10-16T15:05:56.116Z</time>
      </trkpt>
      <trkpt lat="47.777332" lon="8.180611">
        <ele>870.882983</ele>
        <time>2024-10-16T15:05:57.690Z</time>
      </trkpt>
      <trkpt lat="47.777639" lon="8.180706">
        <ele>870.077914</ele>
        <time>2024-10-16T15:06:00.757Z</time>
      </trkpt>
      <trkpt lat="47.777843" lon="8.180818">
        <ele>869.532688</ele>
        <time>2024-10-16T15:06:02.831Z</time>
      </trkpt>
      <trkpt lat="47.778358" lon="8.181268">
        <ele>868.054623</ele>
        <time>2024-10-16T15:06:08.622Z</time>
      </trkpt>
      <trkpt lat="47.778964" lon="8.181921">
        <ele>866.202913</ele>
        <time>2024-10-16T15:06:16.504Z</time>
      </trkpt>
      <trkpt lat="47.779242" lon="8.182162">
        <ele>865.450180</ele>
        <time>2024-10-16T15:06:21.057Z</time>
      </trkpt>
      <trkpt lat="47.779458" lon="8.182294">
        <ele>865.947055</ele>
        <time>2024-10-16T15:06:25.555Z</time>
      </trkpt>
      <trkpt lat="47.779679" lon="8.182360">
        <ele>866.426699</ele>
        <time>2024-10-16T15:06:30.310Z</time>
      </trkpt>
      <trkpt lat="47.780130" lon="8.182411">
        <ele>867.389152</ele>
        <time>2024-10-16T15:06:41.233Z</time>
      </trkpt>
      <trkpt lat="47.780515" lon="8.182402">
        <ele>868.208498</ele>
        <time>2024-10-16T15:06:51.082Z</time>
      </trkpt>
      <trkpt lat="47.780816" lon="8.182352">
        <ele>868.852976</ele>
        <time>2024-10-16T15:06:59.662Z</time>
      </trkpt>
      <trkpt lat="47.781568" lon="8.182155">
        <ele>870.206404</ele>
        <time>2024-10-16T15:07:22.465Z</time>
      </trkpt>
      <trkpt lat="47.782002" lon="8.181976">
        <ele>870.951631</ele>
        <time>2024-10-16T15:07:32.079Z</time>
      </trkpt>
      <trkpt lat="47.782303" lon="8.181799">
        <ele>871.487181</ele>
        <time>2024-10-16T15:07:37.496Z</time>
      </trkpt>
      <trkpt lat="47.782848" lon="8.181456">
        <ele>872.180835</ele>
        <time>2024-10-16T15:07:46.339Z</time>
      </trkpt>
      <trkpt lat="47.783032" lon="8.181354">
        <ele>872.107015</ele>
        <time>2024-10-16T15:07:49.142Z</time>
      </trkpt>
      <trkpt lat="47.783150" lon="8.181289">
        <ele>872.059710</ele>
        <time>2024-10-16T15:07:51.513Z</time>
      </trkpt>
      <trkpt lat="47.783789" lon="8.180958">
        <ele>871.805334</ele>
        <time>2024-10-16T15:08:01.272Z</time>
      </trkpt>
      <trkpt lat="47.784292" lon="8.180773">
        <ele>871.610535</ele>
        <time>2024-10-16T15:08:07.623Z</time>
      </trkpt>
      <trkpt lat="47.785445" lon="8.180422">
        <ele>870.555260</ele>
        <time>2024-10-16T15:08:22.184Z</time>
      </trkpt>
      <trkpt lat="47.785939" lon="8.180283">
        <ele>870.068780</ele>
        <time>2024-10-16T15:08:28.916Z</time>
      </trkpt>
      <trkpt lat="47.786281" lon="8.180239">
        <ele>869.807792</ele>
        <time>2024-10-16T15:08:32.776Z</time>
      </trkpt>
      <trkpt lat="47.786572" lon="8.180234">
        <ele>869.775416</ele>
        <time>2024-10-16T15:08:35.990Z</time>
      </trkpt>
      <trkpt lat="47.786709" lon="8.180262">
        <ele>869.760032</ele>
        <time>2024-10-16T15:08:37.732Z</time>
      </trkpt>
      <trkpt lat="47.787062" lon="8.179989">
        <ele>869.715775</ele>
        <time>2024-10-16T15:08:42.465Z</time>
      </trkpt>
      <trkpt lat="47.787127" lon="8.180068">
        <ele>869.706439</ele>
        <time>2024-10-16T15:08:43.375Z</time>
      </trkpt>
      <trkpt lat="47.786985" lon="8.180334">
        <ele>869.681044</ele>
        <time>2024-10-16T15:08:47.170Z</time>
      </trkpt>
      <trkpt lat="47.786942" lon="8.180481">
        <ele>869.669060</ele>
        <time>2024-10-16T15:08:48.512Z</time>
      </trkpt>
      <trkpt lat="47.787039" lon="8.180534">
        <ele>869.657564</ele>
        <time>2024-10-16T15:08:50.361Z</time>
      </trkpt>
      <trkpt lat="47.787210" lon="8.180640">
        <ele>869.636956</ele>
        <time>2024-10-16T15:08:54.385Z</time>
      </trkpt>
      <trkpt lat="47.787378" lon="8.180767">
        <ele>869.657128</ele>
        <time>2024-10-16T15:08:58.201Z</time>
      </trkpt>
      <trkpt lat="47.787482" lon="8.180862">
        <ele>870.234635</ele>
        <time>2024-10-16T15:09:01.612Z</time>
      </trkpt>
      <trkpt lat="47.787589" lon="8.180958">
        <ele>870.825924</ele>
        <time>2024-10-16T15:09:04.471Z</time>
      </trkpt>
      <trkpt lat="47.787767" lon="8.181132">
        <ele>871.833789</ele>
        <time>2024-10-16T15:09:11.181Z</time>
      </trkpt>
      <trkpt lat="47.787900" lon="8.181267">
        <ele>872.595679</ele>
        <time>2024-10-16T15:09:15.718Z</time>
      </trkpt>
      <trkpt lat="47.789152" lon="8.182507">
        <ele>879.750098</ele>
        <time>2024-10-16T15:10:13.692Z</time>
      </trkpt>
      <trkpt lat="47.789508" lon="8.182814">
        <ele>881.742951</ele>
        <time>2024-10-16T15:10:29.996Z</time>
      </trkpt>
      <trkpt lat="47.789752" lon="8.182944">
        <ele>882.998238</ele>
        <time>2024-10-16T15:10:39.315Z</time>
      </trkpt>
      <trkpt lat="47.790142" lon="8.183055">
        <ele>884.921490</ele>
        <time>2024-10-16T15:10:52.375Z</time>
      </trkpt>
      <trkpt lat="47.790441" lon="8.183061">
        <ele>886.369874</ele>
        <time>2024-10-16T15:11:01.005Z</time>
      </trkpt>
      <trkpt lat="47.790994" lon="8.183009">
        <ele>888.071542</ele>
        <time>2024-10-16T15:11:14.916Z</time>
      </trkpt>
      <trkpt lat="47.791466" lon="8.182903">
        <ele>889.357154</ele>
        <time>2024-10-16T15:11:26.375Z</time>
      </trkpt>
      <trkpt lat="47.791969" lon="8.182741">
        <ele>890.743218</ele>
        <time>2024-10-16T15:11:38.706Z</time>
      </trkpt>
      <trkpt lat="47.792474" lon="8.182522">
        <ele>892.322140</ele>
        <time>2024-10-16T15:11:52.556Z</time>
      </trkpt>
      <trkpt lat="47.793338" lon="8.182091">
        <ele>895.616015</ele>
        <time>2024-10-16T15:12:19.417Z</time>
      </trkpt>
      <trkpt lat="47.793676" lon="8.181978">
        <ele>896.868243</ele>
        <time>2024-10-16T15:12:29.775Z</time>
      </trkpt>
      <trkpt lat="47.794018" lon="8.181924">
        <ele>898.111429</ele>
        <time>2024-10-16T15:12:40.268Z</time>
      </trkpt>
      <trkpt lat="47.794468" lon="8.181956">
        <ele>900.082447</ele>
        <time>2024-10-16T15:12:54.650Z</time>
      </trkpt>
      <trkpt lat="47.795535" lon="8.182204">
        <ele>904.847293</ele>
        <time>2024-10-16T15:13:28.882Z</time>
      </trkpt>
      <trkpt lat="47.795800" lon="8.182201">
        <ele>906.016557</ele>
        <time>2024-10-16T15:13:36.562Z</time>
      </trkpt>
      <trkpt lat="47.796079" lon="8.182146">
        <ele>907.967629</ele>
        <time>2024-10-16T15:13:46.691Z</time>
      </trkpt>
      <trkpt lat="47.796329" lon="8.182058">
        <ele>909.809406</ele>
        <time>2024-10-16T15:13:58.253Z</time>
      </trkpt>
      <trkpt lat="47.797132" lon="8.181658">
        <ele>915.880203</ele>
        <time>2024-10-16T15:14:36.669Z</time>
      </trkpt>
      <trkpt lat="47.797322" lon="8.181609">
        <ele>917.262679</ele>
        <time>2024-10-16T15:14:46.723Z</time>
      </trkpt>
      <trkpt lat="47.797711" lon="8.181619">
        <ele>919.976359</ele>
        <time>2024-10-16T15:15:05.235Z</time>
      </trkpt>
      <trkpt lat="47.797944" lon="8.181689">
        <ele>921.555809</ele>
        <time>2024-10-16T15:15:16.142Z</time>
      </trkpt>
      <trkpt lat="47.798150" lon="8.181794">
        <ele>923.002649</ele>
        <time>2024-10-16T15:15:26.024Z</time>
      </trkpt>
      <trkpt lat="47.798385" lon="8.181994">
        <ele>924.801346</ele>
        <time>2024-10-16T15:15:39.271Z</time>
      </trkpt>
      <trkpt lat="47.798551" lon="8.182191">
        <ele>926.211983</ele>
        <time>2024-10-16T15:15:48.974Z</time>
      </trkpt>
      <trkpt lat="47.798885" lon="8.182775">
        <ele>929.635507</ele>
        <time>2024-10-16T15:16:09.134Z</time>
      </trkpt>
      <trkpt lat="47.799306" lon="8.183723">
        <ele>932.312535</ele>
        <time>2024-10-16T15:16:29.153Z</time>
      </trkpt>
      <trkpt lat="47.799359" lon="8.183846">
        <ele>932.546794</ele>
        <time>2024-10-16T15:16:31.014Z</time>
      </trkpt>
      <trkpt lat="47.799490" lon="8.184136">
        <ele>933.107028</ele>
        <time>2024-10-16T15:16:37.841Z</time>
      </trkpt>
      <trkpt lat="47.799561" lon="8.184071">
        <ele>933.305945</ele>
        <time>2024-10-16T15:16:38.813Z</time>
      </trkpt>
      <trkpt lat="47.799581" lon="8.184122">
        <ele>933.400614</ele>
        <time>2024-10-16T15:16:39.888Z</time>
      </trkpt>
      <trkpt lat="47.800217" lon="8.185709">
        <ele>935.930137</ele>
        <time>2024-10-16T15:17:06.212Z</time>
      </trkpt>
      <trkpt lat="47.800471" lon="8.186523">
        <ele>936.803001</ele>
        <time>2024-10-16T15:17:19.325Z</time>
      </trkpt>
      <trkpt lat="47.800798" lon="8.188307">
        <ele>938.336916</ele>
        <time>2024-10-16T15:17:43.569Z</time>
      </trkpt>
      <trkpt lat="47.800888" lon="8.189034">
        <ele>938.797108</ele>
        <time>2024-10-16T15:17:52.512Z</time>
      </trkpt>
      <trkpt lat="47.800886" lon="8.189264">
        <ele>938.940299</ele>
        <time>2024-10-16T15:17:55.272Z</time>
      </trkpt>
      <trkpt lat="47.800822" lon="8.189840">
        <ele>939.303742</ele>
        <time>2024-10-16T15:18:02.417Z</time>
      </trkpt>
      <trkpt lat="47.800526" lon="8.191473">
        <ele>939.988461</ele>
        <time>2024-10-16T15:18:23.241Z</time>
      </trkpt>
      <trkpt lat="47.800063" lon="8.194907">
        <ele>940.179932</ele>
        <time>2024-10-16T15:18:59.577Z</time>
      </trkpt>
      <trkpt lat="47.799947" lon="8.195671">
        <ele>939.777141</ele>
        <time>2024-10-16T15:19:06.136Z</time>
      </trkpt>
      <trkpt lat="47.799761" lon="8.197047">
        <ele>937.918003</ele>
        <time>2024-10-16T15:19:16.468Z</time>
      </trkpt>
      <trkpt lat="47.799759" lon="8.197658">
        <ele>937.108683</ele>
        <time>2024-10-16T15:19:20.601Z</time>
      </trkpt>
      <trkpt lat="47.799818" lon="8.197974">
        <ele>936.674252</ele>
        <time>2024-10-16T15:19:22.963Z</time>
      </trkpt>
      <trkpt lat="47.799920" lon="8.198271">
        <ele>936.366720</ele>
        <time>2024-10-16T15:19:25.460Z</time>
      </trkpt>
      <trkpt lat="47.800081" lon="8.198564">
        <ele>936.067604</ele>
        <time>2024-10-16T15:19:28.385Z</time>
      </trkpt>
      <trkpt lat="47.800200" lon="8.198692">
        <ele>935.894903</ele>
        <time>2024-10-16T15:19:30.114Z</time>
      </trkpt>
      <trkpt lat="47.800260" lon="8.198712">
        <ele>935.822575</ele>
        <time>2024-10-16T15:19:30.842Z</time>
      </trkpt>
      <trkpt lat="47.800321" lon="8.198710">
        <ele>935.750801</ele>
        <time>2024-10-16T15:19:31.567Z</time>
      </trkpt>
      <trkpt lat="47.800439" lon="8.198646">
        <ele>935.603068</ele>
        <time>2024-10-16T15:19:33.046Z</time>
      </trkpt>
      <trkpt lat="47.800497" lon="8.198664">
        <ele>935.533373</ele>
        <time>2024-10-16T15:19:33.769Z</time>
      </trkpt>
      <trkpt lat="47.800558" lon="8.198689">
        <ele>935.458947</ele>
        <time>2024-10-16T15:19:34.544Z</time>
      </trkpt>
      <trkpt lat="47.800804" lon="8.198825">
        <ele>935.150258</ele>
        <time>2024-10-16T15:19:37.725Z</time>
      </trkpt>
      <trkpt lat="47.800938" lon="8.198843">
        <ele>934.991988</ele>
        <time>2024-10-16T15:19:39.397Z</time>
      </trkpt>
      <trkpt lat="47.801096" lon="8.198814">
        <ele>934.804718</ele>
        <time>2024-10-16T15:19:41.295Z</time>
      </trkpt>
      <trkpt lat="47.801229" lon="8.198735">
        <ele>934.636272</ele>
        <time>2024-10-16T15:19:43.146Z</time>
      </trkpt>
      <trkpt lat="47.801369" lon="8.198603">
        <ele>934.454250</ele>
        <time>2024-10-16T15:19:45.253Z</time>
      </trkpt>
      <trkpt lat="47.801610" lon="8.198207">
        <ele>934.701234</ele>
        <time>2024-10-16T15:19:50.417Z</time>
      </trkpt>
      <trkpt lat="47.801707" lon="8.197958">
        <ele>934.834276</ele>
        <time>2024-10-16T15:19:53.743Z</time>
      </trkpt>
      <trkpt lat="47.801850" lon="8.197446">
        <ele>935.090564</ele>
        <time>2024-10-16T15:20:01.028Z</time>
      </trkpt>
      <trkpt lat="47.802333" lon="8.195236">
        <ele>936.004682</ele>
        <time>2024-10-16T15:20:31.349Z</time>
      </trkpt>
      <trkpt lat="47.802732" lon="8.193435">
        <ele>936.375942</ele>
        <time>2024-10-16T15:20:50.467Z</time>
      </trkpt>
      <trkpt lat="47.802949" lon="8.192715">
        <ele>935.955911</ele>
        <time>2024-10-16T15:20:57.704Z</time>
      </trkpt>
      <trkpt lat="47.803264" lon="8.191839">
        <ele>935.427050</ele>
        <time>2024-10-16T15:21:05.713Z</time>
      </trkpt>
      <trkpt lat="47.803545" lon="8.191226">
        <ele>935.080731</ele>
        <time>2024-10-16T15:21:11.444Z</time>
      </trkpt>
      <trkpt lat="47.803689" lon="8.190979">
        <ele>935.067378</ele>
        <time>2024-10-16T15:21:14.049Z</time>
      </trkpt>
      <trkpt lat="47.803906" lon="8.190668">
        <ele>935.049071</ele>
        <time>2024-10-16T15:21:17.953Z</time>
      </trkpt>
      <trkpt lat="47.804328" lon="8.190187">
        <ele>935.016768</ele>
        <time>2024-10-16T15:21:26.127Z</time>
      </trkpt>
      <trkpt lat="47.804488" lon="8.190032">
        <ele>935.005165</ele>
        <time>2024-10-16T15:21:29.797Z</time>
      </trkpt>
      <trkpt lat="47.804946" lon="8.189688">
        <ele>934.987590</ele>
        <time>2024-10-16T15:21:37.870Z</time>
      </trkpt>
      <trkpt lat="47.805407" lon="8.189426">
        <ele>935.235808</ele>
        <time>2024-10-16T15:21:47.434Z</time>
      </trkpt>
      <trkpt lat="47.805690" lon="8.189261">
        <ele>935.388693</ele>
        <time>2024-10-16T15:21:53.414Z</time>
      </trkpt>
      <trkpt lat="47.805903" lon="8.189096">
        <ele>935.509473</ele>
        <time>2024-10-16T15:21:58.138Z</time>
      </trkpt>
      <trkpt lat="47.806274" lon="8.188720">
        <ele>935.735231</ele>
        <time>2024-10-16T15:22:05.536Z</time>
      </trkpt>
      <trkpt lat="47.806460" lon="8.188442">
        <ele>935.867806</ele>
        <time>2024-10-16T15:22:09.413Z</time>
      </trkpt>
      <trkpt lat="47.806589" lon="8.188197">
        <ele>935.686545</ele>
        <time>2024-10-16T15:22:12.045Z</time>
      </trkpt>
      <trkpt lat="47.806733" lon="8.187882">
        <ele>935.417727</ele>
        <time>2024-10-16T15:22:15.072Z</time>
      </trkpt>
      <trkpt lat="47.806831" lon="8.187591">
        <ele>935.188071</ele>
        <time>2024-10-16T15:22:17.567Z</time>
      </trkpt>
      <trkpt lat="47.807277" lon="8.186080">
        <ele>934.023699</ele>
        <time>2024-10-16T15:22:30.701Z</time>
      </trkpt>
      <trkpt lat="47.807413" lon="8.185706">
        <ele>933.858855</ele>
        <time>2024-10-16T15:22:34.085Z</time>
      </trkpt>
      <trkpt lat="47.807798" lon="8.184828">
        <ele>933.493278</ele>
        <time>2024-10-16T15:22:42.715Z</time>
      </trkpt>
      <trkpt lat="47.808709" lon="8.183032">
        <ele>933.172130</ele>
        <time>2024-10-16T15:23:05.716Z</time>
      </trkpt>
      <trkpt lat="47.809227" lon="8.182067">
        <ele>933.314032</ele>
        <time>2024-10-16T15:23:18.482Z</time>
      </trkpt>
      <trkpt lat="47.809717" lon="8.181303">
        <ele>933.626927</ele>
        <time>2024-10-16T15:23:30.104Z</time>
      </trkpt>
      <trkpt lat="47.809995" lon="8.180968">
        <ele>933.854303</ele>
        <time>2024-10-16T15:23:36.058Z</time>
      </trkpt>
      <trkpt lat="47.810165" lon="8.180806">
        <ele>933.982625</ele>
        <time>2024-10-16T15:23:39.482Z</time>
      </trkpt>
      <trkpt lat="47.810587" lon="8.180500">
        <ele>934.281046</ele>
        <time>2024-10-16T15:23:47.776Z</time>
      </trkpt>
      <trkpt lat="47.810811" lon="8.180408">
        <ele>934.428779</ele>
        <time>2024-10-16T15:23:52.057Z</time>
      </trkpt>
      <trkpt lat="47.811478" lon="8.180225">
        <ele>934.927314</ele>
        <time>2024-10-16T15:24:05.205Z</time>
      </trkpt>
      <trkpt lat="47.812515" lon="8.179987">
        <ele>935.722167</ele>
        <time>2024-10-16T15:24:24.441Z</time>
      </trkpt>
      <trkpt lat="47.812973" lon="8.179914">
        <ele>935.653101</ele>
        <time>2024-10-16T15:24:32.160Z</time>
      </trkpt>
      <trkpt lat="47.814322" lon="8.179699">
        <ele>934.534134</ele>
        <time>2024-10-16T15:24:48.739Z</time>
      </trkpt>
      <trkpt lat="47.814505" lon="8.179657">
        <ele>934.375064</ele>
        <time>2024-10-16T15:24:50.823Z</time>
      </trkpt>
      <trkpt lat="47.814587" lon="8.179618">
        <ele>934.230077</ele>
        <time>2024-10-16T15:24:51.731Z</time>
      </trkpt>
      <trkpt lat="47.814642" lon="8.179553">
        <ele>934.111811</ele>
        <time>2024-10-16T15:24:52.467Z</time>
      </trkpt>
      <trkpt lat="47.814810" lon="8.179541">
        <ele>933.828521</ele>
        <time>2024-10-16T15:24:54.383Z</time>
      </trkpt>
      <trkpt lat="47.815130" lon="8.179393">
        <ele>933.264144</ele>
        <time>2024-10-16T15:24:58.095Z</time>
      </trkpt>
      <trkpt lat="47.815252" lon="8.179377">
        <ele>933.057862</ele>
        <time>2024-10-16T15:24:59.442Z</time>
      </trkpt>
      <trkpt lat="47.815519" lon="8.179395">
        <ele>932.607690</ele>
        <time>2024-10-16T15:25:02.501Z</time>
      </trkpt>
      <trkpt lat="47.815708" lon="8.179272">
        <ele>932.260283</ele>
        <time>2024-10-16T15:25:04.718Z</time>
      </trkpt>
      <trkpt lat="47.816062" lon="8.178923">
        <ele>931.545213</ele>
        <time>2024-10-16T15:25:09.458Z</time>
      </trkpt>
      <trkpt lat="47.816408" lon="8.178442">
        <ele>931.109920</ele>
        <time>2024-10-16T15:25:15.097Z</time>
      </trkpt>
      <trkpt lat="47.816476" lon="8.178262">
        <ele>931.014916</ele>
        <time>2024-10-16T15:25:17.377Z</time>
      </trkpt>
      <trkpt lat="47.816510" lon="8.178161">
        <ele>930.962945</ele>
        <time>2024-10-16T15:25:18.757Z</time>
      </trkpt>
      <trkpt lat="47.816587" lon="8.177996">
        <ele>930.870516</ele>
        <time>2024-10-16T15:25:21.783Z</time>
      </trkpt>
      <trkpt lat="47.816640" lon="8.177884">
        <ele>930.807489</ele>
        <time>2024-10-16T15:25:23.443Z</time>
      </trkpt>
      <trkpt lat="47.816783" lon="8.177618">
        <ele>930.650748</ele>
        <time>2024-10-16T15:25:27.951Z</time>
      </trkpt>
      <trkpt lat="47.816822" lon="8.177546">
        <ele>930.608196</ele>
        <time>2024-10-16T15:25:29.197Z</time>
      </trkpt>
      <trkpt lat="47.816876" lon="8.177519">
        <ele>930.569175</ele>
        <time>2024-10-16T15:25:30.215Z</time>
      </trkpt>
      <trkpt lat="47.816955" lon="8.177354">
        <ele>930.475958</ele>
        <time>2024-10-16T15:25:32.700Z</time>
      </trkpt>
      <trkpt lat="47.817127" lon="8.176919">
        <ele>930.243747</ele>
        <time>2024-10-16T15:25:39.421Z</time>
      </trkpt>
      <trkpt lat="47.817237" lon="8.176680">
        <ele>930.113948</ele>
        <time>2024-10-16T15:25:43.234Z</time>
      </trkpt>
      <trkpt lat="47.817337" lon="8.176451">
        <ele>930.016620</ele>
        <time>2024-10-16T15:25:46.333Z</time>
      </trkpt>
      <trkpt lat="47.817446" lon="8.176215">
        <ele>929.914563</ele>
        <time>2024-10-16T15:25:49.816Z</time>
      </trkpt>
      <trkpt lat="47.817538" lon="8.175998">
        <ele>929.823125</ele>
        <time>2024-10-16T15:25:52.733Z</time>
      </trkpt>
      <trkpt lat="47.817635" lon="8.175787">
        <ele>929.732016</ele>
        <time>2024-10-16T15:25:55.907Z</time>
      </trkpt>
      <trkpt lat="47.817726" lon="8.175587">
        <ele>929.645938</ele>
        <time>2024-10-16T15:25:58.709Z</time>
      </trkpt>
      <trkpt lat="47.817823" lon="8.175375">
        <ele>929.554535</ele>
        <time>2024-10-16T15:26:01.865Z</time>
      </trkpt>
      <trkpt lat="47.817926" lon="8.175153">
        <ele>929.458393</ele>
        <time>2024-10-16T15:26:05.203Z</time>
      </trkpt>
      <trkpt lat="47.818012" lon="8.174961">
        <ele>929.376161</ele>
        <time>2024-10-16T15:26:08.144Z</time>
      </trkpt>
      <trkpt lat="47.818117" lon="8.174755">
        <ele>929.284014</ele>
        <time>2024-10-16T15:26:11.416Z</time>
      </trkpt>
      <trkpt lat="47.818240" lon="8.174567">
        <ele>929.190493</ele>
        <time>2024-10-16T15:26:14.754Z</time>
      </trkpt>
      <trkpt lat="47.818333" lon="8.174494">
        <ele>929.202943</ele>
        <time>2024-10-16T15:26:16.828Z</time>
      </trkpt>
      <trkpt lat="47.818483" lon="8.174389">
        <ele>929.277883</ele>
        <time>2024-10-16T15:26:19.329Z</time>
      </trkpt>
      <trkpt lat="47.818717" lon="8.174283">
        <ele>929.388471</ele>
        <time>2024-10-16T15:26:22.750Z</time>
      </trkpt>
      <trkpt lat="47.819062" lon="8.174181">
        <ele>929.547505</ele>
        <time>2024-10-16T15:26:28.359Z</time>
      </trkpt>
      <trkpt lat="47.819547" lon="8.173972">
        <ele>929.775791</ele>
        <time>2024-10-16T15:26:36.783Z</time>
      </trkpt>
      <trkpt lat="47.820009" lon="8.173690">
        <ele>930.032752</ele>
        <time>2024-10-16T15:26:46.591Z</time>
      </trkpt>
      <trkpt lat="47.820198" lon="8.173630">
        <ele>930.282932</ele>
        <time>2024-10-16T15:26:50.358Z</time>
      </trkpt>
      <trkpt lat="47.820577" lon="8.173418">
        <ele>930.807059</ele>
        <time>2024-10-16T15:26:58.380Z</time>
      </trkpt>
      <trkpt lat="47.820608" lon="8.173354">
        <ele>930.875657</ele>
        <time>2024-10-16T15:26:59.500Z</time>
      </trkpt>
      <trkpt lat="47.820630" lon="8.173255">
        <ele>930.966306</ele>
        <time>2024-10-16T15:27:00.933Z</time>
      </trkpt>
      <trkpt lat="47.820620" lon="8.172928">
        <ele>931.250854</ele>
        <time>2024-10-16T15:27:05.298Z</time>
      </trkpt>
      <trkpt lat="47.820646" lon="8.172812">
        <ele>931.357160</ele>
        <time>2024-10-16T15:27:07.022Z</time>
      </trkpt>
      <trkpt lat="47.820761" lon="8.173049">
        <ele>931.611343</ele>
        <time>2024-10-16T15:27:10.997Z</time>
      </trkpt>
      <trkpt lat="47.820902" lon="8.173225">
        <ele>931.849519</ele>
        <time>2024-10-16T15:27:14.636Z</time>
      </trkpt>
      <trkpt lat="47.821047" lon="8.173336">
        <ele>932.060585</ele>
        <time>2024-10-16T15:27:18.804Z</time>
      </trkpt>
      <trkpt lat="47.821088" lon="8.173346">
        <ele>932.114371</ele>
        <time>2024-10-16T15:27:19.616Z</time>
      </trkpt>
      <trkpt lat="47.821214" lon="8.173334">
        <ele>932.277826</ele>
        <time>2024-10-16T15:27:23.769Z</time>
      </trkpt>
      <trkpt lat="47.821644" lon="8.173028">
        <ele>933.518150</ele>
        <time>2024-10-16T15:27:39.973Z</time>
      </trkpt>
      <trkpt lat="47.821853" lon="8.173000">
        <ele>934.081067</ele>
        <time>2024-10-16T15:27:47.394Z</time>
      </trkpt>
      <trkpt lat="47.821872" lon="8.172993">
        <ele>934.133571</ele>
        <time>2024-10-16T15:27:47.870Z</time>
      </trkpt>
      <trkpt lat="47.821927" lon="8.172924">
        <ele>934.326480</ele>
        <time>2024-10-16T15:27:49.626Z</time>
      </trkpt>
      <trkpt lat="47.821971" lon="8.172851">
        <ele>934.503171</ele>
        <time>2024-10-16T15:27:51.227Z</time>
      </trkpt>
      <trkpt lat="47.822040" lon="8.172549">
        <ele>935.077752</ele>
        <time>2024-10-16T15:27:56.506Z</time>
      </trkpt>
      <trkpt lat="47.822410" lon="8.171923">
        <ele>936.579900</ele>
        <time>2024-10-16T15:28:11.990Z</time>
      </trkpt>
      <trkpt lat="47.822621" lon="8.171395">
        <ele>938.204513</ele>
        <time>2024-10-16T15:28:25.096Z</time>
      </trkpt>
      <trkpt lat="47.822789" lon="8.170825">
        <ele>940.384799</ele>
        <time>2024-10-16T15:28:39.568Z</time>
      </trkpt>
      <trkpt lat="47.822901" lon="8.170205">
        <ele>942.633542</ele>
        <time>2024-10-16T15:28:55.240Z</time>
      </trkpt>
      <trkpt lat="47.822917" lon="8.170029">
        <ele>943.255598</ele>
        <time>2024-10-16T15:28:59.673Z</time>
      </trkpt>
      <trkpt lat="47.823004" lon="8.169103">
        <ele>946.530590</ele>
        <time>2024-10-16T15:29:24.007Z</time>
      </trkpt>
      <trkpt lat="47.822985" lon="8.166818">
        <ele>954.639947</ele>
        <time>2024-10-16T15:30:21.494Z</time>
      </trkpt>
      <trkpt lat="47.823043" lon="8.164243">
        <ele>960.494832</ele>
        <time>2024-10-16T15:31:12.620Z</time>
      </trkpt>
      <trkpt lat="47.823063" lon="8.161790">
        <ele>961.490313</ele>
        <time>2024-10-16T15:31:40.394Z</time>
      </trkpt>
      <trkpt lat="47.822939" lon="8.161781">
        <ele>961.489089</ele>
        <time>2024-10-16T15:31:41.836Z</time>
      </trkpt>
      <trkpt lat="47.822927" lon="8.160855">
        <ele>960.911450</ele>
        <time>2024-10-16T15:31:48.846Z</time>
      </trkpt>
      <trkpt lat="47.822947" lon="8.159897">
        <ele>959.507986</ele>
        <time>2024-10-16T15:31:55.728Z</time>
      </trkpt>
      <trkpt lat="47.822998" lon="8.159170">
        <ele>958.437657</ele>
        <time>2024-10-16T15:32:00.865Z</time>
      </trkpt>
      <trkpt lat="47.823094" lon="8.158323">
        <ele>957.269671</ele>
        <time>2024-10-16T15:32:07.083Z</time>
      </trkpt>
      <trkpt lat="47.823278" lon="8.157229">
        <ele>956.005400</ele>
        <time>2024-10-16T15:32:15.410Z</time>
      </trkpt>
      <trkpt lat="47.823532" lon="8.156193">
        <ele>954.769037</ele>
        <time>2024-10-16T15:32:24.050Z</time>
      </trkpt>
      <trkpt lat="47.823818" lon="8.155286">
        <ele>954.052496</ele>
        <time>2024-10-16T15:32:32.399Z</time>
      </trkpt>
      <trkpt lat="47.824314" lon="8.154053">
        <ele>953.158123</ele>
        <time>2024-10-16T15:32:44.199Z</time>
      </trkpt>
      <trkpt lat="47.825010" lon="8.152471">
        <ele>952.283209</ele>
        <time>2024-10-16T15:33:00.827Z</time>
      </trkpt>
      <trkpt lat="47.825061" lon="8.152355">
        <ele>952.225505</ele>
        <time>2024-10-16T15:33:01.963Z</time>
      </trkpt>
      <trkpt lat="47.825174" lon="8.152098">
        <ele>952.097658</ele>
        <time>2024-10-16T15:33:04.549Z</time>
      </trkpt>
      <trkpt lat="47.825241" lon="8.151943">
        <ele>952.020940</ele>
        <time>2024-10-16T15:33:06.247Z</time>
      </trkpt>
      <trkpt lat="47.825800" lon="8.150677">
        <ele>951.304640</ele>
        <time>2024-10-16T15:33:19.364Z</time>
      </trkpt>
      <trkpt lat="47.826160" lon="8.149875">
        <ele>950.814420</ele>
        <time>2024-10-16T15:33:28.243Z</time>
      </trkpt>
      <trkpt lat="47.826702" lon="8.148635">
        <ele>949.738837</ele>
        <time>2024-10-16T15:33:40.027Z</time>
      </trkpt>
      <trkpt lat="47.827715" lon="8.146372">
        <ele>947.345444</ele>
        <time>2024-10-16T15:34:00.835Z</time>
      </trkpt>
      <trkpt lat="47.828115" lon="8.145569">
        <ele>946.713833</ele>
        <time>2024-10-16T15:34:09.068Z</time>
      </trkpt>
      <trkpt lat="47.828673" lon="8.144602">
        <ele>946.117635</ele>
        <time>2024-10-16T15:34:20.552Z</time>
      </trkpt>
      <trkpt lat="47.829180" lon="8.143824">
        <ele>946.112073</ele>
        <time>2024-10-16T15:34:31.216Z</time>
      </trkpt>
      <trkpt lat="47.830031" lon="8.142524">
        <ele>945.824774</ele>
        <time>2024-10-16T15:34:50.322Z</time>
      </trkpt>
      <trkpt lat="47.830284" lon="8.142026">
        <ele>945.508648</ele>
        <time>2024-10-16T15:34:56.862Z</time>
      </trkpt>
      <trkpt lat="47.830465" lon="8.141523">
        <ele>945.219767</ele>
        <time>2024-10-16T15:35:02.099Z</time>
      </trkpt>
      <trkpt lat="47.830861" lon="8.140059">
        <ele>943.474060</ele>
        <time>2024-10-16T15:35:13.666Z</time>
      </trkpt>
      <trkpt lat="47.830934" lon="8.139781">
        <ele>942.887600</ele>
        <time>2024-10-16T15:35:15.695Z</time>
      </trkpt>
      <trkpt lat="47.830992" lon="8.139363">
        <ele>942.049032</ele>
        <time>2024-10-16T15:35:18.595Z</time>
      </trkpt>
      <trkpt lat="47.830989" lon="8.138961">
        <ele>941.259208</ele>
        <time>2024-10-16T15:35:21.337Z</time>
      </trkpt>
      <trkpt lat="47.830949" lon="8.138532">
        <ele>940.408297</ele>
        <time>2024-10-16T15:35:24.273Z</time>
      </trkpt>
      <trkpt lat="47.830962" lon="8.138166">
        <ele>939.688241</ele>
        <time>2024-10-16T15:35:26.748Z</time>
      </trkpt>
      <trkpt lat="47.830997" lon="8.137955">
        <ele>939.255086</ele>
        <time>2024-10-16T15:35:28.195Z</time>
      </trkpt>
      <trkpt lat="47.831062" lon="8.137751">
        <ele>938.799288</ele>
        <time>2024-10-16T15:35:29.718Z</time>
      </trkpt>
      <trkpt lat="47.831779" lon="8.136397">
        <ele>935.318345</ele>
        <time>2024-10-16T15:35:41.336Z</time>
      </trkpt>
      <trkpt lat="47.831841" lon="8.136268">
        <ele>934.998111</ele>
        <time>2024-10-16T15:35:42.433Z</time>
      </trkpt>
      <trkpt lat="47.832079" lon="8.135703">
        <ele>933.809707</ele>
        <time>2024-10-16T15:35:47.506Z</time>
      </trkpt>
      <trkpt lat="47.832238" lon="8.135290">
        <ele>933.205140</ele>
        <time>2024-10-16T15:35:51.071Z</time>
      </trkpt>
      <trkpt lat="47.832667" lon="8.134164">
        <ele>931.561073</ele>
        <time>2024-10-16T15:36:00.721Z</time>
      </trkpt>
      <trkpt lat="47.832987" lon="8.133456">
        <ele>930.640050</ele>
        <time>2024-10-16T15:36:06.941Z</time>
      </trkpt>
      <trkpt lat="47.833280" lon="8.132973">
        <ele>930.492885</ele>
        <time>2024-10-16T15:36:12.121Z</time>
      </trkpt>
      <trkpt lat="47.833444" lon="8.132759">
        <ele>930.419466</ele>
        <time>2024-10-16T15:36:15.343Z</time>
      </trkpt>
      <trkpt lat="47.833408" lon="8.132704">
        <ele>930.402101</ele>
        <time>2024-10-16T15:36:15.879Z</time>
      </trkpt>
      <trkpt lat="47.833620" lon="8.132412">
        <ele>930.304869</ele>
        <time>2024-10-16T15:36:20.253Z</time>
      </trkpt>
      <trkpt lat="47.834027" lon="8.132007">
        <ele>930.140044</ele>
        <time>2024-10-16T15:36:27.544Z</time>
      </trkpt>
      <trkpt lat="47.834193" lon="8.131856">
        <ele>930.074545</ele>
        <time>2024-10-16T15:36:31.390Z</time>
      </trkpt>
      <trkpt lat="47.834758" lon="8.131597">
        <ele>930.678654</ele>
        <time>2024-10-16T15:36:43.469Z</time>
      </trkpt>
      <trkpt lat="47.835274" lon="8.131274">
        <ele>931.269967</ele>
        <time>2024-10-16T15:36:53.611Z</time>
      </trkpt>
      <trkpt lat="47.835805" lon="8.130797">
        <ele>931.925055</ele>
        <time>2024-10-16T15:37:05.677Z</time>
      </trkpt>
      <trkpt lat="47.835949" lon="8.130620">
        <ele>932.083569</ele>
        <time>2024-10-16T15:37:09.526Z</time>
      </trkpt>
      <trkpt lat="47.836061" lon="8.130487">
        <ele>932.196457</ele>
        <time>2024-10-16T15:37:12.234Z</time>
      </trkpt>
      <trkpt lat="47.836136" lon="8.130369">
        <ele>932.282432</ele>
        <time>2024-10-16T15:37:14.340Z</time>
      </trkpt>
      <trkpt lat="47.836162" lon="8.130189">
        <ele>932.379843</ele>
        <time>2024-10-16T15:37:16.913Z</time>
      </trkpt>
      <trkpt lat="47.836108" lon="8.129917">
        <ele>932.529909</ele>
        <time>2024-10-16T15:37:20.403Z</time>
      </trkpt>
      <trkpt lat="47.835540" lon="8.128559">
        <ele>933.376440</ele>
        <time>2024-10-16T15:37:38.735Z</time>
      </trkpt>
      <trkpt lat="47.835271" lon="8.127655">
        <ele>933.736819</ele>
        <time>2024-10-16T15:37:49.990Z</time>
      </trkpt>
      <trkpt lat="47.835189" lon="8.127033">
        <ele>933.965587</ele>
        <time>2024-10-16T15:37:57.356Z</time>
      </trkpt>
      <trkpt lat="47.835197" lon="8.126327">
        <ele>934.220420</ele>
        <time>2024-10-16T15:38:05.210Z</time>
      </trkpt>
      <trkpt lat="47.835239" lon="8.125987">
        <ele>934.345187</ele>
        <time>2024-10-16T15:38:08.958Z</time>
      </trkpt>
      <trkpt lat="47.835290" lon="8.125990">
        <ele>934.375151</ele>
        <time>2024-10-16T15:38:09.879Z</time>
      </trkpt>
      <trkpt lat="47.835299" lon="8.125909">
        <ele>934.408905</ele>
        <time>2024-10-16T15:38:10.921Z</time>
      </trkpt>
      <trkpt lat="47.835567" lon="8.124367">
        <ele>935.063760</ele>
        <time>2024-10-16T15:38:29.239Z</time>
      </trkpt>
      <trkpt lat="47.835605" lon="8.124156">
        <ele>935.153574</ele>
        <time>2024-10-16T15:38:31.764Z</time>
      </trkpt>
      <trkpt lat="47.835613" lon="8.124112">
        <ele>935.172316</ele>
        <time>2024-10-16T15:38:32.272Z</time>
      </trkpt>
      <trkpt lat="47.835774" lon="8.123036">
        <ele>935.992307</ele>
        <time>2024-10-16T15:38:44.981Z</time>
      </trkpt>
      <trkpt lat="47.835861" lon="8.122252">
        <ele>937.026154</ele>
        <time>2024-10-16T15:38:56.159Z</time>
      </trkpt>
      <trkpt lat="47.835970" lon="8.120866">
        <ele>938.841705</ele>
        <time>2024-10-16T15:39:19.863Z</time>
      </trkpt>
      <trkpt lat="47.836034" lon="8.120130">
        <ele>940.349650</ele>
        <time>2024-10-16T15:39:32.450Z</time>
      </trkpt>
      <trkpt lat="47.836138" lon="8.119282">
        <ele>942.174385</ele>
        <time>2024-10-16T15:39:47.920Z</time>
      </trkpt>
      <trkpt lat="47.836331" lon="8.118183">
        <ele>944.579005</ele>
        <time>2024-10-16T15:40:10.501Z</time>
      </trkpt>
      <trkpt lat="47.836451" lon="8.117600">
        <ele>945.850641</ele>
        <time>2024-10-16T15:40:22.413Z</time>
      </trkpt>
      <trkpt lat="47.836552" lon="8.117229">
        <ele>946.685161</ele>
        <time>2024-10-16T15:40:29.898Z</time>
      </trkpt>
      <trkpt lat="47.836886" lon="8.116060">
        <ele>949.333453</ele>
        <time>2024-10-16T15:40:52.642Z</time>
      </trkpt>
      <trkpt lat="47.836979" lon="8.115821">
        <ele>949.909293</ele>
        <time>2024-10-16T15:40:57.735Z</time>
      </trkpt>
      <trkpt lat="47.837880" lon="8.113629">
        <ele>954.084193</ele>
        <time>2024-10-16T15:41:39.745Z</time>
      </trkpt>
      <trkpt lat="47.838147" lon="8.112911">
        <ele>955.281818</ele>
        <time>2024-10-16T15:41:52.388Z</time>
      </trkpt>
      <trkpt lat="47.838520" lon="8.111898">
        <ele>956.897953</ele>
        <time>2024-10-16T15:42:10.404Z</time>
      </trkpt>
      <trkpt lat="47.839116" lon="8.110267">
        <ele>959.409020</ele>
        <time>2024-10-16T15:42:39.355Z</time>
      </trkpt>
      <trkpt lat="47.839368" lon="8.109504">
        <ele>960.517232</ele>
        <time>2024-10-16T15:42:52.048Z</time>
      </trkpt>
      <trkpt lat="47.839646" lon="8.108423">
        <ele>962.010953</ele>
        <time>2024-10-16T15:43:09.197Z</time>
      </trkpt>
      <trkpt lat="47.839978" lon="8.106717">
        <ele>964.212298</ele>
        <time>2024-10-16T15:43:35.467Z</time>
      </trkpt>
      <trkpt lat="47.839993" lon="8.106659">
        <ele>964.289329</ele>
        <time>2024-10-16T15:43:36.422Z</time>
      </trkpt>
      <trkpt lat="47.840019" lon="8.106561">
        <ele>964.419925</ele>
        <time>2024-10-16T15:43:38.039Z</time>
      </trkpt>
      <trkpt lat="47.840155" lon="8.106061">
        <ele>965.086967</ele>
        <time>2024-10-16T15:43:46.463Z</time>
      </trkpt>
      <trkpt lat="47.840760" lon="8.104176">
        <ele>967.588241</ele>
        <time>2024-10-16T15:44:17.636Z</time>
      </trkpt>
      <trkpt lat="47.840796" lon="8.103996">
        <ele>967.813083</ele>
        <time>2024-10-16T15:44:20.275Z</time>
      </trkpt>
      <trkpt lat="47.840835" lon="8.103485">
        <ele>968.600937</ele>
        <time>2024-10-16T15:44:27.315Z</time>
      </trkpt>
      <trkpt lat="47.840792" lon="8.103026">
        <ele>969.692233</ele>
        <time>2024-10-16T15:44:33.409Z</time>
      </trkpt>
      <trkpt lat="47.840751" lon="8.102782">
        <ele>970.284518</ele>
        <time>2024-10-16T15:44:37.099Z</time>
      </trkpt>
      <trkpt lat="47.840660" lon="8.102484">
        <ele>971.055439</ele>
        <time>2024-10-16T15:44:42.653Z</time>
      </trkpt>
      <trkpt lat="47.840549" lon="8.102218">
        <ele>971.792984</ele>
        <time>2024-10-16T15:44:48.777Z</time>
      </trkpt>
      <trkpt lat="47.840388" lon="8.101928">
        <ele>972.679185</ele>
        <time>2024-10-16T15:44:56.653Z</time>
      </trkpt>
      <trkpt lat="47.840230" lon="8.101747">
        <ele>973.378406</ele>
        <time>2024-10-16T15:45:03.192Z</time>
      </trkpt>
      <trkpt lat="47.840042" lon="8.101586">
        <ele>974.139157</ele>
        <time>2024-10-16T15:45:10.634Z</time>
      </trkpt>
      <trkpt lat="47.839793" lon="8.101435">
        <ele>975.698743</ele>
        <time>2024-10-16T15:45:21.258Z</time>
      </trkpt>
      <trkpt lat="47.839459" lon="8.101337">
        <ele>978.304678</ele>
        <time>2024-10-16T15:45:35.645Z</time>
      </trkpt>
      <trkpt lat="47.839089" lon="8.101311">
        <ele>981.140236</ele>
        <time>2024-10-16T15:45:52.639Z</time>
      </trkpt>
      <trkpt lat="47.838898" lon="8.101339">
        <ele>982.609432</ele>
        <time>2024-10-16T15:46:02.011Z</time>
      </trkpt>
      <trkpt lat="47.838639" lon="8.101414">
        <ele>984.629223</ele>
        <time>2024-10-16T15:46:15.203Z</time>
      </trkpt>
      <trkpt lat="47.838415" lon="8.101537">
        <ele>986.456742</ele>
        <time>2024-10-16T15:46:27.693Z</time>
      </trkpt>
      <trkpt lat="47.838186" lon="8.101707">
        <ele>988.400225</ele>
        <time>2024-10-16T15:46:40.713Z</time>
      </trkpt>
      <trkpt lat="47.837913" lon="8.101999">
        <ele>990.518545</ele>
        <time>2024-10-16T15:46:56.871Z</time>
      </trkpt>
      <trkpt lat="47.837601" lon="8.102479">
        <ele>993.345510</ele>
        <time>2024-10-16T15:47:15.927Z</time>
      </trkpt>
      <trkpt lat="47.836900" lon="8.103677">
        <ele>999.970617</ele>
        <time>2024-10-16T15:47:54.598Z</time>
      </trkpt>
      <trkpt lat="47.836583" lon="8.104161">
        <ele>1002.128050</ele>
        <time>2024-10-16T15:48:08.119Z</time>
      </trkpt>
      <trkpt lat="47.836244" lon="8.104552">
        <ele>1004.165764</ele>
        <time>2024-10-16T15:48:21.705Z</time>
      </trkpt>
      <trkpt lat="47.835956" lon="8.104694">
        <ele>1005.607638</ele>
        <time>2024-10-16T15:48:32.111Z</time>
      </trkpt>
      <trkpt lat="47.835723" lon="8.104678">
        <ele>1006.716253</ele>
        <time>2024-10-16T15:48:40.418Z</time>
      </trkpt>
      <trkpt lat="47.835505" lon="8.104584">
        <ele>1007.794928</ele>
        <time>2024-10-16T15:48:48.190Z</time>
      </trkpt>
      <trkpt lat="47.835184" lon="8.104373">
        <ele>1009.634614</ele>
        <time>2024-10-16T15:49:00.937Z</time>
      </trkpt>
      <trkpt lat="47.835096" lon="8.104315">
        <ele>1010.155102</ele>
        <time>2024-10-16T15:49:04.872Z</time>
      </trkpt>
      <trkpt lat="47.834907" lon="8.104263">
        <ele>1011.194672</ele>
        <time>2024-10-16T15:49:11.814Z</time>
      </trkpt>
      <trkpt lat="47.834769" lon="8.104246">
        <ele>1011.943648</ele>
        <time>2024-10-16T15:49:17.184Z</time>
      </trkpt>
      <trkpt lat="47.834138" lon="8.104348">
        <ele>1015.376699</ele>
        <time>2024-10-16T15:49:41.345Z</time>
      </trkpt>
      <trkpt lat="47.833940" lon="8.104314">
        <ele>1016.454753</ele>
        <time>2024-10-16T15:49:50.113Z</time>
      </trkpt>
      <trkpt lat="47.833667" lon="8.104194">
        <ele>1017.967873</ele>
        <time>2024-10-16T15:50:00.637Z</time>
      </trkpt>
      <trkpt lat="47.833413" lon="8.103957">
        <ele>1018.729890</ele>
        <time>2024-10-16T15:50:08.866Z</time>
      </trkpt>
      <trkpt lat="47.833273" lon="8.103758">
        <ele>1019.221884</ele>
        <time>2024-10-16T15:50:14.124Z</time>
      </trkpt>
      <trkpt lat="47.832981" lon="8.103190">
        <ele>1020.442943</ele>
        <time>2024-10-16T15:50:25.046Z</time>
      </trkpt>
      <trkpt lat="47.832870" lon="8.102780">
        <ele>1021.197483</ele>
        <time>2024-10-16T15:50:32.423Z</time>
      </trkpt>
      <trkpt lat="47.832646" lon="8.102183">
        <ele>1022.364786</ele>
        <time>2024-10-16T15:50:41.745Z</time>
      </trkpt>
      <trkpt lat="47.832526" lon="8.101856">
        <ele>1022.615083</ele>
        <time>2024-10-16T15:50:47.586Z</time>
      </trkpt>
      <trkpt lat="47.832220" lon="8.101204">
        <ele>1022.889301</ele>
        <time>2024-10-16T15:50:55.902Z</time>
      </trkpt>
      <trkpt lat="47.831935" lon="8.100680">
        <ele>1023.121764</ele>
        <time>2024-10-16T15:51:01.589Z</time>
      </trkpt>
      <trkpt lat="47.831613" lon="8.100182">
        <ele>1023.360099</ele>
        <time>2024-10-16T15:51:09.117Z</time>
      </trkpt>
      <trkpt lat="47.831188" lon="8.099646">
        <ele>1024.350349</ele>
        <time>2024-10-16T15:51:20.917Z</time>
      </trkpt>
      <trkpt lat="47.830617" lon="8.099040">
        <ele>1025.947040</ele>
        <time>2024-10-16T15:51:35.043Z</time>
      </trkpt>
      <trkpt lat="47.830159" lon="8.098538">
        <ele>1027.242034</ele>
        <time>2024-10-16T15:51:50.300Z</time>
      </trkpt>
      <trkpt lat="47.830128" lon="8.098503">
        <ele>1027.330622</ele>
        <time>2024-10-16T15:51:51.362Z</time>
      </trkpt>
      <trkpt lat="47.829784" lon="8.098046">
        <ele>1030.392101</ele>
        <time>2024-10-16T15:52:06.817Z</time>
      </trkpt>
      <trkpt lat="47.829656" lon="8.097773">
        <ele>1032.115987</ele>
        <time>2024-10-16T15:52:16.339Z</time>
      </trkpt>
      <trkpt lat="47.829573" lon="8.097502">
        <ele>1033.658062</ele>
        <time>2024-10-16T15:52:24.402Z</time>
      </trkpt>
      <trkpt lat="47.829312" lon="8.096338">
        <ele>1040.011357</ele>
        <time>2024-10-16T15:53:06.948Z</time>
      </trkpt>
      <trkpt lat="47.829040" lon="8.095569">
        <ele>1045.337713</ele>
        <time>2024-10-16T15:53:40.968Z</time>
      </trkpt>
      <trkpt lat="47.828788" lon="8.095199">
        <ele>1048.792933</ele>
        <time>2024-10-16T15:54:01.978Z</time>
      </trkpt>
      <trkpt lat="47.828359" lon="8.094817">
        <ele>1053.673487</ele>
        <time>2024-10-16T15:54:29.550Z</time>
      </trkpt>
      <trkpt lat="47.828278" lon="8.094612">
        <ele>1055.232874</ele>
        <time>2024-10-16T15:54:38.261Z</time>
      </trkpt>
      <trkpt lat="47.828276" lon="8.094488">
        <ele>1056.046009</ele>
        <time>2024-10-16T15:54:41.969Z</time>
      </trkpt>
      <trkpt lat="47.828358" lon="8.094252">
        <ele>1057.788066</ele>
        <time>2024-10-16T15:54:51.598Z</time>
      </trkpt>
      <trkpt lat="47.828455" lon="8.094189">
        <ele>1058.821379</ele>
        <time>2024-10-16T15:54:57.353Z</time>
      </trkpt>
      <trkpt lat="47.828529" lon="8.094193">
        <ele>1059.378749</ele>
        <time>2024-10-16T15:55:00.266Z</time>
      </trkpt>
      <trkpt lat="47.828693" lon="8.094339">
        <ele>1060.705442</ele>
        <time>2024-10-16T15:55:08.623Z</time>
      </trkpt>
      <trkpt lat="47.828953" lon="8.094680">
        <ele>1063.110970</ele>
        <time>2024-10-16T15:55:23.055Z</time>
      </trkpt>
      <trkpt lat="47.829065" lon="8.094786">
        <ele>1064.032396</ele>
        <time>2024-10-16T15:55:29.170Z</time>
      </trkpt>
      <trkpt lat="47.829193" lon="8.094864">
        <ele>1064.992718</ele>
        <time>2024-10-16T15:55:33.375Z</time>
      </trkpt>
      <trkpt lat="47.829566" lon="8.094991">
        <ele>1067.649598</ele>
        <time>2024-10-16T15:55:49.231Z</time>
      </trkpt>
      <trkpt lat="47.829761" lon="8.095111">
        <ele>1069.114663</ele>
        <time>2024-10-16T15:55:57.745Z</time>
      </trkpt>
      <trkpt lat="47.829927" lon="8.095273">
        <ele>1070.492708</ele>
        <time>2024-10-16T15:56:05.023Z</time>
      </trkpt>
      <trkpt lat="47.830157" lon="8.095594">
        <ele>1072.878803</ele>
        <time>2024-10-16T15:56:18.603Z</time>
      </trkpt>
      <trkpt lat="47.830260" lon="8.095664">
        <ele>1073.792131</ele>
        <time>2024-10-16T15:56:24.093Z</time>
      </trkpt>
      <trkpt lat="47.830386" lon="8.095665">
        <ele>1074.808625</ele>
        <time>2024-10-16T15:56:29.992Z</time>
      </trkpt>
      <trkpt lat="47.830479" lon="8.095580">
        <ele>1075.688854</ele>
        <time>2024-10-16T15:56:34.237Z</time>
      </trkpt>
      <trkpt lat="47.830523" lon="8.095490">
        <ele>1076.291826</ele>
        <time>2024-10-16T15:56:37.824Z</time>
      </trkpt>
      <trkpt lat="47.830539" lon="8.095287">
        <ele>1077.398782</ele>
        <time>2024-10-16T15:56:44.944Z</time>
      </trkpt>
      <trkpt lat="47.830519" lon="8.095202">
        <ele>1077.886579</ele>
        <time>2024-10-16T15:56:47.484Z</time>
      </trkpt>
      <trkpt lat="47.830433" lon="8.095056">
        <ele>1078.938509</ele>
        <time>2024-10-16T15:56:53.029Z</time>
      </trkpt>
      <trkpt lat="47.830260" lon="8.094968">
        <ele>1080.413282</ele>
        <time>2024-10-16T15:57:02.228Z</time>
      </trkpt>
      <trkpt lat="47.830133" lon="8.094907">
        <ele>1081.489774</ele>
        <time>2024-10-16T15:57:07.540Z</time>
      </trkpt>
      <trkpt lat="47.829997" lon="8.094795">
        <ele>1082.743438</ele>
        <time>2024-10-16T15:57:15.088Z</time>
      </trkpt>
      <trkpt lat="47.829837" lon="8.094595">
        <ele>1084.428471</ele>
        <time>2024-10-16T15:57:25.470Z</time>
      </trkpt>
      <trkpt lat="47.829474" lon="8.093832">
        <ele>1090.376708</ele>
        <time>2024-10-16T15:58:00.004Z</time>
      </trkpt>
      <trkpt lat="47.828976" lon="8.093125">
        <ele>1097.318644</ele>
        <time>2024-10-16T15:58:38.173Z</time>
      </trkpt>
      <trkpt lat="47.828818" lon="8.092837">
        <ele>1099.838222</ele>
        <time>2024-10-16T15:58:51.932Z</time>
      </trkpt>
      <trkpt lat="47.828656" lon="8.092428">
        <ele>1103.055207</ele>
        <time>2024-10-16T15:59:09.606Z</time>
      </trkpt>
      <trkpt lat="47.828317" lon="8.091326">
        <ele>1111.654998</ele>
        <time>2024-10-16T15:59:57.372Z</time>
      </trkpt>
      <trkpt lat="47.828159" lon="8.090954">
        <ele>1114.798963</ele>
        <time>2024-10-16T16:00:15.588Z</time>
      </trkpt>
      <trkpt lat="47.827798" lon="8.090277">
        <ele>1120.973882</ele>
        <time>2024-10-16T16:00:50.440Z</time>
      </trkpt>
      <trkpt lat="47.827769" lon="8.090231">
        <ele>1121.424575</ele>
        <time>2024-10-16T16:00:52.934Z</time>
      </trkpt>
      <trkpt lat="47.827683" lon="8.090063">
        <ele>1122.933493</ele>
        <time>2024-10-16T16:01:00.747Z</time>
      </trkpt>
      <trkpt lat="47.827413" lon="8.089367">
        <ele>1125.391938</ele>
        <time>2024-10-16T16:01:26.964Z</time>
      </trkpt>
      <trkpt lat="47.827236" lon="8.088761">
        <ele>1127.253032</ele>
        <time>2024-10-16T16:01:44.011Z</time>
      </trkpt>
      <trkpt lat="47.827120" lon="8.088221">
        <ele>1128.849703</ele>
        <time>2024-10-16T16:01:54.315Z</time>
      </trkpt>
      <trkpt lat="47.827073" lon="8.087791">
        <ele>1130.076595</ele>
        <time>2024-10-16T16:01:59.242Z</time>
      </trkpt>
      <trkpt lat="47.827046" lon="8.087479">
        <ele>1130.534214</ele>
        <time>2024-10-16T16:02:01.722Z</time>
      </trkpt>
      <trkpt lat="47.827036" lon="8.086882">
        <ele>1127.792950</ele>
        <time>2024-10-16T16:02:05.678Z</time>
      </trkpt>
      <trkpt lat="47.827068" lon="8.086164">
        <ele>1124.489859</ele>
        <time>2024-10-16T16:02:10.056Z</time>
      </trkpt>
      <trkpt lat="47.827147" lon="8.085391">
        <ele>1120.900683</ele>
        <time>2024-10-16T16:02:14.632Z</time>
      </trkpt>
      <trkpt lat="47.827187" lon="8.084886">
        <ele>1118.566508</ele>
        <time>2024-10-16T16:02:17.545Z</time>
      </trkpt>
      <trkpt lat="47.827205" lon="8.084113">
        <ele>1113.664115</ele>
        <time>2024-10-16T16:02:21.983Z</time>
      </trkpt>
      <trkpt lat="47.827156" lon="8.083528">
        <ele>1109.908426</ele>
        <time>2024-10-16T16:02:25.411Z</time>
      </trkpt>
      <trkpt lat="47.827087" lon="8.082696">
        <ele>1104.567799</ele>
        <time>2024-10-16T16:02:30.332Z</time>
      </trkpt>
      <trkpt lat="47.827094" lon="8.082045">
        <ele>1100.622302</ele>
        <time>2024-10-16T16:02:34.118Z</time>
      </trkpt>
      <trkpt lat="47.827166" lon="8.081693">
        <ele>1098.745444</ele>
        <time>2024-10-16T16:02:36.282Z</time>
      </trkpt>
      <trkpt lat="47.827342" lon="8.081102">
        <ele>1095.447806</ele>
        <time>2024-10-16T16:02:40.109Z</time>
      </trkpt>
      <trkpt lat="47.827306" lon="8.080841">
        <ele>1094.088773</ele>
        <time>2024-10-16T16:02:41.710Z</time>
      </trkpt>
      <trkpt lat="47.827226" lon="8.080726">
        <ele>1093.244120</ele>
        <time>2024-10-16T16:02:42.700Z</time>
      </trkpt>
      <trkpt lat="47.827145" lon="8.080690">
        <ele>1092.601939</ele>
        <time>2024-10-16T16:02:43.465Z</time>
      </trkpt>
      <trkpt lat="47.827034" lon="8.080696">
        <ele>1091.758098</ele>
        <time>2024-10-16T16:02:44.466Z</time>
      </trkpt>
      <trkpt lat="47.826951" lon="8.080784">
        <ele>1090.984098</ele>
        <time>2024-10-16T16:02:45.384Z</time>
      </trkpt>
      <trkpt lat="47.826875" lon="8.081012">
        <ele>1089.685730</ele>
        <time>2024-10-16T16:02:46.944Z</time>
      </trkpt>
      <trkpt lat="47.826773" lon="8.081737">
        <ele>1085.931415</ele>
        <time>2024-10-16T16:02:51.475Z</time>
      </trkpt>
      <trkpt lat="47.826693" lon="8.082026">
        <ele>1084.357432</ele>
        <time>2024-10-16T16:02:53.355Z</time>
      </trkpt>
      <trkpt lat="47.826581" lon="8.082246">
        <ele>1082.967253</ele>
        <time>2024-10-16T16:02:54.987Z</time>
      </trkpt>
      <trkpt lat="47.826444" lon="8.082439">
        <ele>1081.553030</ele>
        <time>2024-10-16T16:02:56.654Z</time>
      </trkpt>
      <trkpt lat="47.826169" lon="8.082603">
        <ele>1079.331443</ele>
        <time>2024-10-16T16:02:59.261Z</time>
      </trkpt>
      <trkpt lat="47.826008" lon="8.082609">
        <ele>1078.123615</ele>
        <time>2024-10-16T16:03:00.711Z</time>
      </trkpt>
      <trkpt lat="47.825813" lon="8.082572">
        <ele>1076.649355</ele>
        <time>2024-10-16T16:03:02.485Z</time>
      </trkpt>
      <trkpt lat="47.825642" lon="8.082449">
        <ele>1075.225191</ele>
        <time>2024-10-16T16:03:04.178Z</time>
      </trkpt>
      <trkpt lat="47.825473" lon="8.082246">
        <ele>1073.457942</ele>
        <time>2024-10-16T16:03:06.102Z</time>
      </trkpt>
      <trkpt lat="47.824916" lon="8.081434">
        <ele>1066.424703</ele>
        <time>2024-10-16T16:03:12.920Z</time>
      </trkpt>
      <trkpt lat="47.824624" lon="8.080886">
        <ele>1062.186005</ele>
        <time>2024-10-16T16:03:16.995Z</time>
      </trkpt>
      <trkpt lat="47.823944" lon="8.079356">
        <ele>1050.216948</ele>
        <time>2024-10-16T16:03:27.594Z</time>
      </trkpt>
      <trkpt lat="47.823558" lon="8.078591">
        <ele>1043.711211</ele>
        <time>2024-10-16T16:03:33.139Z</time>
      </trkpt>
      <trkpt lat="47.823340" lon="8.078227">
        <ele>1040.395129</ele>
        <time>2024-10-16T16:03:35.950Z</time>
      </trkpt>
      <trkpt lat="47.822914" lon="8.077682">
        <ele>1034.141252</ele>
        <time>2024-10-16T16:03:40.743Z</time>
      </trkpt>
      <trkpt lat="47.822485" lon="8.077237">
        <ele>1028.261931</ele>
        <time>2024-10-16T16:03:45.179Z</time>
      </trkpt>
      <trkpt lat="47.822238" lon="8.077054">
        <ele>1025.159461</ele>
        <time>2024-10-16T16:03:47.523Z</time>
      </trkpt>
      <trkpt lat="47.821894" lon="8.076867">
        <ele>1021.041213</ele>
        <time>2024-10-16T16:03:50.631Z</time>
      </trkpt>
      <trkpt lat="47.821296" lon="8.076681">
        <ele>1014.872238</ele>
        <time>2024-10-16T16:03:55.820Z</time>
      </trkpt>
      <trkpt lat="47.820616" lon="8.076630">
        <ele>1008.202405</ele>
        <time>2024-10-16T16:04:01.625Z</time>
      </trkpt>
      <trkpt lat="47.819570" lon="8.076773">
        <ele>999.020508</ele>
        <time>2024-10-16T16:04:10.971Z</time>
      </trkpt>
      <trkpt lat="47.819449" lon="8.076816">
        <ele>998.132995</ele>
        <time>2024-10-16T16:04:12.101Z</time>
      </trkpt>
      <trkpt lat="47.818912" lon="8.077020">
        <ele>994.179079</ele>
        <time>2024-10-16T16:04:17.230Z</time>
      </trkpt>
      <trkpt lat="47.818883" lon="8.077032">
        <ele>993.964340</ele>
        <time>2024-10-16T16:04:17.493Z</time>
      </trkpt>
      <trkpt lat="47.818079" lon="8.077439">
        <ele>987.435883</ele>
        <time>2024-10-16T16:04:25.020Z</time>
      </trkpt>
      <trkpt lat="47.817946" lon="8.077501">
        <ele>986.068385</ele>
        <time>2024-10-16T16:04:26.271Z</time>
      </trkpt>
      <trkpt lat="47.817718" lon="8.077495">
        <ele>983.830800</ele>
        <time>2024-10-16T16:04:28.270Z</time>
      </trkpt>
      <trkpt lat="47.817617" lon="8.077435">
        <ele>982.763802</ele>
        <time>2024-10-16T16:04:29.220Z</time>
      </trkpt>
      <trkpt lat="47.817526" lon="8.077330">
        <ele>981.634211</ele>
        <time>2024-10-16T16:04:30.207Z</time>
      </trkpt>
      <trkpt lat="47.817474" lon="8.077149">
        <ele>980.337035</ele>
        <time>2024-10-16T16:04:31.355Z</time>
      </trkpt>
      <trkpt lat="47.817459" lon="8.076968">
        <ele>979.135377</ele>
        <time>2024-10-16T16:04:32.412Z</time>
      </trkpt>
      <trkpt lat="47.817475" lon="8.076814">
        <ele>978.108597</ele>
        <time>2024-10-16T16:04:33.299Z</time>
      </trkpt>
      <trkpt lat="47.817524" lon="8.076665">
        <ele>977.015422</ele>
        <time>2024-10-16T16:04:34.252Z</time>
      </trkpt>
      <trkpt lat="47.817597" lon="8.076536">
        <ele>975.903864</ele>
        <time>2024-10-16T16:04:35.222Z</time>
      </trkpt>
      <trkpt lat="47.817925" lon="8.076242">
        <ele>972.147378</ele>
        <time>2024-10-16T16:04:38.478Z</time>
      </trkpt>
      <trkpt lat="47.818813" lon="8.075751">
        <ele>962.405230</ele>
        <time>2024-10-16T16:04:46.499Z</time>
      </trkpt>
      <trkpt lat="47.819642" lon="8.075045">
        <ele>952.662674</ele>
        <time>2024-10-16T16:04:54.791Z</time>
      </trkpt>
      <trkpt lat="47.819923" lon="8.074905">
        <ele>950.470930</ele>
        <time>2024-10-16T16:04:57.378Z</time>
      </trkpt>
      <trkpt lat="47.820321" lon="8.074836">
        <ele>947.507100</ele>
        <time>2024-10-16T16:05:00.933Z</time>
      </trkpt>
      <trkpt lat="47.820493" lon="8.074826">
        <ele>946.233870</ele>
        <time>2024-10-16T16:05:02.499Z</time>
      </trkpt>
      <trkpt lat="47.820559" lon="8.074794">
        <ele>945.720458</ele>
        <time>2024-10-16T16:05:03.107Z</time>
      </trkpt>
      <trkpt lat="47.820628" lon="8.074711">
        <ele>945.064389</ele>
        <time>2024-10-16T16:05:03.898Z</time>
      </trkpt>
      <trkpt lat="47.820657" lon="8.074479">
        <ele>943.892329</ele>
        <time>2024-10-16T16:05:05.380Z</time>
      </trkpt>
      <trkpt lat="47.820598" lon="8.074371">
        <ele>943.200823</ele>
        <time>2024-10-16T16:05:06.196Z</time>
      </trkpt>
      <trkpt lat="47.820527" lon="8.074316">
        <ele>942.608851</ele>
        <time>2024-10-16T16:05:06.912Z</time>
      </trkpt>
      <trkpt lat="47.820431" lon="8.074293">
        <ele>941.889622</ele>
        <time>2024-10-16T16:05:07.819Z</time>
      </trkpt>
      <trkpt lat="47.820115" lon="8.074369">
        <ele>939.527679</ele>
        <time>2024-10-16T16:05:10.736Z</time>
      </trkpt>
      <trkpt lat="47.819270" lon="8.074475">
        <ele>933.552829</ele>
        <time>2024-10-16T16:05:18.463Z</time>
      </trkpt>
      <trkpt lat="47.818546" lon="8.074439">
        <ele>928.448770</ele>
        <time>2024-10-16T16:05:24.915Z</time>
      </trkpt>
      <trkpt lat="47.817981" lon="8.074289">
        <ele>923.847155</ele>
        <time>2024-10-16T16:05:29.991Z</time>
      </trkpt>
      <trkpt lat="47.817583" lon="8.074119">
        <ele>920.295252</ele>
        <time>2024-10-16T16:05:33.607Z</time>
      </trkpt>
      <trkpt lat="47.817404" lon="8.074031">
        <ele>918.678192</ele>
        <time>2024-10-16T16:05:35.242Z</time>
      </trkpt>
      <trkpt lat="47.817097" lon="8.073887">
        <ele>915.917046</ele>
        <time>2024-10-16T16:05:38.035Z</time>
      </trkpt>
      <trkpt lat="47.816451" lon="8.073628">
        <ele>910.433695</ele>
        <time>2024-10-16T16:05:43.879Z</time>
      </trkpt>
      <trkpt lat="47.816111" lon="8.073573">
        <ele>908.050463</ele>
        <time>2024-10-16T16:05:46.919Z</time>
      </trkpt>
      <trkpt lat="47.815820" lon="8.073563">
        <ele>906.022085</ele>
        <time>2024-10-16T16:05:49.539Z</time>
      </trkpt>
      <trkpt lat="47.815528" lon="8.073612">
        <ele>903.974400</ele>
        <time>2024-10-16T16:05:52.208Z</time>
      </trkpt>
      <trkpt lat="47.815208" lon="8.073731">
        <ele>901.675996</ele>
        <time>2024-10-16T16:05:55.234Z</time>
      </trkpt>
      <trkpt lat="47.814840" lon="8.073942">
        <ele>898.929443</ele>
        <time>2024-10-16T16:05:58.847Z</time>
      </trkpt>
      <trkpt lat="47.813937" lon="8.074694">
        <ele>891.846583</ele>
        <time>2024-10-16T16:06:08.265Z</time>
      </trkpt>
      <trkpt lat="47.813744" lon="8.074817">
        <ele>890.409407</ele>
        <time>2024-10-16T16:06:10.128Z</time>
      </trkpt>
      <trkpt lat="47.812922" lon="8.075218">
        <ele>884.666268</ele>
        <time>2024-10-16T16:06:17.795Z</time>
      </trkpt>
      <trkpt lat="47.812321" lon="8.075653">
        <ele>880.461787</ele>
        <time>2024-10-16T16:06:23.821Z</time>
      </trkpt>
      <trkpt lat="47.811987" lon="8.075966">
        <ele>877.978755</ele>
        <time>2024-10-16T16:06:27.461Z</time>
      </trkpt>
      <trkpt lat="47.810893" lon="8.077132">
        <ele>871.554414</ele>
        <time>2024-10-16T16:06:40.271Z</time>
      </trkpt>
      <trkpt lat="47.810449" lon="8.077576">
        <ele>869.360599</ele>
        <time>2024-10-16T16:06:45.767Z</time>
      </trkpt>
      <trkpt lat="47.810162" lon="8.077788">
        <ele>868.046470</ele>
        <time>2024-10-16T16:06:48.973Z</time>
      </trkpt>
      <trkpt lat="47.809763" lon="8.077938">
        <ele>866.171276</ele>
        <time>2024-10-16T16:06:52.982Z</time>
      </trkpt>
      <trkpt lat="47.809365" lon="8.077945">
        <ele>864.352275</ele>
        <time>2024-10-16T16:06:56.740Z</time>
      </trkpt>
      <trkpt lat="47.808693" lon="8.077735">
        <ele>861.214301</ele>
        <time>2024-10-16T16:07:03.249Z</time>
      </trkpt>
      <trkpt lat="47.808179" lon="8.077660">
        <ele>858.751340</ele>
        <time>2024-10-16T16:07:08.175Z</time>
      </trkpt>
      <trkpt lat="47.807109" lon="8.077796">
        <ele>853.298451</ele>
        <time>2024-10-16T16:07:18.240Z</time>
      </trkpt>
      <trkpt lat="47.806118" lon="8.078022">
        <ele>848.629370</ele>
        <time>2024-10-16T16:07:27.640Z</time>
      </trkpt>
      <trkpt lat="47.804992" lon="8.078394">
        <ele>843.785606</ele>
        <time>2024-10-16T16:07:38.851Z</time>
      </trkpt>
      <trkpt lat="47.804099" lon="8.078726">
        <ele>841.470525</ele>
        <time>2024-10-16T16:07:48.322Z</time>
      </trkpt>
      <trkpt lat="47.803697" lon="8.078769">
        <ele>840.605210</ele>
        <time>2024-10-16T16:07:52.766Z</time>
      </trkpt>
      <trkpt lat="47.803121" lon="8.078756">
        <ele>839.368401</ele>
        <time>2024-10-16T16:07:59.636Z</time>
      </trkpt>
      <trkpt lat="47.802534" lon="8.078856">
        <ele>838.815860</ele>
        <time>2024-10-16T16:08:06.935Z</time>
      </trkpt>
      <trkpt lat="47.802316" lon="8.078938">
        <ele>838.638826</ele>
        <time>2024-10-16T16:08:09.765Z</time>
      </trkpt>
      <trkpt lat="47.801846" lon="8.079229">
        <ele>838.238051</ele>
        <time>2024-10-16T16:08:16.145Z</time>
      </trkpt>
      <trkpt lat="47.801500" lon="8.079517">
        <ele>837.925945</ele>
        <time>2024-10-16T16:08:21.169Z</time>
      </trkpt>
      <trkpt lat="47.800562" lon="8.080432">
        <ele>837.344910</ele>
        <time>2024-10-16T16:08:36.434Z</time>
      </trkpt>
      <trkpt lat="47.799992" lon="8.080873">
        <ele>837.037109</ele>
        <time>2024-10-16T16:08:45.123Z</time>
      </trkpt>
      <trkpt lat="47.799748" lon="8.081013">
        <ele>836.865539</ele>
        <time>2024-10-16T16:08:48.567Z</time>
      </trkpt>
      <trkpt lat="47.799274" lon="8.081205">
        <ele>836.362346</ele>
        <time>2024-10-16T16:08:54.845Z</time>
      </trkpt>
      <trkpt lat="47.797995" lon="8.081428">
        <ele>835.058304</ele>
        <time>2024-10-16T16:09:10.024Z</time>
      </trkpt>
      <trkpt lat="47.797382" lon="8.081619">
        <ele>834.561341</ele>
        <time>2024-10-16T16:09:17.649Z</time>
      </trkpt>
      <trkpt lat="47.797116" lon="8.081756">
        <ele>834.337991</ele>
        <time>2024-10-16T16:09:21.304Z</time>
      </trkpt>
      <trkpt lat="47.796605" lon="8.082148">
        <ele>833.881834</ele>
        <time>2024-10-16T16:09:29.106Z</time>
      </trkpt>
      <trkpt lat="47.796284" lon="8.082415">
        <ele>833.604708</ele>
        <time>2024-10-16T16:09:33.805Z</time>
      </trkpt>
      <trkpt lat="47.795972" lon="8.082584">
        <ele>833.382885</ele>
        <time>2024-10-16T16:09:37.925Z</time>
      </trkpt>
      <trkpt lat="47.795827" lon="8.082624">
        <ele>833.284358</ele>
        <time>2024-10-16T16:09:39.789Z</time>
      </trkpt>
      <trkpt lat="47.795422" lon="8.082572">
        <ele>833.012767</ele>
        <time>2024-10-16T16:09:45.226Z</time>
      </trkpt>
      <trkpt lat="47.795324" lon="8.082536">
        <ele>832.945328</ele>
        <time>2024-10-16T16:09:46.675Z</time>
      </trkpt>
      <trkpt lat="47.794854" lon="8.082298">
        <ele>832.613642</ele>
        <time>2024-10-16T16:09:53.282Z</time>
      </trkpt>
      <trkpt lat="47.794522" lon="8.082172">
        <ele>832.303789</ele>
        <time>2024-10-16T16:09:57.555Z</time>
      </trkpt>
      <trkpt lat="47.794235" lon="8.082101">
        <ele>831.946147</ele>
        <time>2024-10-16T16:10:01.023Z</time>
      </trkpt>
      <trkpt lat="47.794045" lon="8.082097">
        <ele>831.712562</ele>
        <time>2024-10-16T16:10:03.164Z</time>
      </trkpt>
      <trkpt lat="47.793685" lon="8.082169">
        <ele>831.266046</ele>
        <time>2024-10-16T16:10:07.178Z</time>
      </trkpt>
      <trkpt lat="47.793201" lon="8.082399">
        <ele>830.641493</ele>
        <time>2024-10-16T16:10:12.798Z</time>
      </trkpt>
      <trkpt lat="47.792369" lon="8.082991">
        <ele>830.657468</ele>
        <time>2024-10-16T16:10:25.428Z</time>
      </trkpt>
      <trkpt lat="47.792134" lon="8.083077">
        <ele>830.808669</ele>
        <time>2024-10-16T16:10:29.799Z</time>
      </trkpt>
      <trkpt lat="47.792074" lon="8.083086">
        <ele>830.846347</ele>
        <time>2024-10-16T16:10:30.824Z</time>
      </trkpt>
      <trkpt lat="47.791812" lon="8.083100">
        <ele>831.010151</ele>
        <time>2024-10-16T16:10:35.735Z</time>
      </trkpt>
      <trkpt lat="47.791812" lon="8.083056">
        <ele>831.028620</ele>
        <time>2024-10-16T16:10:36.173Z</time>
      </trkpt>
      <trkpt lat="47.791812" lon="8.083009">
        <ele>831.048349</ele>
        <time>2024-10-16T16:10:36.758Z</time>
      </trkpt>
      <trkpt lat="47.791810" lon="8.082875">
        <ele>831.104611</ele>
        <time>2024-10-16T16:10:38.310Z</time>
      </trkpt>
      <trkpt lat="47.791802" lon="8.082733">
        <ele>831.164426</ele>
        <time>2024-10-16T16:10:40.199Z</time>
      </trkpt>
      <trkpt lat="47.791767" lon="8.082313">
        <ele>831.342076</ele>
        <time>2024-10-16T16:10:45.947Z</time>
      </trkpt>
      <trkpt lat="47.791757" lon="8.082211">
        <ele>831.385345</ele>
        <time>2024-10-16T16:10:47.533Z</time>
      </trkpt>
      <trkpt lat="47.791747" lon="8.082122">
        <ele>831.533600</ele>
        <time>2024-10-16T16:10:48.977Z</time>
      </trkpt>
      <trkpt lat="47.791730" lon="8.081944">
        <ele>831.892875</ele>
        <time>2024-10-16T16:10:51.726Z</time>
      </trkpt>
      <trkpt lat="47.791706" lon="8.081638">
        <ele>832.508511</ele>
        <time>2024-10-16T16:10:56.837Z</time>
      </trkpt>
      <trkpt lat="47.791665" lon="8.081120">
        <ele>833.550795</ele>
        <time>2024-10-16T16:11:06.242Z</time>
      </trkpt>
      <trkpt lat="47.791643" lon="8.080586">
        <ele>834.619898</ele>
        <time>2024-10-16T16:11:16.795Z</time>
      </trkpt>
      <trkpt lat="47.791667" lon="8.079076">
        <ele>837.761483</ele>
        <time>2024-10-16T16:11:45.777Z</time>
      </trkpt>
      <trkpt lat="47.791681" lon="8.078936">
        <ele>838.083320</ele>
        <time>2024-10-16T16:11:48.476Z</time>
      </trkpt>
      <trkpt lat="47.791775" lon="8.078455">
        <ele>839.222339</ele>
        <time>2024-10-16T16:11:57.930Z</time>
      </trkpt>
      <trkpt lat="47.791895" lon="8.078147">
        <ele>840.031906</ele>
        <time>2024-10-16T16:12:04.884Z</time>
      </trkpt>
      <trkpt lat="47.792030" lon="8.077865">
        <ele>840.819244</ele>
        <time>2024-10-16T16:12:11.420Z</time>
      </trkpt>
      <trkpt lat="47.792163" lon="8.077660">
        <ele>841.467233</ele>
        <time>2024-10-16T16:12:16.869Z</time>
      </trkpt>
      <trkpt lat="47.792339" lon="8.077401">
        <ele>842.304863</ele>
        <time>2024-10-16T16:12:23.858Z</time>
      </trkpt>
      <trkpt lat="47.792568" lon="8.077052">
        <ele>843.400860</ele>
        <time>2024-10-16T16:12:32.962Z</time>
      </trkpt>
      <trkpt lat="47.792625" lon="8.076965">
        <ele>843.670895</ele>
        <time>2024-10-16T16:12:35.305Z</time>
      </trkpt>
      <trkpt lat="47.792699" lon="8.076846">
        <ele>844.031218</ele>
        <time>2024-10-16T16:12:38.184Z</time>
      </trkpt>
      <trkpt lat="47.792757" lon="8.076751">
        <ele>844.316466</ele>
        <time>2024-10-16T16:12:40.571Z</time>
      </trkpt>
      <trkpt lat="47.792866" lon="8.076558">
        <ele>844.876740</ele>
        <time>2024-10-16T16:12:45.417Z</time>
      </trkpt>
      <trkpt lat="47.792929" lon="8.076446">
        <ele>845.201334</ele>
        <time>2024-10-16T16:12:48.065Z</time>
      </trkpt>
      <trkpt lat="47.793179" lon="8.075953">
        <ele>846.573874</ele>
        <time>2024-10-16T16:12:59.758Z</time>
      </trkpt>
      <trkpt lat="47.793562" lon="8.075056">
        <ele>848.959449</ele>
        <time>2024-10-16T16:13:19.662Z</time>
      </trkpt>
      <trkpt lat="47.794157" lon="8.074096">
        <ele>852.308350</ele>
        <time>2024-10-16T16:13:45.279Z</time>
      </trkpt>
      <trkpt lat="47.794216" lon="8.073961">
        <ele>852.721279</ele>
        <time>2024-10-16T16:13:48.556Z</time>
      </trkpt>
      <trkpt lat="47.794287" lon="8.073679">
        <ele>853.493416</ele>
        <time>2024-10-16T16:13:54.807Z</time>
      </trkpt>
      <trkpt lat="47.794311" lon="8.073350">
        <ele>854.341906</ele>
        <time>2024-10-16T16:14:01.733Z</time>
      </trkpt>
      <trkpt lat="47.794304" lon="8.072868">
        <ele>855.578007</ele>
        <time>2024-10-16T16:14:11.871Z</time>
      </trkpt>
      <trkpt lat="47.794224" lon="8.072106">
        <ele>857.635241</ele>
        <time>2024-10-16T16:14:28.265Z</time>
      </trkpt>
      <trkpt lat="47.794087" lon="8.071231">
        <ele>860.035041</ele>
        <time>2024-10-16T16:14:49.186Z</time>
      </trkpt>
      <trkpt lat="47.794079" lon="8.070926">
        <ele>860.850331</ele>
        <time>2024-10-16T16:14:56.327Z</time>
      </trkpt>
      <trkpt lat="47.794124" lon="8.070591">
        <ele>861.762844</ele>
        <time>2024-10-16T16:15:02.648Z</time>
      </trkpt>
      <trkpt lat="47.794170" lon="8.070418">
        <ele>862.259813</ele>
        <time>2024-10-16T16:15:06.549Z</time>
      </trkpt>
      <trkpt lat="47.794284" lon="8.070146">
        <ele>862.791542</ele>
        <time>2024-10-16T16:15:11.442Z</time>
      </trkpt>
      <trkpt lat="47.794476" lon="8.069831">
        <ele>862.774167</ele>
        <time>2024-10-16T16:15:17.909Z</time>
      </trkpt>
      <trkpt lat="47.794602" lon="8.069638">
        <ele>862.763174</ele>
        <time>2024-10-16T16:15:21.784Z</time>
      </trkpt>
      <trkpt lat="47.794747" lon="8.069411">
        <ele>862.750379</ele>
        <time>2024-10-16T16:15:24.886Z</time>
      </trkpt>
      <trkpt lat="47.794808" lon="8.069296">
        <ele>862.744393</ele>
        <time>2024-10-16T16:15:26.517Z</time>
      </trkpt>
      <trkpt lat="47.794852" lon="8.069215">
        <ele>862.740138</ele>
        <time>2024-10-16T16:15:27.886Z</time>
      </trkpt>
      <trkpt lat="47.794697" lon="8.068982">
        <ele>862.726743</ele>
        <time>2024-10-16T16:15:30.499Z</time>
      </trkpt>
      <trkpt lat="47.794423" lon="8.068147">
        <ele>862.688783</ele>
        <time>2024-10-16T16:15:37.873Z</time>
      </trkpt>
      <trkpt lat="47.794279" lon="8.067803">
        <ele>861.720900</ele>
        <time>2024-10-16T16:15:40.738Z</time>
      </trkpt>
      <trkpt lat="47.793970" lon="8.067174">
        <ele>859.648058</ele>
        <time>2024-10-16T16:15:45.730Z</time>
      </trkpt>
      <trkpt lat="47.793798" lon="8.066826">
        <ele>858.498794</ele>
        <time>2024-10-16T16:15:48.498Z</time>
      </trkpt>
      <trkpt lat="47.793639" lon="8.066584">
        <ele>857.598351</ele>
        <time>2024-10-16T16:15:50.653Z</time>
      </trkpt>
      <trkpt lat="47.793620" lon="8.066555">
        <ele>857.490595</ele>
        <time>2024-10-16T16:15:50.917Z</time>
      </trkpt>
      <trkpt lat="47.793490" lon="8.066357">
        <ele>856.754120</ele>
        <time>2024-10-16T16:15:52.693Z</time>
      </trkpt>
      <trkpt lat="47.793321" lon="8.066105">
        <ele>855.806920</ele>
        <time>2024-10-16T16:15:54.978Z</time>
      </trkpt>
      <trkpt lat="47.793009" lon="8.065671">
        <ele>854.920044</ele>
        <time>2024-10-16T16:15:59.136Z</time>
      </trkpt>
      <trkpt lat="47.792801" lon="8.065488">
        <ele>854.494195</ele>
        <time>2024-10-16T16:16:01.587Z</time>
      </trkpt>
      <trkpt lat="47.792657" lon="8.065393">
        <ele>854.216585</ele>
        <time>2024-10-16T16:16:03.262Z</time>
      </trkpt>
      <trkpt lat="47.792386" lon="8.065288">
        <ele>853.723032</ele>
        <time>2024-10-16T16:16:06.285Z</time>
      </trkpt>
      <trkpt lat="47.792135" lon="8.065213">
        <ele>853.271820</ele>
        <time>2024-10-16T16:16:09.244Z</time>
      </trkpt>
      <trkpt lat="47.791985" lon="8.065136">
        <ele>852.992166</ele>
        <time>2024-10-16T16:16:11.121Z</time>
      </trkpt>
      <trkpt lat="47.791744" lon="8.064925">
        <ele>852.499374</ele>
        <time>2024-10-16T16:16:15.303Z</time>
      </trkpt>
      <trkpt lat="47.791664" lon="8.064838">
        <ele>852.611814</ele>
        <time>2024-10-16T16:16:17.268Z</time>
      </trkpt>
      <trkpt lat="47.791483" lon="8.064536">
        <ele>854.093645</ele>
        <time>2024-10-16T16:16:23.841Z</time>
      </trkpt>
      <trkpt lat="47.791404" lon="8.064273">
        <ele>855.148489</ele>
        <time>2024-10-16T16:16:29.459Z</time>
      </trkpt>
      <trkpt lat="47.791357" lon="8.064087">
        <ele>855.876108</ele>
        <time>2024-10-16T16:16:34.027Z</time>
      </trkpt>
      <trkpt lat="47.791253" lon="8.063294">
        <ele>858.834492</ele>
        <time>2024-10-16T16:16:56.286Z</time>
      </trkpt>
      <trkpt lat="47.791275" lon="8.062716">
        <ele>860.954241</ele>
        <time>2024-10-16T16:17:14.272Z</time>
      </trkpt>
      <trkpt lat="47.791294" lon="8.062327">
        <ele>862.452024</ele>
        <time>2024-10-16T16:17:26.587Z</time>
      </trkpt>
      <trkpt lat="47.791283" lon="8.062038">
        <ele>863.911692</ele>
        <time>2024-10-16T16:17:35.905Z</time>
      </trkpt>
      <trkpt lat="47.791263" lon="8.061630">
        <ele>865.974570</ele>
        <time>2024-10-16T16:17:49.554Z</time>
      </trkpt>
      <trkpt lat="47.791265" lon="8.061459">
        <ele>866.836998</ele>
        <time>2024-10-16T16:17:54.952Z</time>
      </trkpt>
      <trkpt lat="47.791336" lon="8.061083">
        <ele>868.806509</ele>
        <time>2024-10-16T16:18:08.161Z</time>
      </trkpt>
      <trkpt lat="47.791467" lon="8.060513">
        <ele>871.844353</ele>
        <time>2024-10-16T16:18:27.587Z</time>
      </trkpt>
      <trkpt lat="47.791506" lon="8.060067">
        <ele>874.112345</ele>
        <time>2024-10-16T16:18:40.938Z</time>
      </trkpt>
      <trkpt lat="47.791511" lon="8.059926">
        <ele>874.824348</ele>
        <time>2024-10-16T16:18:44.383Z</time>
      </trkpt>
      <trkpt lat="47.791495" lon="8.059341">
        <ele>876.347752</ele>
        <time>2024-10-16T16:18:58.537Z</time>
      </trkpt>
      <trkpt lat="47.791440" lon="8.058567">
        <ele>877.574679</ele>
        <time>2024-10-16T16:19:12.627Z</time>
      </trkpt>
      <trkpt lat="47.791488" lon="8.058225">
        <ele>878.125441</ele>
        <time>2024-10-16T16:19:17.898Z</time>
      </trkpt>
      <trkpt lat="47.791514" lon="8.058041">
        <ele>878.421841</ele>
        <time>2024-10-16T16:19:20.519Z</time>
      </trkpt>
      <trkpt lat="47.791573" lon="8.057552">
        <ele>879.205024</ele>
        <time>2024-10-16T16:19:26.689Z</time>
      </trkpt>
      <trkpt lat="47.791626" lon="8.057290">
        <ele>879.636352</ele>
        <time>2024-10-16T16:19:29.361Z</time>
      </trkpt>
      <trkpt lat="47.791681" lon="8.057121">
        <ele>879.915442</ele>
        <time>2024-10-16T16:19:31.154Z</time>
      </trkpt>
      <trkpt lat="47.791983" lon="8.056555">
        <ele>879.692315</ele>
        <time>2024-10-16T16:19:37.196Z</time>
      </trkpt>
      <trkpt lat="47.792040" lon="8.056401">
        <ele>879.638038</ele>
        <time>2024-10-16T16:19:38.551Z</time>
      </trkpt>
      <trkpt lat="47.792071" lon="8.056207">
        <ele>879.576479</ele>
        <time>2024-10-16T16:19:40.130Z</time>
      </trkpt>
      <trkpt lat="47.792064" lon="8.055804">
        <ele>879.452031</ele>
        <time>2024-10-16T16:19:43.303Z</time>
      </trkpt>
      <trkpt lat="47.791947" lon="8.054962">
        <ele>879.186604</ele>
        <time>2024-10-16T16:19:50.565Z</time>
      </trkpt>
      <trkpt lat="47.791940" lon="8.054786">
        <ele>879.132177</ele>
        <time>2024-10-16T16:19:52.540Z</time>
      </trkpt>
      <trkpt lat="47.792001" lon="8.054564">
        <ele>879.257046</ele>
        <time>2024-10-16T16:19:55.326Z</time>
      </trkpt>
      <trkpt lat="47.792108" lon="8.054466">
        <ele>879.540977</ele>
        <time>2024-10-16T16:19:57.761Z</time>
      </trkpt>
      <trkpt lat="47.792164" lon="8.054452">
        <ele>879.669310</ele>
        <time>2024-10-16T16:19:58.891Z</time>
      </trkpt>
      <trkpt lat="47.792441" lon="8.054497">
        <ele>880.299048</ele>
        <time>2024-10-16T16:20:04.753Z</time>
      </trkpt>
      <trkpt lat="47.792594" lon="8.054483">
        <ele>880.645480</ele>
        <time>2024-10-16T16:20:08.052Z</time>
      </trkpt>
      <trkpt lat="47.792765" lon="8.054368">
        <ele>881.069554</ele>
        <time>2024-10-16T16:20:12.701Z</time>
      </trkpt>
      <trkpt lat="47.792879" lon="8.054176">
        <ele>881.458602</ele>
        <time>2024-10-16T16:20:16.791Z</time>
      </trkpt>
      <trkpt lat="47.793013" lon="8.053737">
        <ele>882.190707</ele>
        <time>2024-10-16T16:20:25.472Z</time>
      </trkpt>
      <trkpt lat="47.793200" lon="8.052909">
        <ele>883.747201</ele>
        <time>2024-10-16T16:20:42.452Z</time>
      </trkpt>
      <trkpt lat="47.793308" lon="8.052597">
        <ele>884.620573</ele>
        <time>2024-10-16T16:20:49.652Z</time>
      </trkpt>
      <trkpt lat="47.793604" lon="8.051920">
        <ele>886.630550</ele>
        <time>2024-10-16T16:21:07.585Z</time>
      </trkpt>
      <trkpt lat="47.793642" lon="8.051594">
        <ele>887.453875</ele>
        <time>2024-10-16T16:21:14.288Z</time>
      </trkpt>
      <trkpt lat="47.793598" lon="8.051248">
        <ele>888.330135</ele>
        <time>2024-10-16T16:21:20.922Z</time>
      </trkpt>
      <trkpt lat="47.793533" lon="8.050987">
        <ele>889.022786</ele>
        <time>2024-10-16T16:21:26.153Z</time>
      </trkpt>
      <trkpt lat="47.793400" lon="8.050731">
        <ele>889.826521</ele>
        <time>2024-10-16T16:21:32.019Z</time>
      </trkpt>
      <trkpt lat="47.793284" lon="8.050593">
        <ele>890.284144</ele>
        <time>2024-10-16T16:21:36.052Z</time>
      </trkpt>
      <trkpt lat="47.793093" lon="8.050480">
        <ele>890.917542</ele>
        <time>2024-10-16T16:21:41.565Z</time>
      </trkpt>
      <trkpt lat="47.792895" lon="8.050451">
        <ele>891.530670</ele>
        <time>2024-10-16T16:21:46.975Z</time>
      </trkpt>
      <trkpt lat="47.792774" lon="8.050465">
        <ele>891.904684</ele>
        <time>2024-10-16T16:21:50.222Z</time>
      </trkpt>
      <trkpt lat="47.792655" lon="8.050521">
        <ele>892.289300</ele>
        <time>2024-10-16T16:21:53.643Z</time>
      </trkpt>
      <trkpt lat="47.791958" lon="8.051167">
        <ele>894.819623</ele>
        <time>2024-10-16T16:22:15.997Z</time>
      </trkpt>
      <trkpt lat="47.791570" lon="8.051384">
        <ele>896.196264</ele>
        <time>2024-10-16T16:22:26.966Z</time>
      </trkpt>
      <trkpt lat="47.791245" lon="8.051476">
        <ele>897.353499</ele>
        <time>2024-10-16T16:22:35.903Z</time>
      </trkpt>
      <trkpt lat="47.791007" lon="8.051481">
        <ele>898.186112</ele>
        <time>2024-10-16T16:22:42.638Z</time>
      </trkpt>
      <trkpt lat="47.790777" lon="8.051443">
        <ele>898.995599</ele>
        <time>2024-10-16T16:22:49.296Z</time>
      </trkpt>
      <trkpt lat="47.790403" lon="8.051251">
        <ele>900.379489</ele>
        <time>2024-10-16T16:23:01.424Z</time>
      </trkpt>
      <trkpt lat="47.790265" lon="8.051121">
        <ele>900.950774</ele>
        <time>2024-10-16T16:23:06.014Z</time>
      </trkpt>
      <trkpt lat="47.789995" lon="8.050741">
        <ele>902.548069</ele>
        <time>2024-10-16T16:23:17.375Z</time>
      </trkpt>
      <trkpt lat="47.789880" lon="8.050500">
        <ele>903.588844</ele>
        <time>2024-10-16T16:23:23.910Z</time>
      </trkpt>
      <trkpt lat="47.789771" lon="8.050216">
        <ele>904.740434</ele>
        <time>2024-10-16T16:23:30.458Z</time>
      </trkpt>
      <trkpt lat="47.789711" lon="8.049986">
        <ele>905.609142</ele>
        <time>2024-10-16T16:23:36.207Z</time>
      </trkpt>
      <trkpt lat="47.789691" lon="8.049892">
        <ele>905.956306</ele>
        <time>2024-10-16T16:23:38.236Z</time>
      </trkpt>
      <trkpt lat="47.789604" lon="8.049542">
        <ele>907.270259</ele>
        <time>2024-10-16T16:23:47.087Z</time>
      </trkpt>
      <trkpt lat="47.789565" lon="8.049397">
        <ele>907.820181</ele>
        <time>2024-10-16T16:23:50.544Z</time>
      </trkpt>
      <trkpt lat="47.789383" lon="8.049051">
        <ele>909.367373</ele>
        <time>2024-10-16T16:24:02.285Z</time>
      </trkpt>
      <trkpt lat="47.789003" lon="8.048611">
        <ele>912.333156</ele>
        <time>2024-10-16T16:24:22.437Z</time>
      </trkpt>
      <trkpt lat="47.788452" lon="8.047987">
        <ele>917.942209</ele>
        <time>2024-10-16T16:24:54.311Z</time>
      </trkpt>
      <trkpt lat="47.787992" lon="8.047455">
        <ele>922.661603</ele>
        <time>2024-10-16T16:25:22.772Z</time>
      </trkpt>
      <trkpt lat="47.787375" lon="8.046872">
        <ele>928.790885</ele>
        <time>2024-10-16T16:26:00.217Z</time>
      </trkpt>
      <trkpt lat="47.786982" lon="8.046538">
        <ele>932.718010</ele>
        <time>2024-10-16T16:26:23.878Z</time>
      </trkpt>
      <trkpt lat="47.786584" lon="8.046124">
        <ele>936.931603</ele>
        <time>2024-10-16T16:26:48.976Z</time>
      </trkpt>
      <trkpt lat="47.786324" lon="8.045705">
        <ele>940.257020</ele>
        <time>2024-10-16T16:27:07.596Z</time>
      </trkpt>
      <trkpt lat="47.786171" lon="8.045379">
        <ele>942.253845</ele>
        <time>2024-10-16T16:27:19.057Z</time>
      </trkpt>
      <trkpt lat="47.786086" lon="8.045111">
        <ele>943.559646</ele>
        <time>2024-10-16T16:27:27.263Z</time>
      </trkpt>
      <trkpt lat="47.785983" lon="8.044612">
        <ele>945.859736</ele>
        <time>2024-10-16T16:27:41.363Z</time>
      </trkpt>
      <trkpt lat="47.785879" lon="8.043731">
        <ele>949.801034</ele>
        <time>2024-10-16T16:28:05.916Z</time>
      </trkpt>
      <trkpt lat="47.785728" lon="8.043118">
        <ele>952.677821</ele>
        <time>2024-10-16T16:28:23.197Z</time>
      </trkpt>
      <trkpt lat="47.785567" lon="8.042776">
        <ele>954.328583</ele>
        <time>2024-10-16T16:28:34.563Z</time>
      </trkpt>
      <trkpt lat="47.785468" lon="8.042616">
        <ele>955.163102</ele>
        <time>2024-10-16T16:28:39.978Z</time>
      </trkpt>
      <trkpt lat="47.785231" lon="8.042347">
        <ele>956.865064</ele>
        <time>2024-10-16T16:28:50.423Z</time>
      </trkpt>
      <trkpt lat="47.784920" lon="8.042141">
        <ele>958.808880</ele>
        <time>2024-10-16T16:29:02.386Z</time>
      </trkpt>
      <trkpt lat="47.784741" lon="8.042083">
        <ele>959.854952</ele>
        <time>2024-10-16T16:29:08.854Z</time>
      </trkpt>
      <trkpt lat="47.784416" lon="8.042046">
        <ele>961.716192</ele>
        <time>2024-10-16T16:29:21.588Z</time>
      </trkpt>
      <trkpt lat="47.783311" lon="8.042131">
        <ele>968.310380</ele>
        <time>2024-10-16T16:30:05.063Z</time>
      </trkpt>
      <trkpt lat="47.782942" lon="8.042111">
        <ele>970.542391</ele>
        <time>2024-10-16T16:30:19.111Z</time>
      </trkpt>
      <trkpt lat="47.782705" lon="8.042045">
        <ele>971.999875</ele>
        <time>2024-10-16T16:30:28.476Z</time>
      </trkpt>
      <trkpt lat="47.782544" lon="8.041943">
        <ele>973.057603</ele>
        <time>2024-10-16T16:30:35.271Z</time>
      </trkpt>
      <trkpt lat="47.782269" lon="8.041673">
        <ele>975.059982</ele>
        <time>2024-10-16T16:30:48.344Z</time>
      </trkpt>
      <trkpt lat="47.781967" lon="8.041172">
        <ele>977.828715</ele>
        <time>2024-10-16T16:31:06.487Z</time>
      </trkpt>
      <trkpt lat="47.781686" lon="8.040467">
        <ele>981.200732</ele>
        <time>2024-10-16T16:31:28.420Z</time>
      </trkpt>
      <trkpt lat="47.781188" lon="8.039266">
        <ele>986.451768</ele>
        <time>2024-10-16T16:32:05.568Z</time>
      </trkpt>
      <trkpt lat="47.780984" lon="8.038881">
        <ele>987.846684</ele>
        <time>2024-10-16T16:32:17.861Z</time>
      </trkpt>
      <trkpt lat="47.780390" lon="8.037890">
        <ele>991.624827</ele>
        <time>2024-10-16T16:32:45.836Z</time>
      </trkpt>
      <trkpt lat="47.780244" lon="8.037596">
        <ele>992.664910</ele>
        <time>2024-10-16T16:32:52.020Z</time>
      </trkpt>
      <trkpt lat="47.780114" lon="8.037292">
        <ele>992.961283</ele>
        <time>2024-10-16T16:32:57.302Z</time>
      </trkpt>
      <trkpt lat="47.779748" lon="8.036186">
        <ele>993.518840</ele>
        <time>2024-10-16T16:33:11.840Z</time>
      </trkpt>
      <trkpt lat="47.779414" lon="8.035060">
        <ele>994.067895</ele>
        <time>2024-10-16T16:33:23.389Z</time>
      </trkpt>
      <trkpt lat="47.779204" lon="8.033882">
        <ele>994.518076</ele>
        <time>2024-10-16T16:33:34.932Z</time>
      </trkpt>
      <trkpt lat="47.779165" lon="8.033663">
        <ele>994.601763</ele>
        <time>2024-10-16T16:33:37.153Z</time>
      </trkpt>
      <trkpt lat="47.778951" lon="8.033005">
        <ele>994.871786</ele>
        <time>2024-10-16T16:33:45.998Z</time>
      </trkpt>
      <trkpt lat="47.778908" lon="8.032928">
        <ele>994.908768</ele>
        <time>2024-10-16T16:33:47.463Z</time>
      </trkpt>
      <trkpt lat="47.778615" lon="8.032395">
        <ele>995.946736</ele>
        <time>2024-10-16T16:33:58.121Z</time>
      </trkpt>
      <trkpt lat="47.778514" lon="8.032144">
        <ele>996.657966</ele>
        <time>2024-10-16T16:34:03.071Z</time>
      </trkpt>
      <trkpt lat="47.778406" lon="8.031729">
        <ele>997.739872</ele>
        <time>2024-10-16T16:34:10.976Z</time>
      </trkpt>
      <trkpt lat="47.778342" lon="8.031251">
        <ele>998.924768</ele>
        <time>2024-10-16T16:34:20.472Z</time>
      </trkpt>
      <trkpt lat="47.778257" lon="8.030173">
        <ele>1001.600627</ele>
        <time>2024-10-16T16:34:44.845Z</time>
      </trkpt>
      <trkpt lat="47.778164" lon="8.029565">
        <ele>1004.783312</ele>
        <time>2024-10-16T16:35:00.923Z</time>
      </trkpt>
      <trkpt lat="47.778004" lon="8.029053">
        <ele>1007.665378</ele>
        <time>2024-10-16T16:35:17.284Z</time>
      </trkpt>
      <trkpt lat="47.777395" lon="8.027636">
        <ele>1016.499912</ele>
        <time>2024-10-16T16:36:13.021Z</time>
      </trkpt>
      <trkpt lat="47.776778" lon="8.026249">
        <ele>1026.987270</ele>
        <time>2024-10-16T16:37:16.137Z</time>
      </trkpt>
      <trkpt lat="47.776090" lon="8.024678">
        <ele>1036.379849</ele>
        <time>2024-10-16T16:38:16.474Z</time>
      </trkpt>
      <trkpt lat="47.775928" lon="8.024377">
        <ele>1037.935089</ele>
        <time>2024-10-16T16:38:25.814Z</time>
      </trkpt>
      <trkpt lat="47.775475" lon="8.023672">
        <ele>1041.868862</ele>
        <time>2024-10-16T16:38:45.814Z</time>
      </trkpt>
      <trkpt lat="47.775291" lon="8.023320">
        <ele>1043.707957</ele>
        <time>2024-10-16T16:38:54.726Z</time>
      </trkpt>
      <trkpt lat="47.774834" lon="8.021964">
        <ele>1050.133543</ele>
        <time>2024-10-16T16:39:29.885Z</time>
      </trkpt>
      <trkpt lat="47.774723" lon="8.021717">
        <ele>1051.392166</ele>
        <time>2024-10-16T16:39:38.589Z</time>
      </trkpt>
      <trkpt lat="47.774454" lon="8.021319">
        <ele>1053.783164</ele>
        <time>2024-10-16T16:39:56.635Z</time>
      </trkpt>
      <trkpt lat="47.774206" lon="8.021117">
        <ele>1056.593301</ele>
        <time>2024-10-16T16:40:12.836Z</time>
      </trkpt>
      <trkpt lat="47.773840" lon="8.020941">
        <ele>1060.839345</ele>
        <time>2024-10-16T16:40:37.188Z</time>
      </trkpt>
      <trkpt lat="47.773046" lon="8.020805">
        <ele>1069.662240</ele>
        <time>2024-10-16T16:41:30.450Z</time>
      </trkpt>
      <trkpt lat="47.772489" lon="8.020671">
        <ele>1074.647164</ele>
        <time>2024-10-16T16:42:02.150Z</time>
      </trkpt>
      <trkpt lat="47.772140" lon="8.020349">
        <ele>1076.114029</ele>
        <time>2024-10-16T16:42:19.739Z</time>
      </trkpt>
      <trkpt lat="47.772003" lon="8.020105">
        <ele>1076.877321</ele>
        <time>2024-10-16T16:42:26.934Z</time>
      </trkpt>
      <trkpt lat="47.771863" lon="8.019766">
        <ele>1077.832531</ele>
        <time>2024-10-16T16:42:34.234Z</time>
      </trkpt>
      <trkpt lat="47.771614" lon="8.018986">
        <ele>1079.905598</ele>
        <time>2024-10-16T16:42:44.252Z</time>
      </trkpt>
      <trkpt lat="47.771213" lon="8.017662">
        <ele>1077.765638</ele>
        <time>2024-10-16T16:42:54.113Z</time>
      </trkpt>
      <trkpt lat="47.771128" lon="8.017288">
        <ele>1076.883993</ele>
        <time>2024-10-16T16:42:56.669Z</time>
      </trkpt>
      <trkpt lat="47.771085" lon="8.017036">
        <ele>1076.303393</ele>
        <time>2024-10-16T16:42:58.346Z</time>
      </trkpt>
      <trkpt lat="47.771028" lon="8.016225">
        <ele>1074.485349</ele>
        <time>2024-10-16T16:43:03.665Z</time>
      </trkpt>
      <trkpt lat="47.770984" lon="8.015887">
        <ele>1073.837647</ele>
        <time>2024-10-16T16:43:05.969Z</time>
      </trkpt>
      <trkpt lat="47.770958" lon="8.015738">
        <ele>1073.548038</ele>
        <time>2024-10-16T16:43:07.057Z</time>
      </trkpt>
      <trkpt lat="47.770171" lon="8.012920">
        <ele>1067.559407</ele>
        <time>2024-10-16T16:43:28.758Z</time>
      </trkpt>
      <trkpt lat="47.769849" lon="8.011905">
        <ele>1065.132721</ele>
        <time>2024-10-16T16:43:36.592Z</time>
      </trkpt>
      <trkpt lat="47.769661" lon="8.011598">
        <ele>1064.234765</ele>
        <time>2024-10-16T16:43:39.317Z</time>
      </trkpt>
      <trkpt lat="47.769551" lon="8.011464">
        <ele>1063.777435</ele>
        <time>2024-10-16T16:43:40.684Z</time>
      </trkpt>
      <trkpt lat="47.769413" lon="8.011351">
        <ele>1062.837889</ele>
        <time>2024-10-16T16:43:42.171Z</time>
      </trkpt>
      <trkpt lat="47.769259" lon="8.011266">
        <ele>1061.750898</ele>
        <time>2024-10-16T16:43:43.715Z</time>
      </trkpt>
      <trkpt lat="47.768910" lon="8.011161">
        <ele>1059.394577</ele>
        <time>2024-10-16T16:43:47.006Z</time>
      </trkpt>
      <trkpt lat="47.768219" lon="8.011002">
        <ele>1054.767387</ele>
        <time>2024-10-16T16:43:53.360Z</time>
      </trkpt>
      <trkpt lat="47.767751" lon="8.010765">
        <ele>1051.412225</ele>
        <time>2024-10-16T16:43:57.682Z</time>
      </trkpt>
      <trkpt lat="47.767413" lon="8.010408">
        <ele>1047.854387</ele>
        <time>2024-10-16T16:44:01.269Z</time>
      </trkpt>
      <trkpt lat="47.767247" lon="8.010176">
        <ele>1045.899530</ele>
        <time>2024-10-16T16:44:03.244Z</time>
      </trkpt>
      <trkpt lat="47.767141" lon="8.009960">
        <ele>1044.356609</ele>
        <time>2024-10-16T16:44:04.810Z</time>
      </trkpt>
      <trkpt lat="47.766803" lon="8.009126">
        <ele>1038.738190</ele>
        <time>2024-10-16T16:44:10.532Z</time>
      </trkpt>
      <trkpt lat="47.766753" lon="8.008996">
        <ele>1037.874093</ele>
        <time>2024-10-16T16:44:11.434Z</time>
      </trkpt>
      <trkpt lat="47.766719" lon="8.008909">
        <ele>1037.293503</ele>
        <time>2024-10-16T16:44:12.039Z</time>
      </trkpt>
      <trkpt lat="47.766605" lon="8.008600">
        <ele>1035.529423</ele>
        <time>2024-10-16T16:44:14.144Z</time>
      </trkpt>
      <trkpt lat="47.766438" lon="8.008209">
        <ele>1033.524087</ele>
        <time>2024-10-16T16:44:16.910Z</time>
      </trkpt>
      <trkpt lat="47.766033" lon="8.007451">
        <ele>1029.332523</ele>
        <time>2024-10-16T16:44:22.740Z</time>
      </trkpt>
      <trkpt lat="47.765727" lon="8.006979">
        <ele>1026.493831</ele>
        <time>2024-10-16T16:44:26.900Z</time>
      </trkpt>
      <trkpt lat="47.764970" lon="8.006001">
        <ele>1021.358795</ele>
        <time>2024-10-16T16:44:36.426Z</time>
      </trkpt>
      <trkpt lat="47.764132" lon="8.005100">
        <ele>1016.565282</ele>
        <time>2024-10-16T16:44:46.385Z</time>
      </trkpt>
      <trkpt lat="47.763953" lon="8.004932">
        <ele>1015.461010</ele>
        <time>2024-10-16T16:44:48.387Z</time>
      </trkpt>
      <trkpt lat="47.763119" lon="8.004111">
        <ele>1010.139622</ele>
        <time>2024-10-16T16:44:57.788Z</time>
      </trkpt>
      <trkpt lat="47.762956" lon="8.003965">
        <ele>1009.127208</ele>
        <time>2024-10-16T16:44:59.558Z</time>
      </trkpt>
      <trkpt lat="47.762570" lon="8.003706">
        <ele>1006.874016</ele>
        <time>2024-10-16T16:45:03.457Z</time>
      </trkpt>
      <trkpt lat="47.761885" lon="8.003305">
        <ele>1001.477705</ele>
        <time>2024-10-16T16:45:10.122Z</time>
      </trkpt>
      <trkpt lat="47.761556" lon="8.003037">
        <ele>998.722632</ele>
        <time>2024-10-16T16:45:13.439Z</time>
      </trkpt>
      <trkpt lat="47.760860" lon="8.002211">
        <ele>991.840393</ele>
        <time>2024-10-16T16:45:21.317Z</time>
      </trkpt>
      <trkpt lat="47.760595" lon="8.001947">
        <ele>988.945144</ele>
        <time>2024-10-16T16:45:24.106Z</time>
      </trkpt>
      <trkpt lat="47.760061" lon="8.001471">
        <ele>983.293900</ele>
        <time>2024-10-16T16:45:29.488Z</time>
      </trkpt>
      <trkpt lat="47.759747" lon="8.001276">
        <ele>980.205035</ele>
        <time>2024-10-16T16:45:32.432Z</time>
      </trkpt>
      <trkpt lat="47.759594" lon="8.001200">
        <ele>978.740735</ele>
        <time>2024-10-16T16:45:33.830Z</time>
      </trkpt>
      <trkpt lat="47.759285" lon="8.001136">
        <ele>976.060817</ele>
        <time>2024-10-16T16:45:36.532Z</time>
      </trkpt>
      <trkpt lat="47.759028" lon="8.001150">
        <ele>973.980255</ele>
        <time>2024-10-16T16:45:38.763Z</time>
      </trkpt>
      <trkpt lat="47.758823" lon="8.001204">
        <ele>972.295972</ele>
        <time>2024-10-16T16:45:40.597Z</time>
      </trkpt>
      <trkpt lat="47.758646" lon="8.001311">
        <ele>970.750286</ele>
        <time>2024-10-16T16:45:42.280Z</time>
      </trkpt>
      <trkpt lat="47.758353" lon="8.001584">
        <ele>967.953260</ele>
        <time>2024-10-16T16:45:45.339Z</time>
      </trkpt>
      <trkpt lat="47.758127" lon="8.001925">
        <ele>965.348944</ele>
        <time>2024-10-16T16:45:48.198Z</time>
      </trkpt>
      <trkpt lat="47.757977" lon="8.002268">
        <ele>963.123492</ele>
        <time>2024-10-16T16:45:50.661Z</time>
      </trkpt>
      <trkpt lat="47.757847" lon="8.002840">
        <ele>960.337624</ele>
        <time>2024-10-16T16:45:54.329Z</time>
      </trkpt>
      <trkpt lat="47.757827" lon="8.003228">
        <ele>958.582614</ele>
        <time>2024-10-16T16:45:56.697Z</time>
      </trkpt>
      <trkpt lat="47.757888" lon="8.003737">
        <ele>956.250843</ele>
        <time>2024-10-16T16:45:59.844Z</time>
      </trkpt>
      <trkpt lat="47.758091" lon="8.004300">
        <ele>953.369569</ele>
        <time>2024-10-16T16:46:03.742Z</time>
      </trkpt>
      <trkpt lat="47.758351" lon="8.004735">
        <ele>950.744467</ele>
        <time>2024-10-16T16:46:07.298Z</time>
      </trkpt>
      <trkpt lat="47.758828" lon="8.005326">
        <ele>946.547160</ele>
        <time>2024-10-16T16:46:12.874Z</time>
      </trkpt>
      <trkpt lat="47.760412" lon="8.007044">
        <ele>935.034964</ele>
        <time>2024-10-16T16:46:30.582Z</time>
      </trkpt>
      <trkpt lat="47.760540" lon="8.007259">
        <ele>934.164186</ele>
        <time>2024-10-16T16:46:32.519Z</time>
      </trkpt>
      <trkpt lat="47.760615" lon="8.007453">
        <ele>933.485644</ele>
        <time>2024-10-16T16:46:34.113Z</time>
      </trkpt>
      <trkpt lat="47.760652" lon="8.007862">
        <ele>932.234379</ele>
        <time>2024-10-16T16:46:36.982Z</time>
      </trkpt>
      <trkpt lat="47.760602" lon="8.008188">
        <ele>931.220547</ele>
        <time>2024-10-16T16:46:39.423Z</time>
      </trkpt>
      <trkpt lat="47.760517" lon="8.008425">
        <ele>930.405770</ele>
        <time>2024-10-16T16:46:41.265Z</time>
      </trkpt>
      <trkpt lat="47.760405" lon="8.008604">
        <ele>929.637458</ele>
        <time>2024-10-16T16:46:43.049Z</time>
      </trkpt>
      <trkpt lat="47.760254" lon="8.008747">
        <ele>928.800838</ele>
        <time>2024-10-16T16:46:44.842Z</time>
      </trkpt>
      <trkpt lat="47.760080" lon="8.008800">
        <ele>927.970724</ele>
        <time>2024-10-16T16:46:46.789Z</time>
      </trkpt>
      <trkpt lat="47.759780" lon="8.008736">
        <ele>926.554240</ele>
        <time>2024-10-16T16:46:49.758Z</time>
      </trkpt>
      <trkpt lat="47.759602" lon="8.008594">
        <ele>925.610223</ele>
        <time>2024-10-16T16:46:51.627Z</time>
      </trkpt>
      <trkpt lat="47.758840" lon="8.007644">
        <ele>919.576183</ele>
        <time>2024-10-16T16:47:00.883Z</time>
      </trkpt>
      <trkpt lat="47.758469" lon="8.007217">
        <ele>914.473388</ele>
        <time>2024-10-16T16:47:04.924Z</time>
      </trkpt>
      <trkpt lat="47.758425" lon="8.007183">
        <ele>913.934019</ele>
        <time>2024-10-16T16:47:05.343Z</time>
      </trkpt>
      <trkpt lat="47.758047" lon="8.006888">
        <ele>909.290500</ele>
        <time>2024-10-16T16:47:08.959Z</time>
      </trkpt>
      <trkpt lat="47.757776" lon="8.006744">
        <ele>906.160065</ele>
        <time>2024-10-16T16:47:11.377Z</time>
      </trkpt>
      <trkpt lat="47.757424" lon="8.006566">
        <ele>902.037058</ele>
        <time>2024-10-16T16:47:14.470Z</time>
      </trkpt>
      <trkpt lat="47.757285" lon="8.006502">
        <ele>900.073007</ele>
        <time>2024-10-16T16:47:15.686Z</time>
      </trkpt>
      <trkpt lat="47.756367" lon="8.006124">
        <ele>887.215829</ele>
        <time>2024-10-16T16:47:23.678Z</time>
      </trkpt>
      <trkpt lat="47.755969" lon="8.006021">
        <ele>881.762917</ele>
        <time>2024-10-16T16:47:27.082Z</time>
      </trkpt>
      <trkpt lat="47.755556" lon="8.005887">
        <ele>875.984697</ele>
        <time>2024-10-16T16:47:30.611Z</time>
      </trkpt>
      <trkpt lat="47.755193" lon="8.005643">
        <ele>870.422938</ele>
        <time>2024-10-16T16:47:33.915Z</time>
      </trkpt>
      <trkpt lat="47.754976" lon="8.005470">
        <ele>866.985388</ele>
        <time>2024-10-16T16:47:35.957Z</time>
      </trkpt>
      <trkpt lat="47.754764" lon="8.005349">
        <ele>863.814968</ele>
        <time>2024-10-16T16:47:37.855Z</time>
      </trkpt>
      <trkpt lat="47.754439" lon="8.005267">
        <ele>859.212438</ele>
        <time>2024-10-16T16:47:40.611Z</time>
      </trkpt>
      <trkpt lat="47.754229" lon="8.005274">
        <ele>856.279642</ele>
        <time>2024-10-16T16:47:42.367Z</time>
      </trkpt>
      <trkpt lat="47.753898" lon="8.005322">
        <ele>851.979931</ele>
        <time>2024-10-16T16:47:45.162Z</time>
      </trkpt>
      <trkpt lat="47.753180" lon="8.005436">
        <ele>844.346816</ele>
        <time>2024-10-16T16:47:51.245Z</time>
      </trkpt>
      <trkpt lat="47.752843" lon="8.005373">
        <ele>840.756354</ele>
        <time>2024-10-16T16:47:54.132Z</time>
      </trkpt>
      <trkpt lat="47.752490" lon="8.005213">
        <ele>836.855361</ele>
        <time>2024-10-16T16:47:57.325Z</time>
      </trkpt>
      <trkpt lat="47.752358" lon="8.005114">
        <ele>835.292623</ele>
        <time>2024-10-16T16:47:58.662Z</time>
      </trkpt>
      <trkpt lat="47.752048" lon="8.004787">
        <ele>833.006229</ele>
        <time>2024-10-16T16:48:02.160Z</time>
      </trkpt>
      <trkpt lat="47.751676" lon="8.004198">
        <ele>830.861635</ele>
        <time>2024-10-16T16:48:07.373Z</time>
      </trkpt>
      <trkpt lat="47.751347" lon="8.003653">
        <ele>828.917854</ele>
        <time>2024-10-16T16:48:12.421Z</time>
      </trkpt>
      <trkpt lat="47.751075" lon="8.003302">
        <ele>827.496462</ele>
        <time>2024-10-16T16:48:16.207Z</time>
      </trkpt>
      <trkpt lat="47.750807" lon="8.003025">
        <ele>826.856105</ele>
        <time>2024-10-16T16:48:19.631Z</time>
      </trkpt>
      <trkpt lat="47.750313" lon="8.002676">
        <ele>826.613048</ele>
        <time>2024-10-16T16:48:26.628Z</time>
      </trkpt>
      <trkpt lat="47.749892" lon="8.002475">
        <ele>826.416540</ele>
        <time>2024-10-16T16:48:33.994Z</time>
      </trkpt>
      <trkpt lat="47.749390" lon="8.002291">
        <ele>826.186763</ele>
        <time>2024-10-16T16:48:42.590Z</time>
      </trkpt>
      <trkpt lat="47.749214" lon="8.002065">
        <ele>826.071888</ele>
        <time>2024-10-16T16:48:45.955Z</time>
      </trkpt>
      <trkpt lat="47.749227" lon="8.001639">
        <ele>825.917978</ele>
        <time>2024-10-16T16:48:50.775Z</time>
      </trkpt>
      <trkpt lat="47.749099" lon="8.001627">
        <ele>825.849134</ele>
        <time>2024-10-16T16:48:52.262Z</time>
      </trkpt>
      <trkpt lat="47.748927" lon="8.001619">
        <ele>825.756763</ele>
        <time>2024-10-16T16:48:54.950Z</time>
      </trkpt>
      <trkpt lat="47.748673" lon="8.001648">
        <ele>825.620020</ele>
        <time>2024-10-16T16:48:58.494Z</time>
      </trkpt>
      <trkpt lat="47.747326" lon="8.001917">
        <ele>823.819807</ele>
        <time>2024-10-16T16:49:15.165Z</time>
      </trkpt>
      <trkpt lat="47.746846" lon="8.002014">
        <ele>822.575943</ele>
        <time>2024-10-16T16:49:19.829Z</time>
      </trkpt>
      <trkpt lat="47.746640" lon="8.002089">
        <ele>822.031359</ele>
        <time>2024-10-16T16:49:21.826Z</time>
      </trkpt>
      <trkpt lat="47.746481" lon="8.002199">
        <ele>821.581066</ele>
        <time>2024-10-16T16:49:23.695Z</time>
      </trkpt>
      <trkpt lat="47.746317" lon="8.002381">
        <ele>821.055625</ele>
        <time>2024-10-16T16:49:25.795Z</time>
      </trkpt>
      <trkpt lat="47.746099" lon="8.002624">
        <ele>820.320130</ele>
        <time>2024-10-16T16:49:29.000Z</time>
      </trkpt>
      <trkpt lat="47.745906" lon="8.002759">
        <ele>819.673515</ele>
        <time>2024-10-16T16:49:32.052Z</time>
      </trkpt>
      <trkpt lat="47.745779" lon="8.002812">
        <ele>819.273612</ele>
        <time>2024-10-16T16:49:33.500Z</time>
      </trkpt>
      <trkpt lat="47.745360" lon="8.002833">
        <ele>818.002594</ele>
        <time>2024-10-16T16:49:37.798Z</time>
      </trkpt>
      <trkpt lat="47.744825" lon="8.002614">
        <ele>816.320292</ele>
        <time>2024-10-16T16:49:43.055Z</time>
      </trkpt>
      <trkpt lat="47.744550" lon="8.002517">
        <ele>815.463435</ele>
        <time>2024-10-16T16:49:45.928Z</time>
      </trkpt>
      <trkpt lat="47.744287" lon="8.002474">
        <ele>814.653024</ele>
        <time>2024-10-16T16:49:48.693Z</time>
      </trkpt>
      <trkpt lat="47.744066" lon="8.002477">
        <ele>813.970421</ele>
        <time>2024-10-16T16:49:51.114Z</time>
      </trkpt>
      <trkpt lat="47.743696" lon="8.002557">
        <ele>812.815634</ele>
        <time>2024-10-16T16:49:55.247Z</time>
      </trkpt>
      <trkpt lat="47.743688" lon="8.002560">
        <ele>812.790152</ele>
        <time>2024-10-16T16:49:55.339Z</time>
      </trkpt>
      <trkpt lat="47.743516" lon="8.002643">
        <ele>812.231649</ele>
        <time>2024-10-16T16:49:57.345Z</time>
      </trkpt>
      <trkpt lat="47.743177" lon="8.002803">
        <ele>811.133155</ele>
        <time>2024-10-16T16:50:00.839Z</time>
      </trkpt>
      <trkpt lat="47.742457" lon="8.003213">
        <ele>809.354573</ele>
        <time>2024-10-16T16:50:08.218Z</time>
      </trkpt>
      <trkpt lat="47.742241" lon="8.003367">
        <ele>809.175739</ele>
        <time>2024-10-16T16:50:10.915Z</time>
      </trkpt>
      <trkpt lat="47.741911" lon="8.003667">
        <ele>808.886981</ele>
        <time>2024-10-16T16:50:16.683Z</time>
      </trkpt>
      <trkpt lat="47.741605" lon="8.004061">
        <ele>808.584795</ele>
        <time>2024-10-16T16:50:23.495Z</time>
      </trkpt>
      <trkpt lat="47.741534" lon="8.004147">
        <ele>808.516429</ele>
        <time>2024-10-16T16:50:25.122Z</time>
      </trkpt>
      <trkpt lat="47.741216" lon="8.004498">
        <ele>808.220768</ele>
        <time>2024-10-16T16:50:32.213Z</time>
      </trkpt>
      <trkpt lat="47.741122" lon="8.004581">
        <ele>808.266582</ele>
        <time>2024-10-16T16:50:34.224Z</time>
      </trkpt>
      <trkpt lat="47.740808" lon="8.004734">
        <ele>808.505575</ele>
        <time>2024-10-16T16:50:39.873Z</time>
      </trkpt>
      <trkpt lat="47.740649" lon="8.004745">
        <ele>808.620702</ele>
        <time>2024-10-16T16:50:42.733Z</time>
      </trkpt>
      <trkpt lat="47.740469" lon="8.004713">
        <ele>808.751820</ele>
        <time>2024-10-16T16:50:45.995Z</time>
      </trkpt>
      <trkpt lat="47.740219" lon="8.004627">
        <ele>808.937417</ele>
        <time>2024-10-16T16:50:50.756Z</time>
      </trkpt>
      <trkpt lat="47.740056" lon="8.004536">
        <ele>809.063348</ele>
        <time>2024-10-16T16:50:54.114Z</time>
      </trkpt>
      <trkpt lat="47.739948" lon="8.004462">
        <ele>809.149356</ele>
        <time>2024-10-16T16:50:56.286Z</time>
      </trkpt>
      <trkpt lat="47.738829" lon="8.003625">
        <ele>809.112189</ele>
        <time>2024-10-16T16:51:17.213Z</time>
      </trkpt>
      <trkpt lat="47.738237" lon="8.003237">
        <ele>808.778478</ele>
        <time>2024-10-16T16:51:25.373Z</time>
      </trkpt>
      <trkpt lat="47.737870" lon="8.003070">
        <ele>808.580507</ele>
        <time>2024-10-16T16:51:29.800Z</time>
      </trkpt>
      <trkpt lat="47.737606" lon="8.002998">
        <ele>807.539934</ele>
        <time>2024-10-16T16:51:32.783Z</time>
      </trkpt>
      <trkpt lat="47.736963" lon="8.002917">
        <ele>804.982390</ele>
        <time>2024-10-16T16:51:39.541Z</time>
      </trkpt>
      <trkpt lat="47.735526" lon="8.002921">
        <ele>798.908937</ele>
        <time>2024-10-16T16:51:52.810Z</time>
      </trkpt>
      <trkpt lat="47.735041" lon="8.002748">
        <ele>796.586331</ele>
        <time>2024-10-16T16:51:57.395Z</time>
      </trkpt>
      <trkpt lat="47.734477" lon="8.002401">
        <ele>793.743952</ele>
        <time>2024-10-16T16:52:03.481Z</time>
      </trkpt>
      <trkpt lat="47.734323" lon="8.002299">
        <ele>793.037478</ele>
        <time>2024-10-16T16:52:05.228Z</time>
      </trkpt>
      <trkpt lat="47.734181" lon="8.002196">
        <ele>792.810207</ele>
        <time>2024-10-16T16:52:06.912Z</time>
      </trkpt>
      <trkpt lat="47.733605" lon="8.001793">
        <ele>791.894510</ele>
        <time>2024-10-16T16:52:13.789Z</time>
      </trkpt>
      <trkpt lat="47.733286" lon="8.001546">
        <ele>791.377150</ele>
        <time>2024-10-16T16:52:18.136Z</time>
      </trkpt>
      <trkpt lat="47.733131" lon="8.001448">
        <ele>791.134868</ele>
        <time>2024-10-16T16:52:20.588Z</time>
      </trkpt>
      <trkpt lat="47.732055" lon="8.000730">
        <ele>789.879025</ele>
        <time>2024-10-16T16:52:37.281Z</time>
      </trkpt>
      <trkpt lat="47.731655" lon="8.000567">
        <ele>789.533525</ele>
        <time>2024-10-16T16:52:42.024Z</time>
      </trkpt>
      <trkpt lat="47.730925" lon="8.000429">
        <ele>789.022889</ele>
        <time>2024-10-16T16:52:50.472Z</time>
      </trkpt>
      <trkpt lat="47.730630" lon="8.000272">
        <ele>789.163571</ele>
        <time>2024-10-16T16:52:54.730Z</time>
      </trkpt>
      <trkpt lat="47.730386" lon="8.000056">
        <ele>789.291074</ele>
        <time>2024-10-16T16:52:59.385Z</time>
      </trkpt>
      <trkpt lat="47.730223" lon="7.999819">
        <ele>789.393441</ele>
        <time>2024-10-16T16:53:03.304Z</time>
      </trkpt>
      <trkpt lat="47.729863" lon="7.999158">
        <ele>789.650297</ele>
        <time>2024-10-16T16:53:13.795Z</time>
      </trkpt>
      <trkpt lat="47.729488" lon="7.998562">
        <ele>790.367894</ele>
        <time>2024-10-16T16:53:24.599Z</time>
      </trkpt>
      <trkpt lat="47.729059" lon="7.998193">
        <ele>791.616684</ele>
        <time>2024-10-16T16:53:36.684Z</time>
      </trkpt>
      <trkpt lat="47.728856" lon="7.998111">
        <ele>792.146711</ele>
        <time>2024-10-16T16:53:42.519Z</time>
      </trkpt>
      <trkpt lat="47.728644" lon="7.998072">
        <ele>792.684944</ele>
        <time>2024-10-16T16:53:48.420Z</time>
      </trkpt>
      <trkpt lat="47.728201" lon="7.998120">
        <ele>793.804096</ele>
        <time>2024-10-16T16:54:00.946Z</time>
      </trkpt>
      <trkpt lat="47.727397" lon="7.998340">
        <ele>794.843935</ele>
        <time>2024-10-16T16:54:21.692Z</time>
      </trkpt>
      <trkpt lat="47.726725" lon="7.998484">
        <ele>795.419687</ele>
        <time>2024-10-16T16:54:34.404Z</time>
      </trkpt>
      <trkpt lat="47.725912" lon="7.998579">
        <ele>794.972126</ele>
        <time>2024-10-16T16:54:44.164Z</time>
      </trkpt>
      <trkpt lat="47.725344" lon="7.998611">
        <ele>793.338031</ele>
        <time>2024-10-16T16:54:49.958Z</time>
      </trkpt>
      <trkpt lat="47.724589" lon="7.998422">
        <ele>791.136949</ele>
        <time>2024-10-16T16:54:57.569Z</time>
      </trkpt>
      <trkpt lat="47.724274" lon="7.998247">
        <ele>789.927273</ele>
        <time>2024-10-16T16:55:00.923Z</time>
      </trkpt>
      <trkpt lat="47.723766" lon="7.997856">
        <ele>787.500469</ele>
        <time>2024-10-16T16:55:06.551Z</time>
      </trkpt>
      <trkpt lat="47.722784" lon="7.997847">
        <ele>783.334494</ele>
        <time>2024-10-16T16:55:15.839Z</time>
      </trkpt>
      <trkpt lat="47.722219" lon="7.998104">
        <ele>780.659844</ele>
        <time>2024-10-16T16:55:21.639Z</time>
      </trkpt>
      <trkpt lat="47.722056" lon="7.998163">
        <ele>779.894336</ele>
        <time>2024-10-16T16:55:23.364Z</time>
      </trkpt>
      <trkpt lat="47.721896" lon="7.998175">
        <ele>779.163322</ele>
        <time>2024-10-16T16:55:24.922Z</time>
      </trkpt>
      <trkpt lat="47.721665" lon="7.998158">
        <ele>778.107970</ele>
        <time>2024-10-16T16:55:27.183Z</time>
      </trkpt>
      <trkpt lat="47.721465" lon="7.998075">
        <ele>777.160464</ele>
        <time>2024-10-16T16:55:29.099Z</time>
      </trkpt>
      <trkpt lat="47.721248" lon="7.997930">
        <ele>776.074842</ele>
        <time>2024-10-16T16:55:31.341Z</time>
      </trkpt>
      <trkpt lat="47.720673" lon="7.997443">
        <ele>773.202338</ele>
        <time>2024-10-16T16:55:37.436Z</time>
      </trkpt>
      <trkpt lat="47.719752" lon="7.996820">
        <ele>768.965301</ele>
        <time>2024-10-16T16:55:47.534Z</time>
      </trkpt>
      <trkpt lat="47.719563" lon="7.996600">
        <ele>767.960117</ele>
        <time>2024-10-16T16:55:49.863Z</time>
      </trkpt>
      <trkpt lat="47.719400" lon="7.996351">
        <ele>767.053575</ele>
        <time>2024-10-16T16:55:52.236Z</time>
      </trkpt>
      <trkpt lat="47.719223" lon="7.995988">
        <ele>766.066399</ele>
        <time>2024-10-16T16:55:55.140Z</time>
      </trkpt>
      <trkpt lat="47.718933" lon="7.995295">
        <ele>764.269316</ele>
        <time>2024-10-16T16:56:00.513Z</time>
      </trkpt>
      <trkpt lat="47.718825" lon="7.995104">
        <ele>763.719918</ele>
        <time>2024-10-16T16:56:02.395Z</time>
      </trkpt>
      <trkpt lat="47.718661" lon="7.994934">
        <ele>763.065505</ele>
        <time>2024-10-16T16:56:04.398Z</time>
      </trkpt>
      <trkpt lat="47.718545" lon="7.994862">
        <ele>762.654063</ele>
        <time>2024-10-16T16:56:06.004Z</time>
      </trkpt>
      <trkpt lat="47.718147" lon="7.994809">
        <ele>761.326188</ele>
        <time>2024-10-16T16:56:10.374Z</time>
      </trkpt>
      <trkpt lat="47.716882" lon="7.994805">
        <ele>756.134318</ele>
        <time>2024-10-16T16:56:22.737Z</time>
      </trkpt>
      <trkpt lat="47.715478" lon="7.994719">
        <ele>751.085247</ele>
        <time>2024-10-16T16:56:35.920Z</time>
      </trkpt>
      <trkpt lat="47.714712" lon="7.994773">
        <ele>748.552794</ele>
        <time>2024-10-16T16:56:44.481Z</time>
      </trkpt>
      <trkpt lat="47.714536" lon="7.994731">
        <ele>748.061442</ele>
        <time>2024-10-16T16:56:46.573Z</time>
      </trkpt>
      <trkpt lat="47.714184" lon="7.994576">
        <ele>747.697979</ele>
        <time>2024-10-16T16:56:51.174Z</time>
      </trkpt>
      <trkpt lat="47.714059" lon="7.994526">
        <ele>747.569822</ele>
        <time>2024-10-16T16:56:52.929Z</time>
      </trkpt>
      <trkpt lat="47.713580" lon="7.994392">
        <ele>747.087270</ele>
        <time>2024-10-16T16:56:59.397Z</time>
      </trkpt>
      <trkpt lat="47.712719" lon="7.994436">
        <ele>746.074101</ele>
        <time>2024-10-16T16:57:10.591Z</time>
      </trkpt>
      <trkpt lat="47.712509" lon="7.994420">
        <ele>745.487014</ele>
        <time>2024-10-16T16:57:12.836Z</time>
      </trkpt>
      <trkpt lat="47.712185" lon="7.994334">
        <ele>744.568096</ele>
        <time>2024-10-16T16:57:16.142Z</time>
      </trkpt>
      <trkpt lat="47.711432" lon="7.994010">
        <ele>742.379391</ele>
        <time>2024-10-16T16:57:23.930Z</time>
      </trkpt>
      <trkpt lat="47.711212" lon="7.993839">
        <ele>741.686219</ele>
        <time>2024-10-16T16:57:26.482Z</time>
      </trkpt>
      <trkpt lat="47.711130" lon="7.993735">
        <ele>741.385241</ele>
        <time>2024-10-16T16:57:27.584Z</time>
      </trkpt>
      <trkpt lat="47.711077" lon="7.993608">
        <ele>741.205415</ele>
        <time>2024-10-16T16:57:28.580Z</time>
      </trkpt>
      <trkpt lat="47.710962" lon="7.992901">
        <ele>740.542163</ele>
        <time>2024-10-16T16:57:33.824Z</time>
      </trkpt>
      <trkpt lat="47.710944" lon="7.992808">
        <ele>740.453922</ele>
        <time>2024-10-16T16:57:34.627Z</time>
      </trkpt>
      <trkpt lat="47.710861" lon="7.992490">
        <ele>740.142899</ele>
        <time>2024-10-16T16:57:37.083Z</time>
      </trkpt>
      <trkpt lat="47.710801" lon="7.992349">
        <ele>739.990774</ele>
        <time>2024-10-16T16:57:38.651Z</time>
      </trkpt>
      <trkpt lat="47.710676" lon="7.992132">
        <ele>739.730295</ele>
        <time>2024-10-16T16:57:40.804Z</time>
      </trkpt>
      <trkpt lat="47.710528" lon="7.991942">
        <ele>739.465259</ele>
        <time>2024-10-16T16:57:43.843Z</time>
      </trkpt>
      <trkpt lat="47.709755" lon="7.991184">
        <ele>738.532610</ele>
        <time>2024-10-16T16:57:57.929Z</time>
      </trkpt>
      <trkpt lat="47.709584" lon="7.991049">
        <ele>738.399774</ele>
        <time>2024-10-16T16:58:00.836Z</time>
      </trkpt>
      <trkpt lat="47.708995" lon="7.990679">
        <ele>737.961087</ele>
        <time>2024-10-16T16:58:08.804Z</time>
      </trkpt>
      <trkpt lat="47.708728" lon="7.990544">
        <ele>737.767606</ele>
        <time>2024-10-16T16:58:12.214Z</time>
      </trkpt>
      <trkpt lat="47.708222" lon="7.990415">
        <ele>736.581211</ele>
        <time>2024-10-16T16:58:18.319Z</time>
      </trkpt>
      <trkpt lat="47.707833" lon="7.990220">
        <ele>735.200715</ele>
        <time>2024-10-16T16:58:22.773Z</time>
      </trkpt>
      <trkpt lat="47.707322" lon="7.989721">
        <ele>733.144602</ele>
        <time>2024-10-16T16:58:28.727Z</time>
      </trkpt>
      <trkpt lat="47.706897" lon="7.989358">
        <ele>731.449837</ele>
        <time>2024-10-16T16:58:33.374Z</time>
      </trkpt>
      <trkpt lat="47.706724" lon="7.989155">
        <ele>730.302727</ele>
        <time>2024-10-16T16:58:35.423Z</time>
      </trkpt>
      <trkpt lat="47.706452" lon="7.988848">
        <ele>728.525268</ele>
        <time>2024-10-16T16:58:38.584Z</time>
      </trkpt>
      <trkpt lat="47.705867" lon="7.988448">
        <ele>725.174152</ele>
        <time>2024-10-16T16:58:44.530Z</time>
      </trkpt>
      <trkpt lat="47.705301" lon="7.987996">
        <ele>722.073526</ele>
        <time>2024-10-16T16:58:50.502Z</time>
      </trkpt>
      <trkpt lat="47.704661" lon="7.987555">
        <ele>720.688258</ele>
        <time>2024-10-16T16:58:57.840Z</time>
      </trkpt>
      <trkpt lat="47.704067" lon="7.986802">
        <ele>719.155088</ele>
        <time>2024-10-16T16:59:08.273Z</time>
      </trkpt>
      <trkpt lat="47.703614" lon="7.986389">
        <ele>717.697444</ele>
        <time>2024-10-16T16:59:15.175Z</time>
      </trkpt>
      <trkpt lat="47.703172" lon="7.986080">
        <ele>716.050614</ele>
        <time>2024-10-16T16:59:20.536Z</time>
      </trkpt>
      <trkpt lat="47.702993" lon="7.985977">
        <ele>715.403469</ele>
        <time>2024-10-16T16:59:22.509Z</time>
      </trkpt>
      <trkpt lat="47.702684" lon="7.985926">
        <ele>714.355306</ele>
        <time>2024-10-16T16:59:25.524Z</time>
      </trkpt>
      <trkpt lat="47.701262" lon="7.985781">
        <ele>708.207454</ele>
        <time>2024-10-16T16:59:38.600Z</time>
      </trkpt>
      <trkpt lat="47.700738" lon="7.985748">
        <ele>705.667357</ele>
        <time>2024-10-16T16:59:43.434Z</time>
      </trkpt>
      <trkpt lat="47.700314" lon="7.985666">
        <ele>703.944251</ele>
        <time>2024-10-16T16:59:47.795Z</time>
      </trkpt>
      <trkpt lat="47.700186" lon="7.985564">
        <ele>704.011343</ele>
        <time>2024-10-16T16:59:49.429Z</time>
      </trkpt>
      <trkpt lat="47.700134" lon="7.985477">
        <ele>704.047516</ele>
        <time>2024-10-16T16:59:50.764Z</time>
      </trkpt>
      <trkpt lat="47.699968" lon="7.985078">
        <ele>704.193342</ele>
        <time>2024-10-16T16:59:56.466Z</time>
      </trkpt>
      <trkpt lat="47.699535" lon="7.983801">
        <ele>704.637871</ele>
        <time>2024-10-16T17:00:19.129Z</time>
      </trkpt>
      <trkpt lat="47.699338" lon="7.983423">
        <ele>704.521486</ele>
        <time>2024-10-16T17:00:25.081Z</time>
      </trkpt>
      <trkpt lat="47.699198" lon="7.983233">
        <ele>704.052414</ele>
        <time>2024-10-16T17:00:27.584Z</time>
      </trkpt>
      <trkpt lat="47.699025" lon="7.983103">
        <ele>703.572812</ele>
        <time>2024-10-16T17:00:30.297Z</time>
      </trkpt>
      <trkpt lat="47.698380" lon="7.982892">
        <ele>701.938941</ele>
        <time>2024-10-16T17:00:37.511Z</time>
      </trkpt>
      <trkpt lat="47.697753" lon="7.982407">
        <ele>700.087234</ele>
        <time>2024-10-16T17:00:44.250Z</time>
      </trkpt>
      <trkpt lat="47.697288" lon="7.981923">
        <ele>697.304941</ele>
        <time>2024-10-16T17:00:49.394Z</time>
      </trkpt>
      <trkpt lat="47.697119" lon="7.981549">
        <ele>695.819142</ele>
        <time>2024-10-16T17:00:52.192Z</time>
      </trkpt>
      <trkpt lat="47.697090" lon="7.981416">
        <ele>695.358019</ele>
        <time>2024-10-16T17:00:53.065Z</time>
      </trkpt>
      <trkpt lat="47.697080" lon="7.980195">
        <ele>691.424520</ele>
        <time>2024-10-16T17:01:01.050Z</time>
      </trkpt>
      <trkpt lat="47.696994" lon="7.979705">
        <ele>690.799138</ele>
        <time>2024-10-16T17:01:04.507Z</time>
      </trkpt>
      <trkpt lat="47.696873" lon="7.979455">
        <ele>690.418848</ele>
        <time>2024-10-16T17:01:06.686Z</time>
      </trkpt>
      <trkpt lat="47.696819" lon="7.979341">
        <ele>690.246687</ele>
        <time>2024-10-16T17:01:07.669Z</time>
      </trkpt>
      <trkpt lat="47.696726" lon="7.979166">
        <ele>689.971314</ele>
        <time>2024-10-16T17:01:09.313Z</time>
      </trkpt>
      <trkpt lat="47.696673" lon="7.979059">
        <ele>689.807241</ele>
        <time>2024-10-16T17:01:10.328Z</time>
      </trkpt>
      <trkpt lat="47.696246" lon="7.978205">
        <ele>688.493367</ele>
        <time>2024-10-16T17:01:19.217Z</time>
      </trkpt>
      <trkpt lat="47.696003" lon="7.977710">
        <ele>688.008733</ele>
        <time>2024-10-16T17:01:24.932Z</time>
      </trkpt>
      <trkpt lat="47.695740" lon="7.977103">
        <ele>687.663720</ele>
        <time>2024-10-16T17:01:31.457Z</time>
      </trkpt>
      <trkpt lat="47.695701" lon="7.977005">
        <ele>687.609309</ele>
        <time>2024-10-16T17:01:32.533Z</time>
      </trkpt>
      <trkpt lat="47.695600" lon="7.976719">
        <ele>687.454950</ele>
        <time>2024-10-16T17:01:35.444Z</time>
      </trkpt>
      <trkpt lat="47.694953" lon="7.974863">
        <ele>685.920345</ele>
        <time>2024-10-16T17:01:52.575Z</time>
      </trkpt>
      <trkpt lat="47.694555" lon="7.973622">
        <ele>684.476539</ele>
        <time>2024-10-16T17:02:02.740Z</time>
      </trkpt>
      <trkpt lat="47.694490" lon="7.973151">
        <ele>684.010678</ele>
        <time>2024-10-16T17:02:06.470Z</time>
      </trkpt>
      <trkpt lat="47.694476" lon="7.972883">
        <ele>683.816647</ele>
        <time>2024-10-16T17:02:08.647Z</time>
      </trkpt>
      <trkpt lat="47.694470" lon="7.972512">
        <ele>683.548772</ele>
        <time>2024-10-16T17:02:11.419Z</time>
      </trkpt>
      <trkpt lat="47.694432" lon="7.972063">
        <ele>683.222119</ele>
        <time>2024-10-16T17:02:14.844Z</time>
      </trkpt>
      <trkpt lat="47.694340" lon="7.971701">
        <ele>682.942811</ele>
        <time>2024-10-16T17:02:17.933Z</time>
      </trkpt>
      <trkpt lat="47.694203" lon="7.971336">
        <ele>682.641147</ele>
        <time>2024-10-16T17:02:21.344Z</time>
      </trkpt>
      <trkpt lat="47.694040" lon="7.971013">
        <ele>682.349742</ele>
        <time>2024-10-16T17:02:24.993Z</time>
      </trkpt>
      <trkpt lat="47.693970" lon="7.970930">
        <ele>682.253696</ele>
        <time>2024-10-16T17:02:26.545Z</time>
      </trkpt>
      <trkpt lat="47.693868" lon="7.970838">
        <ele>682.171782</ele>
        <time>2024-10-16T17:02:28.626Z</time>
      </trkpt>
      <trkpt lat="47.693613" lon="7.970749">
        <ele>682.198765</ele>
        <time>2024-10-16T17:02:32.347Z</time>
      </trkpt>
      <trkpt lat="47.693470" lon="7.970657">
        <ele>682.214817</ele>
        <time>2024-10-16T17:02:34.461Z</time>
      </trkpt>
      <trkpt lat="47.692792" lon="7.969849">
        <ele>682.304350</ele>
        <time>2024-10-16T17:02:50.008Z</time>
      </trkpt>
      <trkpt lat="47.692708" lon="7.969591">
        <ele>682.324221</ele>
        <time>2024-10-16T17:02:52.438Z</time>
      </trkpt>
      <trkpt lat="47.692669" lon="7.969117">
        <ele>682.341967</ele>
        <time>2024-10-16T17:02:56.420Z</time>
      </trkpt>
      <trkpt lat="47.692583" lon="7.968865">
        <ele>682.291706</ele>
        <time>2024-10-16T17:02:59.253Z</time>
      </trkpt>
      <trkpt lat="47.692486" lon="7.968697">
        <ele>682.252331</ele>
        <time>2024-10-16T17:03:01.377Z</time>
      </trkpt>
      <trkpt lat="47.692298" lon="7.968499">
        <ele>682.191427</ele>
        <time>2024-10-16T17:03:04.712Z</time>
      </trkpt>
      <trkpt lat="47.692073" lon="7.968377">
        <ele>682.128125</ele>
        <time>2024-10-16T17:03:07.787Z</time>
      </trkpt>
      <trkpt lat="47.691940" lon="7.968367">
        <ele>682.092930</ele>
        <time>2024-10-16T17:03:10.017Z</time>
      </trkpt>
      <trkpt lat="47.691593" lon="7.968454">
        <ele>681.999926</ele>
        <time>2024-10-16T17:03:14.843Z</time>
      </trkpt>
      <trkpt lat="47.691407" lon="7.968433">
        <ele>681.950627</ele>
        <time>2024-10-16T17:03:17.309Z</time>
      </trkpt>
      <trkpt lat="47.691266" lon="7.968374">
        <ele>681.911913</ele>
        <time>2024-10-16T17:03:19.914Z</time>
      </trkpt>
      <trkpt lat="47.691140" lon="7.968260">
        <ele>681.861886</ele>
        <time>2024-10-16T17:03:22.540Z</time>
      </trkpt>
      <trkpt lat="47.690927" lon="7.967947">
        <ele>681.598415</ele>
        <time>2024-10-16T17:03:27.107Z</time>
      </trkpt>
      <trkpt lat="47.690757" lon="7.967781">
        <ele>681.419511</ele>
        <time>2024-10-16T17:03:29.342Z</time>
      </trkpt>
      <trkpt lat="47.690222" lon="7.967595">
        <ele>680.936311</ele>
        <time>2024-10-16T17:03:35.428Z</time>
      </trkpt>
      <trkpt lat="47.689847" lon="7.967646">
        <ele>680.605152</ele>
        <time>2024-10-16T17:03:40.322Z</time>
      </trkpt>
      <trkpt lat="47.689679" lon="7.967572">
        <ele>680.451052</ele>
        <time>2024-10-16T17:03:42.502Z</time>
      </trkpt>
      <trkpt lat="47.689579" lon="7.967340">
        <ele>680.290660</ele>
        <time>2024-10-16T17:03:44.951Z</time>
      </trkpt>
      <trkpt lat="47.689511" lon="7.966901">
        <ele>680.114320</ele>
        <time>2024-10-16T17:03:49.074Z</time>
      </trkpt>
      <trkpt lat="47.689444" lon="7.966643">
        <ele>680.006069</ele>
        <time>2024-10-16T17:03:51.600Z</time>
      </trkpt>
      <trkpt lat="47.689020" lon="7.965804">
        <ele>679.595381</ele>
        <time>2024-10-16T17:04:01.632Z</time>
      </trkpt>
      <trkpt lat="47.688944" lon="7.965746">
        <ele>679.545694</ele>
        <time>2024-10-16T17:04:02.777Z</time>
      </trkpt>
      <trkpt lat="47.688547" lon="7.965588">
        <ele>679.306685</ele>
        <time>2024-10-16T17:04:07.833Z</time>
      </trkpt>
      <trkpt lat="47.687853" lon="7.965356">
        <ele>678.065777</ele>
        <time>2024-10-16T17:04:16.157Z</time>
      </trkpt>
      <trkpt lat="47.687735" lon="7.965229">
        <ele>677.784649</ele>
        <time>2024-10-16T17:04:17.855Z</time>
      </trkpt>
      <trkpt lat="47.687692" lon="7.965106">
        <ele>677.604647</ele>
        <time>2024-10-16T17:04:18.949Z</time>
      </trkpt>
      <trkpt lat="47.687685" lon="7.964928">
        <ele>677.373077</ele>
        <time>2024-10-16T17:04:20.351Z</time>
      </trkpt>
      <trkpt lat="47.687755" lon="7.963954">
        <ele>676.100913</ele>
        <time>2024-10-16T17:04:27.620Z</time>
      </trkpt>
      <trkpt lat="47.687714" lon="7.963694">
        <ele>675.710334</ele>
        <time>2024-10-16T17:04:29.456Z</time>
      </trkpt>
      <trkpt lat="47.687668" lon="7.963533">
        <ele>675.096982</ele>
        <time>2024-10-16T17:04:30.630Z</time>
      </trkpt>
      <trkpt lat="47.687588" lon="7.963379">
        <ele>674.414819</ele>
        <time>2024-10-16T17:04:31.908Z</time>
      </trkpt>
      <trkpt lat="47.687384" lon="7.963233">
        <ele>673.235185</ele>
        <time>2024-10-16T17:04:34.056Z</time>
      </trkpt>
      <trkpt lat="47.686872" lon="7.963038">
        <ele>670.481679</ele>
        <time>2024-10-16T17:04:38.961Z</time>
      </trkpt>
      <trkpt lat="47.686423" lon="7.962749">
        <ele>667.932502</ele>
        <time>2024-10-16T17:04:43.418Z</time>
      </trkpt>
      <trkpt lat="47.686211" lon="7.962737">
        <ele>666.827298</ele>
        <time>2024-10-16T17:04:45.364Z</time>
      </trkpt>
      <trkpt lat="47.686058" lon="7.962663">
        <ele>665.948787</ele>
        <time>2024-10-16T17:04:46.853Z</time>
      </trkpt>
      <trkpt lat="47.685457" lon="7.961658">
        <ele>660.783248</ele>
        <time>2024-10-16T17:04:55.124Z</time>
      </trkpt>
      <trkpt lat="47.685405" lon="7.961526">
        <ele>660.195550</ele>
        <time>2024-10-16T17:04:56.072Z</time>
      </trkpt>
      <trkpt lat="47.685390" lon="7.961394">
        <ele>659.681140</ele>
        <time>2024-10-16T17:04:56.902Z</time>
      </trkpt>
      <trkpt lat="47.685403" lon="7.960896">
        <ele>657.766044</ele>
        <time>2024-10-16T17:04:59.985Z</time>
      </trkpt>
      <trkpt lat="47.685443" lon="7.960713">
        <ele>657.026694</ele>
        <time>2024-10-16T17:05:01.184Z</time>
      </trkpt>
      <trkpt lat="47.685564" lon="7.960446">
        <ele>655.964808</ele>
        <time>2024-10-16T17:05:03.226Z</time>
      </trkpt>
      <trkpt lat="47.686157" lon="7.959573">
        <ele>653.559294</ele>
        <time>2024-10-16T17:05:11.546Z</time>
      </trkpt>
      <trkpt lat="47.686244" lon="7.959406">
        <ele>653.149713</ele>
        <time>2024-10-16T17:05:13.103Z</time>
      </trkpt>
      <trkpt lat="47.686313" lon="7.959134">
        <ele>652.585922</ele>
        <time>2024-10-16T17:05:15.142Z</time>
      </trkpt>
      <trkpt lat="47.686320" lon="7.958950">
        <ele>652.228462</ele>
        <time>2024-10-16T17:05:16.530Z</time>
      </trkpt>
      <trkpt lat="47.686267" lon="7.958674">
        <ele>651.671774</ele>
        <time>2024-10-16T17:05:18.664Z</time>
      </trkpt>
      <trkpt lat="47.686075" lon="7.958365">
        <ele>650.989997</ele>
        <time>2024-10-16T17:05:21.956Z</time>
      </trkpt>
      <trkpt lat="47.685650" lon="7.957856">
        <ele>651.429249</ele>
        <time>2024-10-16T17:05:29.130Z</time>
      </trkpt>
      <trkpt lat="47.685384" lon="7.957524">
        <ele>651.708793</ele>
        <time>2024-10-16T17:05:35.188Z</time>
      </trkpt>
      <trkpt lat="47.684972" lon="7.956698">
        <ele>652.265626</ele>
        <time>2024-10-16T17:05:51.402Z</time>
      </trkpt>
      <trkpt lat="47.684892" lon="7.956595">
        <ele>652.350807</ele>
        <time>2024-10-16T17:05:54.069Z</time>
      </trkpt>
      <trkpt lat="47.684063" lon="7.955823">
        <ele>653.149977</ele>
        <time>2024-10-16T17:06:16.154Z</time>
      </trkpt>
      <trkpt lat="47.683646" lon="7.955496">
        <ele>653.535571</ele>
        <time>2024-10-16T17:06:24.569Z</time>
      </trkpt>
      <trkpt lat="47.683202" lon="7.955269">
        <ele>653.765641</ele>
        <time>2024-10-16T17:06:30.433Z</time>
      </trkpt>
      <trkpt lat="47.683110" lon="7.955185">
        <ele>653.520674</ele>
        <time>2024-10-16T17:06:31.656Z</time>
      </trkpt>
      <trkpt lat="47.683031" lon="7.955033">
        <ele>653.227422</ele>
        <time>2024-10-16T17:06:33.078Z</time>
      </trkpt>
      <trkpt lat="47.682988" lon="7.954705">
        <ele>652.717106</ele>
        <time>2024-10-16T17:06:35.508Z</time>
      </trkpt>
      <trkpt lat="47.682987" lon="7.954268">
        <ele>652.049734</ele>
        <time>2024-10-16T17:06:38.572Z</time>
      </trkpt>
      <trkpt lat="47.683075" lon="7.953410">
        <ele>650.724316</ele>
        <time>2024-10-16T17:06:44.684Z</time>
      </trkpt>
      <trkpt lat="47.683101" lon="7.952864">
        <ele>649.888406</ele>
        <time>2024-10-16T17:06:48.587Z</time>
      </trkpt>
      <trkpt lat="47.683000" lon="7.952127">
        <ele>647.525394</ele>
        <time>2024-10-16T17:06:53.851Z</time>
      </trkpt>
      <trkpt lat="47.682901" lon="7.951614">
        <ele>645.775752</ele>
        <time>2024-10-16T17:06:57.403Z</time>
      </trkpt>
      <trkpt lat="47.682819" lon="7.951452">
        <ele>645.111249</ele>
        <time>2024-10-16T17:06:58.742Z</time>
      </trkpt>
      <trkpt lat="47.682452" lon="7.950942">
        <ele>642.663777</ele>
        <time>2024-10-16T17:07:03.437Z</time>
      </trkpt>
      <trkpt lat="47.682090" lon="7.950374">
        <ele>639.203317</ele>
        <time>2024-10-16T17:07:08.129Z</time>
      </trkpt>
      <trkpt lat="47.681640" lon="7.950075">
        <ele>634.514134</ele>
        <time>2024-10-16T17:07:12.383Z</time>
      </trkpt>
      <trkpt lat="47.681269" lon="7.949958">
        <ele>630.906495</ele>
        <time>2024-10-16T17:07:15.628Z</time>
      </trkpt>
      <trkpt lat="47.681132" lon="7.949955">
        <ele>629.603202</ele>
        <time>2024-10-16T17:07:16.796Z</time>
      </trkpt>
      <trkpt lat="47.680881" lon="7.950007">
        <ele>627.192563</ele>
        <time>2024-10-16T17:07:18.966Z</time>
      </trkpt>
      <trkpt lat="47.680401" lon="7.950234">
        <ele>622.719316</ele>
        <time>2024-10-16T17:07:23.304Z</time>
      </trkpt>
      <trkpt lat="47.680312" lon="7.950230">
        <ele>622.048627</ele>
        <time>2024-10-16T17:07:24.075Z</time>
      </trkpt>
      <trkpt lat="47.679844" lon="7.949975">
        <ele>618.293756</ele>
        <time>2024-10-16T17:07:28.463Z</time>
      </trkpt>
      <trkpt lat="47.679335" lon="7.950032">
        <ele>614.448890</ele>
        <time>2024-10-16T17:07:33.029Z</time>
      </trkpt>
      <trkpt lat="47.679213" lon="7.949974">
        <ele>613.484012</ele>
        <time>2024-10-16T17:07:34.207Z</time>
      </trkpt>
      <trkpt lat="47.679106" lon="7.949881">
        <ele>612.550189</ele>
        <time>2024-10-16T17:07:35.346Z</time>
      </trkpt>
      <trkpt lat="47.678933" lon="7.949621">
        <ele>610.696353</ele>
        <time>2024-10-16T17:07:37.637Z</time>
      </trkpt>
      <trkpt lat="47.678870" lon="7.949371">
        <ele>609.130832</ele>
        <time>2024-10-16T17:07:39.333Z</time>
      </trkpt>
      <trkpt lat="47.678868" lon="7.949157">
        <ele>607.824446</ele>
        <time>2024-10-16T17:07:40.702Z</time>
      </trkpt>
      <trkpt lat="47.678884" lon="7.949034">
        <ele>607.059767</ele>
        <time>2024-10-16T17:07:41.487Z</time>
      </trkpt>
      <trkpt lat="47.679111" lon="7.948309">
        <ele>602.179243</ele>
        <time>2024-10-16T17:07:46.312Z</time>
      </trkpt>
      <trkpt lat="47.679160" lon="7.948064">
        <ele>600.619180</ele>
        <time>2024-10-16T17:07:47.820Z</time>
      </trkpt>
      <trkpt lat="47.679193" lon="7.947707">
        <ele>598.419616</ele>
        <time>2024-10-16T17:07:49.887Z</time>
      </trkpt>
      <trkpt lat="47.679161" lon="7.947270">
        <ele>595.736445</ele>
        <time>2024-10-16T17:07:52.376Z</time>
      </trkpt>
      <trkpt lat="47.679092" lon="7.947025">
        <ele>594.115404</ele>
        <time>2024-10-16T17:07:53.874Z</time>
      </trkpt>
      <trkpt lat="47.679040" lon="7.946924">
        <ele>593.152604</ele>
        <time>2024-10-16T17:07:54.590Z</time>
      </trkpt>
      <trkpt lat="47.678532" lon="7.946285">
        <ele>585.588016</ele>
        <time>2024-10-16T17:08:00.172Z</time>
      </trkpt>
      <trkpt lat="47.678404" lon="7.946084">
        <ele>583.471313</ele>
        <time>2024-10-16T17:08:01.749Z</time>
      </trkpt>
      <trkpt lat="47.678272" lon="7.945811">
        <ele>580.899851</ele>
        <time>2024-10-16T17:08:03.676Z</time>
      </trkpt>
      <trkpt lat="47.678059" lon="7.945260">
        <ele>576.038819</ele>
        <time>2024-10-16T17:08:07.336Z</time>
      </trkpt>
      <trkpt lat="47.677979" lon="7.945039">
        <ele>574.119096</ele>
        <time>2024-10-16T17:08:08.806Z</time>
      </trkpt>
      <trkpt lat="47.677787" lon="7.944717">
        <ele>572.217961</ele>
        <time>2024-10-16T17:08:11.344Z</time>
      </trkpt>
      <trkpt lat="47.677580" lon="7.944493">
        <ele>570.747262</ele>
        <time>2024-10-16T17:08:13.626Z</time>
      </trkpt>
      <trkpt lat="47.677405" lon="7.944339">
        <ele>569.579208</ele>
        <time>2024-10-16T17:08:15.508Z</time>
      </trkpt>
      <trkpt lat="47.677135" lon="7.944147">
        <ele>567.860231</ele>
        <time>2024-10-16T17:08:18.324Z</time>
      </trkpt>
      <trkpt lat="47.676520" lon="7.944024">
        <ele>564.296832</ele>
        <time>2024-10-16T17:08:24.417Z</time>
      </trkpt>
      <trkpt lat="47.676327" lon="7.943916">
        <ele>563.156075</ele>
        <time>2024-10-16T17:08:26.488Z</time>
      </trkpt>
      <trkpt lat="47.676169" lon="7.943767">
        <ele>562.319345</ele>
        <time>2024-10-16T17:08:28.348Z</time>
      </trkpt>
      <trkpt lat="47.675892" lon="7.943373">
        <ele>560.604645</ele>
        <time>2024-10-16T17:08:32.032Z</time>
      </trkpt>
      <trkpt lat="47.675658" lon="7.942964">
        <ele>558.989038</ele>
        <time>2024-10-16T17:08:35.409Z</time>
      </trkpt>
      <trkpt lat="47.675309" lon="7.942155">
        <ele>556.096815</ele>
        <time>2024-10-16T17:08:41.485Z</time>
      </trkpt>
      <trkpt lat="47.675080" lon="7.941709">
        <ele>554.758312</ele>
        <time>2024-10-16T17:08:45.179Z</time>
      </trkpt>
      <trkpt lat="47.675019" lon="7.941469">
        <ele>554.300372</ele>
        <time>2024-10-16T17:08:46.922Z</time>
      </trkpt>
      <trkpt lat="47.674964" lon="7.941099">
        <ele>553.623966</ele>
        <time>2024-10-16T17:08:49.572Z</time>
      </trkpt>
      <trkpt lat="47.674806" lon="7.940908">
        <ele>553.083853</ele>
        <time>2024-10-16T17:08:51.753Z</time>
      </trkpt>
      <trkpt lat="47.674329" lon="7.940584">
        <ele>551.693244</ele>
        <time>2024-10-16T17:08:57.624Z</time>
      </trkpt>
      <trkpt lat="47.674075" lon="7.940165">
        <ele>550.686789</ele>
        <time>2024-10-16T17:09:01.927Z</time>
      </trkpt>
      <trkpt lat="47.673983" lon="7.939840">
        <ele>549.702486</ele>
        <time>2024-10-16T17:09:04.532Z</time>
      </trkpt>
      <trkpt lat="47.673901" lon="7.939457">
        <ele>548.409103</ele>
        <time>2024-10-16T17:09:07.342Z</time>
      </trkpt>
      <trkpt lat="47.673811" lon="7.939034">
        <ele>546.981452</ele>
        <time>2024-10-16T17:09:10.257Z</time>
      </trkpt>
      <trkpt lat="47.673607" lon="7.938439">
        <ele>544.832669</ele>
        <time>2024-10-16T17:09:14.424Z</time>
      </trkpt>
      <trkpt lat="47.673505" lon="7.937919">
        <ele>543.089623</ele>
        <time>2024-10-16T17:09:17.717Z</time>
      </trkpt>
      <trkpt lat="47.673293" lon="7.937183">
        <ele>540.522206</ele>
        <time>2024-10-16T17:09:22.603Z</time>
      </trkpt>
      <trkpt lat="47.673283" lon="7.936676">
        <ele>538.900226</ele>
        <time>2024-10-16T17:09:25.734Z</time>
      </trkpt>
      <trkpt lat="47.673226" lon="7.936447">
        <ele>538.119499</ele>
        <time>2024-10-16T17:09:27.271Z</time>
      </trkpt>
      <trkpt lat="47.673156" lon="7.936277">
        <ele>537.482285</ele>
        <time>2024-10-16T17:09:28.503Z</time>
      </trkpt>
      <trkpt lat="47.672959" lon="7.936014">
        <ele>536.224272</ele>
        <time>2024-10-16T17:09:31.007Z</time>
      </trkpt>
      <trkpt lat="47.672763" lon="7.935838">
        <ele>535.136534</ele>
        <time>2024-10-16T17:09:33.184Z</time>
      </trkpt>
      <trkpt lat="47.672322" lon="7.935662">
        <ele>533.340497</ele>
        <time>2024-10-16T17:09:37.886Z</time>
      </trkpt>
      <trkpt lat="47.671327" lon="7.935416">
        <ele>533.087457</ele>
        <time>2024-10-16T17:09:51.804Z</time>
      </trkpt>
      <trkpt lat="47.671190" lon="7.935464">
        <ele>533.052146</ele>
        <time>2024-10-16T17:09:54.512Z</time>
      </trkpt>
      <trkpt lat="47.671061" lon="7.935555">
        <ele>533.016319</ele>
        <time>2024-10-16T17:09:57.164Z</time>
      </trkpt>
      <trkpt lat="47.670415" lon="7.936157">
        <ele>533.611788</ele>
        <time>2024-10-16T17:10:11.137Z</time>
      </trkpt>
      <trkpt lat="47.670158" lon="7.936342">
        <ele>534.202766</ele>
        <time>2024-10-16T17:10:17.079Z</time>
      </trkpt>
      <trkpt lat="47.670025" lon="7.936399">
        <ele>534.489205</ele>
        <time>2024-10-16T17:10:20.166Z</time>
      </trkpt>
      <trkpt lat="47.669799" lon="7.936367">
        <ele>534.958973</ele>
        <time>2024-10-16T17:10:25.658Z</time>
      </trkpt>
      <trkpt lat="47.669430" lon="7.936199">
        <ele>535.757599</ele>
        <time>2024-10-16T17:10:36.636Z</time>
      </trkpt>
      <trkpt lat="47.668947" lon="7.935809">
        <ele>536.387816</ele>
        <time>2024-10-16T17:10:52.457Z</time>
      </trkpt>
      <trkpt lat="47.668592" lon="7.935334">
        <ele>535.471440</ele>
        <time>2024-10-16T17:11:00.817Z</time>
      </trkpt>
      <trkpt lat="47.668387" lon="7.934959">
        <ele>534.847681</ele>
        <time>2024-10-16T17:11:04.305Z</time>
      </trkpt>
      <trkpt lat="47.668346" lon="7.934839">
        <ele>534.673906</ele>
        <time>2024-10-16T17:11:05.252Z</time>
      </trkpt>
      <trkpt lat="47.668325" lon="7.934682">
        <ele>534.467193</ele>
        <time>2024-10-16T17:11:06.351Z</time>
      </trkpt>
      <trkpt lat="47.668382" lon="7.934193">
        <ele>533.826301</ele>
        <time>2024-10-16T17:11:09.628Z</time>
      </trkpt>
      <trkpt lat="47.668442" lon="7.933935">
        <ele>533.473808</ele>
        <time>2024-10-16T17:11:11.369Z</time>
      </trkpt>
      <trkpt lat="47.668566" lon="7.933718">
        <ele>532.750988</ele>
        <time>2024-10-16T17:11:13.298Z</time>
      </trkpt>
      <trkpt lat="47.668982" lon="7.933221">
        <ele>526.962813</ele>
        <time>2024-10-16T17:11:18.106Z</time>
      </trkpt>
      <trkpt lat="47.669188" lon="7.932920">
        <ele>523.829779</ele>
        <time>2024-10-16T17:11:20.583Z</time>
      </trkpt>
      <trkpt lat="47.669212" lon="7.932726">
        <ele>522.389810</ele>
        <time>2024-10-16T17:11:21.702Z</time>
      </trkpt>
      <trkpt lat="47.669113" lon="7.931963">
        <ele>516.717180</ele>
        <time>2024-10-16T17:11:26.054Z</time>
      </trkpt>
      <trkpt lat="47.669127" lon="7.931800">
        <ele>515.517580</ele>
        <time>2024-10-16T17:11:26.969Z</time>
      </trkpt>
      <trkpt lat="47.669164" lon="7.931611">
        <ele>514.080689</ele>
        <time>2024-10-16T17:11:28.071Z</time>
      </trkpt>
      <trkpt lat="47.669272" lon="7.931348">
        <ele>511.820939</ele>
        <time>2024-10-16T17:11:29.799Z</time>
      </trkpt>
      <trkpt lat="47.669441" lon="7.931090">
        <ele>509.177854</ele>
        <time>2024-10-16T17:11:31.835Z</time>
      </trkpt>
      <trkpt lat="47.669518" lon="7.930907">
        <ele>507.593249</ele>
        <time>2024-10-16T17:11:33.056Z</time>
      </trkpt>
      <trkpt lat="47.669570" lon="7.930756">
        <ele>506.347814</ele>
        <time>2024-10-16T17:11:34.030Z</time>
      </trkpt>
      <trkpt lat="47.669589" lon="7.930602">
        <ele>505.198107</ele>
        <time>2024-10-16T17:11:34.920Z</time>
      </trkpt>
      <trkpt lat="47.669590" lon="7.930439">
        <ele>504.001083</ele>
        <time>2024-10-16T17:11:35.857Z</time>
      </trkpt>
      <trkpt lat="47.669269" lon="7.929666">
        <ele>497.332087</ele>
        <time>2024-10-16T17:11:41.100Z</time>
      </trkpt>
      <trkpt lat="47.669146" lon="7.929397">
        <ele>494.944358</ele>
        <time>2024-10-16T17:11:43.015Z</time>
      </trkpt>
      <trkpt lat="47.669031" lon="7.929242">
        <ele>493.947428</ele>
        <time>2024-10-16T17:11:44.394Z</time>
      </trkpt>
      <trkpt lat="47.668846" lon="7.929117">
        <ele>493.616336</ele>
        <time>2024-10-16T17:11:46.248Z</time>
      </trkpt>
      <trkpt lat="47.668532" lon="7.929025">
        <ele>493.094973</ele>
        <time>2024-10-16T17:11:49.312Z</time>
      </trkpt>
      <trkpt lat="47.668004" lon="7.929010">
        <ele>492.234711</ele>
        <time>2024-10-16T17:11:55.647Z</time>
      </trkpt>
      <trkpt lat="47.667399" lon="7.929113">
        <ele>491.242719</ele>
        <time>2024-10-16T17:12:11.075Z</time>
      </trkpt>
      <trkpt lat="47.667200" lon="7.929115">
        <ele>490.964651</ele>
        <time>2024-10-16T17:12:16.759Z</time>
      </trkpt>
      <trkpt lat="47.666919" lon="7.929027">
        <ele>490.594323</ele>
        <time>2024-10-16T17:12:24.865Z</time>
      </trkpt>
      <trkpt lat="47.666448" lon="7.928809">
        <ele>489.958134</ele>
        <time>2024-10-16T17:12:34.255Z</time>
      </trkpt>
      <trkpt lat="47.665953" lon="7.928730">
        <ele>489.316141</ele>
        <time>2024-10-16T17:12:39.200Z</time>
      </trkpt>
      <trkpt lat="47.665462" lon="7.928374">
        <ele>487.838780</ele>
        <time>2024-10-16T17:12:44.208Z</time>
      </trkpt>
      <trkpt lat="47.665315" lon="7.928163">
        <ele>486.599725</ele>
        <time>2024-10-16T17:12:46.123Z</time>
      </trkpt>
      <trkpt lat="47.665198" lon="7.927921">
        <ele>485.383871</ele>
        <time>2024-10-16T17:12:47.997Z</time>
      </trkpt>
      <trkpt lat="47.665082" lon="7.927477">
        <ele>483.440150</ele>
        <time>2024-10-16T17:12:51.012Z</time>
      </trkpt>
      <trkpt lat="47.665032" lon="7.927025">
        <ele>481.570638</ele>
        <time>2024-10-16T17:12:53.859Z</time>
      </trkpt>
      <trkpt lat="47.665009" lon="7.926535">
        <ele>479.565899</ele>
        <time>2024-10-16T17:12:56.850Z</time>
      </trkpt>
      <trkpt lat="47.664876" lon="7.926151">
        <ele>477.794186</ele>
        <time>2024-10-16T17:12:59.439Z</time>
      </trkpt>
      <trkpt lat="47.664453" lon="7.925255">
        <ele>472.970489</ele>
        <time>2024-10-16T17:13:05.952Z</time>
      </trkpt>
      <trkpt lat="47.664341" lon="7.924749">
        <ele>470.622469</ele>
        <time>2024-10-16T17:13:09.315Z</time>
      </trkpt>
      <trkpt lat="47.664271" lon="7.923990">
        <ele>467.245283</ele>
        <time>2024-10-16T17:13:14.143Z</time>
      </trkpt>
      <trkpt lat="47.664217" lon="7.923800">
        <ele>466.336162</ele>
        <time>2024-10-16T17:13:15.429Z</time>
      </trkpt>
      <trkpt lat="47.664119" lon="7.923631">
        <ele>465.555735</ele>
        <time>2024-10-16T17:13:16.787Z</time>
      </trkpt>
      <trkpt lat="47.663720" lon="7.923343">
        <ele>463.393501</ele>
        <time>2024-10-16T17:13:20.749Z</time>
      </trkpt>
      <trkpt lat="47.663384" lon="7.923222">
        <ele>461.708437</ele>
        <time>2024-10-16T17:13:23.844Z</time>
      </trkpt>
      <trkpt lat="47.663151" lon="7.923182">
        <ele>460.565282</ele>
        <time>2024-10-16T17:13:26.014Z</time>
      </trkpt>
      <trkpt lat="47.662612" lon="7.923017">
        <ele>457.883066</ele>
        <time>2024-10-16T17:13:31.596Z</time>
      </trkpt>
      <trkpt lat="47.662281" lon="7.923025">
        <ele>457.058165</ele>
        <time>2024-10-16T17:13:35.977Z</time>
      </trkpt>
      <trkpt lat="47.662115" lon="7.923074">
        <ele>456.818844</ele>
        <time>2024-10-16T17:13:38.277Z</time>
      </trkpt>
      <trkpt lat="47.661420" lon="7.923389">
        <ele>455.791336</ele>
        <time>2024-10-16T17:13:48.422Z</time>
      </trkpt>
      <trkpt lat="47.661134" lon="7.923485">
        <ele>455.376721</ele>
        <time>2024-10-16T17:13:51.992Z</time>
      </trkpt>
      <trkpt lat="47.660905" lon="7.923464">
        <ele>455.052294</ele>
        <time>2024-10-16T17:13:54.655Z</time>
      </trkpt>
      <trkpt lat="47.660834" lon="7.923427">
        <ele>454.945895</ele>
        <time>2024-10-16T17:13:55.398Z</time>
      </trkpt>
      <trkpt lat="47.660615" lon="7.923263">
        <ele>453.910277</ele>
        <time>2024-10-16T17:13:57.927Z</time>
      </trkpt>
      <trkpt lat="47.660292" lon="7.922894">
        <ele>451.666642</ele>
        <time>2024-10-16T17:14:01.823Z</time>
      </trkpt>
      <trkpt lat="47.659910" lon="7.922282">
        <ele>448.572783</ele>
        <time>2024-10-16T17:14:06.978Z</time>
      </trkpt>
      <trkpt lat="47.659428" lon="7.921608">
        <ele>444.928957</ele>
        <time>2024-10-16T17:14:12.900Z</time>
      </trkpt>
      <trkpt lat="47.659217" lon="7.921381">
        <ele>443.736989</ele>
        <time>2024-10-16T17:14:15.234Z</time>
      </trkpt>
      <trkpt lat="47.659029" lon="7.921261">
        <ele>442.800884</ele>
        <time>2024-10-16T17:14:17.121Z</time>
      </trkpt>
      <trkpt lat="47.658858" lon="7.921200">
        <ele>441.996392</ele>
        <time>2024-10-16T17:14:18.708Z</time>
      </trkpt>
      <trkpt lat="47.658657" lon="7.921195">
        <ele>441.076799</ele>
        <time>2024-10-16T17:14:20.621Z</time>
      </trkpt>
      <trkpt lat="47.658466" lon="7.921238">
        <ele>440.193092</ele>
        <time>2024-10-16T17:14:22.432Z</time>
      </trkpt>
      <trkpt lat="47.658112" lon="7.921407">
        <ele>438.492079</ele>
        <time>2024-10-16T17:14:26.162Z</time>
      </trkpt>
      <trkpt lat="47.657631" lon="7.921862">
        <ele>436.135089</ele>
        <time>2024-10-16T17:14:32.821Z</time>
      </trkpt>
      <trkpt lat="47.656362" lon="7.923194">
        <ele>431.198943</ele>
        <time>2024-10-16T17:14:48.577Z</time>
      </trkpt>
      <trkpt lat="47.655711" lon="7.923884">
        <ele>427.723262</ele>
        <time>2024-10-16T17:14:56.184Z</time>
      </trkpt>
      <trkpt lat="47.655151" lon="7.924422">
        <ele>424.756690</ele>
        <time>2024-10-16T17:15:02.466Z</time>
      </trkpt>
      <trkpt lat="47.654906" lon="7.924601">
        <ele>423.542261</ele>
        <time>2024-10-16T17:15:05.016Z</time>
      </trkpt>
      <trkpt lat="47.654608" lon="7.924757">
        <ele>422.760539</ele>
        <time>2024-10-16T17:15:08.086Z</time>
      </trkpt>
      <trkpt lat="47.653581" lon="7.925107">
        <ele>421.478739</ele>
        <time>2024-10-16T17:15:19.975Z</time>
      </trkpt>
      <trkpt lat="47.652608" lon="7.925390">
        <ele>421.900077</ele>
        <time>2024-10-16T17:15:39.825Z</time>
      </trkpt>
      <trkpt lat="47.652233" lon="7.925432">
        <ele>422.834929</ele>
        <time>2024-10-16T17:15:49.365Z</time>
      </trkpt>
      <trkpt lat="47.652047" lon="7.925420">
        <ele>423.297738</ele>
        <time>2024-10-16T17:15:55.460Z</time>
      </trkpt>
      <trkpt lat="47.651805" lon="7.925360">
        <ele>423.907652</ele>
        <time>2024-10-16T17:16:01.217Z</time>
      </trkpt>
      <trkpt lat="47.651739" lon="7.925340">
        <ele>424.075104</ele>
        <time>2024-10-16T17:16:04.242Z</time>
      </trkpt>
      <trkpt lat="47.651404" lon="7.925140">
        <ele>424.972695</ele>
        <time>2024-10-16T17:16:14.617Z</time>
      </trkpt>
      <trkpt lat="47.651037" lon="7.924774">
        <ele>425.030848</ele>
        <time>2024-10-16T17:16:26.238Z</time>
      </trkpt>
      <trkpt lat="47.650856" lon="7.924544">
        <ele>424.845897</ele>
        <time>2024-10-16T17:16:30.749Z</time>
      </trkpt>
      <trkpt lat="47.650236" lon="7.923592">
        <ele>424.153461</ele>
        <time>2024-10-16T17:16:41.247Z</time>
      </trkpt>
      <trkpt lat="47.650025" lon="7.923323">
        <ele>423.937555</ele>
        <time>2024-10-16T17:16:43.908Z</time>
      </trkpt>
      <trkpt lat="47.649579" lon="7.922943">
        <ele>423.174544</ele>
        <time>2024-10-16T17:16:48.805Z</time>
      </trkpt>
      <trkpt lat="47.649254" lon="7.922830">
        <ele>422.641356</ele>
        <time>2024-10-16T17:16:52.266Z</time>
      </trkpt>
      <trkpt lat="47.649069" lon="7.922831">
        <ele>422.345845</ele>
        <time>2024-10-16T17:16:54.304Z</time>
      </trkpt>
      <trkpt lat="47.648728" lon="7.922896">
        <ele>421.796677</ele>
        <time>2024-10-16T17:16:58.749Z</time>
      </trkpt>
      <trkpt lat="47.648365" lon="7.923062">
        <ele>421.189947</ele>
        <time>2024-10-16T17:17:04.938Z</time>
      </trkpt>
      <trkpt lat="47.648261" lon="7.923105">
        <ele>421.017499</ele>
        <time>2024-10-16T17:17:07.500Z</time>
      </trkpt>
      <trkpt lat="47.648027" lon="7.923200">
        <ele>421.250752</ele>
        <time>2024-10-16T17:17:12.183Z</time>
      </trkpt>
      <trkpt lat="47.647717" lon="7.923261">
        <ele>421.568786</ele>
        <time>2024-10-16T17:17:18.939Z</time>
      </trkpt>
      <trkpt lat="47.647504" lon="7.923241">
        <ele>421.785844</ele>
        <time>2024-10-16T17:17:23.573Z</time>
      </trkpt>
      <trkpt lat="47.647185" lon="7.923081">
        <ele>422.128294</ele>
        <time>2024-10-16T17:17:29.486Z</time>
      </trkpt>
      <trkpt lat="47.647046" lon="7.922963">
        <ele>422.291146</ele>
        <time>2024-10-16T17:17:32.019Z</time>
      </trkpt>
      <trkpt lat="47.646828" lon="7.922700">
        <ele>422.576850</ele>
        <time>2024-10-16T17:17:38.097Z</time>
      </trkpt>
      <trkpt lat="47.646634" lon="7.922408">
        <ele>422.815516</ele>
        <time>2024-10-16T17:17:43.818Z</time>
      </trkpt>
      <trkpt lat="47.646202" lon="7.921593">
        <ele>421.969172</ele>
        <time>2024-10-16T17:17:54.586Z</time>
      </trkpt>
      <trkpt lat="47.645987" lon="7.921187">
        <ele>421.547709</ele>
        <time>2024-10-16T17:17:58.630Z</time>
      </trkpt>
      <trkpt lat="47.645182" lon="7.919653">
        <ele>417.545752</ele>
        <time>2024-10-16T17:18:12.251Z</time>
      </trkpt>
      <trkpt lat="47.643279" lon="7.916085">
        <ele>398.497264</ele>
        <time>2024-10-16T17:18:39.939Z</time>
      </trkpt>
      <trkpt lat="47.643012" lon="7.915723">
        <ele>396.318578</ele>
        <time>2024-10-16T17:18:43.183Z</time>
      </trkpt>
      <trkpt lat="47.642870" lon="7.915570">
        <ele>395.261421</ele>
        <time>2024-10-16T17:18:44.777Z</time>
      </trkpt>
      <trkpt lat="47.642731" lon="7.915448">
        <ele>394.288526</ele>
        <time>2024-10-16T17:18:46.240Z</time>
      </trkpt>
      <trkpt lat="47.642326" lon="7.915266">
        <ele>391.739146</ele>
        <time>2024-10-16T17:18:50.123Z</time>
      </trkpt>
      <trkpt lat="47.640994" lon="7.915021">
        <ele>385.094652</ele>
        <time>2024-10-16T17:19:02.692Z</time>
      </trkpt>
      <trkpt lat="47.640371" lon="7.914816">
        <ele>382.544404</ele>
        <time>2024-10-16T17:19:08.989Z</time>
      </trkpt>
      <trkpt lat="47.639028" lon="7.914042">
        <ele>378.464996</ele>
        <time>2024-10-16T17:19:24.220Z</time>
      </trkpt>
      <trkpt lat="47.638182" lon="7.913951">
        <ele>376.490610</ele>
        <time>2024-10-16T17:19:33.794Z</time>
      </trkpt>
      <trkpt lat="47.637898" lon="7.913737">
        <ele>375.592751</ele>
        <time>2024-10-16T17:19:37.156Z</time>
      </trkpt>
      <trkpt lat="47.637710" lon="7.913454">
        <ele>374.837893</ele>
        <time>2024-10-16T17:19:39.931Z</time>
      </trkpt>
      <trkpt lat="47.637608" lon="7.913197">
        <ele>374.271349</ele>
        <time>2024-10-16T17:19:42.030Z</time>
      </trkpt>
      <trkpt lat="47.637499" lon="7.912845">
        <ele>373.535518</ele>
        <time>2024-10-16T17:19:44.702Z</time>
      </trkpt>
      <trkpt lat="47.637200" lon="7.912228">
        <ele>372.091938</ele>
        <time>2024-10-16T17:19:49.878Z</time>
      </trkpt>
      <trkpt lat="47.636948" lon="7.911886">
        <ele>371.172425</ele>
        <time>2024-10-16T17:19:53.298Z</time>
      </trkpt>
      <trkpt lat="47.636435" lon="7.911560">
        <ele>369.766527</ele>
        <time>2024-10-16T17:19:58.983Z</time>
      </trkpt>
      <trkpt lat="47.635550" lon="7.911051">
        <ele>367.375371</ele>
        <time>2024-10-16T17:20:09.226Z</time>
      </trkpt>
      <trkpt lat="47.635189" lon="7.910745">
        <ele>366.406475</ele>
        <time>2024-10-16T17:20:13.943Z</time>
      </trkpt>
      <trkpt lat="47.635022" lon="7.910544">
        <ele>365.927700</ele>
        <time>2024-10-16T17:20:16.347Z</time>
      </trkpt>
      <trkpt lat="47.634747" lon="7.910263">
        <ele>365.184256</ele>
        <time>2024-10-16T17:20:20.016Z</time>
      </trkpt>
      <trkpt lat="47.634573" lon="7.910034">
        <ele>364.666407</ele>
        <time>2024-10-16T17:20:22.541Z</time>
      </trkpt>
      <trkpt lat="47.634422" lon="7.909702">
        <ele>364.065411</ele>
        <time>2024-10-16T17:20:25.458Z</time>
      </trkpt>
      <trkpt lat="47.634288" lon="7.909241">
        <ele>363.312098</ele>
        <time>2024-10-16T17:20:29.047Z</time>
      </trkpt>
      <trkpt lat="47.634255" lon="7.909080">
        <ele>363.059598</ele>
        <time>2024-10-16T17:20:30.217Z</time>
      </trkpt>
      <trkpt lat="47.634149" lon="7.908871">
        <ele>362.627641</ele>
        <time>2024-10-16T17:20:32.046Z</time>
      </trkpt>
      <trkpt lat="47.633704" lon="7.908224">
        <ele>361.075309</ele>
        <time>2024-10-16T17:20:38.403Z</time>
      </trkpt>
      <trkpt lat="47.633350" lon="7.907844">
        <ele>359.986642</ele>
        <time>2024-10-16T17:20:43.014Z</time>
      </trkpt>
      <trkpt lat="47.632986" lon="7.907145">
        <ele>358.511367</ele>
        <time>2024-10-16T17:20:49.501Z</time>
      </trkpt>
      <trkpt lat="47.632832" lon="7.906880">
        <ele>358.274424</ele>
        <time>2024-10-16T17:20:52.084Z</time>
      </trkpt>
      <trkpt lat="47.632805" lon="7.906820">
        <ele>358.225571</ele>
        <time>2024-10-16T17:20:52.659Z</time>
      </trkpt>
      <trkpt lat="47.632729" lon="7.906470">
        <ele>357.976579</ele>
        <time>2024-10-16T17:20:55.375Z</time>
      </trkpt>
      <trkpt lat="47.632707" lon="7.905770">
        <ele>357.502080</ele>
        <time>2024-10-16T17:21:00.910Z</time>
      </trkpt>
      <trkpt lat="47.632765" lon="7.905762">
        <ele>357.443550</ele>
        <time>2024-10-16T17:21:01.606Z</time>
      </trkpt>
      <trkpt lat="47.632820" lon="7.905666">
        <ele>357.358229</ele>
        <time>2024-10-16T17:21:02.594Z</time>
      </trkpt>
      <trkpt lat="47.632815" lon="7.905570">
        <ele>357.293032</ele>
        <time>2024-10-16T17:21:03.358Z</time>
      </trkpt>
      <trkpt lat="47.632769" lon="7.905501">
        <ele>357.227311</ele>
        <time>2024-10-16T17:21:04.194Z</time>
      </trkpt>
      <trkpt lat="47.632677" lon="7.905508">
        <ele>357.134747</ele>
        <time>2024-10-16T17:21:05.700Z</time>
      </trkpt>
      <trkpt lat="47.632637" lon="7.905581">
        <ele>357.071039</ele>
        <time>2024-10-16T17:21:06.622Z</time>
      </trkpt>
      <trkpt lat="47.632152" lon="7.905421">
        <ele>356.735257</ele>
        <time>2024-10-16T17:21:14.942Z</time>
      </trkpt>
      <trkpt lat="47.631414" lon="7.905026">
        <ele>356.882623</ele>
        <time>2024-10-16T17:21:27.809Z</time>
      </trkpt>
      <trkpt lat="47.630831" lon="7.904762">
        <ele>356.997118</ele>
        <time>2024-10-16T17:21:36.848Z</time>
      </trkpt>
      <trkpt lat="47.630445" lon="7.904627">
        <ele>356.974167</ele>
        <time>2024-10-16T17:21:42.935Z</time>
      </trkpt>
      <trkpt lat="47.629932" lon="7.904572">
        <ele>356.682441</ele>
        <time>2024-10-16T17:21:50.605Z</time>
      </trkpt>
      <trkpt lat="47.629368" lon="7.904502">
        <ele>356.361429</ele>
        <time>2024-10-16T17:21:58.442Z</time>
      </trkpt>
      <trkpt lat="47.628650" lon="7.904559">
        <ele>355.859732</ele>
        <time>2024-10-16T17:22:06.823Z</time>
      </trkpt>
      <trkpt lat="47.627753" lon="7.904744">
        <ele>354.690869</ele>
        <time>2024-10-16T17:22:17.121Z</time>
      </trkpt>
      <trkpt lat="47.627287" lon="7.904761">
        <ele>354.089233</ele>
        <time>2024-10-16T17:22:22.646Z</time>
      </trkpt>
      <trkpt lat="47.627068" lon="7.904813">
        <ele>353.802980</ele>
        <time>2024-10-16T17:22:25.373Z</time>
      </trkpt>
      <trkpt lat="47.626441" lon="7.905007">
        <ele>353.330176</ele>
        <time>2024-10-16T17:22:33.468Z</time>
      </trkpt>
      <trkpt lat="47.626399" lon="7.904961">
        <ele>353.295485</ele>
        <time>2024-10-16T17:22:34.220Z</time>
      </trkpt>
      <trkpt lat="47.626213" lon="7.904913">
        <ele>353.170025</ele>
        <time>2024-10-16T17:22:36.648Z</time>
      </trkpt>
      <trkpt lat="47.626086" lon="7.904879">
        <ele>353.084266</ele>
        <time>2024-10-16T17:22:38.246Z</time>
      </trkpt>
      <trkpt lat="47.625776" lon="7.904785">
        <ele>352.874001</ele>
        <time>2024-10-16T17:22:42.323Z</time>
      </trkpt>
      <trkpt lat="47.625516" lon="7.904701">
        <ele>352.697172</ele>
        <time>2024-10-16T17:22:45.839Z</time>
      </trkpt>
      <trkpt lat="47.625088" lon="7.904563">
        <ele>352.399224</ele>
        <time>2024-10-16T17:22:51.772Z</time>
      </trkpt>
      <trkpt lat="47.624956" lon="7.904522">
        <ele>352.303689</ele>
        <time>2024-10-16T17:22:53.774Z</time>
      </trkpt>
      <trkpt lat="47.624565" lon="7.904455">
        <ele>352.024865</ele>
        <time>2024-10-16T17:22:59.187Z</time>
      </trkpt>
      <trkpt lat="47.624451" lon="7.904332">
        <ele>351.925013</ele>
        <time>2024-10-16T17:23:01.021Z</time>
      </trkpt>
      <trkpt lat="47.624263" lon="7.904484">
        <ele>351.773345</ele>
        <time>2024-10-16T17:23:04.880Z</time>
      </trkpt>
      <trkpt lat="47.624120" lon="7.904530">
        <ele>351.669691</ele>
        <time>2024-10-16T17:23:07.459Z</time>
      </trkpt>
      <trkpt lat="47.623650" lon="7.904642">
        <ele>351.332479</ele>
        <time>2024-10-16T17:23:13.211Z</time>
      </trkpt>
      <trkpt lat="47.622424" lon="7.904919">
        <ele>349.879172</ele>
        <time>2024-10-16T17:23:28.115Z</time>
      </trkpt>
      <trkpt lat="47.622236" lon="7.904958">
        <ele>349.645898</ele>
        <time>2024-10-16T17:23:30.386Z</time>
      </trkpt>
      <trkpt lat="47.621248" lon="7.905159">
        <ele>348.167193</ele>
        <time>2024-10-16T17:23:41.924Z</time>
      </trkpt>
      <trkpt lat="47.621107" lon="7.905191">
        <ele>347.918615</ele>
        <time>2024-10-16T17:23:43.515Z</time>
      </trkpt>
      <trkpt lat="47.620699" lon="7.905223">
        <ele>347.206603</ele>
        <time>2024-10-16T17:23:48.289Z</time>
      </trkpt>
      <trkpt lat="47.620426" lon="7.905244">
        <ele>346.730209</ele>
        <time>2024-10-16T17:23:51.405Z</time>
      </trkpt>
      <trkpt lat="47.619447" lon="7.905300">
        <ele>344.160512</ele>
        <time>2024-10-16T17:24:01.926Z</time>
      </trkpt>
      <trkpt lat="47.619155" lon="7.905319">
        <ele>343.145535</ele>
        <time>2024-10-16T17:24:04.866Z</time>
      </trkpt>
      <trkpt lat="47.619066" lon="7.905385">
        <ele>342.800012</ele>
        <time>2024-10-16T17:24:05.856Z</time>
      </trkpt>
      <trkpt lat="47.618976" lon="7.905535">
        <ele>342.329952</ele>
        <time>2024-10-16T17:24:07.187Z</time>
      </trkpt>
      <trkpt lat="47.618898" lon="7.906397">
        <ele>340.294133</ele>
        <time>2024-10-16T17:24:12.899Z</time>
      </trkpt>
      <trkpt lat="47.618799" lon="7.906688">
        <ele>339.523300</ele>
        <time>2024-10-16T17:24:14.999Z</time>
      </trkpt>
      <trkpt lat="47.618719" lon="7.906838">
        <ele>339.044918</ele>
        <time>2024-10-16T17:24:16.231Z</time>
      </trkpt>
      <trkpt lat="47.618579" lon="7.906988">
        <ele>338.404157</ele>
        <time>2024-10-16T17:24:17.865Z</time>
      </trkpt>
      <trkpt lat="47.618471" lon="7.907083">
        <ele>337.938291</ele>
        <time>2024-10-16T17:24:19.059Z</time>
      </trkpt>
      <trkpt lat="47.618054" lon="7.907225">
        <ele>336.350821</ele>
        <time>2024-10-16T17:24:23.108Z</time>
      </trkpt>
      <trkpt lat="47.617957" lon="7.907285">
        <ele>335.960881</ele>
        <time>2024-10-16T17:24:24.123Z</time>
      </trkpt>
      <trkpt lat="47.617185" lon="7.908165">
        <ele>332.766787</ele>
        <time>2024-10-16T17:24:34.200Z</time>
      </trkpt>
      <trkpt lat="47.617086" lon="7.908230">
        <ele>332.634619</ele>
        <time>2024-10-16T17:24:35.433Z</time>
      </trkpt>
      <trkpt lat="47.616915" lon="7.908279">
        <ele>332.422002</ele>
        <time>2024-10-16T17:24:37.463Z</time>
      </trkpt>
      <trkpt lat="47.616723" lon="7.908258">
        <ele>332.186971</ele>
        <time>2024-10-16T17:24:39.703Z</time>
      </trkpt>
      <trkpt lat="47.616604" lon="7.908204">
        <ele>332.035050</ele>
        <time>2024-10-16T17:24:41.225Z</time>
      </trkpt>
      <trkpt lat="47.616478" lon="7.908099">
        <ele>331.858621</ele>
        <time>2024-10-16T17:24:42.975Z</time>
      </trkpt>
      <trkpt lat="47.616206" lon="7.907785">
        <ele>331.437865</ele>
        <time>2024-10-16T17:24:47.302Z</time>
      </trkpt>
      <trkpt lat="47.616009" lon="7.907686">
        <ele>331.183941</ele>
        <time>2024-10-16T17:24:50.019Z</time>
      </trkpt>
      <trkpt lat="47.615821" lon="7.907748">
        <ele>330.948826</ele>
        <time>2024-10-16T17:24:52.490Z</time>
      </trkpt>
      <trkpt lat="47.615666" lon="7.907883">
        <ele>330.744142</ele>
        <time>2024-10-16T17:24:54.885Z</time>
      </trkpt>
      <trkpt lat="47.615371" lon="7.908227">
        <ele>330.430706</ele>
        <time>2024-10-16T17:25:00.221Z</time>
      </trkpt>
      <trkpt lat="47.615114" lon="7.908526">
        <ele>330.157884</ele>
        <time>2024-10-16T17:25:04.617Z</time>
      </trkpt>
      <trkpt lat="47.614784" lon="7.908839">
        <ele>329.830702</ele>
        <time>2024-10-16T17:25:09.303Z</time>
      </trkpt>
      <trkpt lat="47.614412" lon="7.909095">
        <ele>329.488157</ele>
        <time>2024-10-16T17:25:13.940Z</time>
      </trkpt>
      <trkpt lat="47.614063" lon="7.909285">
        <ele>329.373281</ele>
        <time>2024-10-16T17:25:18.334Z</time>
      </trkpt>
      <trkpt lat="47.614009" lon="7.909308">
        <ele>329.421960</ele>
        <time>2024-10-16T17:25:19.058Z</time>
      </trkpt>
      <trkpt lat="47.613934" lon="7.909339">
        <ele>329.489419</ele>
        <time>2024-10-16T17:25:20.074Z</time>
      </trkpt>
      <trkpt lat="47.613360" lon="7.909602">
        <ele>330.009946</ele>
        <time>2024-10-16T17:25:29.328Z</time>
      </trkpt>
      <trkpt lat="47.613280" lon="7.909624">
        <ele>330.080443</ele>
        <time>2024-10-16T17:25:31.032Z</time>
      </trkpt>
      <trkpt lat="47.612898" lon="7.909813">
        <ele>330.429353</ele>
        <time>2024-10-16T17:25:40.140Z</time>
      </trkpt>
      <trkpt lat="47.612217" lon="7.910134">
        <ele>331.255574</ele>
        <time>2024-10-16T17:25:56.994Z</time>
      </trkpt>
      <trkpt lat="47.612131" lon="7.910214">
        <ele>331.427707</ele>
        <time>2024-10-16T17:25:59.344Z</time>
      </trkpt>
      <trkpt lat="47.612020" lon="7.910365">
        <ele>331.683098</ele>
        <time>2024-10-16T17:26:02.891Z</time>
      </trkpt>
      <trkpt lat="47.611986" lon="7.910466">
        <ele>331.812151</ele>
        <time>2024-10-16T17:26:04.644Z</time>
      </trkpt>
      <trkpt lat="47.611989" lon="7.910610">
        <ele>331.976844</ele>
        <time>2024-10-16T17:26:06.941Z</time>
      </trkpt>
      <trkpt lat="47.612029" lon="7.910940">
        <ele>332.360134</ele>
        <time>2024-10-16T17:26:12.209Z</time>
      </trkpt>
      <trkpt lat="47.611260" lon="7.911383">
        <ele>333.759014</ele>
        <time>2024-10-16T17:26:30.427Z</time>
      </trkpt>
      <trkpt lat="47.610416" lon="7.911983">
        <ele>333.411844</ele>
        <time>2024-10-16T17:26:44.419Z</time>
      </trkpt>
      <trkpt lat="47.609914" lon="7.912278">
        <ele>333.117761</ele>
        <time>2024-10-16T17:26:50.829Z</time>
      </trkpt>
      <trkpt lat="47.609382" lon="7.912486">
        <ele>332.632852</ele>
        <time>2024-10-16T17:26:57.055Z</time>
      </trkpt>
      <trkpt lat="47.608679" lon="7.912703">
        <ele>331.382659</ele>
        <time>2024-10-16T17:27:05.065Z</time>
      </trkpt>
      <trkpt lat="47.608087" lon="7.912963">
        <ele>330.307713</ele>
        <time>2024-10-16T17:27:12.012Z</time>
      </trkpt>
      <trkpt lat="47.607292" lon="7.913435">
        <ele>328.917458</ele>
        <time>2024-10-16T17:27:21.641Z</time>
      </trkpt>
      <trkpt lat="47.606938" lon="7.913697">
        <ele>328.301322</ele>
        <time>2024-10-16T17:27:26.155Z</time>
      </trkpt>
      <trkpt lat="47.606706" lon="7.913869">
        <ele>327.897389</ele>
        <time>2024-10-16T17:27:29.221Z</time>
      </trkpt>
      <trkpt lat="47.606558" lon="7.913989">
        <ele>327.634705</ele>
        <time>2024-10-16T17:27:31.131Z</time>
      </trkpt>
      <trkpt lat="47.606450" lon="7.914067">
        <ele>327.447629</ele>
        <time>2024-10-16T17:27:32.544Z</time>
      </trkpt>
      <trkpt lat="47.606200" lon="7.914255">
        <ele>327.011101</ele>
        <time>2024-10-16T17:27:35.774Z</time>
      </trkpt>
      <trkpt lat="47.605929" lon="7.914457">
        <ele>326.478197</ele>
        <time>2024-10-16T17:27:39.310Z</time>
      </trkpt>
      <trkpt lat="47.605408" lon="7.914750">
        <ele>325.488509</ele>
        <time>2024-10-16T17:27:45.643Z</time>
      </trkpt>
      <trkpt lat="47.605105" lon="7.914869">
        <ele>324.931773</ele>
        <time>2024-10-16T17:27:49.053Z</time>
      </trkpt>
      <trkpt lat="47.604722" lon="7.914915">
        <ele>324.249263</ele>
        <time>2024-10-16T17:27:53.293Z</time>
      </trkpt>
      <trkpt lat="47.604394" lon="7.914885">
        <ele>323.656279</ele>
        <time>2024-10-16T17:27:56.945Z</time>
      </trkpt>
      <trkpt lat="47.604062" lon="7.914772">
        <ele>322.999919</ele>
        <time>2024-10-16T17:28:00.700Z</time>
      </trkpt>
      <trkpt lat="47.603885" lon="7.914671">
        <ele>322.634485</ele>
        <time>2024-10-16T17:28:02.765Z</time>
      </trkpt>
      <trkpt lat="47.603615" lon="7.914449">
        <ele>322.039621</ele>
        <time>2024-10-16T17:28:06.120Z</time>
      </trkpt>
      <trkpt lat="47.603466" lon="7.914620">
        <ele>321.676592</ele>
        <time>2024-10-16T17:28:08.182Z</time>
      </trkpt>
      <trkpt lat="47.603302" lon="7.914722">
        <ele>321.333919</ele>
        <time>2024-10-16T17:28:10.110Z</time>
      </trkpt>
      <trkpt lat="47.602754" lon="7.914823">
        <ele>320.280483</ele>
        <time>2024-10-16T17:28:16.185Z</time>
      </trkpt>
      <trkpt lat="47.602131" lon="7.915025">
        <ele>319.383733</ele>
        <time>2024-10-16T17:28:23.699Z</time>
      </trkpt>
      <trkpt lat="47.601546" lon="7.915285">
        <ele>318.524966</ele>
        <time>2024-10-16T17:28:31.000Z</time>
      </trkpt>
      <trkpt lat="47.600689" lon="7.915853">
        <ele>317.150577</ele>
        <time>2024-10-16T17:28:41.813Z</time>
      </trkpt>
      <trkpt lat="47.600546" lon="7.915898">
        <ele>316.925560</ele>
        <time>2024-10-16T17:28:43.492Z</time>
      </trkpt>
      <trkpt lat="47.600344" lon="7.915900">
        <ele>316.614619</ele>
        <time>2024-10-16T17:28:45.847Z</time>
      </trkpt>
      <trkpt lat="47.600078" lon="7.915859">
        <ele>316.202966</ele>
        <time>2024-10-16T17:28:48.935Z</time>
      </trkpt>
      <trkpt lat="47.599906" lon="7.915798">
        <ele>315.930745</ele>
        <time>2024-10-16T17:28:50.960Z</time>
      </trkpt>
      <trkpt lat="47.599374" lon="7.915625">
        <ele>315.092394</ele>
        <time>2024-10-16T17:28:57.162Z</time>
      </trkpt>
      <trkpt lat="47.599120" lon="7.915597">
        <ele>314.733860</ele>
        <time>2024-10-16T17:29:00.001Z</time>
      </trkpt>
      <trkpt lat="47.597971" lon="7.915762">
        <ele>313.148480</ele>
        <time>2024-10-16T17:29:13.443Z</time>
      </trkpt>
      <trkpt lat="47.597656" lon="7.915778">
        <ele>312.715616</ele>
        <time>2024-10-16T17:29:17.258Z</time>
      </trkpt>
      <trkpt lat="47.597083" lon="7.915733">
        <ele>311.775807</ele>
        <time>2024-10-16T17:29:24.166Z</time>
      </trkpt>
      <trkpt lat="47.596850" lon="7.915674">
        <ele>311.370883</ele>
        <time>2024-10-16T17:29:26.892Z</time>
      </trkpt>
      <trkpt lat="47.596349" lon="7.915301">
        <ele>310.410540</ele>
        <time>2024-10-16T17:29:33.227Z</time>
      </trkpt>
      <trkpt lat="47.595949" lon="7.915202">
        <ele>309.715832</ele>
        <time>2024-10-16T17:29:37.692Z</time>
      </trkpt>
      <trkpt lat="47.595861" lon="7.915155">
        <ele>309.555602</ele>
        <time>2024-10-16T17:29:38.681Z</time>
      </trkpt>
      <trkpt lat="47.595688" lon="7.915084">
        <ele>309.147064</ele>
        <time>2024-10-16T17:29:40.601Z</time>
      </trkpt>
      <trkpt lat="47.595476" lon="7.914889">
        <ele>308.515866</ele>
        <time>2024-10-16T17:29:43.230Z</time>
      </trkpt>
      <trkpt lat="47.595292" lon="7.914664">
        <ele>307.912449</ele>
        <time>2024-10-16T17:29:45.659Z</time>
      </trkpt>
      <trkpt lat="47.595031" lon="7.914316">
        <ele>307.024393</ele>
        <time>2024-10-16T17:29:49.180Z</time>
      </trkpt>
      <trkpt lat="47.594871" lon="7.914141">
        <ele>306.521364</ele>
        <time>2024-10-16T17:29:51.189Z</time>
      </trkpt>
      <trkpt lat="47.594719" lon="7.914022">
        <ele>306.086475</ele>
        <time>2024-10-16T17:29:52.928Z</time>
      </trkpt>
      <trkpt lat="47.594163" lon="7.913924">
        <ele>304.870415</ele>
        <time>2024-10-16T17:29:59.074Z</time>
      </trkpt>
      <trkpt lat="47.593654" lon="7.913672">
        <ele>304.650793</ele>
        <time>2024-10-16T17:30:06.017Z</time>
      </trkpt>
      <trkpt lat="47.593511" lon="7.913649">
        <ele>304.591924</ele>
        <time>2024-10-16T17:30:07.928Z</time>
      </trkpt>
      <trkpt lat="47.593189" lon="7.913725">
        <ele>304.458481</ele>
        <time>2024-10-16T17:30:12.564Z</time>
      </trkpt>
      <trkpt lat="47.593002" lon="7.913825">
        <ele>304.377123</ele>
        <time>2024-10-16T17:30:15.661Z</time>
      </trkpt>
      <trkpt lat="47.592807" lon="7.913929">
        <ele>304.292310</ele>
        <time>2024-10-16T17:30:18.537Z</time>
      </trkpt>
      <trkpt lat="47.592589" lon="7.914035">
        <ele>304.198415</ele>
        <time>2024-10-16T17:30:21.712Z</time>
      </trkpt>
      <trkpt lat="47.591953" lon="7.913843">
        <ele>304.386253</ele>
        <time>2024-10-16T17:30:33.855Z</time>
      </trkpt>
      <trkpt lat="47.591858" lon="7.913783">
        <ele>304.423771</ele>
        <time>2024-10-16T17:30:36.051Z</time>
      </trkpt>
      <trkpt lat="47.591783" lon="7.913610">
        <ele>304.474165</ele>
        <time>2024-10-16T17:30:39.098Z</time>
      </trkpt>
      <trkpt lat="47.591708" lon="7.913126">
        <ele>304.595853</ele>
        <time>2024-10-16T17:30:45.305Z</time>
      </trkpt>
      <trkpt lat="47.591695" lon="7.913062">
        <ele>304.612232</ele>
        <time>2024-10-16T17:30:46.029Z</time>
      </trkpt>
      <trkpt lat="47.591597" lon="7.912842">
        <ele>304.676838</ele>
        <time>2024-10-16T17:30:48.585Z</time>
      </trkpt>
      <trkpt lat="47.591443" lon="7.912679">
        <ele>304.745584</ele>
        <time>2024-10-16T17:30:51.314Z</time>
      </trkpt>
      <trkpt lat="47.591348" lon="7.912662">
        <ele>304.780352</ele>
        <time>2024-10-16T17:30:52.466Z</time>
      </trkpt>
      <trkpt lat="47.591044" lon="7.912710">
        <ele>304.569981</ele>
        <time>2024-10-16T17:30:56.478Z</time>
      </trkpt>
      <trkpt lat="47.590723" lon="7.912760">
        <ele>304.106603</ele>
        <time>2024-10-16T17:31:00.317Z</time>
      </trkpt>
      <trkpt lat="47.590570" lon="7.912784">
        <ele>303.885724</ele>
        <time>2024-10-16T17:31:02.014Z</time>
      </trkpt>
      <trkpt lat="47.589873" lon="7.912855">
        <ele>302.882721</ele>
        <time>2024-10-16T17:31:10.168Z</time>
      </trkpt>
      <trkpt lat="47.589511" lon="7.912766">
        <ele>302.355922</ele>
        <time>2024-10-16T17:31:14.253Z</time>
      </trkpt>
      <trkpt lat="47.589326" lon="7.912720">
        <ele>302.011201</ele>
        <time>2024-10-16T17:31:16.203Z</time>
      </trkpt>
      <trkpt lat="47.588907" lon="7.912607">
        <ele>301.107356</ele>
        <time>2024-10-16T17:31:20.700Z</time>
      </trkpt>
      <trkpt lat="47.587897" lon="7.912517">
        <ele>298.959940</ele>
        <time>2024-10-16T17:31:31.622Z</time>
      </trkpt>
      <trkpt lat="47.587725" lon="7.912508">
        <ele>298.594673</ele>
        <time>2024-10-16T17:31:33.541Z</time>
      </trkpt>
      <trkpt lat="47.586917" lon="7.912301">
        <ele>297.013478</ele>
        <time>2024-10-16T17:31:42.939Z</time>
      </trkpt>
      <trkpt lat="47.586622" lon="7.912140">
        <ele>296.413800</ele>
        <time>2024-10-16T17:31:46.571Z</time>
      </trkpt>
      <trkpt lat="47.586433" lon="7.912047">
        <ele>296.033913</ele>
        <time>2024-10-16T17:31:48.825Z</time>
      </trkpt>
      <trkpt lat="47.586263" lon="7.911881">
        <ele>295.645592</ele>
        <time>2024-10-16T17:31:51.141Z</time>
      </trkpt>
      <trkpt lat="47.586028" lon="7.911561">
        <ele>295.036902</ele>
        <time>2024-10-16T17:31:54.525Z</time>
      </trkpt>
      <trkpt lat="47.585611" lon="7.910640">
        <ele>292.879733</ele>
        <time>2024-10-16T17:32:02.148Z</time>
      </trkpt>
      <trkpt lat="47.585392" lon="7.910304">
        <ele>291.961960</ele>
        <time>2024-10-16T17:32:05.375Z</time>
      </trkpt>
      <trkpt lat="47.585093" lon="7.909869">
        <ele>290.742027</ele>
        <time>2024-10-16T17:32:09.678Z</time>
      </trkpt>
      <trkpt lat="47.585054" lon="7.909747">
        <ele>290.476839</ele>
        <time>2024-10-16T17:32:10.590Z</time>
      </trkpt>
      <trkpt lat="47.585053" lon="7.909585">
        <ele>290.158621</ele>
        <time>2024-10-16T17:32:11.727Z</time>
      </trkpt>
      <trkpt lat="47.585078" lon="7.909509">
        <ele>289.992532</ele>
        <time>2024-10-16T17:32:12.325Z</time>
      </trkpt>
      <trkpt lat="47.585337" lon="7.909032">
        <ele>288.977694</ele>
        <time>2024-10-16T17:32:16.558Z</time>
      </trkpt>
      <trkpt lat="47.585084" lon="7.908692">
        <ele>288.176355</ele>
        <time>2024-10-16T17:32:20.057Z</time>
      </trkpt>
      <trkpt lat="47.584719" lon="7.908091">
        <ele>286.896241</ele>
        <time>2024-10-16T17:32:25.757Z</time>
      </trkpt>
      <trkpt lat="47.583887" lon="7.907113">
        <ele>285.114049</ele>
        <time>2024-10-16T17:32:38.157Z</time>
      </trkpt>
      <trkpt lat="47.583711" lon="7.906911">
        <ele>284.919005</ele>
        <time>2024-10-16T17:32:40.798Z</time>
      </trkpt>
      <trkpt lat="47.583357" lon="7.906523">
        <ele>284.533225</ele>
        <time>2024-10-16T17:32:46.084Z</time>
      </trkpt>
      <trkpt lat="47.583245" lon="7.906443">
        <ele>284.424283</ele>
        <time>2024-10-16T17:32:47.642Z</time>
      </trkpt>
      <trkpt lat="47.583077" lon="7.906399">
        <ele>284.274785</ele>
        <time>2024-10-16T17:32:49.833Z</time>
      </trkpt>
      <trkpt lat="47.582951" lon="7.906415">
        <ele>284.163967</ele>
        <time>2024-10-16T17:32:51.525Z</time>
      </trkpt>
      <trkpt lat="47.582826" lon="7.906473">
        <ele>284.049190</ele>
        <time>2024-10-16T17:32:53.422Z</time>
      </trkpt>
      <trkpt lat="47.582657" lon="7.906618">
        <ele>284.010567</ele>
        <time>2024-10-16T17:32:56.251Z</time>
      </trkpt>
      <trkpt lat="47.582248" lon="7.907090">
        <ele>284.284309</ele>
        <time>2024-10-16T17:33:04.847Z</time>
      </trkpt>
      <trkpt lat="47.581952" lon="7.907361">
        <ele>284.468049</ele>
        <time>2024-10-16T17:33:11.025Z</time>
      </trkpt>
      <trkpt lat="47.581578" lon="7.907604">
        <ele>284.683712</ele>
        <time>2024-10-16T17:33:18.726Z</time>
      </trkpt>
      <trkpt lat="47.580553" lon="7.908081">
        <ele>285.229556</ele>
        <time>2024-10-16T17:33:37.821Z</time>
      </trkpt>
      <trkpt lat="47.580470" lon="7.908164">
        <ele>285.279085</ele>
        <time>2024-10-16T17:33:39.568Z</time>
      </trkpt>
      <trkpt lat="47.580422" lon="7.908273">
        <ele>285.322524</ele>
        <time>2024-10-16T17:33:41.232Z</time>
      </trkpt>
      <trkpt lat="47.580194" lon="7.908192">
        <ele>285.438512</ele>
        <time>2024-10-16T17:33:45.044Z</time>
      </trkpt>
      <trkpt lat="47.580105" lon="7.908169">
        <ele>285.483205</ele>
        <time>2024-10-16T17:33:46.565Z</time>
      </trkpt>
      <trkpt lat="47.579822" lon="7.908233">
        <ele>285.624827</ele>
        <time>2024-10-16T17:33:51.035Z</time>
      </trkpt>
      <trkpt lat="47.579709" lon="7.908314">
        <ele>285.686922</ele>
        <time>2024-10-16T17:33:53.130Z</time>
      </trkpt>
      <trkpt lat="47.579056" lon="7.908962">
        <ele>285.760879</ele>
        <time>2024-10-16T17:34:04.836Z</time>
      </trkpt>
      <trkpt lat="47.578890" lon="7.909085">
        <ele>285.747662</ele>
        <time>2024-10-16T17:34:07.365Z</time>
      </trkpt>
      <trkpt lat="47.577424" lon="7.909886">
        <ele>285.670440</ele>
        <time>2024-10-16T17:34:29.755Z</time>
      </trkpt>
      <trkpt lat="47.575539" lon="7.910898">
        <ele>285.780471</ele>
        <time>2024-10-16T17:35:00.130Z</time>
      </trkpt>
      <trkpt lat="47.574901" lon="7.911251">
        <ele>285.890519</ele>
        <time>2024-10-16T17:35:10.532Z</time>
      </trkpt>
      <trkpt lat="47.574566" lon="7.911447">
        <ele>285.948719</ele>
        <time>2024-10-16T17:35:16.262Z</time>
      </trkpt>
      <trkpt lat="47.573998" lon="7.911915">
        <ele>286.094527</ele>
        <time>2024-10-16T17:35:26.898Z</time>
      </trkpt>
      <trkpt lat="47.573759" lon="7.912034">
        <ele>286.152294</ele>
        <time>2024-10-16T17:35:30.790Z</time>
      </trkpt>
      <trkpt lat="47.572843" lon="7.912399">
        <ele>286.369280</ele>
        <time>2024-10-16T17:35:45.369Z</time>
      </trkpt>
      <trkpt lat="47.571910" lon="7.912745">
        <ele>286.535856</ele>
        <time>2024-10-16T17:36:01.248Z</time>
      </trkpt>
      <trkpt lat="47.571815" lon="7.912822">
        <ele>286.554610</ele>
        <time>2024-10-16T17:36:02.886Z</time>
      </trkpt>
      <trkpt lat="47.571807" lon="7.913030">
        <ele>286.578954</ele>
        <time>2024-10-16T17:36:05.339Z</time>
      </trkpt>
      <trkpt lat="47.570577" lon="7.913116">
        <ele>286.440145</ele>
        <time>2024-10-16T17:36:22.678Z</time>
      </trkpt>
      <trkpt lat="47.569155" lon="7.913298">
        <ele>286.126132</ele>
        <time>2024-10-16T17:36:41.450Z</time>
      </trkpt>
      <trkpt lat="47.568566" lon="7.913414">
        <ele>286.361143</ele>
        <time>2024-10-16T17:36:50.298Z</time>
      </trkpt>
      <trkpt lat="47.568301" lon="7.913554">
        <ele>286.472417</ele>
        <time>2024-10-16T17:36:55.005Z</time>
      </trkpt>
      <trkpt lat="47.567335" lon="7.914048">
        <ele>287.159082</ele>
        <time>2024-10-16T17:37:14.712Z</time>
      </trkpt>
      <trkpt lat="47.566474" lon="7.914489">
        <ele>288.202293</ele>
        <time>2024-10-16T17:37:33.489Z</time>
      </trkpt>
      <trkpt lat="47.566163" lon="7.914639">
        <ele>288.576826</ele>
        <time>2024-10-16T17:37:39.744Z</time>
      </trkpt>
      <trkpt lat="47.565995" lon="7.914739">
        <ele>288.784151</ele>
        <time>2024-10-16T17:37:42.970Z</time>
      </trkpt>
      <trkpt lat="47.565755" lon="7.914976">
        <ele>288.855692</ele>
        <time>2024-10-16T17:37:47.969Z</time>
      </trkpt>
      <trkpt lat="47.565643" lon="7.915078">
        <ele>288.887166</ele>
        <time>2024-10-16T17:37:50.236Z</time>
      </trkpt>
      <trkpt lat="47.564543" lon="7.916192">
        <ele>289.206146</ele>
        <time>2024-10-16T17:38:10.300Z</time>
      </trkpt>
      <trkpt lat="47.564492" lon="7.916246">
        <ele>289.219853</ele>
        <time>2024-10-16T17:38:11.274Z</time>
      </trkpt>
      <trkpt lat="47.563485" lon="7.917258">
        <ele>289.393433</ele>
        <time>2024-10-16T17:38:29.468Z</time>
      </trkpt>
      <trkpt lat="47.562778" lon="7.917969">
        <ele>289.693447</ele>
        <time>2024-10-16T17:38:42.942Z</time>
      </trkpt>
      <trkpt lat="47.562491" lon="7.918206">
        <ele>289.945008</ele>
        <time>2024-10-16T17:38:48.527Z</time>
      </trkpt>
      <trkpt lat="47.562273" lon="7.918253">
        <ele>290.113682</ele>
        <time>2024-10-16T17:38:52.412Z</time>
      </trkpt>
      <trkpt lat="47.562208" lon="7.918216">
        <ele>290.166995</ele>
        <time>2024-10-16T17:38:53.706Z</time>
      </trkpt>
      <trkpt lat="47.562123" lon="7.918006">
        <ele>290.293518</ele>
        <time>2024-10-16T17:38:56.761Z</time>
      </trkpt>
      <trkpt lat="47.562081" lon="7.917738">
        <ele>290.435671</ele>
        <time>2024-10-16T17:39:00.321Z</time>
      </trkpt>
      <trkpt lat="47.562027" lon="7.918147">
        <ele>290.650995</ele>
        <time>2024-10-16T17:39:05.730Z</time>
      </trkpt>
      <trkpt lat="47.561966" lon="7.918325">
        <ele>290.754143</ele>
        <time>2024-10-16T17:39:08.372Z</time>
      </trkpt>
      <trkpt lat="47.561880" lon="7.918429">
        <ele>290.839132</ele>
        <time>2024-10-16T17:39:10.534Z</time>
      </trkpt>
      <trkpt lat="47.561675" lon="7.918574">
        <ele>291.049246</ele>
        <time>2024-10-16T17:39:14.957Z</time>
      </trkpt>
      <trkpt lat="47.560838" lon="7.919034">
        <ele>291.886070</ele>
        <time>2024-10-16T17:39:32.353Z</time>
      </trkpt>
      <trkpt lat="47.558007" lon="7.920410">
        <ele>293.834148</ele>
        <time>2024-10-16T17:40:23.865Z</time>
      </trkpt>
      <trkpt lat="47.557082" lon="7.921020">
        <ele>294.177643</ele>
        <time>2024-10-16T17:40:39.942Z</time>
      </trkpt>
      <trkpt lat="47.556543" lon="7.921455">
        <ele>294.317563</ele>
        <time>2024-10-16T17:40:49.504Z</time>
      </trkpt>
      <trkpt lat="47.556064" lon="7.921904">
        <ele>294.386209</ele>
        <time>2024-10-16T17:40:58.223Z</time>
      </trkpt>
      <trkpt lat="47.555217" lon="7.922916">
        <ele>294.537827</ele>
        <time>2024-10-16T17:41:14.549Z</time>
      </trkpt>
      <trkpt lat="47.554813" lon="7.923517">
        <ele>294.674242</ele>
        <time>2024-10-16T17:41:23.397Z</time>
      </trkpt>
      <trkpt lat="47.554355" lon="7.924296">
        <ele>294.840389</ele>
        <time>2024-10-16T17:41:34.504Z</time>
      </trkpt>
      <trkpt lat="47.553997" lon="7.925054">
        <ele>295.003324</ele>
        <time>2024-10-16T17:41:44.767Z</time>
      </trkpt>
      <trkpt lat="47.553246" lon="7.927021">
        <ele>295.448268</ele>
        <time>2024-10-16T17:42:09.504Z</time>
      </trkpt>
      <trkpt lat="47.553077" lon="7.927196">
        <ele>295.367661</ele>
        <time>2024-10-16T17:42:12.525Z</time>
      </trkpt>
      <trkpt lat="47.552729" lon="7.927061">
        <ele>295.216330</ele>
        <time>2024-10-16T17:42:17.698Z</time>
      </trkpt>
      <trkpt lat="47.552388" lon="7.926860">
        <ele>295.061943</ele>
        <time>2024-10-16T17:42:22.539Z</time>
      </trkpt>
      <trkpt lat="47.552250" lon="7.926787">
        <ele>295.000300</ele>
        <time>2024-10-16T17:42:24.343Z</time>
      </trkpt>
      <trkpt lat="47.551788" lon="7.926512">
        <ele>294.790848</ele>
        <time>2024-10-16T17:42:30.759Z</time>
      </trkpt>
      <trkpt lat="47.551676" lon="7.926477">
        <ele>294.742695</ele>
        <time>2024-10-16T17:42:32.210Z</time>
      </trkpt>
      <trkpt lat="47.551518" lon="7.926498">
        <ele>294.670308</ele>
        <time>2024-10-16T17:42:34.136Z</time>
      </trkpt>
      <trkpt lat="47.551345" lon="7.926636">
        <ele>294.561928</ele>
        <time>2024-10-16T17:42:36.717Z</time>
      </trkpt>
      <trkpt lat="47.551262" lon="7.926787">
        <ele>294.489426</ele>
        <time>2024-10-16T17:42:38.350Z</time>
      </trkpt>
      <trkpt lat="47.551183" lon="7.927256">
        <ele>294.309462</ele>
        <time>2024-10-16T17:42:42.798Z</time>
      </trkpt>
      <trkpt lat="47.551076" lon="7.927850">
        <ele>294.080575</ele>
        <time>2024-10-16T17:42:48.443Z</time>
      </trkpt>
      <trkpt lat="47.550669" lon="7.927757">
        <ele>293.853415</ele>
        <time>2024-10-16T17:42:53.956Z</time>
      </trkpt>
      <trkpt lat="47.550481" lon="7.927724">
        <ele>293.748986</ele>
        <time>2024-10-16T17:42:56.548Z</time>
      </trkpt>
      <trkpt lat="47.550382" lon="7.927709">
        <ele>293.689567</ele>
        <time>2024-10-16T17:42:57.844Z</time>
      </trkpt>
      <trkpt lat="47.550041" lon="7.927651">
        <ele>293.391498</ele>
        <time>2024-10-16T17:43:02.222Z</time>
      </trkpt>
      <trkpt lat="47.548912" lon="7.927437">
        <ele>292.403085</ele>
        <time>2024-10-16T17:43:16.260Z</time>
      </trkpt>
      <trkpt lat="47.548777" lon="7.927430">
        <ele>292.285779</ele>
        <time>2024-10-16T17:43:17.890Z</time>
      </trkpt>
      <trkpt lat="47.548535" lon="7.927518">
        <ele>292.061212</ele>
        <time>2024-10-16T17:43:20.939Z</time>
      </trkpt>
      <trkpt lat="47.548380" lon="7.927680">
        <ele>291.877422</ele>
        <time>2024-10-16T17:43:23.208Z</time>
      </trkpt>
      <trkpt lat="47.548275" lon="7.927880">
        <ele>291.711717</ele>
        <time>2024-10-16T17:43:25.259Z</time>
      </trkpt>
      <trkpt lat="47.548228" lon="7.928033">
        <ele>291.601782</ele>
        <time>2024-10-16T17:43:26.623Z</time>
      </trkpt>
      <trkpt lat="47.548186" lon="7.928343">
        <ele>291.395002</ele>
        <time>2024-10-16T17:43:29.226Z</time>
      </trkpt>
      <trkpt lat="47.548226" lon="7.929841">
        <ele>290.414563</ele>
        <time>2024-10-16T17:43:41.754Z</time>
      </trkpt>
      <trkpt lat="47.548236" lon="7.930127">
        <ele>290.155716</ele>
        <time>2024-10-16T17:43:44.194Z</time>
      </trkpt>
      <trkpt lat="47.548242" lon="7.930335">
        <ele>289.962263</ele>
        <time>2024-10-16T17:43:46.034Z</time>
      </trkpt>
      <trkpt lat="47.548251" lon="7.930898">
        <ele>289.438970</ele>
        <time>2024-10-16T17:43:50.751Z</time>
      </trkpt>
      <trkpt lat="47.548231" lon="7.931635">
        <ele>288.753588</ele>
        <time>2024-10-16T17:43:56.535Z</time>
      </trkpt>
      <trkpt lat="47.548193" lon="7.932139">
        <ele>288.282353</ele>
        <time>2024-10-16T17:44:00.336Z</time>
      </trkpt>
      <trkpt lat="47.548144" lon="7.932614">
        <ele>287.822963</ele>
        <time>2024-10-16T17:44:03.896Z</time>
      </trkpt>
      <trkpt lat="47.548058" lon="7.933118">
        <ele>287.266923</ele>
        <time>2024-10-16T17:44:07.745Z</time>
      </trkpt>
      <trkpt lat="47.547830" lon="7.934104">
        <ele>286.152117</ele>
        <time>2024-10-16T17:44:15.562Z</time>
      </trkpt>
      <trkpt lat="47.547749" lon="7.934375">
        <ele>285.835104</ele>
        <time>2024-10-16T17:44:17.853Z</time>
      </trkpt>
      <trkpt lat="47.547539" lon="7.935068">
        <ele>285.061595</ele>
        <time>2024-10-16T17:44:23.827Z</time>
      </trkpt>
      <trkpt lat="47.547524" lon="7.935115">
        <ele>285.050877</ele>
        <time>2024-10-16T17:44:24.270Z</time>
      </trkpt>
      <trkpt lat="47.547020" lon="7.936617">
        <ele>284.705069</ele>
        <time>2024-10-16T17:44:39.864Z</time>
      </trkpt>
      <trkpt lat="47.546935" lon="7.936940">
        <ele>284.633597</ele>
        <time>2024-10-16T17:44:43.442Z</time>
      </trkpt>
      <trkpt lat="47.546885" lon="7.937398">
        <ele>284.537948</ele>
        <time>2024-10-16T17:44:48.331Z</time>
      </trkpt>
      <trkpt lat="47.546915" lon="7.937800">
        <ele>284.576021</ele>
        <time>2024-10-16T17:44:52.611Z</time>
      </trkpt>
      <trkpt lat="47.546969" lon="7.938023">
        <ele>284.615747</ele>
        <time>2024-10-16T17:44:55.108Z</time>
      </trkpt>
      <trkpt lat="47.547115" lon="7.938377">
        <ele>284.685308</ele>
        <time>2024-10-16T17:44:59.378Z</time>
      </trkpt>
      <trkpt lat="47.547314" lon="7.938671">
        <ele>284.755123</ele>
        <time>2024-10-16T17:45:03.761Z</time>
      </trkpt>
      <trkpt lat="47.547474" lon="7.938844">
        <ele>284.804329</ele>
        <time>2024-10-16T17:45:06.915Z</time>
      </trkpt>
      <trkpt lat="47.548085" lon="7.939423">
        <ele>284.988787</ele>
        <time>2024-10-16T17:45:18.866Z</time>
      </trkpt>
      <trkpt lat="47.548130" lon="7.939460">
        <ele>285.004961</ele>
        <time>2024-10-16T17:45:19.723Z</time>
      </trkpt>
      <trkpt lat="47.548150" lon="7.939478">
        <ele>285.012316</ele>
        <time>2024-10-16T17:45:20.113Z</time>
      </trkpt>
      <trkpt lat="47.548314" lon="7.939849">
        <ele>285.106393</ele>
        <time>2024-10-16T17:45:24.870Z</time>
      </trkpt>
      <trkpt lat="47.548352" lon="7.940073">
        <ele>285.155388</ele>
        <time>2024-10-16T17:45:27.343Z</time>
      </trkpt>
      <trkpt lat="47.548350" lon="7.940187">
        <ele>285.179579</ele>
        <time>2024-10-16T17:45:28.547Z</time>
      </trkpt>
      <trkpt lat="47.548195" lon="7.940950">
        <ele>285.348607</ele>
        <time>2024-10-16T17:45:37.070Z</time>
      </trkpt>
      <trkpt lat="47.547852" lon="7.942144">
        <ele>285.691649</ele>
        <time>2024-10-16T17:45:51.207Z</time>
      </trkpt>
      <trkpt lat="47.547436" lon="7.943731">
        <ele>286.324038</ele>
        <time>2024-10-16T17:46:11.100Z</time>
      </trkpt>
      <trkpt lat="47.547331" lon="7.944159">
        <ele>286.493196</ele>
        <time>2024-10-16T17:46:16.582Z</time>
      </trkpt>
      <trkpt lat="47.547299" lon="7.944281">
        <ele>286.536201</ele>
        <time>2024-10-16T17:46:18.109Z</time>
      </trkpt>
      <trkpt lat="47.547245" lon="7.944502">
        <ele>286.596787</ele>
        <time>2024-10-16T17:46:20.972Z</time>
      </trkpt>
      <trkpt lat="47.547205" lon="7.944673">
        <ele>286.643438</ele>
        <time>2024-10-16T17:46:22.923Z</time>
      </trkpt>
      <trkpt lat="47.547161" lon="7.944864">
        <ele>286.695461</ele>
        <time>2024-10-16T17:46:25.066Z</time>
      </trkpt>
      <trkpt lat="47.547019" lon="7.945523">
        <ele>286.873780</ele>
        <time>2024-10-16T17:46:31.822Z</time>
      </trkpt>
      <trkpt lat="47.546982" lon="7.945679">
        <ele>286.916403</ele>
        <time>2024-10-16T17:46:33.461Z</time>
      </trkpt>
      <trkpt lat="47.546962" lon="7.945758">
        <ele>286.938153</ele>
        <time>2024-10-16T17:46:34.337Z</time>
      </trkpt>
      <trkpt lat="47.546780" lon="7.946530">
        <ele>287.148944</ele>
        <time>2024-10-16T17:46:43.340Z</time>
      </trkpt>
      <trkpt lat="47.546677" lon="7.946975">
        <ele>287.441151</ele>
        <time>2024-10-16T17:46:49.058Z</time>
      </trkpt>
      <trkpt lat="47.546651" lon="7.947115">
        <ele>287.585497</ele>
        <time>2024-10-16T17:46:50.808Z</time>
      </trkpt>
      <trkpt lat="47.546572" lon="7.947546">
        <ele>288.029471</ele>
        <time>2024-10-16T17:46:56.454Z</time>
      </trkpt>
      <trkpt lat="47.546360" lon="7.948448">
        <ele>288.978958</ele>
        <time>2024-10-16T17:47:09.015Z</time>
      </trkpt>
      <trkpt lat="47.546161" lon="7.949293">
        <ele>289.872910</ele>
        <time>2024-10-16T17:47:23.563Z</time>
      </trkpt>
      <trkpt lat="47.545949" lon="7.950185">
        <ele>291.244965</ele>
        <time>2024-10-16T17:47:39.455Z</time>
      </trkpt>
      <trkpt lat="47.545822" lon="7.950627">
        <ele>291.941935</ele>
        <time>2024-10-16T17:47:48.139Z</time>
      </trkpt>
      <trkpt lat="47.545810" lon="7.950694">
        <ele>292.042507</ele>
        <time>2024-10-16T17:47:49.333Z</time>
      </trkpt>
      <trkpt lat="47.545696" lon="7.950765">
        <ele>292.308316</ele>
        <time>2024-10-16T17:47:53.031Z</time>
      </trkpt>
      <trkpt lat="47.545625" lon="7.950771">
        <ele>292.461175</ele>
        <time>2024-10-16T17:47:54.591Z</time>
      </trkpt>
      <trkpt lat="47.545567" lon="7.950765">
        <ele>292.586146</ele>
        <time>2024-10-16T17:47:55.654Z</time>
      </trkpt>
      <trkpt lat="47.545494" lon="7.950685">
        <ele>292.781321</ele>
        <time>2024-10-16T17:47:57.330Z</time>
      </trkpt>
      <trkpt lat="47.545434" lon="7.950668">
        <ele>292.912625</ele>
        <time>2024-10-16T17:47:58.751Z</time>
      </trkpt>
      <trkpt lat="47.545166" lon="7.950366">
        <ele>293.636384</ele>
        <time>2024-10-16T17:48:05.468Z</time>
      </trkpt>
      <trkpt lat="47.544521" lon="7.949558">
        <ele>294.431106</ele>
        <time>2024-10-16T17:48:22.332Z</time>
      </trkpt>
      <trkpt lat="47.544239" lon="7.949202">
        <ele>294.756596</ele>
        <time>2024-10-16T17:48:27.900Z</time>
      </trkpt>
      <trkpt lat="47.543760" lon="7.948549">
        <ele>295.359889</ele>
        <time>2024-10-16T17:48:38.783Z</time>
      </trkpt>
      <trkpt lat="47.543579" lon="7.948287">
        <ele>295.887249</ele>
        <time>2024-10-16T17:48:43.549Z</time>
      </trkpt>
      <trkpt lat="47.543269" lon="7.947734">
        <ele>296.898433</ele>
        <time>2024-10-16T17:48:53.946Z</time>
      </trkpt>
      <trkpt lat="47.543165" lon="7.947365">
        <ele>297.460943</ele>
        <time>2024-10-16T17:49:00.548Z</time>
      </trkpt>
      <trkpt lat="47.543137" lon="7.947257">
        <ele>297.623689</ele>
        <time>2024-10-16T17:49:02.915Z</time>
      </trkpt>
      <trkpt lat="47.543086" lon="7.947052">
        <ele>297.931029</ele>
        <time>2024-10-16T17:49:06.722Z</time>
      </trkpt>
      <trkpt lat="47.543028" lon="7.946866">
        <ele>298.219249</ele>
        <time>2024-10-16T17:49:10.129Z</time>
      </trkpt>
      <trkpt lat="47.542942" lon="7.946511">
        <ele>298.749823</ele>
        <time>2024-10-16T17:49:16.893Z</time>
      </trkpt>
      <trkpt lat="47.542905" lon="7.946011">
        <ele>299.488238</ele>
        <time>2024-10-16T17:49:25.845Z</time>
      </trkpt>
      <trkpt lat="47.542908" lon="7.945508">
        <ele>300.249914</ele>
        <time>2024-10-16T17:49:34.672Z</time>
      </trkpt>
      <trkpt lat="47.543007" lon="7.943867">
        <ele>302.744629</ele>
        <time>2024-10-16T17:50:02.147Z</time>
      </trkpt>
      <trkpt lat="47.543161" lon="7.942214">
        <ele>303.458232</ele>
        <time>2024-10-16T17:50:21.011Z</time>
      </trkpt>
      <trkpt lat="47.543306" lon="7.941257">
        <ele>303.709829</ele>
        <time>2024-10-16T17:50:30.572Z</time>
      </trkpt>
      <trkpt lat="47.543435" lon="7.940670">
        <ele>303.603988</ele>
        <time>2024-10-16T17:50:36.451Z</time>
      </trkpt>
      <trkpt lat="47.543606" lon="7.940055">
        <ele>303.306298</ele>
        <time>2024-10-16T17:50:42.906Z</time>
      </trkpt>
      <trkpt lat="47.543826" lon="7.939433">
        <ele>302.992013</ele>
        <time>2024-10-16T17:50:49.731Z</time>
      </trkpt>
      <trkpt lat="47.544705" lon="7.937395">
        <ele>300.322355</ele>
        <time>2024-10-16T17:51:08.302Z</time>
      </trkpt>
      <trkpt lat="47.545074" lon="7.936484">
        <ele>298.720042</ele>
        <time>2024-10-16T17:51:15.697Z</time>
      </trkpt>
      <trkpt lat="47.545389" lon="7.935411">
        <ele>296.647705</ele>
        <time>2024-10-16T17:51:23.598Z</time>
      </trkpt>
      <trkpt lat="47.545556" lon="7.934600">
        <ele>295.123875</ele>
        <time>2024-10-16T17:51:29.460Z</time>
      </trkpt>
      <trkpt lat="47.545631" lon="7.934088">
        <ele>294.182299</ele>
        <time>2024-10-16T17:51:33.428Z</time>
      </trkpt>
      <trkpt lat="47.545710" lon="7.933292">
        <ele>293.551241</ele>
        <time>2024-10-16T17:51:39.851Z</time>
      </trkpt>
      <trkpt lat="47.545735" lon="7.932388">
        <ele>293.204803</ele>
        <time>2024-10-16T17:51:47.620Z</time>
      </trkpt>
      <trkpt lat="47.545700" lon="7.931499">
        <ele>292.863819</ele>
        <time>2024-10-16T17:51:56.112Z</time>
      </trkpt>
      <trkpt lat="47.545584" lon="7.929957">
        <ele>292.744648</ele>
        <time>2024-10-16T17:52:13.333Z</time>
      </trkpt>
      <trkpt lat="47.545475" lon="7.928419">
        <ele>292.661796</ele>
        <time>2024-10-16T17:52:28.279Z</time>
      </trkpt>
      <trkpt lat="47.545431" lon="7.927698">
        <ele>292.273705</ele>
        <time>2024-10-16T17:52:34.510Z</time>
      </trkpt>
      <trkpt lat="47.545409" lon="7.926773">
        <ele>291.777522</ele>
        <time>2024-10-16T17:52:42.439Z</time>
      </trkpt>
      <trkpt lat="47.545417" lon="7.925848">
        <ele>291.278744</ele>
        <time>2024-10-16T17:52:49.971Z</time>
      </trkpt>
      <trkpt lat="47.545482" lon="7.924396">
        <ele>290.415538</ele>
        <time>2024-10-16T17:53:01.519Z</time>
      </trkpt>
      <trkpt lat="47.545536" lon="7.923407">
        <ele>289.826956</ele>
        <time>2024-10-16T17:53:10.344Z</time>
      </trkpt>
      <trkpt lat="47.545587" lon="7.922895">
        <ele>289.673656</ele>
        <time>2024-10-16T17:53:15.189Z</time>
      </trkpt>
      <trkpt lat="47.545703" lon="7.922333">
        <ele>289.582804</ele>
        <time>2024-10-16T17:53:20.673Z</time>
      </trkpt>
      <trkpt lat="47.545810" lon="7.921755">
        <ele>289.490150</ele>
        <time>2024-10-16T17:53:26.287Z</time>
      </trkpt>
      <trkpt lat="47.545854" lon="7.921356">
        <ele>289.427650</ele>
        <time>2024-10-16T17:53:30.021Z</time>
      </trkpt>
      <trkpt lat="47.545913" lon="7.920765">
        <ele>289.335292</ele>
        <time>2024-10-16T17:53:35.617Z</time>
      </trkpt>
      <trkpt lat="47.546115" lon="7.919678">
        <ele>289.207685</ele>
        <time>2024-10-16T17:53:47.673Z</time>
      </trkpt>
      <trkpt lat="47.546128" lon="7.919617">
        <ele>289.200777</ele>
        <time>2024-10-16T17:53:48.276Z</time>
      </trkpt>
      <trkpt lat="47.546293" lon="7.918960">
        <ele>289.125071</ele>
        <time>2024-10-16T17:53:54.999Z</time>
      </trkpt>
      <trkpt lat="47.546581" lon="7.917778">
        <ele>288.989554</ele>
        <time>2024-10-16T17:54:06.379Z</time>
      </trkpt>
      <trkpt lat="47.546831" lon="7.916877">
        <ele>288.884883</ele>
        <time>2024-10-16T17:54:15.318Z</time>
      </trkpt>
      <trkpt lat="47.547045" lon="7.916223">
        <ele>288.806790</ele>
        <time>2024-10-16T17:54:22.510Z</time>
      </trkpt>
      <trkpt lat="47.547095" lon="7.916075">
        <ele>288.789007</ele>
        <time>2024-10-16T17:54:24.188Z</time>
      </trkpt>
      <trkpt lat="47.547291" lon="7.915475">
        <ele>288.803851</ele>
        <time>2024-10-16T17:54:31.093Z</time>
      </trkpt>
      <trkpt lat="47.547420" lon="7.915079">
        <ele>288.923908</ele>
        <time>2024-10-16T17:54:35.727Z</time>
      </trkpt>
      <trkpt lat="47.548025" lon="7.913326">
        <ele>289.461480</ele>
        <time>2024-10-16T17:54:57.787Z</time>
      </trkpt>
      <trkpt lat="47.548399" lon="7.912201">
        <ele>290.080935</ele>
        <time>2024-10-16T17:55:12.769Z</time>
      </trkpt>
      <trkpt lat="47.549095" lon="7.910076">
        <ele>291.563563</ele>
        <time>2024-10-16T17:55:41.923Z</time>
      </trkpt>
      <trkpt lat="47.549490" lon="7.908790">
        <ele>292.733910</ele>
        <time>2024-10-16T17:56:00.289Z</time>
      </trkpt>
      <trkpt lat="47.549539" lon="7.908625">
        <ele>292.883228</ele>
        <time>2024-10-16T17:56:02.655Z</time>
      </trkpt>
      <trkpt lat="47.550497" lon="7.905558">
        <ele>298.814750</ele>
        <time>2024-10-16T17:56:59.290Z</time>
      </trkpt>
      <trkpt lat="47.550283" lon="7.905413">
        <ele>299.722538</ele>
        <time>2024-10-16T17:57:06.027Z</time>
      </trkpt>
      <trkpt lat="47.550067" lon="7.905245">
        <ele>300.663646</ele>
        <time>2024-10-16T17:57:13.480Z</time>
      </trkpt>
      <trkpt lat="47.549868" lon="7.905180">
        <ele>301.449769</ele>
        <time>2024-10-16T17:57:20.279Z</time>
      </trkpt>
      <trkpt lat="47.549869" lon="7.905024">
        <ele>301.855975</ele>
        <time>2024-10-16T17:57:23.518Z</time>
      </trkpt>
      <trkpt lat="47.550235" lon="7.904352">
        <ele>304.104327</ele>
        <time>2024-10-16T17:57:42.896Z</time>
      </trkpt>
      <trkpt lat="47.550498" lon="7.903445">
        <ele>306.555857</ele>
        <time>2024-10-16T17:58:05.226Z</time>
      </trkpt>
      <trkpt lat="47.550688" lon="7.902451">
        <ele>309.112240</ele>
        <time>2024-10-16T17:58:23.006Z</time>
      </trkpt>
      <trkpt lat="47.550731" lon="7.902062">
        <ele>310.087640</ele>
        <time>2024-10-16T17:58:30.559Z</time>
      </trkpt>
      <trkpt lat="47.550769" lon="7.901362">
        <ele>311.960807</ele>
        <time>2024-10-16T17:58:44.746Z</time>
      </trkpt>
      <trkpt lat="47.550804" lon="7.900247">
        <ele>315.116783</ele>
        <time>2024-10-16T17:59:08.867Z</time>
      </trkpt>
      <trkpt lat="47.550804" lon="7.899909">
        <ele>316.072449</ele>
        <time>2024-10-16T17:59:16.430Z</time>
      </trkpt>
      <trkpt lat="47.550820" lon="7.898109">
        <ele>320.264133</ele>
        <time>2024-10-16T17:59:55.644Z</time>
      </trkpt>
      <trkpt lat="47.550788" lon="7.897656">
        <ele>321.131616</ele>
        <time>2024-10-16T18:00:04.000Z</time>
      </trkpt>
      <trkpt lat="47.550639" lon="7.896346">
        <ele>323.545585</ele>
        <time>2024-10-16T18:00:23.615Z</time>
      </trkpt>
      <trkpt lat="47.550804" lon="7.895718">
        <ele>323.980007</ele>
        <time>2024-10-16T18:00:31.712Z</time>
      </trkpt>
      <trkpt lat="47.550878" lon="7.895158">
        <ele>324.347855</ele>
        <time>2024-10-16T18:00:38.109Z</time>
      </trkpt>
      <trkpt lat="47.550908" lon="7.894308">
        <ele>324.896541</ele>
        <time>2024-10-16T18:00:47.619Z</time>
      </trkpt>
      <trkpt lat="47.550892" lon="7.893176">
        <ele>326.825050</ele>
        <time>2024-10-16T18:01:02.576Z</time>
      </trkpt>
      <trkpt lat="47.550908" lon="7.891733">
        <ele>330.395300</ele>
        <time>2024-10-16T18:01:32.704Z</time>
      </trkpt>
      <trkpt lat="47.550916" lon="7.890600">
        <ele>334.006122</ele>
        <time>2024-10-16T18:02:01.848Z</time>
      </trkpt>
      <trkpt lat="47.550834" lon="7.889069">
        <ele>339.995053</ele>
        <time>2024-10-16T18:02:42.047Z</time>
      </trkpt>
      <trkpt lat="47.550831" lon="7.888611">
        <ele>341.781118</ele>
        <time>2024-10-16T18:02:53.754Z</time>
      </trkpt>
      <trkpt lat="47.550789" lon="7.887816">
        <ele>344.605392</ele>
        <time>2024-10-16T18:03:13.947Z</time>
      </trkpt>
      <trkpt lat="47.550677" lon="7.886476">
        <ele>349.314712</ele>
        <time>2024-10-16T18:03:46.511Z</time>
      </trkpt>
      <trkpt lat="47.550391" lon="7.885090">
        <ele>353.848913</ele>
        <time>2024-10-16T18:04:18.846Z</time>
      </trkpt>
      <trkpt lat="47.550311" lon="7.884508">
        <ele>355.546761</ele>
        <time>2024-10-16T18:04:31.755Z</time>
      </trkpt>
      <trkpt lat="47.550234" lon="7.883221">
        <ele>359.217548</ele>
        <time>2024-10-16T18:04:58.867Z</time>
      </trkpt>
      <trkpt lat="47.550151" lon="7.882605">
        <ele>360.721277</ele>
        <time>2024-10-16T18:05:11.085Z</time>
      </trkpt>
      <trkpt lat="47.549927" lon="7.881490">
        <ele>363.506194</ele>
        <time>2024-10-16T18:05:31.809Z</time>
      </trkpt>
      <trkpt lat="47.549724" lon="7.880784">
        <ele>365.343261</ele>
        <time>2024-10-16T18:05:47.073Z</time>
      </trkpt>
      <trkpt lat="47.549329" lon="7.879567">
        <ele>369.221292</ele>
        <time>2024-10-16T18:06:18.542Z</time>
      </trkpt>
      <trkpt lat="47.549315" lon="7.879410">
        <ele>369.679428</ele>
        <time>2024-10-16T18:06:22.081Z</time>
      </trkpt>
      <trkpt lat="47.548907" lon="7.879350">
        <ele>371.436753</ele>
        <time>2024-10-16T18:06:36.081Z</time>
      </trkpt>
      <trkpt lat="47.548718" lon="7.879258">
        <ele>372.289429</ele>
        <time>2024-10-16T18:06:42.273Z</time>
      </trkpt>
      <trkpt lat="47.548524" lon="7.879079">
        <ele>373.202822</ele>
        <time>2024-10-16T18:06:48.736Z</time>
      </trkpt>
      <trkpt lat="47.548422" lon="7.878959">
        <ele>373.296520</ele>
        <time>2024-10-16T18:06:52.313Z</time>
      </trkpt>
      <trkpt lat="47.548234" lon="7.878638">
        <ele>373.502883</ele>
        <time>2024-10-16T18:06:59.575Z</time>
      </trkpt>
      <trkpt lat="47.547992" lon="7.877974">
        <ele>373.869298</ele>
        <time>2024-10-16T18:07:10.958Z</time>
      </trkpt>
      <trkpt lat="47.547574" lon="7.876801">
        <ele>374.326307</ele>
        <time>2024-10-16T18:07:22.321Z</time>
      </trkpt>
      <trkpt lat="47.547126" lon="7.875801">
        <ele>371.272388</ele>
        <time>2024-10-16T18:07:30.397Z</time>
      </trkpt>
      <trkpt lat="47.546309" lon="7.874154">
        <ele>365.039209</ele>
        <time>2024-10-16T18:07:43.556Z</time>
      </trkpt>
      <trkpt lat="47.546135" lon="7.873860">
        <ele>363.414686</ele>
        <time>2024-10-16T18:07:45.969Z</time>
      </trkpt>
      <trkpt lat="47.546077" lon="7.873763">
        <ele>362.876295</ele>
        <time>2024-10-16T18:07:46.766Z</time>
      </trkpt>
      <trkpt lat="47.545515" lon="7.873015">
        <ele>358.226106</ele>
        <time>2024-10-16T18:07:53.593Z</time>
      </trkpt>
      <trkpt lat="47.545479" lon="7.872968">
        <ele>357.930754</ele>
        <time>2024-10-16T18:07:54.027Z</time>
      </trkpt>
      <trkpt lat="47.545300" lon="7.872760">
        <ele>356.528651</ele>
        <time>2024-10-16T18:07:56.069Z</time>
      </trkpt>
      <trkpt lat="47.544883" lon="7.872555">
        <ele>353.775428</ele>
        <time>2024-10-16T18:07:59.999Z</time>
      </trkpt>
      <trkpt lat="47.544390" lon="7.872423">
        <ele>350.636021</ele>
        <time>2024-10-16T18:08:04.494Z</time>
      </trkpt>
      <trkpt lat="47.543332" lon="7.872237">
        <ele>345.361015</ele>
        <time>2024-10-16T18:08:14.367Z</time>
      </trkpt>
      <trkpt lat="47.543251" lon="7.872152">
        <ele>345.361015</ele>
        <time>2024-10-16T18:08:15.328Z</time>
      </trkpt>
      <trkpt lat="47.543233" lon="7.872083">
        <ele>345.361015</ele>
        <time>2024-10-16T18:08:15.794Z</time>
      </trkpt>
      <trkpt lat="47.542919" lon="7.872226">
        <ele>345.361015</ele>
        <time>2024-10-16T18:08:19.065Z</time>
      </trkpt>
      <trkpt lat="47.542814" lon="7.872280">
        <ele>345.361015</ele>
        <time>2024-10-16T18:08:20.170Z</time>
      </trkpt>
      <trkpt lat="47.542436" lon="7.872494">
        <ele>345.361015</ele>
        <time>2024-10-16T18:08:24.395Z</time>
      </trkpt>
      <trkpt lat="47.542352" lon="7.872540">
        <ele>345.361015</ele>
        <time>2024-10-16T18:08:25.461Z</time>
      </trkpt>
      <trkpt lat="47.542017" lon="7.872726">
        <ele>345.361015</ele>
        <time>2024-10-16T18:08:29.449Z</time>
      </trkpt>
      <trkpt lat="47.541949" lon="7.872113">
        <ele>345.361015</ele>
        <time>2024-10-16T18:08:34.486Z</time>
      </trkpt>
      <trkpt lat="47.541499" lon="7.872208">
        <ele>345.361015</ele>
        <time>2024-10-16T18:08:42.584Z</time>
      </trkpt>
    </trkseg>
  </trk>
</gpx>